<?xml version="1.0" encoding="UTF-8" standalone="no" ?>
<gpx xmlns="http://www.topografix.com/GPX/1/1" xmlns:xsi="http://www.w3.org/2001/XMLSchema-instance" xsi:schemaLocation="http://www.topografix.com/GPX/1/1 http://www.topografix.com/GPX/1/1/gpx.xsd" version="1.1" creator="VisuGPX - https://www.visugpx.com">
  <metadata>
    <name>Groisy</name>
    <desc><![CDATA[Super Parcours]]></desc>
  </metadata>
  <trk>
    <name><![CDATA[Groisy]]></name>
    <trkseg>
      <trkpt lat="46.1929" lon="6.25019">
        <ele>203.8</ele>
        <time>2022-02-10T11:55:23Z</time>
      </trkpt>
      <trkpt lat="46.1929" lon="6.25019">
        <ele>453.2</ele>
        <time>2022-02-10T11:55:33Z</time>
      </trkpt>
      <trkpt lat="46.19285" lon="6.25007">
        <ele>453.2</ele>
        <time>2022-02-10T11:55:44Z</time>
      </trkpt>
      <trkpt lat="46.19284" lon="6.25004">
        <ele>453.4</ele>
        <time>2022-02-10T11:55:48Z</time>
      </trkpt>
      <trkpt lat="46.19282" lon="6.25002">
        <ele>453.4</ele>
        <time>2022-02-10T11:55:57Z</time>
      </trkpt>
      <trkpt lat="46.19284" lon="6.25005">
        <ele>453.4</ele>
        <time>2022-02-10T11:56:04Z</time>
      </trkpt>
      <trkpt lat="46.19284" lon="6.25005">
        <ele>453.4</ele>
        <time>2022-02-10T11:56:05Z</time>
      </trkpt>
      <trkpt lat="46.19285" lon="6.2501">
        <ele>453.2</ele>
        <time>2022-02-10T11:56:13Z</time>
      </trkpt>
      <trkpt lat="46.19286" lon="6.25013">
        <ele>453</ele>
        <time>2022-02-10T11:56:25Z</time>
      </trkpt>
      <trkpt lat="46.19286" lon="6.25013">
        <ele>453</ele>
        <time>2022-02-10T11:56:27Z</time>
      </trkpt>
      <trkpt lat="46.19287" lon="6.25013">
        <ele>452.8</ele>
        <time>2022-02-10T11:56:33Z</time>
      </trkpt>
      <trkpt lat="46.19287" lon="6.25013">
        <ele>453</ele>
        <time>2022-02-10T11:56:36Z</time>
      </trkpt>
      <trkpt lat="46.19287" lon="6.25013">
        <ele>453</ele>
        <time>2022-02-10T11:56:47Z</time>
      </trkpt>
      <trkpt lat="46.19287" lon="6.25013">
        <ele>453.2</ele>
        <time>2022-02-10T11:56:58Z</time>
      </trkpt>
      <trkpt lat="46.19287" lon="6.25013">
        <ele>453.2</ele>
        <time>2022-02-10T11:56:59Z</time>
      </trkpt>
      <trkpt lat="46.19288" lon="6.25013">
        <ele>453</ele>
        <time>2022-02-10T11:57:06Z</time>
      </trkpt>
      <trkpt lat="46.19288" lon="6.25013">
        <ele>453.2</ele>
        <time>2022-02-10T11:57:18Z</time>
      </trkpt>
      <trkpt lat="46.19288" lon="6.25013">
        <ele>453.2</ele>
        <time>2022-02-10T11:57:27Z</time>
      </trkpt>
      <trkpt lat="46.19288" lon="6.25013">
        <ele>453.4</ele>
        <time>2022-02-10T11:57:41Z</time>
      </trkpt>
      <trkpt lat="46.19288" lon="6.25013">
        <ele>453.4</ele>
        <time>2022-02-10T11:57:44Z</time>
      </trkpt>
      <trkpt lat="46.19288" lon="6.25013">
        <ele>453.6</ele>
        <time>2022-02-10T11:57:48Z</time>
      </trkpt>
      <trkpt lat="46.19287" lon="6.25013">
        <ele>453.4</ele>
        <time>2022-02-10T11:58:00Z</time>
      </trkpt>
      <trkpt lat="46.19287" lon="6.25013">
        <ele>453.4</ele>
        <time>2022-02-10T11:58:03Z</time>
      </trkpt>
      <trkpt lat="46.19285" lon="6.25015">
        <ele>453.6</ele>
        <time>2022-02-10T11:58:07Z</time>
      </trkpt>
      <trkpt lat="46.19285" lon="6.25017">
        <ele>453.4</ele>
        <time>2022-02-10T11:58:08Z</time>
      </trkpt>
      <trkpt lat="46.19283" lon="6.25028">
        <ele>453.6</ele>
        <time>2022-02-10T11:58:12Z</time>
      </trkpt>
      <trkpt lat="46.19283" lon="6.25031">
        <ele>453.8</ele>
        <time>2022-02-10T11:58:13Z</time>
      </trkpt>
      <trkpt lat="46.19281" lon="6.25045">
        <ele>453.8</ele>
        <time>2022-02-10T11:58:16Z</time>
      </trkpt>
      <trkpt lat="46.19281" lon="6.2505">
        <ele>453.8</ele>
        <time>2022-02-10T11:58:17Z</time>
      </trkpt>
      <trkpt lat="46.19277" lon="6.25076">
        <ele>454</ele>
        <time>2022-02-10T11:58:22Z</time>
      </trkpt>
      <trkpt lat="46.19277" lon="6.25079">
        <ele>454.2</ele>
        <time>2022-02-10T11:58:23Z</time>
      </trkpt>
      <trkpt lat="46.19278" lon="6.25081">
        <ele>454.2</ele>
        <time>2022-02-10T11:58:25Z</time>
      </trkpt>
      <trkpt lat="46.19278" lon="6.25084">
        <ele>454.8</ele>
        <time>2022-02-10T11:58:30Z</time>
      </trkpt>
      <trkpt lat="46.19278" lon="6.25089">
        <ele>456</ele>
        <time>2022-02-10T11:58:33Z</time>
      </trkpt>
      <trkpt lat="46.19278" lon="6.2509">
        <ele>456.2</ele>
        <time>2022-02-10T11:58:37Z</time>
      </trkpt>
      <trkpt lat="46.19279" lon="6.25092">
        <ele>456.4</ele>
        <time>2022-02-10T11:58:41Z</time>
      </trkpt>
      <trkpt lat="46.19279" lon="6.25093">
        <ele>456.2</ele>
        <time>2022-02-10T11:58:42Z</time>
      </trkpt>
      <trkpt lat="46.19279" lon="6.25095">
        <ele>456.4</ele>
        <time>2022-02-10T11:58:43Z</time>
      </trkpt>
      <trkpt lat="46.19278" lon="6.25102">
        <ele>456.2</ele>
        <time>2022-02-10T11:58:46Z</time>
      </trkpt>
      <trkpt lat="46.19268" lon="6.25105">
        <ele>456.2</ele>
        <time>2022-02-10T11:58:50Z</time>
      </trkpt>
      <trkpt lat="46.19261" lon="6.25106">
        <ele>456</ele>
        <time>2022-02-10T11:58:52Z</time>
      </trkpt>
      <trkpt lat="46.19244" lon="6.25108">
        <ele>456</ele>
        <time>2022-02-10T11:58:56Z</time>
      </trkpt>
      <trkpt lat="46.19215" lon="6.2511">
        <ele>456</ele>
        <time>2022-02-10T11:59:02Z</time>
      </trkpt>
      <trkpt lat="46.1921" lon="6.25108">
        <ele>456</ele>
        <time>2022-02-10T11:59:03Z</time>
      </trkpt>
      <trkpt lat="46.19205" lon="6.25105">
        <ele>456.2</ele>
        <time>2022-02-10T11:59:04Z</time>
      </trkpt>
      <trkpt lat="46.19198" lon="6.25094">
        <ele>456</ele>
        <time>2022-02-10T11:59:06Z</time>
      </trkpt>
      <trkpt lat="46.19195" lon="6.25087">
        <ele>456</ele>
        <time>2022-02-10T11:59:07Z</time>
      </trkpt>
      <trkpt lat="46.19188" lon="6.25075">
        <ele>456.4</ele>
        <time>2022-02-10T11:59:09Z</time>
      </trkpt>
      <trkpt lat="46.19178" lon="6.2507">
        <ele>456.8</ele>
        <time>2022-02-10T11:59:11Z</time>
      </trkpt>
      <trkpt lat="46.19166" lon="6.25065">
        <ele>457</ele>
        <time>2022-02-10T11:59:13Z</time>
      </trkpt>
      <trkpt lat="46.19154" lon="6.25057">
        <ele>457.4</ele>
        <time>2022-02-10T11:59:15Z</time>
      </trkpt>
      <trkpt lat="46.19141" lon="6.25054">
        <ele>457.6</ele>
        <time>2022-02-10T11:59:17Z</time>
      </trkpt>
      <trkpt lat="46.19135" lon="6.25056">
        <ele>457.6</ele>
        <time>2022-02-10T11:59:18Z</time>
      </trkpt>
      <trkpt lat="46.19129" lon="6.25061">
        <ele>457.6</ele>
        <time>2022-02-10T11:59:19Z</time>
      </trkpt>
      <trkpt lat="46.19123" lon="6.25074">
        <ele>457.8</ele>
        <time>2022-02-10T11:59:21Z</time>
      </trkpt>
      <trkpt lat="46.19115" lon="6.25097">
        <ele>458</ele>
        <time>2022-02-10T11:59:24Z</time>
      </trkpt>
      <trkpt lat="46.19105" lon="6.25108">
        <ele>458.2</ele>
        <time>2022-02-10T11:59:26Z</time>
      </trkpt>
      <trkpt lat="46.19099" lon="6.25113">
        <ele>458.2</ele>
        <time>2022-02-10T11:59:27Z</time>
      </trkpt>
      <trkpt lat="46.19092" lon="6.25116">
        <ele>458.4</ele>
        <time>2022-02-10T11:59:28Z</time>
      </trkpt>
      <trkpt lat="46.19084" lon="6.25118">
        <ele>458</ele>
        <time>2022-02-10T11:59:29Z</time>
      </trkpt>
      <trkpt lat="46.19076" lon="6.25119">
        <ele>458</ele>
        <time>2022-02-10T11:59:30Z</time>
      </trkpt>
      <trkpt lat="46.19059" lon="6.25115">
        <ele>457.8</ele>
        <time>2022-02-10T11:59:32Z</time>
      </trkpt>
      <trkpt lat="46.19045" lon="6.25107">
        <ele>457.6</ele>
        <time>2022-02-10T11:59:34Z</time>
      </trkpt>
      <trkpt lat="46.19034" lon="6.25095">
        <ele>457.4</ele>
        <time>2022-02-10T11:59:36Z</time>
      </trkpt>
      <trkpt lat="46.19024" lon="6.25087">
        <ele>456.6</ele>
        <time>2022-02-10T11:59:38Z</time>
      </trkpt>
      <trkpt lat="46.19018" lon="6.25085">
        <ele>456.4</ele>
        <time>2022-02-10T11:59:39Z</time>
      </trkpt>
      <trkpt lat="46.18996" lon="6.25076">
        <ele>456.2</ele>
        <time>2022-02-10T11:59:43Z</time>
      </trkpt>
      <trkpt lat="46.18991" lon="6.25074">
        <ele>456.4</ele>
        <time>2022-02-10T11:59:44Z</time>
      </trkpt>
      <trkpt lat="46.1897" lon="6.25071">
        <ele>456.2</ele>
        <time>2022-02-10T11:59:48Z</time>
      </trkpt>
      <trkpt lat="46.18965" lon="6.2507">
        <ele>456.2</ele>
        <time>2022-02-10T11:59:49Z</time>
      </trkpt>
      <trkpt lat="46.1896" lon="6.2507">
        <ele>456.4</ele>
        <time>2022-02-10T11:59:50Z</time>
      </trkpt>
      <trkpt lat="46.18918" lon="6.25073">
        <ele>459</ele>
        <time>2022-02-10T11:59:58Z</time>
      </trkpt>
      <trkpt lat="46.18878" lon="6.25077">
        <ele>460.2</ele>
        <time>2022-02-10T12:00:05Z</time>
      </trkpt>
      <trkpt lat="46.18866" lon="6.25076">
        <ele>460.6</ele>
        <time>2022-02-10T12:00:07Z</time>
      </trkpt>
      <trkpt lat="46.18826" lon="6.25075">
        <ele>461.2</ele>
        <time>2022-02-10T12:00:14Z</time>
      </trkpt>
      <trkpt lat="46.1878" lon="6.25082">
        <ele>462.6</ele>
        <time>2022-02-10T12:00:22Z</time>
      </trkpt>
      <trkpt lat="46.18768" lon="6.25085">
        <ele>463</ele>
        <time>2022-02-10T12:00:24Z</time>
      </trkpt>
      <trkpt lat="46.1874" lon="6.25097">
        <ele>463.6</ele>
        <time>2022-02-10T12:00:29Z</time>
      </trkpt>
      <trkpt lat="46.18718" lon="6.25106">
        <ele>463.8</ele>
        <time>2022-02-10T12:00:33Z</time>
      </trkpt>
      <trkpt lat="46.18696" lon="6.25115">
        <ele>464.4</ele>
        <time>2022-02-10T12:00:37Z</time>
      </trkpt>
      <trkpt lat="46.18669" lon="6.25128">
        <ele>465.2</ele>
        <time>2022-02-10T12:00:42Z</time>
      </trkpt>
      <trkpt lat="46.18647" lon="6.25136">
        <ele>465.8</ele>
        <time>2022-02-10T12:00:46Z</time>
      </trkpt>
      <trkpt lat="46.18595" lon="6.2516">
        <ele>467</ele>
        <time>2022-02-10T12:00:55Z</time>
      </trkpt>
      <trkpt lat="46.18591" lon="6.2516">
        <ele>467.2</ele>
        <time>2022-02-10T12:00:56Z</time>
      </trkpt>
      <trkpt lat="46.18572" lon="6.25163">
        <ele>467.8</ele>
        <time>2022-02-10T12:01:00Z</time>
      </trkpt>
      <trkpt lat="46.18544" lon="6.25166">
        <ele>468.6</ele>
        <time>2022-02-10T12:01:06Z</time>
      </trkpt>
      <trkpt lat="46.18515" lon="6.25173">
        <ele>469.2</ele>
        <time>2022-02-10T12:01:12Z</time>
      </trkpt>
      <trkpt lat="46.18505" lon="6.25175">
        <ele>469.4</ele>
        <time>2022-02-10T12:01:14Z</time>
      </trkpt>
      <trkpt lat="46.18447" lon="6.25189">
        <ele>471.2</ele>
        <time>2022-02-10T12:01:25Z</time>
      </trkpt>
      <trkpt lat="46.18441" lon="6.25191">
        <ele>471.2</ele>
        <time>2022-02-10T12:01:26Z</time>
      </trkpt>
      <trkpt lat="46.18395" lon="6.25212">
        <ele>472.4</ele>
        <time>2022-02-10T12:01:35Z</time>
      </trkpt>
      <trkpt lat="46.18376" lon="6.25224">
        <ele>472.6</ele>
        <time>2022-02-10T12:01:39Z</time>
      </trkpt>
      <trkpt lat="46.18353" lon="6.25239">
        <ele>473.4</ele>
        <time>2022-02-10T12:01:44Z</time>
      </trkpt>
      <trkpt lat="46.18339" lon="6.25249">
        <ele>474</ele>
        <time>2022-02-10T12:01:47Z</time>
      </trkpt>
      <trkpt lat="46.18314" lon="6.25267">
        <ele>475</ele>
        <time>2022-02-10T12:01:53Z</time>
      </trkpt>
      <trkpt lat="46.18301" lon="6.25277">
        <ele>475.8</ele>
        <time>2022-02-10T12:01:56Z</time>
      </trkpt>
      <trkpt lat="46.18267" lon="6.25301">
        <ele>477.6</ele>
        <time>2022-02-10T12:02:04Z</time>
      </trkpt>
      <trkpt lat="46.18254" lon="6.2531">
        <ele>478.2</ele>
        <time>2022-02-10T12:02:07Z</time>
      </trkpt>
      <trkpt lat="46.18236" lon="6.2532">
        <ele>479</ele>
        <time>2022-02-10T12:02:11Z</time>
      </trkpt>
      <trkpt lat="46.18212" lon="6.25334">
        <ele>479.8</ele>
        <time>2022-02-10T12:02:16Z</time>
      </trkpt>
      <trkpt lat="46.18198" lon="6.25342">
        <ele>480.4</ele>
        <time>2022-02-10T12:02:19Z</time>
      </trkpt>
      <trkpt lat="46.18155" lon="6.25369">
        <ele>481.2</ele>
        <time>2022-02-10T12:02:28Z</time>
      </trkpt>
      <trkpt lat="46.1812" lon="6.2539">
        <ele>482</ele>
        <time>2022-02-10T12:02:35Z</time>
      </trkpt>
      <trkpt lat="46.18078" lon="6.25421">
        <ele>482.8</ele>
        <time>2022-02-10T12:02:44Z</time>
      </trkpt>
      <trkpt lat="46.18067" lon="6.25435">
        <ele>483</ele>
        <time>2022-02-10T12:02:47Z</time>
      </trkpt>
      <trkpt lat="46.18057" lon="6.2545">
        <ele>483.2</ele>
        <time>2022-02-10T12:02:50Z</time>
      </trkpt>
      <trkpt lat="46.18033" lon="6.25485">
        <ele>485.2</ele>
        <time>2022-02-10T12:02:57Z</time>
      </trkpt>
      <trkpt lat="46.1803" lon="6.25489">
        <ele>485.6</ele>
        <time>2022-02-10T12:02:58Z</time>
      </trkpt>
      <trkpt lat="46.17998" lon="6.25521">
        <ele>487.8</ele>
        <time>2022-02-10T12:03:06Z</time>
      </trkpt>
      <trkpt lat="46.17964" lon="6.25541">
        <ele>489.2</ele>
        <time>2022-02-10T12:03:13Z</time>
      </trkpt>
      <trkpt lat="46.17953" lon="6.25546">
        <ele>489.4</ele>
        <time>2022-02-10T12:03:15Z</time>
      </trkpt>
      <trkpt lat="46.17921" lon="6.25554">
        <ele>489.4</ele>
        <time>2022-02-10T12:03:20Z</time>
      </trkpt>
      <trkpt lat="46.179" lon="6.25557">
        <ele>489</ele>
        <time>2022-02-10T12:03:23Z</time>
      </trkpt>
      <trkpt lat="46.17885" lon="6.25558">
        <ele>488.8</ele>
        <time>2022-02-10T12:03:25Z</time>
      </trkpt>
      <trkpt lat="46.17877" lon="6.25558">
        <ele>488.6</ele>
        <time>2022-02-10T12:03:26Z</time>
      </trkpt>
      <trkpt lat="46.17853" lon="6.25554">
        <ele>488</ele>
        <time>2022-02-10T12:03:29Z</time>
      </trkpt>
      <trkpt lat="46.17845" lon="6.25552">
        <ele>487.4</ele>
        <time>2022-02-10T12:03:30Z</time>
      </trkpt>
      <trkpt lat="46.17812" lon="6.2555">
        <ele>486</ele>
        <time>2022-02-10T12:03:34Z</time>
      </trkpt>
      <trkpt lat="46.17804" lon="6.25551">
        <ele>485.4</ele>
        <time>2022-02-10T12:03:35Z</time>
      </trkpt>
      <trkpt lat="46.17773" lon="6.25554">
        <ele>484.4</ele>
        <time>2022-02-10T12:03:39Z</time>
      </trkpt>
      <trkpt lat="46.17742" lon="6.25563">
        <ele>483.8</ele>
        <time>2022-02-10T12:03:43Z</time>
      </trkpt>
      <trkpt lat="46.17697" lon="6.25587">
        <ele>483.2</ele>
        <time>2022-02-10T12:03:50Z</time>
      </trkpt>
      <trkpt lat="46.17668" lon="6.25604">
        <ele>483.2</ele>
        <time>2022-02-10T12:03:55Z</time>
      </trkpt>
      <trkpt lat="46.17656" lon="6.2561">
        <ele>483.4</ele>
        <time>2022-02-10T12:03:57Z</time>
      </trkpt>
      <trkpt lat="46.17611" lon="6.25634">
        <ele>485</ele>
        <time>2022-02-10T12:04:05Z</time>
      </trkpt>
      <trkpt lat="46.176" lon="6.2564">
        <ele>485.2</ele>
        <time>2022-02-10T12:04:07Z</time>
      </trkpt>
      <trkpt lat="46.17557" lon="6.25663">
        <ele>486.6</ele>
        <time>2022-02-10T12:04:15Z</time>
      </trkpt>
      <trkpt lat="46.17534" lon="6.25682">
        <ele>487.4</ele>
        <time>2022-02-10T12:04:20Z</time>
      </trkpt>
      <trkpt lat="46.1753" lon="6.25685">
        <ele>487.4</ele>
        <time>2022-02-10T12:04:21Z</time>
      </trkpt>
      <trkpt lat="46.17514" lon="6.25699">
        <ele>488.2</ele>
        <time>2022-02-10T12:04:25Z</time>
      </trkpt>
      <trkpt lat="46.17499" lon="6.25711">
        <ele>489</ele>
        <time>2022-02-10T12:04:29Z</time>
      </trkpt>
      <trkpt lat="46.17495" lon="6.25714">
        <ele>489.4</ele>
        <time>2022-02-10T12:04:30Z</time>
      </trkpt>
      <trkpt lat="46.17474" lon="6.25735">
        <ele>491.4</ele>
        <time>2022-02-10T12:04:36Z</time>
      </trkpt>
      <trkpt lat="46.17467" lon="6.25741">
        <ele>492</ele>
        <time>2022-02-10T12:04:38Z</time>
      </trkpt>
      <trkpt lat="46.17453" lon="6.25752">
        <ele>492.8</ele>
        <time>2022-02-10T12:04:42Z</time>
      </trkpt>
      <trkpt lat="46.17442" lon="6.25762">
        <ele>493.6</ele>
        <time>2022-02-10T12:04:45Z</time>
      </trkpt>
      <trkpt lat="46.17439" lon="6.25767">
        <ele>493.8</ele>
        <time>2022-02-10T12:04:46Z</time>
      </trkpt>
      <trkpt lat="46.1743" lon="6.25779">
        <ele>494.8</ele>
        <time>2022-02-10T12:04:49Z</time>
      </trkpt>
      <trkpt lat="46.17427" lon="6.25782">
        <ele>495</ele>
        <time>2022-02-10T12:04:50Z</time>
      </trkpt>
      <trkpt lat="46.17421" lon="6.25787">
        <ele>495.8</ele>
        <time>2022-02-10T12:04:52Z</time>
      </trkpt>
      <trkpt lat="46.17417" lon="6.25793">
        <ele>496.4</ele>
        <time>2022-02-10T12:04:54Z</time>
      </trkpt>
      <trkpt lat="46.17416" lon="6.25799">
        <ele>496.4</ele>
        <time>2022-02-10T12:04:55Z</time>
      </trkpt>
      <trkpt lat="46.17414" lon="6.25817">
        <ele>497</ele>
        <time>2022-02-10T12:04:58Z</time>
      </trkpt>
      <trkpt lat="46.17413" lon="6.25823">
        <ele>497</ele>
        <time>2022-02-10T12:04:59Z</time>
      </trkpt>
      <trkpt lat="46.17409" lon="6.25835">
        <ele>497.2</ele>
        <time>2022-02-10T12:05:01Z</time>
      </trkpt>
      <trkpt lat="46.17406" lon="6.2584">
        <ele>497.2</ele>
        <time>2022-02-10T12:05:02Z</time>
      </trkpt>
      <trkpt lat="46.17402" lon="6.25845">
        <ele>497.2</ele>
        <time>2022-02-10T12:05:03Z</time>
      </trkpt>
      <trkpt lat="46.17392" lon="6.25855">
        <ele>497.4</ele>
        <time>2022-02-10T12:05:05Z</time>
      </trkpt>
      <trkpt lat="46.17382" lon="6.25867">
        <ele>497.4</ele>
        <time>2022-02-10T12:05:07Z</time>
      </trkpt>
      <trkpt lat="46.17372" lon="6.2588">
        <ele>497.2</ele>
        <time>2022-02-10T12:05:09Z</time>
      </trkpt>
      <trkpt lat="46.17367" lon="6.25887">
        <ele>497</ele>
        <time>2022-02-10T12:05:10Z</time>
      </trkpt>
      <trkpt lat="46.17363" lon="6.25895">
        <ele>497</ele>
        <time>2022-02-10T12:05:11Z</time>
      </trkpt>
      <trkpt lat="46.17359" lon="6.25904">
        <ele>496.8</ele>
        <time>2022-02-10T12:05:12Z</time>
      </trkpt>
      <trkpt lat="46.17351" lon="6.25923">
        <ele>496.6</ele>
        <time>2022-02-10T12:05:14Z</time>
      </trkpt>
      <trkpt lat="46.17339" lon="6.25953">
        <ele>495.2</ele>
        <time>2022-02-10T12:05:17Z</time>
      </trkpt>
      <trkpt lat="46.17335" lon="6.25962">
        <ele>494.8</ele>
        <time>2022-02-10T12:05:18Z</time>
      </trkpt>
      <trkpt lat="46.17314" lon="6.26006">
        <ele>492.8</ele>
        <time>2022-02-10T12:05:23Z</time>
      </trkpt>
      <trkpt lat="46.17294" lon="6.2605">
        <ele>492.6</ele>
        <time>2022-02-10T12:05:28Z</time>
      </trkpt>
      <trkpt lat="46.17289" lon="6.26057">
        <ele>492.4</ele>
        <time>2022-02-10T12:05:29Z</time>
      </trkpt>
      <trkpt lat="46.17277" lon="6.26076">
        <ele>492.6</ele>
        <time>2022-02-10T12:05:32Z</time>
      </trkpt>
      <trkpt lat="46.17272" lon="6.26089">
        <ele>492.6</ele>
        <time>2022-02-10T12:05:34Z</time>
      </trkpt>
      <trkpt lat="46.17268" lon="6.26094">
        <ele>492.6</ele>
        <time>2022-02-10T12:05:35Z</time>
      </trkpt>
      <trkpt lat="46.17261" lon="6.26103">
        <ele>493.2</ele>
        <time>2022-02-10T12:05:37Z</time>
      </trkpt>
      <trkpt lat="46.17252" lon="6.26128">
        <ele>494.2</ele>
        <time>2022-02-10T12:05:41Z</time>
      </trkpt>
      <trkpt lat="46.17249" lon="6.26133">
        <ele>494.6</ele>
        <time>2022-02-10T12:05:42Z</time>
      </trkpt>
      <trkpt lat="46.1724" lon="6.2615">
        <ele>496</ele>
        <time>2022-02-10T12:05:45Z</time>
      </trkpt>
      <trkpt lat="46.1723" lon="6.26167">
        <ele>497.4</ele>
        <time>2022-02-10T12:05:48Z</time>
      </trkpt>
      <trkpt lat="46.17219" lon="6.26185">
        <ele>498.2</ele>
        <time>2022-02-10T12:05:51Z</time>
      </trkpt>
      <trkpt lat="46.17215" lon="6.26191">
        <ele>498.6</ele>
        <time>2022-02-10T12:05:52Z</time>
      </trkpt>
      <trkpt lat="46.17211" lon="6.26198">
        <ele>498.6</ele>
        <time>2022-02-10T12:05:53Z</time>
      </trkpt>
      <trkpt lat="46.17207" lon="6.26205">
        <ele>498.8</ele>
        <time>2022-02-10T12:05:54Z</time>
      </trkpt>
      <trkpt lat="46.17183" lon="6.26246">
        <ele>499</ele>
        <time>2022-02-10T12:06:00Z</time>
      </trkpt>
      <trkpt lat="46.17178" lon="6.26252">
        <ele>499.2</ele>
        <time>2022-02-10T12:06:01Z</time>
      </trkpt>
      <trkpt lat="46.17151" lon="6.26296">
        <ele>499</ele>
        <time>2022-02-10T12:06:07Z</time>
      </trkpt>
      <trkpt lat="46.17146" lon="6.26304">
        <ele>498.8</ele>
        <time>2022-02-10T12:06:08Z</time>
      </trkpt>
      <trkpt lat="46.17131" lon="6.26327">
        <ele>498.8</ele>
        <time>2022-02-10T12:06:11Z</time>
      </trkpt>
      <trkpt lat="46.17113" lon="6.26357">
        <ele>498.4</ele>
        <time>2022-02-10T12:06:15Z</time>
      </trkpt>
      <trkpt lat="46.17089" lon="6.26397">
        <ele>497.6</ele>
        <time>2022-02-10T12:06:21Z</time>
      </trkpt>
      <trkpt lat="46.17079" lon="6.26413">
        <ele>497.6</ele>
        <time>2022-02-10T12:06:25Z</time>
      </trkpt>
      <trkpt lat="46.17064" lon="6.26438">
        <ele>497.4</ele>
        <time>2022-02-10T12:06:29Z</time>
      </trkpt>
      <trkpt lat="46.17061" lon="6.26444">
        <ele>497.2</ele>
        <time>2022-02-10T12:06:30Z</time>
      </trkpt>
      <trkpt lat="46.17056" lon="6.26451">
        <ele>497.2</ele>
        <time>2022-02-10T12:06:31Z</time>
      </trkpt>
      <trkpt lat="46.17047" lon="6.26466">
        <ele>497.2</ele>
        <time>2022-02-10T12:06:33Z</time>
      </trkpt>
      <trkpt lat="46.17036" lon="6.26484">
        <ele>497</ele>
        <time>2022-02-10T12:06:35Z</time>
      </trkpt>
      <trkpt lat="46.1703" lon="6.26494">
        <ele>496.8</ele>
        <time>2022-02-10T12:06:36Z</time>
      </trkpt>
      <trkpt lat="46.17018" lon="6.26514">
        <ele>496.6</ele>
        <time>2022-02-10T12:06:38Z</time>
      </trkpt>
      <trkpt lat="46.17012" lon="6.26525">
        <ele>496</ele>
        <time>2022-02-10T12:06:39Z</time>
      </trkpt>
      <trkpt lat="46.17005" lon="6.26536">
        <ele>495.8</ele>
        <time>2022-02-10T12:06:40Z</time>
      </trkpt>
      <trkpt lat="46.16991" lon="6.26559">
        <ele>494.6</ele>
        <time>2022-02-10T12:06:42Z</time>
      </trkpt>
      <trkpt lat="46.16977" lon="6.26583">
        <ele>493.8</ele>
        <time>2022-02-10T12:06:44Z</time>
      </trkpt>
      <trkpt lat="46.16957" lon="6.26616">
        <ele>491</ele>
        <time>2022-02-10T12:06:47Z</time>
      </trkpt>
      <trkpt lat="46.16944" lon="6.26637">
        <ele>488.4</ele>
        <time>2022-02-10T12:06:49Z</time>
      </trkpt>
      <trkpt lat="46.1692" lon="6.26675">
        <ele>485.6</ele>
        <time>2022-02-10T12:06:53Z</time>
      </trkpt>
      <trkpt lat="46.16906" lon="6.26706">
        <ele>484.8</ele>
        <time>2022-02-10T12:06:56Z</time>
      </trkpt>
      <trkpt lat="46.16903" lon="6.26717">
        <ele>484.8</ele>
        <time>2022-02-10T12:06:57Z</time>
      </trkpt>
      <trkpt lat="46.169" lon="6.26729">
        <ele>484.6</ele>
        <time>2022-02-10T12:06:58Z</time>
      </trkpt>
      <trkpt lat="46.16899" lon="6.2674">
        <ele>484.6</ele>
        <time>2022-02-10T12:06:59Z</time>
      </trkpt>
      <trkpt lat="46.16898" lon="6.26765">
        <ele>484.4</ele>
        <time>2022-02-10T12:07:01Z</time>
      </trkpt>
      <trkpt lat="46.16898" lon="6.26777">
        <ele>484.4</ele>
        <time>2022-02-10T12:07:02Z</time>
      </trkpt>
      <trkpt lat="46.16895" lon="6.268">
        <ele>484.2</ele>
        <time>2022-02-10T12:07:04Z</time>
      </trkpt>
      <trkpt lat="46.16889" lon="6.26821">
        <ele>484</ele>
        <time>2022-02-10T12:07:06Z</time>
      </trkpt>
      <trkpt lat="46.16885" lon="6.26832">
        <ele>484</ele>
        <time>2022-02-10T12:07:07Z</time>
      </trkpt>
      <trkpt lat="46.16869" lon="6.26862">
        <ele>483.6</ele>
        <time>2022-02-10T12:07:10Z</time>
      </trkpt>
      <trkpt lat="46.16849" lon="6.26888">
        <ele>483.6</ele>
        <time>2022-02-10T12:07:13Z</time>
      </trkpt>
      <trkpt lat="46.16841" lon="6.26896">
        <ele>483.4</ele>
        <time>2022-02-10T12:07:14Z</time>
      </trkpt>
      <trkpt lat="46.16832" lon="6.26902">
        <ele>483.2</ele>
        <time>2022-02-10T12:07:15Z</time>
      </trkpt>
      <trkpt lat="46.16823" lon="6.26909">
        <ele>483.2</ele>
        <time>2022-02-10T12:07:16Z</time>
      </trkpt>
      <trkpt lat="46.16814" lon="6.26914">
        <ele>483</ele>
        <time>2022-02-10T12:07:17Z</time>
      </trkpt>
      <trkpt lat="46.16804" lon="6.2692">
        <ele>482.6</ele>
        <time>2022-02-10T12:07:18Z</time>
      </trkpt>
      <trkpt lat="46.16795" lon="6.26926">
        <ele>482.4</ele>
        <time>2022-02-10T12:07:19Z</time>
      </trkpt>
      <trkpt lat="46.16776" lon="6.26939">
        <ele>481.6</ele>
        <time>2022-02-10T12:07:21Z</time>
      </trkpt>
      <trkpt lat="46.16759" lon="6.26955">
        <ele>480.4</ele>
        <time>2022-02-10T12:07:23Z</time>
      </trkpt>
      <trkpt lat="46.1675" lon="6.26964">
        <ele>479.6</ele>
        <time>2022-02-10T12:07:24Z</time>
      </trkpt>
      <trkpt lat="46.16733" lon="6.26983">
        <ele>478.2</ele>
        <time>2022-02-10T12:07:26Z</time>
      </trkpt>
      <trkpt lat="46.16726" lon="6.26993">
        <ele>477.2</ele>
        <time>2022-02-10T12:07:27Z</time>
      </trkpt>
      <trkpt lat="46.16715" lon="6.27019">
        <ele>475.4</ele>
        <time>2022-02-10T12:07:29Z</time>
      </trkpt>
      <trkpt lat="46.16714" lon="6.27048">
        <ele>473.4</ele>
        <time>2022-02-10T12:07:31Z</time>
      </trkpt>
      <trkpt lat="46.16718" lon="6.27062">
        <ele>472.6</ele>
        <time>2022-02-10T12:07:32Z</time>
      </trkpt>
      <trkpt lat="46.16723" lon="6.27075">
        <ele>471.6</ele>
        <time>2022-02-10T12:07:33Z</time>
      </trkpt>
      <trkpt lat="46.16729" lon="6.27087">
        <ele>471</ele>
        <time>2022-02-10T12:07:34Z</time>
      </trkpt>
      <trkpt lat="46.16736" lon="6.27098">
        <ele>470.4</ele>
        <time>2022-02-10T12:07:35Z</time>
      </trkpt>
      <trkpt lat="46.16751" lon="6.27116">
        <ele>469.4</ele>
        <time>2022-02-10T12:07:37Z</time>
      </trkpt>
      <trkpt lat="46.16759" lon="6.27122">
        <ele>468.8</ele>
        <time>2022-02-10T12:07:38Z</time>
      </trkpt>
      <trkpt lat="46.16767" lon="6.27127">
        <ele>468.6</ele>
        <time>2022-02-10T12:07:39Z</time>
      </trkpt>
      <trkpt lat="46.16774" lon="6.27131">
        <ele>467.8</ele>
        <time>2022-02-10T12:07:40Z</time>
      </trkpt>
      <trkpt lat="46.16781" lon="6.27134">
        <ele>467</ele>
        <time>2022-02-10T12:07:41Z</time>
      </trkpt>
      <trkpt lat="46.16798" lon="6.27136">
        <ele>463.8</ele>
        <time>2022-02-10T12:07:44Z</time>
      </trkpt>
      <trkpt lat="46.16807" lon="6.27139">
        <ele>462.2</ele>
        <time>2022-02-10T12:07:47Z</time>
      </trkpt>
      <trkpt lat="46.16816" lon="6.27143">
        <ele>460.2</ele>
        <time>2022-02-10T12:07:52Z</time>
      </trkpt>
      <trkpt lat="46.16834" lon="6.27148">
        <ele>459.8</ele>
        <time>2022-02-10T12:07:56Z</time>
      </trkpt>
      <trkpt lat="46.16839" lon="6.27151">
        <ele>460</ele>
        <time>2022-02-10T12:07:57Z</time>
      </trkpt>
      <trkpt lat="46.16845" lon="6.27156">
        <ele>459.8</ele>
        <time>2022-02-10T12:07:58Z</time>
      </trkpt>
      <trkpt lat="46.16848" lon="6.27163">
        <ele>459.8</ele>
        <time>2022-02-10T12:07:59Z</time>
      </trkpt>
      <trkpt lat="46.1685" lon="6.27171">
        <ele>459.8</ele>
        <time>2022-02-10T12:08:00Z</time>
      </trkpt>
      <trkpt lat="46.1685" lon="6.27189">
        <ele>459.6</ele>
        <time>2022-02-10T12:08:02Z</time>
      </trkpt>
      <trkpt lat="46.16848" lon="6.27201">
        <ele>459.8</ele>
        <time>2022-02-10T12:08:03Z</time>
      </trkpt>
      <trkpt lat="46.1684" lon="6.27264">
        <ele>459.2</ele>
        <time>2022-02-10T12:08:09Z</time>
      </trkpt>
      <trkpt lat="46.1683" lon="6.27323">
        <ele>459</ele>
        <time>2022-02-10T12:08:15Z</time>
      </trkpt>
      <trkpt lat="46.16827" lon="6.27331">
        <ele>459</ele>
        <time>2022-02-10T12:08:16Z</time>
      </trkpt>
      <trkpt lat="46.16824" lon="6.27339">
        <ele>459</ele>
        <time>2022-02-10T12:08:17Z</time>
      </trkpt>
      <trkpt lat="46.16815" lon="6.27352">
        <ele>459</ele>
        <time>2022-02-10T12:08:19Z</time>
      </trkpt>
      <trkpt lat="46.1681" lon="6.27357">
        <ele>459</ele>
        <time>2022-02-10T12:08:20Z</time>
      </trkpt>
      <trkpt lat="46.16805" lon="6.27362">
        <ele>459.2</ele>
        <time>2022-02-10T12:08:21Z</time>
      </trkpt>
      <trkpt lat="46.16795" lon="6.27368">
        <ele>459.2</ele>
        <time>2022-02-10T12:08:23Z</time>
      </trkpt>
      <trkpt lat="46.16789" lon="6.2737">
        <ele>459.4</ele>
        <time>2022-02-10T12:08:24Z</time>
      </trkpt>
      <trkpt lat="46.16769" lon="6.27372">
        <ele>460.2</ele>
        <time>2022-02-10T12:08:28Z</time>
      </trkpt>
      <trkpt lat="46.16763" lon="6.27371">
        <ele>460.4</ele>
        <time>2022-02-10T12:08:29Z</time>
      </trkpt>
      <trkpt lat="46.16738" lon="6.27366">
        <ele>462.2</ele>
        <time>2022-02-10T12:08:34Z</time>
      </trkpt>
      <trkpt lat="46.16717" lon="6.27361">
        <ele>463</ele>
        <time>2022-02-10T12:08:38Z</time>
      </trkpt>
      <trkpt lat="46.16697" lon="6.27357">
        <ele>464</ele>
        <time>2022-02-10T12:08:42Z</time>
      </trkpt>
      <trkpt lat="46.16676" lon="6.27353">
        <ele>464.8</ele>
        <time>2022-02-10T12:08:46Z</time>
      </trkpt>
      <trkpt lat="46.16671" lon="6.27352">
        <ele>465.2</ele>
        <time>2022-02-10T12:08:47Z</time>
      </trkpt>
      <trkpt lat="46.16643" lon="6.27342">
        <ele>466.6</ele>
        <time>2022-02-10T12:08:53Z</time>
      </trkpt>
      <trkpt lat="46.16634" lon="6.27337">
        <ele>467.2</ele>
        <time>2022-02-10T12:08:55Z</time>
      </trkpt>
      <trkpt lat="46.16622" lon="6.27328">
        <ele>468.2</ele>
        <time>2022-02-10T12:08:58Z</time>
      </trkpt>
      <trkpt lat="46.16618" lon="6.27324">
        <ele>468.2</ele>
        <time>2022-02-10T12:08:59Z</time>
      </trkpt>
      <trkpt lat="46.16615" lon="6.27321">
        <ele>468.4</ele>
        <time>2022-02-10T12:09:00Z</time>
      </trkpt>
      <trkpt lat="46.16603" lon="6.27311">
        <ele>468.8</ele>
        <time>2022-02-10T12:09:03Z</time>
      </trkpt>
      <trkpt lat="46.16599" lon="6.27307">
        <ele>469</ele>
        <time>2022-02-10T12:09:04Z</time>
      </trkpt>
      <trkpt lat="46.16591" lon="6.27299">
        <ele>469</ele>
        <time>2022-02-10T12:09:06Z</time>
      </trkpt>
      <trkpt lat="46.16584" lon="6.27291">
        <ele>469.2</ele>
        <time>2022-02-10T12:09:08Z</time>
      </trkpt>
      <trkpt lat="46.16579" lon="6.27288">
        <ele>469.4</ele>
        <time>2022-02-10T12:09:09Z</time>
      </trkpt>
      <trkpt lat="46.16571" lon="6.27282">
        <ele>470.4</ele>
        <time>2022-02-10T12:09:11Z</time>
      </trkpt>
      <trkpt lat="46.16549" lon="6.27269">
        <ele>471.8</ele>
        <time>2022-02-10T12:09:16Z</time>
      </trkpt>
      <trkpt lat="46.16515" lon="6.2726">
        <ele>473.4</ele>
        <time>2022-02-10T12:09:23Z</time>
      </trkpt>
      <trkpt lat="46.16506" lon="6.27256">
        <ele>473.6</ele>
        <time>2022-02-10T12:09:25Z</time>
      </trkpt>
      <trkpt lat="46.16479" lon="6.27245">
        <ele>474.8</ele>
        <time>2022-02-10T12:09:31Z</time>
      </trkpt>
      <trkpt lat="46.1647" lon="6.27242">
        <ele>475.2</ele>
        <time>2022-02-10T12:09:33Z</time>
      </trkpt>
      <trkpt lat="46.16451" lon="6.27235">
        <ele>475.8</ele>
        <time>2022-02-10T12:09:37Z</time>
      </trkpt>
      <trkpt lat="46.16447" lon="6.27233">
        <ele>476</ele>
        <time>2022-02-10T12:09:38Z</time>
      </trkpt>
      <trkpt lat="46.16429" lon="6.27229">
        <ele>476.8</ele>
        <time>2022-02-10T12:09:42Z</time>
      </trkpt>
      <trkpt lat="46.16414" lon="6.27228">
        <ele>477.8</ele>
        <time>2022-02-10T12:09:45Z</time>
      </trkpt>
      <trkpt lat="46.164" lon="6.27231">
        <ele>478.4</ele>
        <time>2022-02-10T12:09:48Z</time>
      </trkpt>
      <trkpt lat="46.16386" lon="6.27237">
        <ele>479</ele>
        <time>2022-02-10T12:09:51Z</time>
      </trkpt>
      <trkpt lat="46.16378" lon="6.27243">
        <ele>479.4</ele>
        <time>2022-02-10T12:09:53Z</time>
      </trkpt>
      <trkpt lat="46.16362" lon="6.27258">
        <ele>480.6</ele>
        <time>2022-02-10T12:09:57Z</time>
      </trkpt>
      <trkpt lat="46.1634" lon="6.27297">
        <ele>481.6</ele>
        <time>2022-02-10T12:10:04Z</time>
      </trkpt>
      <trkpt lat="46.16318" lon="6.27359">
        <ele>482.6</ele>
        <time>2022-02-10T12:10:13Z</time>
      </trkpt>
      <trkpt lat="46.16312" lon="6.27374">
        <ele>482.8</ele>
        <time>2022-02-10T12:10:15Z</time>
      </trkpt>
      <trkpt lat="46.16294" lon="6.27421">
        <ele>482.6</ele>
        <time>2022-02-10T12:10:21Z</time>
      </trkpt>
      <trkpt lat="46.16273" lon="6.27478">
        <ele>482.6</ele>
        <time>2022-02-10T12:10:28Z</time>
      </trkpt>
      <trkpt lat="46.1627" lon="6.27486">
        <ele>482.4</ele>
        <time>2022-02-10T12:10:29Z</time>
      </trkpt>
      <trkpt lat="46.16242" lon="6.27559">
        <ele>482.6</ele>
        <time>2022-02-10T12:10:38Z</time>
      </trkpt>
      <trkpt lat="46.16228" lon="6.27589">
        <ele>482.4</ele>
        <time>2022-02-10T12:10:42Z</time>
      </trkpt>
      <trkpt lat="46.16223" lon="6.27593">
        <ele>482.4</ele>
        <time>2022-02-10T12:10:43Z</time>
      </trkpt>
      <trkpt lat="46.16217" lon="6.27596">
        <ele>482.4</ele>
        <time>2022-02-10T12:10:44Z</time>
      </trkpt>
      <trkpt lat="46.16206" lon="6.27591">
        <ele>482.4</ele>
        <time>2022-02-10T12:10:46Z</time>
      </trkpt>
      <trkpt lat="46.16196" lon="6.2758">
        <ele>482.4</ele>
        <time>2022-02-10T12:10:48Z</time>
      </trkpt>
      <trkpt lat="46.16186" lon="6.27567">
        <ele>482.4</ele>
        <time>2022-02-10T12:10:50Z</time>
      </trkpt>
      <trkpt lat="46.1615" lon="6.27529">
        <ele>481</ele>
        <time>2022-02-10T12:10:57Z</time>
      </trkpt>
      <trkpt lat="46.16144" lon="6.27525">
        <ele>481</ele>
        <time>2022-02-10T12:10:58Z</time>
      </trkpt>
      <trkpt lat="46.16099" lon="6.2749">
        <ele>481</ele>
        <time>2022-02-10T12:11:06Z</time>
      </trkpt>
      <trkpt lat="46.16046" lon="6.2745">
        <ele>480.8</ele>
        <time>2022-02-10T12:11:15Z</time>
      </trkpt>
      <trkpt lat="46.1604" lon="6.27445">
        <ele>480.8</ele>
        <time>2022-02-10T12:11:16Z</time>
      </trkpt>
      <trkpt lat="46.16004" lon="6.27406">
        <ele>481</ele>
        <time>2022-02-10T12:11:23Z</time>
      </trkpt>
      <trkpt lat="46.16" lon="6.27399">
        <ele>481</ele>
        <time>2022-02-10T12:11:24Z</time>
      </trkpt>
      <trkpt lat="46.15984" lon="6.27366">
        <ele>481</ele>
        <time>2022-02-10T12:11:28Z</time>
      </trkpt>
      <trkpt lat="46.15968" lon="6.27328">
        <ele>480.8</ele>
        <time>2022-02-10T12:11:32Z</time>
      </trkpt>
      <trkpt lat="46.1596" lon="6.27306">
        <ele>480.8</ele>
        <time>2022-02-10T12:11:34Z</time>
      </trkpt>
      <trkpt lat="46.15951" lon="6.27282">
        <ele>481</ele>
        <time>2022-02-10T12:11:36Z</time>
      </trkpt>
      <trkpt lat="46.15941" lon="6.27257">
        <ele>480.8</ele>
        <time>2022-02-10T12:11:38Z</time>
      </trkpt>
      <trkpt lat="46.15936" lon="6.27244">
        <ele>480.6</ele>
        <time>2022-02-10T12:11:39Z</time>
      </trkpt>
      <trkpt lat="46.15929" lon="6.27222">
        <ele>479.8</ele>
        <time>2022-02-10T12:11:41Z</time>
      </trkpt>
      <trkpt lat="46.15925" lon="6.27212">
        <ele>479.4</ele>
        <time>2022-02-10T12:11:42Z</time>
      </trkpt>
      <trkpt lat="46.15918" lon="6.27195">
        <ele>478.4</ele>
        <time>2022-02-10T12:11:44Z</time>
      </trkpt>
      <trkpt lat="46.15908" lon="6.2717">
        <ele>478.2</ele>
        <time>2022-02-10T12:11:47Z</time>
      </trkpt>
      <trkpt lat="46.15896" lon="6.27147">
        <ele>478</ele>
        <time>2022-02-10T12:11:50Z</time>
      </trkpt>
      <trkpt lat="46.15887" lon="6.27134">
        <ele>478</ele>
        <time>2022-02-10T12:11:52Z</time>
      </trkpt>
      <trkpt lat="46.15848" lon="6.27095">
        <ele>478.8</ele>
        <time>2022-02-10T12:11:59Z</time>
      </trkpt>
      <trkpt lat="46.15809" lon="6.27055">
        <ele>478.8</ele>
        <time>2022-02-10T12:12:06Z</time>
      </trkpt>
      <trkpt lat="46.1577" lon="6.27014">
        <ele>479.4</ele>
        <time>2022-02-10T12:12:13Z</time>
      </trkpt>
      <trkpt lat="46.15735" lon="6.2698">
        <ele>479.6</ele>
        <time>2022-02-10T12:12:19Z</time>
      </trkpt>
      <trkpt lat="46.15729" lon="6.26975">
        <ele>479.6</ele>
        <time>2022-02-10T12:12:20Z</time>
      </trkpt>
      <trkpt lat="46.15714" lon="6.26971">
        <ele>479.4</ele>
        <time>2022-02-10T12:12:22Z</time>
      </trkpt>
      <trkpt lat="46.15699" lon="6.26974">
        <ele>479.2</ele>
        <time>2022-02-10T12:12:24Z</time>
      </trkpt>
      <trkpt lat="46.15683" lon="6.26979">
        <ele>478.8</ele>
        <time>2022-02-10T12:12:26Z</time>
      </trkpt>
      <trkpt lat="46.15666" lon="6.26986">
        <ele>478.6</ele>
        <time>2022-02-10T12:12:28Z</time>
      </trkpt>
      <trkpt lat="46.15657" lon="6.26989">
        <ele>478.6</ele>
        <time>2022-02-10T12:12:29Z</time>
      </trkpt>
      <trkpt lat="46.15638" lon="6.26996">
        <ele>478.4</ele>
        <time>2022-02-10T12:12:31Z</time>
      </trkpt>
      <trkpt lat="46.15629" lon="6.26999">
        <ele>478.4</ele>
        <time>2022-02-10T12:12:32Z</time>
      </trkpt>
      <trkpt lat="46.15618" lon="6.27003">
        <ele>478</ele>
        <time>2022-02-10T12:12:33Z</time>
      </trkpt>
      <trkpt lat="46.15608" lon="6.27007">
        <ele>477.4</ele>
        <time>2022-02-10T12:12:34Z</time>
      </trkpt>
      <trkpt lat="46.15598" lon="6.27012">
        <ele>477</ele>
        <time>2022-02-10T12:12:35Z</time>
      </trkpt>
      <trkpt lat="46.15576" lon="6.27023">
        <ele>476.4</ele>
        <time>2022-02-10T12:12:37Z</time>
      </trkpt>
      <trkpt lat="46.15564" lon="6.2703">
        <ele>475.8</ele>
        <time>2022-02-10T12:12:38Z</time>
      </trkpt>
      <trkpt lat="46.15553" lon="6.27037">
        <ele>475</ele>
        <time>2022-02-10T12:12:39Z</time>
      </trkpt>
      <trkpt lat="46.15542" lon="6.27044">
        <ele>474.4</ele>
        <time>2022-02-10T12:12:40Z</time>
      </trkpt>
      <trkpt lat="46.15531" lon="6.27052">
        <ele>473.4</ele>
        <time>2022-02-10T12:12:41Z</time>
      </trkpt>
      <trkpt lat="46.15519" lon="6.2706">
        <ele>472.4</ele>
        <time>2022-02-10T12:12:42Z</time>
      </trkpt>
      <trkpt lat="46.15508" lon="6.27069">
        <ele>471.4</ele>
        <time>2022-02-10T12:12:43Z</time>
      </trkpt>
      <trkpt lat="46.15496" lon="6.27078">
        <ele>470.4</ele>
        <time>2022-02-10T12:12:44Z</time>
      </trkpt>
      <trkpt lat="46.15484" lon="6.27087">
        <ele>469</ele>
        <time>2022-02-10T12:12:45Z</time>
      </trkpt>
      <trkpt lat="46.15472" lon="6.27095">
        <ele>467.6</ele>
        <time>2022-02-10T12:12:46Z</time>
      </trkpt>
      <trkpt lat="46.1546" lon="6.27104">
        <ele>465.8</ele>
        <time>2022-02-10T12:12:47Z</time>
      </trkpt>
      <trkpt lat="46.15448" lon="6.27113">
        <ele>464.2</ele>
        <time>2022-02-10T12:12:48Z</time>
      </trkpt>
      <trkpt lat="46.15436" lon="6.27121">
        <ele>462.8</ele>
        <time>2022-02-10T12:12:49Z</time>
      </trkpt>
      <trkpt lat="46.15424" lon="6.27128">
        <ele>461.6</ele>
        <time>2022-02-10T12:12:50Z</time>
      </trkpt>
      <trkpt lat="46.15398" lon="6.27139">
        <ele>458.8</ele>
        <time>2022-02-10T12:12:52Z</time>
      </trkpt>
      <trkpt lat="46.15373" lon="6.27148">
        <ele>455.8</ele>
        <time>2022-02-10T12:12:54Z</time>
      </trkpt>
      <trkpt lat="46.1536" lon="6.27152">
        <ele>454.4</ele>
        <time>2022-02-10T12:12:55Z</time>
      </trkpt>
      <trkpt lat="46.15346" lon="6.27155">
        <ele>452.6</ele>
        <time>2022-02-10T12:12:56Z</time>
      </trkpt>
      <trkpt lat="46.15333" lon="6.27156">
        <ele>450.6</ele>
        <time>2022-02-10T12:12:57Z</time>
      </trkpt>
      <trkpt lat="46.15319" lon="6.27155">
        <ele>448.4</ele>
        <time>2022-02-10T12:12:58Z</time>
      </trkpt>
      <trkpt lat="46.15306" lon="6.27152">
        <ele>446.6</ele>
        <time>2022-02-10T12:12:59Z</time>
      </trkpt>
      <trkpt lat="46.15292" lon="6.27147">
        <ele>445.6</ele>
        <time>2022-02-10T12:13:00Z</time>
      </trkpt>
      <trkpt lat="46.15279" lon="6.27141">
        <ele>444.4</ele>
        <time>2022-02-10T12:13:01Z</time>
      </trkpt>
      <trkpt lat="46.15266" lon="6.27133">
        <ele>443.4</ele>
        <time>2022-02-10T12:13:02Z</time>
      </trkpt>
      <trkpt lat="46.15253" lon="6.27126">
        <ele>442.2</ele>
        <time>2022-02-10T12:13:03Z</time>
      </trkpt>
      <trkpt lat="46.1524" lon="6.27118">
        <ele>441.4</ele>
        <time>2022-02-10T12:13:04Z</time>
      </trkpt>
      <trkpt lat="46.15227" lon="6.27111">
        <ele>440.4</ele>
        <time>2022-02-10T12:13:05Z</time>
      </trkpt>
      <trkpt lat="46.15202" lon="6.27096">
        <ele>437.8</ele>
        <time>2022-02-10T12:13:07Z</time>
      </trkpt>
      <trkpt lat="46.1519" lon="6.27088">
        <ele>436.4</ele>
        <time>2022-02-10T12:13:08Z</time>
      </trkpt>
      <trkpt lat="46.15178" lon="6.27081">
        <ele>435</ele>
        <time>2022-02-10T12:13:09Z</time>
      </trkpt>
      <trkpt lat="46.15132" lon="6.27054">
        <ele>427.2</ele>
        <time>2022-02-10T12:13:13Z</time>
      </trkpt>
      <trkpt lat="46.15104" lon="6.27031">
        <ele>423.6</ele>
        <time>2022-02-10T12:13:16Z</time>
      </trkpt>
      <trkpt lat="46.15097" lon="6.27023">
        <ele>423.2</ele>
        <time>2022-02-10T12:13:17Z</time>
      </trkpt>
      <trkpt lat="46.15089" lon="6.27017">
        <ele>423</ele>
        <time>2022-02-10T12:13:18Z</time>
      </trkpt>
      <trkpt lat="46.15075" lon="6.27014">
        <ele>422.8</ele>
        <time>2022-02-10T12:13:20Z</time>
      </trkpt>
      <trkpt lat="46.15064" lon="6.27026">
        <ele>422.8</ele>
        <time>2022-02-10T12:13:22Z</time>
      </trkpt>
      <trkpt lat="46.15045" lon="6.2706">
        <ele>422.8</ele>
        <time>2022-02-10T12:13:26Z</time>
      </trkpt>
      <trkpt lat="46.15027" lon="6.27096">
        <ele>423</ele>
        <time>2022-02-10T12:13:30Z</time>
      </trkpt>
      <trkpt lat="46.15012" lon="6.27123">
        <ele>423</ele>
        <time>2022-02-10T12:13:33Z</time>
      </trkpt>
      <trkpt lat="46.15007" lon="6.2713">
        <ele>423.2</ele>
        <time>2022-02-10T12:13:34Z</time>
      </trkpt>
      <trkpt lat="46.14993" lon="6.27141">
        <ele>423.2</ele>
        <time>2022-02-10T12:13:36Z</time>
      </trkpt>
      <trkpt lat="46.14984" lon="6.27143">
        <ele>423</ele>
        <time>2022-02-10T12:13:37Z</time>
      </trkpt>
      <trkpt lat="46.14976" lon="6.27144">
        <ele>423</ele>
        <time>2022-02-10T12:13:38Z</time>
      </trkpt>
      <trkpt lat="46.14967" lon="6.27143">
        <ele>423</ele>
        <time>2022-02-10T12:13:39Z</time>
      </trkpt>
      <trkpt lat="46.1495" lon="6.27138">
        <ele>423</ele>
        <time>2022-02-10T12:13:41Z</time>
      </trkpt>
      <trkpt lat="46.14933" lon="6.27131">
        <ele>422.2</ele>
        <time>2022-02-10T12:13:43Z</time>
      </trkpt>
      <trkpt lat="46.14924" lon="6.27127">
        <ele>422</ele>
        <time>2022-02-10T12:13:44Z</time>
      </trkpt>
      <trkpt lat="46.14879" lon="6.27104">
        <ele>419.6</ele>
        <time>2022-02-10T12:13:50Z</time>
      </trkpt>
      <trkpt lat="46.14857" lon="6.27094">
        <ele>419</ele>
        <time>2022-02-10T12:13:53Z</time>
      </trkpt>
      <trkpt lat="46.14824" lon="6.27078">
        <ele>419</ele>
        <time>2022-02-10T12:13:58Z</time>
      </trkpt>
      <trkpt lat="46.14811" lon="6.27072">
        <ele>419</ele>
        <time>2022-02-10T12:14:00Z</time>
      </trkpt>
      <trkpt lat="46.14757" lon="6.27041">
        <ele>419</ele>
        <time>2022-02-10T12:14:09Z</time>
      </trkpt>
      <trkpt lat="46.14709" lon="6.26997">
        <ele>419.4</ele>
        <time>2022-02-10T12:14:18Z</time>
      </trkpt>
      <trkpt lat="46.14667" lon="6.26945">
        <ele>420.2</ele>
        <time>2022-02-10T12:14:27Z</time>
      </trkpt>
      <trkpt lat="46.14663" lon="6.26939">
        <ele>420.4</ele>
        <time>2022-02-10T12:14:28Z</time>
      </trkpt>
      <trkpt lat="46.14646" lon="6.26915">
        <ele>420.8</ele>
        <time>2022-02-10T12:14:32Z</time>
      </trkpt>
      <trkpt lat="46.14638" lon="6.26904">
        <ele>421</ele>
        <time>2022-02-10T12:14:34Z</time>
      </trkpt>
      <trkpt lat="46.14631" lon="6.26895">
        <ele>421.2</ele>
        <time>2022-02-10T12:14:36Z</time>
      </trkpt>
      <trkpt lat="46.1462" lon="6.26883">
        <ele>421.4</ele>
        <time>2022-02-10T12:14:39Z</time>
      </trkpt>
      <trkpt lat="46.14606" lon="6.26868">
        <ele>422.8</ele>
        <time>2022-02-10T12:14:43Z</time>
      </trkpt>
      <trkpt lat="46.14603" lon="6.26864">
        <ele>423.4</ele>
        <time>2022-02-10T12:14:44Z</time>
      </trkpt>
      <trkpt lat="46.14588" lon="6.26851">
        <ele>424.4</ele>
        <time>2022-02-10T12:14:48Z</time>
      </trkpt>
      <trkpt lat="46.14577" lon="6.26842">
        <ele>425</ele>
        <time>2022-02-10T12:14:51Z</time>
      </trkpt>
      <trkpt lat="46.14574" lon="6.2684">
        <ele>425.2</ele>
        <time>2022-02-10T12:14:52Z</time>
      </trkpt>
      <trkpt lat="46.14554" lon="6.26821">
        <ele>427</ele>
        <time>2022-02-10T12:14:58Z</time>
      </trkpt>
      <trkpt lat="46.14551" lon="6.26818">
        <ele>427.2</ele>
        <time>2022-02-10T12:14:59Z</time>
      </trkpt>
      <trkpt lat="46.14543" lon="6.26817">
        <ele>427.6</ele>
        <time>2022-02-10T12:15:01Z</time>
      </trkpt>
      <trkpt lat="46.14539" lon="6.2682">
        <ele>428</ele>
        <time>2022-02-10T12:15:02Z</time>
      </trkpt>
      <trkpt lat="46.14536" lon="6.26824">
        <ele>428</ele>
        <time>2022-02-10T12:15:03Z</time>
      </trkpt>
      <trkpt lat="46.14531" lon="6.26836">
        <ele>428.4</ele>
        <time>2022-02-10T12:15:05Z</time>
      </trkpt>
      <trkpt lat="46.14528" lon="6.26842">
        <ele>428.8</ele>
        <time>2022-02-10T12:15:06Z</time>
      </trkpt>
      <trkpt lat="46.14518" lon="6.26856">
        <ele>429.2</ele>
        <time>2022-02-10T12:15:09Z</time>
      </trkpt>
      <trkpt lat="46.14515" lon="6.2686">
        <ele>429.2</ele>
        <time>2022-02-10T12:15:10Z</time>
      </trkpt>
      <trkpt lat="46.14505" lon="6.26871">
        <ele>429.2</ele>
        <time>2022-02-10T12:15:13Z</time>
      </trkpt>
      <trkpt lat="46.14491" lon="6.26885">
        <ele>429.8</ele>
        <time>2022-02-10T12:15:17Z</time>
      </trkpt>
      <trkpt lat="46.14482" lon="6.26895">
        <ele>429.8</ele>
        <time>2022-02-10T12:15:20Z</time>
      </trkpt>
      <trkpt lat="46.14476" lon="6.26902">
        <ele>430.2</ele>
        <time>2022-02-10T12:15:22Z</time>
      </trkpt>
      <trkpt lat="46.14452" lon="6.26927">
        <ele>433</ele>
        <time>2022-02-10T12:15:30Z</time>
      </trkpt>
      <trkpt lat="46.14431" lon="6.26942">
        <ele>433.8</ele>
        <time>2022-02-10T12:15:36Z</time>
      </trkpt>
      <trkpt lat="46.14424" lon="6.26945">
        <ele>434.4</ele>
        <time>2022-02-10T12:15:38Z</time>
      </trkpt>
      <trkpt lat="46.14405" lon="6.2695">
        <ele>435.8</ele>
        <time>2022-02-10T12:15:43Z</time>
      </trkpt>
      <trkpt lat="46.14398" lon="6.2695">
        <ele>436.4</ele>
        <time>2022-02-10T12:15:45Z</time>
      </trkpt>
      <trkpt lat="46.1439" lon="6.2695">
        <ele>436.8</ele>
        <time>2022-02-10T12:15:47Z</time>
      </trkpt>
      <trkpt lat="46.14364" lon="6.26945">
        <ele>439</ele>
        <time>2022-02-10T12:15:54Z</time>
      </trkpt>
      <trkpt lat="46.1436" lon="6.26944">
        <ele>439.4</ele>
        <time>2022-02-10T12:15:55Z</time>
      </trkpt>
      <trkpt lat="46.14331" lon="6.26939">
        <ele>441</ele>
        <time>2022-02-10T12:16:03Z</time>
      </trkpt>
      <trkpt lat="46.14327" lon="6.2694">
        <ele>441</ele>
        <time>2022-02-10T12:16:04Z</time>
      </trkpt>
      <trkpt lat="46.14304" lon="6.26943">
        <ele>442.6</ele>
        <time>2022-02-10T12:16:11Z</time>
      </trkpt>
      <trkpt lat="46.14297" lon="6.26945">
        <ele>443</ele>
        <time>2022-02-10T12:16:13Z</time>
      </trkpt>
      <trkpt lat="46.1428" lon="6.26952">
        <ele>443.6</ele>
        <time>2022-02-10T12:16:18Z</time>
      </trkpt>
      <trkpt lat="46.14273" lon="6.26954">
        <ele>444</ele>
        <time>2022-02-10T12:16:20Z</time>
      </trkpt>
      <trkpt lat="46.14255" lon="6.26962">
        <ele>445</ele>
        <time>2022-02-10T12:16:25Z</time>
      </trkpt>
      <trkpt lat="46.14237" lon="6.26968">
        <ele>446.4</ele>
        <time>2022-02-10T12:16:30Z</time>
      </trkpt>
      <trkpt lat="46.14215" lon="6.26973">
        <ele>448.2</ele>
        <time>2022-02-10T12:16:36Z</time>
      </trkpt>
      <trkpt lat="46.14208" lon="6.26973">
        <ele>448.8</ele>
        <time>2022-02-10T12:16:38Z</time>
      </trkpt>
      <trkpt lat="46.14194" lon="6.26972">
        <ele>449.8</ele>
        <time>2022-02-10T12:16:42Z</time>
      </trkpt>
      <trkpt lat="46.14171" lon="6.26963">
        <ele>451.4</ele>
        <time>2022-02-10T12:16:49Z</time>
      </trkpt>
      <trkpt lat="46.14167" lon="6.26961">
        <ele>451.4</ele>
        <time>2022-02-10T12:16:50Z</time>
      </trkpt>
      <trkpt lat="46.1415" lon="6.26951">
        <ele>452.2</ele>
        <time>2022-02-10T12:16:55Z</time>
      </trkpt>
      <trkpt lat="46.14128" lon="6.26937">
        <ele>453.6</ele>
        <time>2022-02-10T12:17:01Z</time>
      </trkpt>
      <trkpt lat="46.14111" lon="6.26926">
        <ele>454</ele>
        <time>2022-02-10T12:17:06Z</time>
      </trkpt>
      <trkpt lat="46.14089" lon="6.26914">
        <ele>455</ele>
        <time>2022-02-10T12:17:12Z</time>
      </trkpt>
      <trkpt lat="46.14086" lon="6.26912">
        <ele>455.2</ele>
        <time>2022-02-10T12:17:13Z</time>
      </trkpt>
      <trkpt lat="46.14062" lon="6.26897">
        <ele>457.2</ele>
        <time>2022-02-10T12:17:20Z</time>
      </trkpt>
      <trkpt lat="46.14041" lon="6.26884">
        <ele>458.6</ele>
        <time>2022-02-10T12:17:26Z</time>
      </trkpt>
      <trkpt lat="46.14029" lon="6.26878">
        <ele>459.2</ele>
        <time>2022-02-10T12:17:29Z</time>
      </trkpt>
      <trkpt lat="46.1401" lon="6.26867">
        <ele>460</ele>
        <time>2022-02-10T12:17:34Z</time>
      </trkpt>
      <trkpt lat="46.13988" lon="6.26855">
        <ele>461.6</ele>
        <time>2022-02-10T12:17:40Z</time>
      </trkpt>
      <trkpt lat="46.13984" lon="6.26853">
        <ele>461.8</ele>
        <time>2022-02-10T12:17:41Z</time>
      </trkpt>
      <trkpt lat="46.13958" lon="6.26842">
        <ele>463.4</ele>
        <time>2022-02-10T12:17:48Z</time>
      </trkpt>
      <trkpt lat="46.13954" lon="6.26841">
        <ele>463.8</ele>
        <time>2022-02-10T12:17:49Z</time>
      </trkpt>
      <trkpt lat="46.13931" lon="6.26846">
        <ele>464.6</ele>
        <time>2022-02-10T12:17:55Z</time>
      </trkpt>
      <trkpt lat="46.13924" lon="6.26852">
        <ele>465.2</ele>
        <time>2022-02-10T12:17:57Z</time>
      </trkpt>
      <trkpt lat="46.13916" lon="6.26863">
        <ele>465.8</ele>
        <time>2022-02-10T12:18:00Z</time>
      </trkpt>
      <trkpt lat="46.13914" lon="6.26867">
        <ele>466</ele>
        <time>2022-02-10T12:18:01Z</time>
      </trkpt>
      <trkpt lat="46.13909" lon="6.26887">
        <ele>467</ele>
        <time>2022-02-10T12:18:05Z</time>
      </trkpt>
      <trkpt lat="46.13909" lon="6.26898">
        <ele>467.6</ele>
        <time>2022-02-10T12:18:07Z</time>
      </trkpt>
      <trkpt lat="46.13911" lon="6.26914">
        <ele>468.8</ele>
        <time>2022-02-10T12:18:10Z</time>
      </trkpt>
      <trkpt lat="46.13914" lon="6.26935">
        <ele>469.8</ele>
        <time>2022-02-10T12:18:14Z</time>
      </trkpt>
      <trkpt lat="46.13917" lon="6.26956">
        <ele>471</ele>
        <time>2022-02-10T12:18:18Z</time>
      </trkpt>
      <trkpt lat="46.13914" lon="6.26986">
        <ele>472.2</ele>
        <time>2022-02-10T12:18:24Z</time>
      </trkpt>
      <trkpt lat="46.13913" lon="6.26991">
        <ele>472.6</ele>
        <time>2022-02-10T12:18:25Z</time>
      </trkpt>
      <trkpt lat="46.13908" lon="6.27004">
        <ele>473.6</ele>
        <time>2022-02-10T12:18:28Z</time>
      </trkpt>
      <trkpt lat="46.13903" lon="6.27011">
        <ele>474.2</ele>
        <time>2022-02-10T12:18:30Z</time>
      </trkpt>
      <trkpt lat="46.13893" lon="6.27016">
        <ele>474.6</ele>
        <time>2022-02-10T12:18:34Z</time>
      </trkpt>
      <trkpt lat="46.13884" lon="6.27014">
        <ele>475.8</ele>
        <time>2022-02-10T12:18:37Z</time>
      </trkpt>
      <trkpt lat="46.13878" lon="6.27007">
        <ele>476.2</ele>
        <time>2022-02-10T12:18:39Z</time>
      </trkpt>
      <trkpt lat="46.13872" lon="6.26998">
        <ele>476.6</ele>
        <time>2022-02-10T12:18:41Z</time>
      </trkpt>
      <trkpt lat="46.13867" lon="6.26982">
        <ele>476.8</ele>
        <time>2022-02-10T12:18:44Z</time>
      </trkpt>
      <trkpt lat="46.13864" lon="6.26969">
        <ele>476.8</ele>
        <time>2022-02-10T12:18:46Z</time>
      </trkpt>
      <trkpt lat="46.13862" lon="6.26957">
        <ele>476.8</ele>
        <time>2022-02-10T12:18:48Z</time>
      </trkpt>
      <trkpt lat="46.13859" lon="6.26945">
        <ele>476.8</ele>
        <time>2022-02-10T12:18:50Z</time>
      </trkpt>
      <trkpt lat="46.13854" lon="6.26934">
        <ele>477</ele>
        <time>2022-02-10T12:18:52Z</time>
      </trkpt>
      <trkpt lat="46.13828" lon="6.26904">
        <ele>477.2</ele>
        <time>2022-02-10T12:18:59Z</time>
      </trkpt>
      <trkpt lat="46.13799" lon="6.26879">
        <ele>477.6</ele>
        <time>2022-02-10T12:19:06Z</time>
      </trkpt>
      <trkpt lat="46.13795" lon="6.26876">
        <ele>477.6</ele>
        <time>2022-02-10T12:19:07Z</time>
      </trkpt>
      <trkpt lat="46.13772" lon="6.26859">
        <ele>478.2</ele>
        <time>2022-02-10T12:19:13Z</time>
      </trkpt>
      <trkpt lat="46.13763" lon="6.26853">
        <ele>478.2</ele>
        <time>2022-02-10T12:19:15Z</time>
      </trkpt>
      <trkpt lat="46.13754" lon="6.26847">
        <ele>478.2</ele>
        <time>2022-02-10T12:19:17Z</time>
      </trkpt>
      <trkpt lat="46.13745" lon="6.26842">
        <ele>478.2</ele>
        <time>2022-02-10T12:19:19Z</time>
      </trkpt>
      <trkpt lat="46.13735" lon="6.26837">
        <ele>478.2</ele>
        <time>2022-02-10T12:19:21Z</time>
      </trkpt>
      <trkpt lat="46.13721" lon="6.26828">
        <ele>478.6</ele>
        <time>2022-02-10T12:19:24Z</time>
      </trkpt>
      <trkpt lat="46.13717" lon="6.26825">
        <ele>478.6</ele>
        <time>2022-02-10T12:19:25Z</time>
      </trkpt>
      <trkpt lat="46.13712" lon="6.26822">
        <ele>478.6</ele>
        <time>2022-02-10T12:19:26Z</time>
      </trkpt>
      <trkpt lat="46.13698" lon="6.26814">
        <ele>478.6</ele>
        <time>2022-02-10T12:19:29Z</time>
      </trkpt>
      <trkpt lat="46.13693" lon="6.26812">
        <ele>478.8</ele>
        <time>2022-02-10T12:19:30Z</time>
      </trkpt>
      <trkpt lat="46.13648" lon="6.26786">
        <ele>479.8</ele>
        <time>2022-02-10T12:19:39Z</time>
      </trkpt>
      <trkpt lat="46.13614" lon="6.26767">
        <ele>480.4</ele>
        <time>2022-02-10T12:19:46Z</time>
      </trkpt>
      <trkpt lat="46.13604" lon="6.26761">
        <ele>480.6</ele>
        <time>2022-02-10T12:19:48Z</time>
      </trkpt>
      <trkpt lat="46.13575" lon="6.26745">
        <ele>480.8</ele>
        <time>2022-02-10T12:19:54Z</time>
      </trkpt>
      <trkpt lat="46.13552" lon="6.26727">
        <ele>482</ele>
        <time>2022-02-10T12:20:00Z</time>
      </trkpt>
      <trkpt lat="46.13542" lon="6.26711">
        <ele>482.4</ele>
        <time>2022-02-10T12:20:04Z</time>
      </trkpt>
      <trkpt lat="46.13538" lon="6.26708">
        <ele>482.4</ele>
        <time>2022-02-10T12:20:05Z</time>
      </trkpt>
      <trkpt lat="46.13512" lon="6.26688">
        <ele>482.6</ele>
        <time>2022-02-10T12:20:11Z</time>
      </trkpt>
      <trkpt lat="46.13482" lon="6.26669">
        <ele>482.8</ele>
        <time>2022-02-10T12:20:17Z</time>
      </trkpt>
      <trkpt lat="46.13447" lon="6.26645">
        <ele>483.4</ele>
        <time>2022-02-10T12:20:24Z</time>
      </trkpt>
      <trkpt lat="46.13417" lon="6.26624">
        <ele>484.4</ele>
        <time>2022-02-10T12:20:30Z</time>
      </trkpt>
      <trkpt lat="46.13402" lon="6.26614">
        <ele>484.4</ele>
        <time>2022-02-10T12:20:33Z</time>
      </trkpt>
      <trkpt lat="46.13392" lon="6.26606">
        <ele>484.4</ele>
        <time>2022-02-10T12:20:35Z</time>
      </trkpt>
      <trkpt lat="46.13383" lon="6.26598">
        <ele>484.6</ele>
        <time>2022-02-10T12:20:37Z</time>
      </trkpt>
      <trkpt lat="46.13374" lon="6.2659">
        <ele>485</ele>
        <time>2022-02-10T12:20:39Z</time>
      </trkpt>
      <trkpt lat="46.13364" lon="6.26583">
        <ele>485.6</ele>
        <time>2022-02-10T12:20:41Z</time>
      </trkpt>
      <trkpt lat="46.13349" lon="6.26574">
        <ele>485.8</ele>
        <time>2022-02-10T12:20:44Z</time>
      </trkpt>
      <trkpt lat="46.13344" lon="6.26572">
        <ele>486</ele>
        <time>2022-02-10T12:20:45Z</time>
      </trkpt>
      <trkpt lat="46.1334" lon="6.26569">
        <ele>486</ele>
        <time>2022-02-10T12:20:46Z</time>
      </trkpt>
      <trkpt lat="46.13328" lon="6.26558">
        <ele>486.2</ele>
        <time>2022-02-10T12:20:49Z</time>
      </trkpt>
      <trkpt lat="46.13325" lon="6.26552">
        <ele>486.2</ele>
        <time>2022-02-10T12:20:50Z</time>
      </trkpt>
      <trkpt lat="46.13316" lon="6.26538">
        <ele>486.2</ele>
        <time>2022-02-10T12:20:53Z</time>
      </trkpt>
      <trkpt lat="46.13315" lon="6.26534">
        <ele>486.4</ele>
        <time>2022-02-10T12:20:54Z</time>
      </trkpt>
      <trkpt lat="46.13313" lon="6.26533">
        <ele>486.6</ele>
        <time>2022-02-10T12:20:57Z</time>
      </trkpt>
      <trkpt lat="46.13314" lon="6.26539">
        <ele>487.2</ele>
        <time>2022-02-10T12:21:01Z</time>
      </trkpt>
      <trkpt lat="46.13315" lon="6.2654">
        <ele>487.6</ele>
        <time>2022-02-10T12:21:03Z</time>
      </trkpt>
      <trkpt lat="46.13318" lon="6.26542">
        <ele>488.4</ele>
        <time>2022-02-10T12:21:10Z</time>
      </trkpt>
      <trkpt lat="46.13317" lon="6.26542">
        <ele>488.4</ele>
        <time>2022-02-10T12:21:29Z</time>
      </trkpt>
      <trkpt lat="46.13317" lon="6.26542">
        <ele>488.6</ele>
        <time>2022-02-10T12:21:31Z</time>
      </trkpt>
      <trkpt lat="46.13317" lon="6.26542">
        <ele>488.4</ele>
        <time>2022-02-10T12:21:48Z</time>
      </trkpt>
      <trkpt lat="46.13317" lon="6.26542">
        <ele>488.4</ele>
        <time>2022-02-10T12:21:50Z</time>
      </trkpt>
      <trkpt lat="46.13317" lon="6.26542">
        <ele>488.6</ele>
        <time>2022-02-10T12:22:09Z</time>
      </trkpt>
      <trkpt lat="46.13317" lon="6.26542">
        <ele>488.4</ele>
        <time>2022-02-10T12:22:20Z</time>
      </trkpt>
      <trkpt lat="46.13317" lon="6.26542">
        <ele>488.6</ele>
        <time>2022-02-10T12:22:26Z</time>
      </trkpt>
      <trkpt lat="46.13317" lon="6.26542">
        <ele>488.4</ele>
        <time>2022-02-10T12:22:32Z</time>
      </trkpt>
      <trkpt lat="46.13317" lon="6.26542">
        <ele>488.2</ele>
        <time>2022-02-10T12:22:42Z</time>
      </trkpt>
      <trkpt lat="46.13317" lon="6.26542">
        <ele>488.2</ele>
        <time>2022-02-10T12:22:52Z</time>
      </trkpt>
      <trkpt lat="46.13316" lon="6.26542">
        <ele>488.2</ele>
        <time>2022-02-10T12:22:53Z</time>
      </trkpt>
      <trkpt lat="46.13316" lon="6.2654">
        <ele>488.4</ele>
        <time>2022-02-10T12:23:01Z</time>
      </trkpt>
      <trkpt lat="46.13316" lon="6.2654">
        <ele>488.6</ele>
        <time>2022-02-10T12:23:15Z</time>
      </trkpt>
      <trkpt lat="46.13316" lon="6.2654">
        <ele>488.6</ele>
        <time>2022-02-10T12:23:25Z</time>
      </trkpt>
      <trkpt lat="46.13315" lon="6.26539">
        <ele>488.4</ele>
        <time>2022-02-10T12:23:26Z</time>
      </trkpt>
      <trkpt lat="46.13312" lon="6.26531">
        <ele>488.6</ele>
        <time>2022-02-10T12:23:29Z</time>
      </trkpt>
      <trkpt lat="46.13311" lon="6.26527">
        <ele>488.4</ele>
        <time>2022-02-10T12:23:30Z</time>
      </trkpt>
      <trkpt lat="46.13302" lon="6.2651">
        <ele>488.4</ele>
        <time>2022-02-10T12:23:34Z</time>
      </trkpt>
      <trkpt lat="46.13282" lon="6.26475">
        <ele>488</ele>
        <time>2022-02-10T12:23:41Z</time>
      </trkpt>
      <trkpt lat="46.13278" lon="6.2647">
        <ele>488</ele>
        <time>2022-02-10T12:23:42Z</time>
      </trkpt>
      <trkpt lat="46.13271" lon="6.26459">
        <ele>488</ele>
        <time>2022-02-10T12:23:44Z</time>
      </trkpt>
      <trkpt lat="46.13261" lon="6.26446">
        <ele>487.8</ele>
        <time>2022-02-10T12:23:46Z</time>
      </trkpt>
      <trkpt lat="46.13246" lon="6.26423">
        <ele>487.6</ele>
        <time>2022-02-10T12:23:49Z</time>
      </trkpt>
      <trkpt lat="46.13241" lon="6.26415">
        <ele>487.6</ele>
        <time>2022-02-10T12:23:50Z</time>
      </trkpt>
      <trkpt lat="46.13232" lon="6.26397">
        <ele>487.2</ele>
        <time>2022-02-10T12:23:52Z</time>
      </trkpt>
      <trkpt lat="46.13227" lon="6.26387">
        <ele>486.6</ele>
        <time>2022-02-10T12:23:53Z</time>
      </trkpt>
      <trkpt lat="46.13219" lon="6.26367">
        <ele>485.2</ele>
        <time>2022-02-10T12:23:55Z</time>
      </trkpt>
      <trkpt lat="46.13213" lon="6.26344">
        <ele>484.4</ele>
        <time>2022-02-10T12:23:57Z</time>
      </trkpt>
      <trkpt lat="46.13206" lon="6.26305">
        <ele>482.4</ele>
        <time>2022-02-10T12:24:00Z</time>
      </trkpt>
      <trkpt lat="46.13205" lon="6.26291">
        <ele>481.6</ele>
        <time>2022-02-10T12:24:01Z</time>
      </trkpt>
      <trkpt lat="46.13203" lon="6.26277">
        <ele>480.8</ele>
        <time>2022-02-10T12:24:02Z</time>
      </trkpt>
      <trkpt lat="46.13202" lon="6.26262">
        <ele>479.8</ele>
        <time>2022-02-10T12:24:03Z</time>
      </trkpt>
      <trkpt lat="46.13202" lon="6.26248">
        <ele>479</ele>
        <time>2022-02-10T12:24:04Z</time>
      </trkpt>
      <trkpt lat="46.13198" lon="6.2622">
        <ele>477.4</ele>
        <time>2022-02-10T12:24:06Z</time>
      </trkpt>
      <trkpt lat="46.13192" lon="6.26209">
        <ele>477</ele>
        <time>2022-02-10T12:24:07Z</time>
      </trkpt>
      <trkpt lat="46.13185" lon="6.26201">
        <ele>476.6</ele>
        <time>2022-02-10T12:24:08Z</time>
      </trkpt>
      <trkpt lat="46.1316" lon="6.26189">
        <ele>474.4</ele>
        <time>2022-02-10T12:24:11Z</time>
      </trkpt>
      <trkpt lat="46.13137" lon="6.2618">
        <ele>471</ele>
        <time>2022-02-10T12:24:14Z</time>
      </trkpt>
      <trkpt lat="46.13124" lon="6.26177">
        <ele>470.4</ele>
        <time>2022-02-10T12:24:16Z</time>
      </trkpt>
      <trkpt lat="46.13118" lon="6.26177">
        <ele>470.6</ele>
        <time>2022-02-10T12:24:17Z</time>
      </trkpt>
      <trkpt lat="46.13108" lon="6.26177">
        <ele>470.6</ele>
        <time>2022-02-10T12:24:19Z</time>
      </trkpt>
      <trkpt lat="46.13104" lon="6.26177">
        <ele>470.6</ele>
        <time>2022-02-10T12:24:20Z</time>
      </trkpt>
      <trkpt lat="46.13096" lon="6.26176">
        <ele>470.6</ele>
        <time>2022-02-10T12:24:22Z</time>
      </trkpt>
      <trkpt lat="46.13085" lon="6.26175">
        <ele>471</ele>
        <time>2022-02-10T12:24:25Z</time>
      </trkpt>
      <trkpt lat="46.13082" lon="6.26175">
        <ele>471.8</ele>
        <time>2022-02-10T12:24:26Z</time>
      </trkpt>
      <trkpt lat="46.13073" lon="6.2618">
        <ele>474.2</ele>
        <time>2022-02-10T12:24:29Z</time>
      </trkpt>
      <trkpt lat="46.13067" lon="6.26182">
        <ele>475.4</ele>
        <time>2022-02-10T12:24:31Z</time>
      </trkpt>
      <trkpt lat="46.13061" lon="6.26182">
        <ele>476.4</ele>
        <time>2022-02-10T12:24:33Z</time>
      </trkpt>
      <trkpt lat="46.13053" lon="6.26179">
        <ele>477.6</ele>
        <time>2022-02-10T12:24:36Z</time>
      </trkpt>
      <trkpt lat="46.1305" lon="6.26177">
        <ele>478</ele>
        <time>2022-02-10T12:24:37Z</time>
      </trkpt>
      <trkpt lat="46.13043" lon="6.26174">
        <ele>479.2</ele>
        <time>2022-02-10T12:24:40Z</time>
      </trkpt>
      <trkpt lat="46.13037" lon="6.2617">
        <ele>480.4</ele>
        <time>2022-02-10T12:24:43Z</time>
      </trkpt>
      <trkpt lat="46.13029" lon="6.26164">
        <ele>482.2</ele>
        <time>2022-02-10T12:24:47Z</time>
      </trkpt>
      <trkpt lat="46.13022" lon="6.2616">
        <ele>483</ele>
        <time>2022-02-10T12:24:50Z</time>
      </trkpt>
      <trkpt lat="46.13016" lon="6.26156">
        <ele>484.2</ele>
        <time>2022-02-10T12:24:53Z</time>
      </trkpt>
      <trkpt lat="46.13007" lon="6.26151">
        <ele>485.6</ele>
        <time>2022-02-10T12:24:57Z</time>
      </trkpt>
      <trkpt lat="46.13005" lon="6.26149">
        <ele>486</ele>
        <time>2022-02-10T12:24:58Z</time>
      </trkpt>
      <trkpt lat="46.12992" lon="6.26137">
        <ele>488.2</ele>
        <time>2022-02-10T12:25:04Z</time>
      </trkpt>
      <trkpt lat="46.1298" lon="6.2612">
        <ele>490.2</ele>
        <time>2022-02-10T12:25:11Z</time>
      </trkpt>
      <trkpt lat="46.12979" lon="6.26117">
        <ele>490.4</ele>
        <time>2022-02-10T12:25:12Z</time>
      </trkpt>
      <trkpt lat="46.12973" lon="6.26106">
        <ele>491.6</ele>
        <time>2022-02-10T12:25:16Z</time>
      </trkpt>
      <trkpt lat="46.12969" lon="6.26096">
        <ele>491.8</ele>
        <time>2022-02-10T12:25:19Z</time>
      </trkpt>
      <trkpt lat="46.12966" lon="6.26077">
        <ele>493.2</ele>
        <time>2022-02-10T12:25:24Z</time>
      </trkpt>
      <trkpt lat="46.12966" lon="6.26073">
        <ele>493.6</ele>
        <time>2022-02-10T12:25:25Z</time>
      </trkpt>
      <trkpt lat="46.12963" lon="6.2606">
        <ele>494.4</ele>
        <time>2022-02-10T12:25:29Z</time>
      </trkpt>
      <trkpt lat="46.12961" lon="6.26056">
        <ele>494.8</ele>
        <time>2022-02-10T12:25:31Z</time>
      </trkpt>
      <trkpt lat="46.12959" lon="6.26054">
        <ele>494.6</ele>
        <time>2022-02-10T12:25:32Z</time>
      </trkpt>
      <trkpt lat="46.12953" lon="6.26055">
        <ele>366</ele>
        <time>2022-02-10T12:25:34Z</time>
      </trkpt>
      <trkpt lat="46.12948" lon="6.26058">
        <ele>496</ele>
        <time>2022-02-10T12:25:36Z</time>
      </trkpt>
      <trkpt lat="46.12936" lon="6.26067">
        <ele>497.2</ele>
        <time>2022-02-10T12:25:40Z</time>
      </trkpt>
      <trkpt lat="46.12932" lon="6.26069">
        <ele>497.4</ele>
        <time>2022-02-10T12:25:41Z</time>
      </trkpt>
      <trkpt lat="46.12921" lon="6.2607">
        <ele>497.6</ele>
        <time>2022-02-10T12:25:44Z</time>
      </trkpt>
      <trkpt lat="46.12908" lon="6.26059">
        <ele>498</ele>
        <time>2022-02-10T12:25:48Z</time>
      </trkpt>
      <trkpt lat="46.12896" lon="6.26028">
        <ele>499.2</ele>
        <time>2022-02-10T12:25:55Z</time>
      </trkpt>
      <trkpt lat="46.12894" lon="6.26024">
        <ele>499</ele>
        <time>2022-02-10T12:25:56Z</time>
      </trkpt>
      <trkpt lat="46.12882" lon="6.25998">
        <ele>499.8</ele>
        <time>2022-02-10T12:26:03Z</time>
      </trkpt>
      <trkpt lat="46.12871" lon="6.2598">
        <ele>500.6</ele>
        <time>2022-02-10T12:26:08Z</time>
      </trkpt>
      <trkpt lat="46.12868" lon="6.25978">
        <ele>500.6</ele>
        <time>2022-02-10T12:26:09Z</time>
      </trkpt>
      <trkpt lat="46.12865" lon="6.25978">
        <ele>500.8</ele>
        <time>2022-02-10T12:26:10Z</time>
      </trkpt>
      <trkpt lat="46.12858" lon="6.25981">
        <ele>501.2</ele>
        <time>2022-02-10T12:26:12Z</time>
      </trkpt>
      <trkpt lat="46.12853" lon="6.25986">
        <ele>501.4</ele>
        <time>2022-02-10T12:26:14Z</time>
      </trkpt>
      <trkpt lat="46.12843" lon="6.26">
        <ele>502</ele>
        <time>2022-02-10T12:26:18Z</time>
      </trkpt>
      <trkpt lat="46.12823" lon="6.26026">
        <ele>503.4</ele>
        <time>2022-02-10T12:26:25Z</time>
      </trkpt>
      <trkpt lat="46.1282" lon="6.2603">
        <ele>503.6</ele>
        <time>2022-02-10T12:26:26Z</time>
      </trkpt>
      <trkpt lat="46.12794" lon="6.26066">
        <ele>505</ele>
        <time>2022-02-10T12:26:34Z</time>
      </trkpt>
      <trkpt lat="46.12769" lon="6.26096">
        <ele>505.4</ele>
        <time>2022-02-10T12:26:41Z</time>
      </trkpt>
      <trkpt lat="46.1276" lon="6.26099">
        <ele>505.4</ele>
        <time>2022-02-10T12:26:43Z</time>
      </trkpt>
      <trkpt lat="46.1275" lon="6.261">
        <ele>505.6</ele>
        <time>2022-02-10T12:26:45Z</time>
      </trkpt>
      <trkpt lat="46.12723" lon="6.26099">
        <ele>506</ele>
        <time>2022-02-10T12:26:51Z</time>
      </trkpt>
      <trkpt lat="46.12705" lon="6.26099">
        <ele>506.2</ele>
        <time>2022-02-10T12:26:55Z</time>
      </trkpt>
      <trkpt lat="46.12696" lon="6.261">
        <ele>506.4</ele>
        <time>2022-02-10T12:26:57Z</time>
      </trkpt>
      <trkpt lat="46.12691" lon="6.261">
        <ele>506.6</ele>
        <time>2022-02-10T12:26:58Z</time>
      </trkpt>
      <trkpt lat="46.12675" lon="6.26096">
        <ele>507.8</ele>
        <time>2022-02-10T12:27:02Z</time>
      </trkpt>
      <trkpt lat="46.12671" lon="6.26095">
        <ele>508.2</ele>
        <time>2022-02-10T12:27:03Z</time>
      </trkpt>
      <trkpt lat="46.12663" lon="6.2609">
        <ele>508.6</ele>
        <time>2022-02-10T12:27:05Z</time>
      </trkpt>
      <trkpt lat="46.12657" lon="6.26083">
        <ele>509</ele>
        <time>2022-02-10T12:27:07Z</time>
      </trkpt>
      <trkpt lat="46.12648" lon="6.26065">
        <ele>509.2</ele>
        <time>2022-02-10T12:27:11Z</time>
      </trkpt>
      <trkpt lat="46.12645" lon="6.26056">
        <ele>509.8</ele>
        <time>2022-02-10T12:27:13Z</time>
      </trkpt>
      <trkpt lat="46.12641" lon="6.26047">
        <ele>510.2</ele>
        <time>2022-02-10T12:27:15Z</time>
      </trkpt>
      <trkpt lat="46.12636" lon="6.26033">
        <ele>510.6</ele>
        <time>2022-02-10T12:27:18Z</time>
      </trkpt>
      <trkpt lat="46.1263" lon="6.26016">
        <ele>511.6</ele>
        <time>2022-02-10T12:27:22Z</time>
      </trkpt>
      <trkpt lat="46.12626" lon="6.26004">
        <ele>512.4</ele>
        <time>2022-02-10T12:27:25Z</time>
      </trkpt>
      <trkpt lat="46.1262" lon="6.25983">
        <ele>514.4</ele>
        <time>2022-02-10T12:27:30Z</time>
      </trkpt>
      <trkpt lat="46.12617" lon="6.25965">
        <ele>516.2</ele>
        <time>2022-02-10T12:27:34Z</time>
      </trkpt>
      <trkpt lat="46.12615" lon="6.25951">
        <ele>517.2</ele>
        <time>2022-02-10T12:27:37Z</time>
      </trkpt>
      <trkpt lat="46.12614" lon="6.25947">
        <ele>517.2</ele>
        <time>2022-02-10T12:27:38Z</time>
      </trkpt>
      <trkpt lat="46.1261" lon="6.25925">
        <ele>518.4</ele>
        <time>2022-02-10T12:27:43Z</time>
      </trkpt>
      <trkpt lat="46.12607" lon="6.25913">
        <ele>519.6</ele>
        <time>2022-02-10T12:27:46Z</time>
      </trkpt>
      <trkpt lat="46.12606" lon="6.2591">
        <ele>519.8</ele>
        <time>2022-02-10T12:27:47Z</time>
      </trkpt>
      <trkpt lat="46.12602" lon="6.25895">
        <ele>521</ele>
        <time>2022-02-10T12:27:51Z</time>
      </trkpt>
      <trkpt lat="46.12597" lon="6.25876">
        <ele>522.6</ele>
        <time>2022-02-10T12:27:56Z</time>
      </trkpt>
      <trkpt lat="46.12594" lon="6.25865">
        <ele>523.4</ele>
        <time>2022-02-10T12:27:59Z</time>
      </trkpt>
      <trkpt lat="46.1259" lon="6.25849">
        <ele>524.6</ele>
        <time>2022-02-10T12:28:03Z</time>
      </trkpt>
      <trkpt lat="46.12588" lon="6.25837">
        <ele>525.6</ele>
        <time>2022-02-10T12:28:06Z</time>
      </trkpt>
      <trkpt lat="46.12588" lon="6.25824">
        <ele>526</ele>
        <time>2022-02-10T12:28:09Z</time>
      </trkpt>
      <trkpt lat="46.12592" lon="6.25813">
        <ele>526.8</ele>
        <time>2022-02-10T12:28:12Z</time>
      </trkpt>
      <trkpt lat="46.12595" lon="6.25807">
        <ele>527.2</ele>
        <time>2022-02-10T12:28:14Z</time>
      </trkpt>
      <trkpt lat="46.12602" lon="6.25802">
        <ele>528</ele>
        <time>2022-02-10T12:28:17Z</time>
      </trkpt>
      <trkpt lat="46.12609" lon="6.25799">
        <ele>529</ele>
        <time>2022-02-10T12:28:20Z</time>
      </trkpt>
      <trkpt lat="46.12617" lon="6.25794">
        <ele>530.2</ele>
        <time>2022-02-10T12:28:23Z</time>
      </trkpt>
      <trkpt lat="46.12625" lon="6.25788">
        <ele>531.2</ele>
        <time>2022-02-10T12:28:26Z</time>
      </trkpt>
      <trkpt lat="46.12638" lon="6.25776">
        <ele>532.2</ele>
        <time>2022-02-10T12:28:31Z</time>
      </trkpt>
      <trkpt lat="46.12651" lon="6.25758">
        <ele>533.6</ele>
        <time>2022-02-10T12:28:37Z</time>
      </trkpt>
      <trkpt lat="46.12655" lon="6.25751">
        <ele>533.6</ele>
        <time>2022-02-10T12:28:39Z</time>
      </trkpt>
      <trkpt lat="46.12662" lon="6.25738">
        <ele>534.4</ele>
        <time>2022-02-10T12:28:43Z</time>
      </trkpt>
      <trkpt lat="46.12668" lon="6.25724">
        <ele>535.2</ele>
        <time>2022-02-10T12:28:47Z</time>
      </trkpt>
      <trkpt lat="46.12673" lon="6.2571">
        <ele>536</ele>
        <time>2022-02-10T12:28:51Z</time>
      </trkpt>
      <trkpt lat="46.12679" lon="6.25697">
        <ele>537.2</ele>
        <time>2022-02-10T12:28:55Z</time>
      </trkpt>
      <trkpt lat="46.12683" lon="6.25686">
        <ele>538</ele>
        <time>2022-02-10T12:28:58Z</time>
      </trkpt>
      <trkpt lat="46.12689" lon="6.25673">
        <ele>539.4</ele>
        <time>2022-02-10T12:29:02Z</time>
      </trkpt>
      <trkpt lat="46.12695" lon="6.2566">
        <ele>540.4</ele>
        <time>2022-02-10T12:29:06Z</time>
      </trkpt>
      <trkpt lat="46.12703" lon="6.25636">
        <ele>542.2</ele>
        <time>2022-02-10T12:29:13Z</time>
      </trkpt>
      <trkpt lat="46.12704" lon="6.25629">
        <ele>542.8</ele>
        <time>2022-02-10T12:29:15Z</time>
      </trkpt>
      <trkpt lat="46.12706" lon="6.25618">
        <ele>543.4</ele>
        <time>2022-02-10T12:29:18Z</time>
      </trkpt>
      <trkpt lat="46.12706" lon="6.25607">
        <ele>544</ele>
        <time>2022-02-10T12:29:21Z</time>
      </trkpt>
      <trkpt lat="46.12707" lon="6.25596">
        <ele>544.8</ele>
        <time>2022-02-10T12:29:24Z</time>
      </trkpt>
      <trkpt lat="46.12707" lon="6.25592">
        <ele>545.2</ele>
        <time>2022-02-10T12:29:25Z</time>
      </trkpt>
      <trkpt lat="46.12707" lon="6.25573">
        <ele>546.6</ele>
        <time>2022-02-10T12:29:30Z</time>
      </trkpt>
      <trkpt lat="46.12706" lon="6.25559">
        <ele>548</ele>
        <time>2022-02-10T12:29:34Z</time>
      </trkpt>
      <trkpt lat="46.12706" lon="6.25556">
        <ele>548.2</ele>
        <time>2022-02-10T12:29:35Z</time>
      </trkpt>
      <trkpt lat="46.12707" lon="6.25545">
        <ele>549.2</ele>
        <time>2022-02-10T12:29:38Z</time>
      </trkpt>
      <trkpt lat="46.12706" lon="6.25527">
        <ele>550.4</ele>
        <time>2022-02-10T12:29:43Z</time>
      </trkpt>
      <trkpt lat="46.12706" lon="6.2551">
        <ele>552</ele>
        <time>2022-02-10T12:29:48Z</time>
      </trkpt>
      <trkpt lat="46.12707" lon="6.25504">
        <ele>552.6</ele>
        <time>2022-02-10T12:29:50Z</time>
      </trkpt>
      <trkpt lat="46.12707" lon="6.25498">
        <ele>553.2</ele>
        <time>2022-02-10T12:29:52Z</time>
      </trkpt>
      <trkpt lat="46.12709" lon="6.2549">
        <ele>554</ele>
        <time>2022-02-10T12:29:55Z</time>
      </trkpt>
      <trkpt lat="46.12713" lon="6.25482">
        <ele>555</ele>
        <time>2022-02-10T12:29:58Z</time>
      </trkpt>
      <trkpt lat="46.12715" lon="6.25477">
        <ele>555.4</ele>
        <time>2022-02-10T12:30:00Z</time>
      </trkpt>
      <trkpt lat="46.1272" lon="6.25468">
        <ele>557</ele>
        <time>2022-02-10T12:30:04Z</time>
      </trkpt>
      <trkpt lat="46.12721" lon="6.25465">
        <ele>557.4</ele>
        <time>2022-02-10T12:30:05Z</time>
      </trkpt>
      <trkpt lat="46.12728" lon="6.25452">
        <ele>559</ele>
        <time>2022-02-10T12:30:11Z</time>
      </trkpt>
      <trkpt lat="46.1273" lon="6.25447">
        <ele>559.4</ele>
        <time>2022-02-10T12:30:13Z</time>
      </trkpt>
      <trkpt lat="46.12735" lon="6.25434">
        <ele>560.8</ele>
        <time>2022-02-10T12:30:18Z</time>
      </trkpt>
      <trkpt lat="46.12737" lon="6.25429">
        <ele>561</ele>
        <time>2022-02-10T12:30:20Z</time>
      </trkpt>
      <trkpt lat="46.12738" lon="6.25424">
        <ele>561.6</ele>
        <time>2022-02-10T12:30:22Z</time>
      </trkpt>
      <trkpt lat="46.1274" lon="6.25413">
        <ele>562.4</ele>
        <time>2022-02-10T12:30:26Z</time>
      </trkpt>
      <trkpt lat="46.1274" lon="6.2541">
        <ele>562.6</ele>
        <time>2022-02-10T12:30:27Z</time>
      </trkpt>
      <trkpt lat="46.12742" lon="6.254">
        <ele>563.8</ele>
        <time>2022-02-10T12:30:31Z</time>
      </trkpt>
      <trkpt lat="46.12744" lon="6.25388">
        <ele>565.2</ele>
        <time>2022-02-10T12:30:35Z</time>
      </trkpt>
      <trkpt lat="46.12745" lon="6.25382">
        <ele>565.6</ele>
        <time>2022-02-10T12:30:37Z</time>
      </trkpt>
      <trkpt lat="46.12747" lon="6.25365">
        <ele>566.8</ele>
        <time>2022-02-10T12:30:43Z</time>
      </trkpt>
      <trkpt lat="46.12747" lon="6.2535">
        <ele>568</ele>
        <time>2022-02-10T12:30:48Z</time>
      </trkpt>
      <trkpt lat="46.12745" lon="6.25342">
        <ele>568.8</ele>
        <time>2022-02-10T12:30:51Z</time>
      </trkpt>
      <trkpt lat="46.12744" lon="6.25339">
        <ele>569.2</ele>
        <time>2022-02-10T12:30:52Z</time>
      </trkpt>
      <trkpt lat="46.12741" lon="6.25331">
        <ele>569.8</ele>
        <time>2022-02-10T12:30:55Z</time>
      </trkpt>
      <trkpt lat="46.12739" lon="6.25326">
        <ele>570.2</ele>
        <time>2022-02-10T12:30:57Z</time>
      </trkpt>
      <trkpt lat="46.1273" lon="6.25308">
        <ele>572.2</ele>
        <time>2022-02-10T12:31:04Z</time>
      </trkpt>
      <trkpt lat="46.12724" lon="6.25297">
        <ele>573.4</ele>
        <time>2022-02-10T12:31:09Z</time>
      </trkpt>
      <trkpt lat="46.12722" lon="6.25293">
        <ele>573.8</ele>
        <time>2022-02-10T12:31:11Z</time>
      </trkpt>
      <trkpt lat="46.12712" lon="6.2528">
        <ele>575.6</ele>
        <time>2022-02-10T12:31:17Z</time>
      </trkpt>
      <trkpt lat="46.12706" lon="6.25274">
        <ele>576.6</ele>
        <time>2022-02-10T12:31:20Z</time>
      </trkpt>
      <trkpt lat="46.12697" lon="6.25269">
        <ele>577</ele>
        <time>2022-02-10T12:31:24Z</time>
      </trkpt>
      <trkpt lat="46.12694" lon="6.25268">
        <ele>577</ele>
        <time>2022-02-10T12:31:25Z</time>
      </trkpt>
      <trkpt lat="46.1269" lon="6.25264">
        <ele>577.4</ele>
        <time>2022-02-10T12:31:27Z</time>
      </trkpt>
      <trkpt lat="46.12676" lon="6.25255">
        <ele>578.8</ele>
        <time>2022-02-10T12:31:33Z</time>
      </trkpt>
      <trkpt lat="46.12672" lon="6.25253">
        <ele>579.6</ele>
        <time>2022-02-10T12:31:35Z</time>
      </trkpt>
      <trkpt lat="46.12655" lon="6.25239">
        <ele>581.4</ele>
        <time>2022-02-10T12:31:42Z</time>
      </trkpt>
      <trkpt lat="46.12651" lon="6.25234">
        <ele>581.6</ele>
        <time>2022-02-10T12:31:44Z</time>
      </trkpt>
      <trkpt lat="46.12642" lon="6.25218">
        <ele>582.4</ele>
        <time>2022-02-10T12:31:49Z</time>
      </trkpt>
      <trkpt lat="46.12639" lon="6.25212">
        <ele>582.6</ele>
        <time>2022-02-10T12:31:51Z</time>
      </trkpt>
      <trkpt lat="46.12628" lon="6.25195">
        <ele>584</ele>
        <time>2022-02-10T12:31:57Z</time>
      </trkpt>
      <trkpt lat="46.12625" lon="6.25188">
        <ele>584.2</ele>
        <time>2022-02-10T12:31:59Z</time>
      </trkpt>
      <trkpt lat="46.12624" lon="6.25174">
        <ele>585.2</ele>
        <time>2022-02-10T12:32:03Z</time>
      </trkpt>
      <trkpt lat="46.12625" lon="6.2517">
        <ele>585.6</ele>
        <time>2022-02-10T12:32:04Z</time>
      </trkpt>
      <trkpt lat="46.12625" lon="6.25167">
        <ele>585.8</ele>
        <time>2022-02-10T12:32:05Z</time>
      </trkpt>
      <trkpt lat="46.1263" lon="6.25154">
        <ele>586</ele>
        <time>2022-02-10T12:32:09Z</time>
      </trkpt>
      <trkpt lat="46.12632" lon="6.25147">
        <ele>586.8</ele>
        <time>2022-02-10T12:32:11Z</time>
      </trkpt>
      <trkpt lat="46.12636" lon="6.25138">
        <ele>587.8</ele>
        <time>2022-02-10T12:32:14Z</time>
      </trkpt>
      <trkpt lat="46.12643" lon="6.25117">
        <ele>589.6</ele>
        <time>2022-02-10T12:32:20Z</time>
      </trkpt>
      <trkpt lat="46.12644" lon="6.25114">
        <ele>590</ele>
        <time>2022-02-10T12:32:21Z</time>
      </trkpt>
      <trkpt lat="46.12645" lon="6.25099">
        <ele>590.8</ele>
        <time>2022-02-10T12:32:25Z</time>
      </trkpt>
      <trkpt lat="46.12644" lon="6.25088">
        <ele>591.6</ele>
        <time>2022-02-10T12:32:28Z</time>
      </trkpt>
      <trkpt lat="46.12643" lon="6.25084">
        <ele>592</ele>
        <time>2022-02-10T12:32:29Z</time>
      </trkpt>
      <trkpt lat="46.12642" lon="6.25066">
        <ele>593.2</ele>
        <time>2022-02-10T12:32:34Z</time>
      </trkpt>
      <trkpt lat="46.12641" lon="6.25059">
        <ele>593.6</ele>
        <time>2022-02-10T12:32:36Z</time>
      </trkpt>
      <trkpt lat="46.12639" lon="6.25044">
        <ele>595.2</ele>
        <time>2022-02-10T12:32:40Z</time>
      </trkpt>
      <trkpt lat="46.12638" lon="6.25033">
        <ele>595.8</ele>
        <time>2022-02-10T12:32:43Z</time>
      </trkpt>
      <trkpt lat="46.12636" lon="6.25022">
        <ele>596.8</ele>
        <time>2022-02-10T12:32:46Z</time>
      </trkpt>
      <trkpt lat="46.12633" lon="6.25004">
        <ele>597.8</ele>
        <time>2022-02-10T12:32:51Z</time>
      </trkpt>
      <trkpt lat="46.12633" lon="6.25">
        <ele>598</ele>
        <time>2022-02-10T12:32:52Z</time>
      </trkpt>
      <trkpt lat="46.1263" lon="6.24983">
        <ele>599.4</ele>
        <time>2022-02-10T12:32:57Z</time>
      </trkpt>
      <trkpt lat="46.12628" lon="6.2497">
        <ele>600.2</ele>
        <time>2022-02-10T12:33:01Z</time>
      </trkpt>
      <trkpt lat="46.12626" lon="6.24965">
        <ele>600.4</ele>
        <time>2022-02-10T12:33:03Z</time>
      </trkpt>
      <trkpt lat="46.12622" lon="6.24957">
        <ele>601.2</ele>
        <time>2022-02-10T12:33:06Z</time>
      </trkpt>
      <trkpt lat="46.12616" lon="6.24951">
        <ele>602</ele>
        <time>2022-02-10T12:33:09Z</time>
      </trkpt>
      <trkpt lat="46.12608" lon="6.24943">
        <ele>603</ele>
        <time>2022-02-10T12:33:13Z</time>
      </trkpt>
      <trkpt lat="46.12603" lon="6.24924">
        <ele>604</ele>
        <time>2022-02-10T12:33:19Z</time>
      </trkpt>
      <trkpt lat="46.12603" lon="6.24914">
        <ele>605</ele>
        <time>2022-02-10T12:33:22Z</time>
      </trkpt>
      <trkpt lat="46.12606" lon="6.24901">
        <ele>606.4</ele>
        <time>2022-02-10T12:33:26Z</time>
      </trkpt>
      <trkpt lat="46.12607" lon="6.24898">
        <ele>606.6</ele>
        <time>2022-02-10T12:33:27Z</time>
      </trkpt>
      <trkpt lat="46.1261" lon="6.2488">
        <ele>608.2</ele>
        <time>2022-02-10T12:33:33Z</time>
      </trkpt>
      <trkpt lat="46.12611" lon="6.24877">
        <ele>608.4</ele>
        <time>2022-02-10T12:33:34Z</time>
      </trkpt>
      <trkpt lat="46.12613" lon="6.24862">
        <ele>609.6</ele>
        <time>2022-02-10T12:33:39Z</time>
      </trkpt>
      <trkpt lat="46.12613" lon="6.24856">
        <ele>610.2</ele>
        <time>2022-02-10T12:33:41Z</time>
      </trkpt>
      <trkpt lat="46.12613" lon="6.24844">
        <ele>611.4</ele>
        <time>2022-02-10T12:33:45Z</time>
      </trkpt>
      <trkpt lat="46.12613" lon="6.24834">
        <ele>612</ele>
        <time>2022-02-10T12:33:48Z</time>
      </trkpt>
      <trkpt lat="46.12614" lon="6.24831">
        <ele>612.2</ele>
        <time>2022-02-10T12:33:49Z</time>
      </trkpt>
      <trkpt lat="46.12614" lon="6.24814">
        <ele>613.4</ele>
        <time>2022-02-10T12:33:54Z</time>
      </trkpt>
      <trkpt lat="46.12614" lon="6.24811">
        <ele>613.6</ele>
        <time>2022-02-10T12:33:55Z</time>
      </trkpt>
      <trkpt lat="46.12613" lon="6.24797">
        <ele>614.8</ele>
        <time>2022-02-10T12:33:59Z</time>
      </trkpt>
      <trkpt lat="46.12613" lon="6.24782">
        <ele>615.8</ele>
        <time>2022-02-10T12:34:03Z</time>
      </trkpt>
      <trkpt lat="46.12612" lon="6.2477">
        <ele>616.6</ele>
        <time>2022-02-10T12:34:06Z</time>
      </trkpt>
      <trkpt lat="46.12612" lon="6.24747">
        <ele>618.4</ele>
        <time>2022-02-10T12:34:12Z</time>
      </trkpt>
      <trkpt lat="46.12612" lon="6.24735">
        <ele>619</ele>
        <time>2022-02-10T12:34:15Z</time>
      </trkpt>
      <trkpt lat="46.12613" lon="6.24711">
        <ele>619.6</ele>
        <time>2022-02-10T12:34:21Z</time>
      </trkpt>
      <trkpt lat="46.12612" lon="6.24708">
        <ele>619.8</ele>
        <time>2022-02-10T12:34:22Z</time>
      </trkpt>
      <trkpt lat="46.12607" lon="6.2469">
        <ele>620.4</ele>
        <time>2022-02-10T12:34:27Z</time>
      </trkpt>
      <trkpt lat="46.12604" lon="6.24683">
        <ele>620.8</ele>
        <time>2022-02-10T12:34:29Z</time>
      </trkpt>
      <trkpt lat="46.12597" lon="6.24672">
        <ele>621.8</ele>
        <time>2022-02-10T12:34:33Z</time>
      </trkpt>
      <trkpt lat="46.1259" lon="6.24662">
        <ele>622.8</ele>
        <time>2022-02-10T12:34:37Z</time>
      </trkpt>
      <trkpt lat="46.12586" lon="6.24657">
        <ele>623.2</ele>
        <time>2022-02-10T12:34:39Z</time>
      </trkpt>
      <trkpt lat="46.12576" lon="6.24645">
        <ele>624.2</ele>
        <time>2022-02-10T12:34:44Z</time>
      </trkpt>
      <trkpt lat="46.12575" lon="6.24643">
        <ele>624.4</ele>
        <time>2022-02-10T12:34:45Z</time>
      </trkpt>
      <trkpt lat="46.12571" lon="6.24631">
        <ele>625.2</ele>
        <time>2022-02-10T12:34:50Z</time>
      </trkpt>
      <trkpt lat="46.12566" lon="6.24614">
        <ele>626.8</ele>
        <time>2022-02-10T12:34:56Z</time>
      </trkpt>
      <trkpt lat="46.12565" lon="6.24608">
        <ele>627.4</ele>
        <time>2022-02-10T12:34:58Z</time>
      </trkpt>
      <trkpt lat="46.12564" lon="6.246">
        <ele>628.6</ele>
        <time>2022-02-10T12:35:01Z</time>
      </trkpt>
      <trkpt lat="46.12562" lon="6.24588">
        <ele>629.2</ele>
        <time>2022-02-10T12:35:05Z</time>
      </trkpt>
      <trkpt lat="46.12562" lon="6.24585">
        <ele>629.6</ele>
        <time>2022-02-10T12:35:06Z</time>
      </trkpt>
      <trkpt lat="46.12563" lon="6.24569">
        <ele>631.2</ele>
        <time>2022-02-10T12:35:12Z</time>
      </trkpt>
      <trkpt lat="46.12564" lon="6.24563">
        <ele>631.6</ele>
        <time>2022-02-10T12:35:14Z</time>
      </trkpt>
      <trkpt lat="46.12565" lon="6.24557">
        <ele>632</ele>
        <time>2022-02-10T12:35:16Z</time>
      </trkpt>
      <trkpt lat="46.12569" lon="6.24547">
        <ele>633</ele>
        <time>2022-02-10T12:35:20Z</time>
      </trkpt>
      <trkpt lat="46.12573" lon="6.24538">
        <ele>634.4</ele>
        <time>2022-02-10T12:35:24Z</time>
      </trkpt>
      <trkpt lat="46.12581" lon="6.24529">
        <ele>636</ele>
        <time>2022-02-10T12:35:29Z</time>
      </trkpt>
      <trkpt lat="46.12585" lon="6.24526">
        <ele>636.6</ele>
        <time>2022-02-10T12:35:31Z</time>
      </trkpt>
      <trkpt lat="46.12591" lon="6.24521">
        <ele>637.4</ele>
        <time>2022-02-10T12:35:34Z</time>
      </trkpt>
      <trkpt lat="46.12599" lon="6.24517">
        <ele>638.2</ele>
        <time>2022-02-10T12:35:38Z</time>
      </trkpt>
      <trkpt lat="46.12607" lon="6.24511">
        <ele>639</ele>
        <time>2022-02-10T12:35:42Z</time>
      </trkpt>
      <trkpt lat="46.12611" lon="6.24509">
        <ele>639.8</ele>
        <time>2022-02-10T12:35:44Z</time>
      </trkpt>
      <trkpt lat="46.12613" lon="6.24508">
        <ele>639.8</ele>
        <time>2022-02-10T12:35:45Z</time>
      </trkpt>
      <trkpt lat="46.12627" lon="6.245">
        <ele>641.4</ele>
        <time>2022-02-10T12:35:52Z</time>
      </trkpt>
      <trkpt lat="46.12637" lon="6.24494">
        <ele>642.8</ele>
        <time>2022-02-10T12:35:57Z</time>
      </trkpt>
      <trkpt lat="46.12641" lon="6.24488">
        <ele>643.4</ele>
        <time>2022-02-10T12:36:00Z</time>
      </trkpt>
      <trkpt lat="46.12642" lon="6.24487">
        <ele>643.6</ele>
        <time>2022-02-10T12:36:01Z</time>
      </trkpt>
      <trkpt lat="46.12648" lon="6.24471">
        <ele>645.2</ele>
        <time>2022-02-10T12:36:08Z</time>
      </trkpt>
      <trkpt lat="46.12647" lon="6.2446">
        <ele>646.2</ele>
        <time>2022-02-10T12:36:12Z</time>
      </trkpt>
      <trkpt lat="46.12646" lon="6.24453">
        <ele>646.8</ele>
        <time>2022-02-10T12:36:15Z</time>
      </trkpt>
      <trkpt lat="46.12644" lon="6.24447">
        <ele>647.2</ele>
        <time>2022-02-10T12:36:17Z</time>
      </trkpt>
      <trkpt lat="46.1264" lon="6.24441">
        <ele>648.2</ele>
        <time>2022-02-10T12:36:20Z</time>
      </trkpt>
      <trkpt lat="46.12636" lon="6.24437">
        <ele>648.8</ele>
        <time>2022-02-10T12:36:22Z</time>
      </trkpt>
      <trkpt lat="46.12633" lon="6.24434">
        <ele>649.4</ele>
        <time>2022-02-10T12:36:24Z</time>
      </trkpt>
      <trkpt lat="46.1263" lon="6.24433">
        <ele>649.8</ele>
        <time>2022-02-10T12:36:25Z</time>
      </trkpt>
      <trkpt lat="46.12621" lon="6.2443">
        <ele>650.8</ele>
        <time>2022-02-10T12:36:29Z</time>
      </trkpt>
      <trkpt lat="46.12617" lon="6.24428">
        <ele>651.6</ele>
        <time>2022-02-10T12:36:31Z</time>
      </trkpt>
      <trkpt lat="46.12605" lon="6.24426">
        <ele>653</ele>
        <time>2022-02-10T12:36:36Z</time>
      </trkpt>
      <trkpt lat="46.12591" lon="6.24424">
        <ele>654.2</ele>
        <time>2022-02-10T12:36:42Z</time>
      </trkpt>
      <trkpt lat="46.12583" lon="6.24423">
        <ele>654.8</ele>
        <time>2022-02-10T12:36:45Z</time>
      </trkpt>
      <trkpt lat="46.12581" lon="6.24422">
        <ele>655</ele>
        <time>2022-02-10T12:36:46Z</time>
      </trkpt>
      <trkpt lat="46.12568" lon="6.24421">
        <ele>655.6</ele>
        <time>2022-02-10T12:36:51Z</time>
      </trkpt>
      <trkpt lat="46.12561" lon="6.24418">
        <ele>656.4</ele>
        <time>2022-02-10T12:36:54Z</time>
      </trkpt>
      <trkpt lat="46.12554" lon="6.24412">
        <ele>657.6</ele>
        <time>2022-02-10T12:36:58Z</time>
      </trkpt>
      <trkpt lat="46.12552" lon="6.24408">
        <ele>658.2</ele>
        <time>2022-02-10T12:37:00Z</time>
      </trkpt>
      <trkpt lat="46.1255" lon="6.24404">
        <ele>658.4</ele>
        <time>2022-02-10T12:37:02Z</time>
      </trkpt>
      <trkpt lat="46.12544" lon="6.24388">
        <ele>660</ele>
        <time>2022-02-10T12:37:08Z</time>
      </trkpt>
      <trkpt lat="46.12543" lon="6.24362">
        <ele>661.8</ele>
        <time>2022-02-10T12:37:15Z</time>
      </trkpt>
      <trkpt lat="46.12547" lon="6.24344">
        <ele>662.8</ele>
        <time>2022-02-10T12:37:20Z</time>
      </trkpt>
      <trkpt lat="46.12552" lon="6.24327">
        <ele>663.8</ele>
        <time>2022-02-10T12:37:25Z</time>
      </trkpt>
      <trkpt lat="46.12556" lon="6.24313">
        <ele>664.6</ele>
        <time>2022-02-10T12:37:29Z</time>
      </trkpt>
      <trkpt lat="46.12557" lon="6.24306">
        <ele>665.2</ele>
        <time>2022-02-10T12:37:31Z</time>
      </trkpt>
      <trkpt lat="46.12557" lon="6.24278">
        <ele>667</ele>
        <time>2022-02-10T12:37:38Z</time>
      </trkpt>
      <trkpt lat="46.12552" lon="6.2425">
        <ele>667.6</ele>
        <time>2022-02-10T12:37:45Z</time>
      </trkpt>
      <trkpt lat="46.1254" lon="6.24225">
        <ele>668</ele>
        <time>2022-02-10T12:37:51Z</time>
      </trkpt>
      <trkpt lat="46.12528" lon="6.2421">
        <ele>668.2</ele>
        <time>2022-02-10T12:37:55Z</time>
      </trkpt>
      <trkpt lat="46.12523" lon="6.242">
        <ele>668.4</ele>
        <time>2022-02-10T12:37:57Z</time>
      </trkpt>
      <trkpt lat="46.12507" lon="6.2418">
        <ele>668.4</ele>
        <time>2022-02-10T12:38:02Z</time>
      </trkpt>
      <trkpt lat="46.12498" lon="6.24169">
        <ele>668.4</ele>
        <time>2022-02-10T12:38:05Z</time>
      </trkpt>
      <trkpt lat="46.12485" lon="6.24155">
        <ele>668.4</ele>
        <time>2022-02-10T12:38:09Z</time>
      </trkpt>
      <trkpt lat="46.12471" lon="6.24143">
        <ele>669</ele>
        <time>2022-02-10T12:38:13Z</time>
      </trkpt>
      <trkpt lat="46.12465" lon="6.24137">
        <ele>669.4</ele>
        <time>2022-02-10T12:38:15Z</time>
      </trkpt>
      <trkpt lat="46.12453" lon="6.24126">
        <ele>670.2</ele>
        <time>2022-02-10T12:38:19Z</time>
      </trkpt>
      <trkpt lat="46.12442" lon="6.24113">
        <ele>671</ele>
        <time>2022-02-10T12:38:23Z</time>
      </trkpt>
      <trkpt lat="46.1243" lon="6.24097">
        <ele>672</ele>
        <time>2022-02-10T12:38:28Z</time>
      </trkpt>
      <trkpt lat="46.12426" lon="6.2409">
        <ele>672.2</ele>
        <time>2022-02-10T12:38:30Z</time>
      </trkpt>
      <trkpt lat="46.12424" lon="6.24086">
        <ele>672.4</ele>
        <time>2022-02-10T12:38:31Z</time>
      </trkpt>
      <trkpt lat="46.1241" lon="6.24065">
        <ele>673.4</ele>
        <time>2022-02-10T12:38:37Z</time>
      </trkpt>
      <trkpt lat="46.12408" lon="6.24063">
        <ele>673.6</ele>
        <time>2022-02-10T12:38:38Z</time>
      </trkpt>
      <trkpt lat="46.124" lon="6.24053">
        <ele>675.2</ele>
        <time>2022-02-10T12:38:42Z</time>
      </trkpt>
      <trkpt lat="46.12396" lon="6.24054">
        <ele>675.2</ele>
        <time>2022-02-10T12:38:44Z</time>
      </trkpt>
      <trkpt lat="46.12391" lon="6.24059">
        <ele>675.8</ele>
        <time>2022-02-10T12:38:46Z</time>
      </trkpt>
      <trkpt lat="46.12378" lon="6.24061">
        <ele>676.6</ele>
        <time>2022-02-10T12:38:50Z</time>
      </trkpt>
      <trkpt lat="46.12372" lon="6.24059">
        <ele>676.6</ele>
        <time>2022-02-10T12:38:52Z</time>
      </trkpt>
      <trkpt lat="46.12368" lon="6.2406">
        <ele>676.8</ele>
        <time>2022-02-10T12:38:54Z</time>
      </trkpt>
      <trkpt lat="46.12368" lon="6.2406">
        <ele>677</ele>
        <time>2022-02-10T12:38:59Z</time>
      </trkpt>
      <trkpt lat="46.12367" lon="6.24059">
        <ele>677.4</ele>
        <time>2022-02-10T12:39:24Z</time>
      </trkpt>
      <trkpt lat="46.12366" lon="6.24057">
        <ele>677.6</ele>
        <time>2022-02-10T12:39:26Z</time>
      </trkpt>
      <trkpt lat="46.12367" lon="6.24055">
        <ele>677.6</ele>
        <time>2022-02-10T12:39:28Z</time>
      </trkpt>
      <trkpt lat="46.12374" lon="6.24063">
        <ele>677.6</ele>
        <time>2022-02-10T12:39:32Z</time>
      </trkpt>
      <trkpt lat="46.12385" lon="6.24064">
        <ele>677.6</ele>
        <time>2022-02-10T12:39:36Z</time>
      </trkpt>
      <trkpt lat="46.12395" lon="6.24059">
        <ele>677.6</ele>
        <time>2022-02-10T12:39:40Z</time>
      </trkpt>
      <trkpt lat="46.12396" lon="6.24056">
        <ele>677.6</ele>
        <time>2022-02-10T12:39:41Z</time>
      </trkpt>
      <trkpt lat="46.12397" lon="6.24052">
        <ele>677.6</ele>
        <time>2022-02-10T12:39:42Z</time>
      </trkpt>
      <trkpt lat="46.12395" lon="6.24044">
        <ele>677.6</ele>
        <time>2022-02-10T12:39:44Z</time>
      </trkpt>
      <trkpt lat="46.12392" lon="6.24015">
        <ele>677.6</ele>
        <time>2022-02-10T12:39:50Z</time>
      </trkpt>
      <trkpt lat="46.12388" lon="6.23976">
        <ele>677.8</ele>
        <time>2022-02-10T12:39:57Z</time>
      </trkpt>
      <trkpt lat="46.12387" lon="6.2397">
        <ele>678.2</ele>
        <time>2022-02-10T12:39:58Z</time>
      </trkpt>
      <trkpt lat="46.12381" lon="6.23943">
        <ele>679</ele>
        <time>2022-02-10T12:40:03Z</time>
      </trkpt>
      <trkpt lat="46.12377" lon="6.23929">
        <ele>679.2</ele>
        <time>2022-02-10T12:40:06Z</time>
      </trkpt>
      <trkpt lat="46.12369" lon="6.23914">
        <ele>680.2</ele>
        <time>2022-02-10T12:40:10Z</time>
      </trkpt>
      <trkpt lat="46.12365" lon="6.23908">
        <ele>680.8</ele>
        <time>2022-02-10T12:40:12Z</time>
      </trkpt>
      <trkpt lat="46.12362" lon="6.23906">
        <ele>681</ele>
        <time>2022-02-10T12:40:13Z</time>
      </trkpt>
      <trkpt lat="46.12346" lon="6.23897">
        <ele>682.4</ele>
        <time>2022-02-10T12:40:19Z</time>
      </trkpt>
      <trkpt lat="46.12339" lon="6.23898">
        <ele>683</ele>
        <time>2022-02-10T12:40:21Z</time>
      </trkpt>
      <trkpt lat="46.12321" lon="6.23904">
        <ele>684.2</ele>
        <time>2022-02-10T12:40:26Z</time>
      </trkpt>
      <trkpt lat="46.12299" lon="6.23914">
        <ele>685.6</ele>
        <time>2022-02-10T12:40:32Z</time>
      </trkpt>
      <trkpt lat="46.12292" lon="6.23918">
        <ele>685.8</ele>
        <time>2022-02-10T12:40:34Z</time>
      </trkpt>
      <trkpt lat="46.12268" lon="6.23919">
        <ele>686.6</ele>
        <time>2022-02-10T12:40:40Z</time>
      </trkpt>
      <trkpt lat="46.12265" lon="6.23918">
        <ele>686.4</ele>
        <time>2022-02-10T12:40:41Z</time>
      </trkpt>
      <trkpt lat="46.12247" lon="6.23909">
        <ele>687.2</ele>
        <time>2022-02-10T12:40:46Z</time>
      </trkpt>
      <trkpt lat="46.12225" lon="6.23889">
        <ele>688.4</ele>
        <time>2022-02-10T12:40:53Z</time>
      </trkpt>
      <trkpt lat="46.12217" lon="6.23879">
        <ele>688.8</ele>
        <time>2022-02-10T12:40:56Z</time>
      </trkpt>
      <trkpt lat="46.12214" lon="6.23876">
        <ele>688.8</ele>
        <time>2022-02-10T12:40:57Z</time>
      </trkpt>
      <trkpt lat="46.12194" lon="6.23847">
        <ele>689.8</ele>
        <time>2022-02-10T12:41:05Z</time>
      </trkpt>
      <trkpt lat="46.12192" lon="6.23843">
        <ele>690.2</ele>
        <time>2022-02-10T12:41:06Z</time>
      </trkpt>
      <trkpt lat="46.12181" lon="6.23815">
        <ele>691.8</ele>
        <time>2022-02-10T12:41:13Z</time>
      </trkpt>
      <trkpt lat="46.12179" lon="6.23811">
        <ele>692.2</ele>
        <time>2022-02-10T12:41:14Z</time>
      </trkpt>
      <trkpt lat="46.12177" lon="6.23798">
        <ele>692.4</ele>
        <time>2022-02-10T12:41:17Z</time>
      </trkpt>
      <trkpt lat="46.12172" lon="6.23777">
        <ele>693.2</ele>
        <time>2022-02-10T12:41:22Z</time>
      </trkpt>
      <trkpt lat="46.12171" lon="6.23773">
        <ele>693.6</ele>
        <time>2022-02-10T12:41:23Z</time>
      </trkpt>
      <trkpt lat="46.1217" lon="6.23769">
        <ele>694</ele>
        <time>2022-02-10T12:41:24Z</time>
      </trkpt>
      <trkpt lat="46.12168" lon="6.2376">
        <ele>694.6</ele>
        <time>2022-02-10T12:41:26Z</time>
      </trkpt>
      <trkpt lat="46.12162" lon="6.23744">
        <ele>695.2</ele>
        <time>2022-02-10T12:41:30Z</time>
      </trkpt>
      <trkpt lat="46.12161" lon="6.23741">
        <ele>695.2</ele>
        <time>2022-02-10T12:41:31Z</time>
      </trkpt>
      <trkpt lat="46.12143" lon="6.23716">
        <ele>696</ele>
        <time>2022-02-10T12:41:38Z</time>
      </trkpt>
      <trkpt lat="46.12134" lon="6.23708">
        <ele>696.2</ele>
        <time>2022-02-10T12:41:41Z</time>
      </trkpt>
      <trkpt lat="46.12117" lon="6.23697">
        <ele>696.8</ele>
        <time>2022-02-10T12:41:46Z</time>
      </trkpt>
      <trkpt lat="46.12095" lon="6.2368">
        <ele>698.2</ele>
        <time>2022-02-10T12:41:53Z</time>
      </trkpt>
      <trkpt lat="46.12082" lon="6.2367">
        <ele>698.6</ele>
        <time>2022-02-10T12:41:57Z</time>
      </trkpt>
      <trkpt lat="46.12071" lon="6.23659">
        <ele>699</ele>
        <time>2022-02-10T12:42:01Z</time>
      </trkpt>
      <trkpt lat="46.12063" lon="6.2365">
        <ele>700</ele>
        <time>2022-02-10T12:42:04Z</time>
      </trkpt>
      <trkpt lat="46.12059" lon="6.23644">
        <ele>700.2</ele>
        <time>2022-02-10T12:42:06Z</time>
      </trkpt>
      <trkpt lat="46.12053" lon="6.23634">
        <ele>700.6</ele>
        <time>2022-02-10T12:42:09Z</time>
      </trkpt>
      <trkpt lat="46.12043" lon="6.23616">
        <ele>702</ele>
        <time>2022-02-10T12:42:14Z</time>
      </trkpt>
      <trkpt lat="46.1204" lon="6.23609">
        <ele>702.6</ele>
        <time>2022-02-10T12:42:16Z</time>
      </trkpt>
      <trkpt lat="46.12031" lon="6.23592">
        <ele>703.8</ele>
        <time>2022-02-10T12:42:21Z</time>
      </trkpt>
      <trkpt lat="46.12029" lon="6.23588">
        <ele>704</ele>
        <time>2022-02-10T12:42:22Z</time>
      </trkpt>
      <trkpt lat="46.12024" lon="6.23578">
        <ele>704.6</ele>
        <time>2022-02-10T12:42:25Z</time>
      </trkpt>
      <trkpt lat="46.12016" lon="6.23561">
        <ele>705.6</ele>
        <time>2022-02-10T12:42:30Z</time>
      </trkpt>
      <trkpt lat="46.12014" lon="6.23558">
        <ele>706</ele>
        <time>2022-02-10T12:42:31Z</time>
      </trkpt>
      <trkpt lat="46.12009" lon="6.23544">
        <ele>707</ele>
        <time>2022-02-10T12:42:35Z</time>
      </trkpt>
      <trkpt lat="46.11999" lon="6.23526">
        <ele>708.8</ele>
        <time>2022-02-10T12:42:41Z</time>
      </trkpt>
      <trkpt lat="46.1199" lon="6.23507">
        <ele>710.2</ele>
        <time>2022-02-10T12:42:47Z</time>
      </trkpt>
      <trkpt lat="46.11983" lon="6.23492">
        <ele>711.4</ele>
        <time>2022-02-10T12:42:52Z</time>
      </trkpt>
      <trkpt lat="46.1198" lon="6.23485">
        <ele>711.6</ele>
        <time>2022-02-10T12:42:54Z</time>
      </trkpt>
      <trkpt lat="46.11974" lon="6.23471">
        <ele>712.8</ele>
        <time>2022-02-10T12:42:59Z</time>
      </trkpt>
      <trkpt lat="46.11968" lon="6.23457">
        <ele>713.4</ele>
        <time>2022-02-10T12:43:04Z</time>
      </trkpt>
      <trkpt lat="46.11966" lon="6.23451">
        <ele>714</ele>
        <time>2022-02-10T12:43:06Z</time>
      </trkpt>
      <trkpt lat="46.11961" lon="6.23441">
        <ele>714.8</ele>
        <time>2022-02-10T12:43:10Z</time>
      </trkpt>
      <trkpt lat="46.11956" lon="6.23433">
        <ele>715.6</ele>
        <time>2022-02-10T12:43:13Z</time>
      </trkpt>
      <trkpt lat="46.11952" lon="6.23428">
        <ele>716</ele>
        <time>2022-02-10T12:43:15Z</time>
      </trkpt>
      <trkpt lat="46.11943" lon="6.23416">
        <ele>717</ele>
        <time>2022-02-10T12:43:20Z</time>
      </trkpt>
      <trkpt lat="46.11939" lon="6.2341">
        <ele>717.4</ele>
        <time>2022-02-10T12:43:22Z</time>
      </trkpt>
      <trkpt lat="46.11929" lon="6.23392">
        <ele>718.2</ele>
        <time>2022-02-10T12:43:27Z</time>
      </trkpt>
      <trkpt lat="46.11927" lon="6.23388">
        <ele>718.4</ele>
        <time>2022-02-10T12:43:28Z</time>
      </trkpt>
      <trkpt lat="46.11911" lon="6.2336">
        <ele>720.2</ele>
        <time>2022-02-10T12:43:36Z</time>
      </trkpt>
      <trkpt lat="46.119" lon="6.23341">
        <ele>721.6</ele>
        <time>2022-02-10T12:43:42Z</time>
      </trkpt>
      <trkpt lat="46.11897" lon="6.23335">
        <ele>721.6</ele>
        <time>2022-02-10T12:43:44Z</time>
      </trkpt>
      <trkpt lat="46.11892" lon="6.23327">
        <ele>722.2</ele>
        <time>2022-02-10T12:43:47Z</time>
      </trkpt>
      <trkpt lat="46.11884" lon="6.23317">
        <ele>723</ele>
        <time>2022-02-10T12:43:51Z</time>
      </trkpt>
      <trkpt lat="46.11882" lon="6.23314">
        <ele>723.2</ele>
        <time>2022-02-10T12:43:52Z</time>
      </trkpt>
      <trkpt lat="46.11867" lon="6.23293">
        <ele>724.8</ele>
        <time>2022-02-10T12:43:59Z</time>
      </trkpt>
      <trkpt lat="46.11856" lon="6.23278">
        <ele>726.2</ele>
        <time>2022-02-10T12:44:04Z</time>
      </trkpt>
      <trkpt lat="46.1185" lon="6.23269">
        <ele>726.8</ele>
        <time>2022-02-10T12:44:07Z</time>
      </trkpt>
      <trkpt lat="46.11846" lon="6.23262">
        <ele>727</ele>
        <time>2022-02-10T12:44:09Z</time>
      </trkpt>
      <trkpt lat="46.11838" lon="6.23248">
        <ele>728</ele>
        <time>2022-02-10T12:44:13Z</time>
      </trkpt>
      <trkpt lat="46.11833" lon="6.23241">
        <ele>728.6</ele>
        <time>2022-02-10T12:44:15Z</time>
      </trkpt>
      <trkpt lat="46.11825" lon="6.23228">
        <ele>729.6</ele>
        <time>2022-02-10T12:44:19Z</time>
      </trkpt>
      <trkpt lat="46.1182" lon="6.23221">
        <ele>730</ele>
        <time>2022-02-10T12:44:21Z</time>
      </trkpt>
      <trkpt lat="46.11806" lon="6.23199">
        <ele>731.6</ele>
        <time>2022-02-10T12:44:28Z</time>
      </trkpt>
      <trkpt lat="46.11804" lon="6.23196">
        <ele>731.6</ele>
        <time>2022-02-10T12:44:29Z</time>
      </trkpt>
      <trkpt lat="46.11793" lon="6.23182">
        <ele>732.6</ele>
        <time>2022-02-10T12:44:35Z</time>
      </trkpt>
      <trkpt lat="46.1179" lon="6.23177">
        <ele>732.8</ele>
        <time>2022-02-10T12:44:37Z</time>
      </trkpt>
      <trkpt lat="46.11785" lon="6.23169">
        <ele>733.4</ele>
        <time>2022-02-10T12:44:40Z</time>
      </trkpt>
      <trkpt lat="46.11776" lon="6.23156">
        <ele>733.8</ele>
        <time>2022-02-10T12:44:44Z</time>
      </trkpt>
      <trkpt lat="46.11774" lon="6.23153">
        <ele>733.8</ele>
        <time>2022-02-10T12:44:45Z</time>
      </trkpt>
      <trkpt lat="46.1176" lon="6.23132">
        <ele>735</ele>
        <time>2022-02-10T12:44:51Z</time>
      </trkpt>
      <trkpt lat="46.11747" lon="6.23115">
        <ele>736.2</ele>
        <time>2022-02-10T12:44:57Z</time>
      </trkpt>
      <trkpt lat="46.11737" lon="6.23101">
        <ele>737</ele>
        <time>2022-02-10T12:45:02Z</time>
      </trkpt>
      <trkpt lat="46.11735" lon="6.23098">
        <ele>737.2</ele>
        <time>2022-02-10T12:45:03Z</time>
      </trkpt>
      <trkpt lat="46.11727" lon="6.23086">
        <ele>738.6</ele>
        <time>2022-02-10T12:45:08Z</time>
      </trkpt>
      <trkpt lat="46.11725" lon="6.23084">
        <ele>738.6</ele>
        <time>2022-02-10T12:45:09Z</time>
      </trkpt>
      <trkpt lat="46.11718" lon="6.23075">
        <ele>739.4</ele>
        <time>2022-02-10T12:45:13Z</time>
      </trkpt>
      <trkpt lat="46.11713" lon="6.23069">
        <ele>740.2</ele>
        <time>2022-02-10T12:45:16Z</time>
      </trkpt>
      <trkpt lat="46.11706" lon="6.23058">
        <ele>741.4</ele>
        <time>2022-02-10T12:45:20Z</time>
      </trkpt>
      <trkpt lat="46.11701" lon="6.23049">
        <ele>742.2</ele>
        <time>2022-02-10T12:45:23Z</time>
      </trkpt>
      <trkpt lat="46.11698" lon="6.23043">
        <ele>742.6</ele>
        <time>2022-02-10T12:45:25Z</time>
      </trkpt>
      <trkpt lat="46.11689" lon="6.23026">
        <ele>743.2</ele>
        <time>2022-02-10T12:45:30Z</time>
      </trkpt>
      <trkpt lat="46.11685" lon="6.23018">
        <ele>743.6</ele>
        <time>2022-02-10T12:45:32Z</time>
      </trkpt>
      <trkpt lat="46.11678" lon="6.23001">
        <ele>744.6</ele>
        <time>2022-02-10T12:45:36Z</time>
      </trkpt>
      <trkpt lat="46.11675" lon="6.22993">
        <ele>745</ele>
        <time>2022-02-10T12:45:38Z</time>
      </trkpt>
      <trkpt lat="46.11672" lon="6.22984">
        <ele>745.2</ele>
        <time>2022-02-10T12:45:40Z</time>
      </trkpt>
      <trkpt lat="46.11666" lon="6.22968">
        <ele>746.4</ele>
        <time>2022-02-10T12:45:44Z</time>
      </trkpt>
      <trkpt lat="46.11665" lon="6.22964">
        <ele>746.6</ele>
        <time>2022-02-10T12:45:45Z</time>
      </trkpt>
      <trkpt lat="46.11659" lon="6.22949">
        <ele>747</ele>
        <time>2022-02-10T12:45:49Z</time>
      </trkpt>
      <trkpt lat="46.11655" lon="6.22937">
        <ele>747.6</ele>
        <time>2022-02-10T12:45:52Z</time>
      </trkpt>
      <trkpt lat="46.11653" lon="6.2293">
        <ele>748.2</ele>
        <time>2022-02-10T12:45:54Z</time>
      </trkpt>
      <trkpt lat="46.1165" lon="6.22919">
        <ele>749.2</ele>
        <time>2022-02-10T12:45:57Z</time>
      </trkpt>
      <trkpt lat="46.11644" lon="6.22898">
        <ele>751</ele>
        <time>2022-02-10T12:46:03Z</time>
      </trkpt>
      <trkpt lat="46.11641" lon="6.22888">
        <ele>752.2</ele>
        <time>2022-02-10T12:46:06Z</time>
      </trkpt>
      <trkpt lat="46.11636" lon="6.22868">
        <ele>753.6</ele>
        <time>2022-02-10T12:46:12Z</time>
      </trkpt>
      <trkpt lat="46.11634" lon="6.2286">
        <ele>754.4</ele>
        <time>2022-02-10T12:46:15Z</time>
      </trkpt>
      <trkpt lat="46.11631" lon="6.22845">
        <ele>755.4</ele>
        <time>2022-02-10T12:46:20Z</time>
      </trkpt>
      <trkpt lat="46.11628" lon="6.22831">
        <ele>757.2</ele>
        <time>2022-02-10T12:46:25Z</time>
      </trkpt>
      <trkpt lat="46.11626" lon="6.2282">
        <ele>758.2</ele>
        <time>2022-02-10T12:46:29Z</time>
      </trkpt>
      <trkpt lat="46.11625" lon="6.22817">
        <ele>758.4</ele>
        <time>2022-02-10T12:46:30Z</time>
      </trkpt>
      <trkpt lat="46.11622" lon="6.22803">
        <ele>759.6</ele>
        <time>2022-02-10T12:46:35Z</time>
      </trkpt>
      <trkpt lat="46.1162" lon="6.22791">
        <ele>760.6</ele>
        <time>2022-02-10T12:46:39Z</time>
      </trkpt>
      <trkpt lat="46.11619" lon="6.22786">
        <ele>761.2</ele>
        <time>2022-02-10T12:46:41Z</time>
      </trkpt>
      <trkpt lat="46.11615" lon="6.22769">
        <ele>762.6</ele>
        <time>2022-02-10T12:46:47Z</time>
      </trkpt>
      <trkpt lat="46.11613" lon="6.22752">
        <ele>764.2</ele>
        <time>2022-02-10T12:46:53Z</time>
      </trkpt>
      <trkpt lat="46.11612" lon="6.22747">
        <ele>764.6</ele>
        <time>2022-02-10T12:46:55Z</time>
      </trkpt>
      <trkpt lat="46.1161" lon="6.22738">
        <ele>765.2</ele>
        <time>2022-02-10T12:46:58Z</time>
      </trkpt>
      <trkpt lat="46.11609" lon="6.22727">
        <ele>766.4</ele>
        <time>2022-02-10T12:47:02Z</time>
      </trkpt>
      <trkpt lat="46.11609" lon="6.22718">
        <ele>767.2</ele>
        <time>2022-02-10T12:47:05Z</time>
      </trkpt>
      <trkpt lat="46.11608" lon="6.22704">
        <ele>768.4</ele>
        <time>2022-02-10T12:47:10Z</time>
      </trkpt>
      <trkpt lat="46.11608" lon="6.22701">
        <ele>768.6</ele>
        <time>2022-02-10T12:47:11Z</time>
      </trkpt>
      <trkpt lat="46.1161" lon="6.22683">
        <ele>769.8</ele>
        <time>2022-02-10T12:47:16Z</time>
      </trkpt>
      <trkpt lat="46.1161" lon="6.22679">
        <ele>770</ele>
        <time>2022-02-10T12:47:17Z</time>
      </trkpt>
      <trkpt lat="46.11615" lon="6.22649">
        <ele>771.6</ele>
        <time>2022-02-10T12:47:25Z</time>
      </trkpt>
      <trkpt lat="46.11616" lon="6.22641">
        <ele>772</ele>
        <time>2022-02-10T12:47:27Z</time>
      </trkpt>
      <trkpt lat="46.11619" lon="6.22612">
        <ele>773</ele>
        <time>2022-02-10T12:47:34Z</time>
      </trkpt>
      <trkpt lat="46.1162" lon="6.22608">
        <ele>773</ele>
        <time>2022-02-10T12:47:35Z</time>
      </trkpt>
      <trkpt lat="46.11622" lon="6.22581">
        <ele>774</ele>
        <time>2022-02-10T12:47:42Z</time>
      </trkpt>
      <trkpt lat="46.11623" lon="6.22564">
        <ele>774.8</ele>
        <time>2022-02-10T12:47:46Z</time>
      </trkpt>
      <trkpt lat="46.11626" lon="6.22533">
        <ele>775.6</ele>
        <time>2022-02-10T12:47:53Z</time>
      </trkpt>
      <trkpt lat="46.11627" lon="6.22524">
        <ele>775.8</ele>
        <time>2022-02-10T12:47:55Z</time>
      </trkpt>
      <trkpt lat="46.1163" lon="6.22493">
        <ele>777.2</ele>
        <time>2022-02-10T12:48:02Z</time>
      </trkpt>
      <trkpt lat="46.11631" lon="6.22479">
        <ele>777.6</ele>
        <time>2022-02-10T12:48:05Z</time>
      </trkpt>
      <trkpt lat="46.11633" lon="6.22466">
        <ele>778</ele>
        <time>2022-02-10T12:48:08Z</time>
      </trkpt>
      <trkpt lat="46.11636" lon="6.22439">
        <ele>779.2</ele>
        <time>2022-02-10T12:48:14Z</time>
      </trkpt>
      <trkpt lat="46.11638" lon="6.22425">
        <ele>779.8</ele>
        <time>2022-02-10T12:48:17Z</time>
      </trkpt>
      <trkpt lat="46.11643" lon="6.22393">
        <ele>780.8</ele>
        <time>2022-02-10T12:48:24Z</time>
      </trkpt>
      <trkpt lat="46.11644" lon="6.22389">
        <ele>781</ele>
        <time>2022-02-10T12:48:25Z</time>
      </trkpt>
      <trkpt lat="46.1165" lon="6.22362">
        <ele>782.2</ele>
        <time>2022-02-10T12:48:31Z</time>
      </trkpt>
      <trkpt lat="46.11653" lon="6.22345">
        <ele>782.8</ele>
        <time>2022-02-10T12:48:35Z</time>
      </trkpt>
      <trkpt lat="46.11655" lon="6.22336">
        <ele>783.2</ele>
        <time>2022-02-10T12:48:37Z</time>
      </trkpt>
      <trkpt lat="46.11661" lon="6.22311">
        <ele>784.4</ele>
        <time>2022-02-10T12:48:43Z</time>
      </trkpt>
      <trkpt lat="46.11664" lon="6.22297">
        <ele>785</ele>
        <time>2022-02-10T12:48:46Z</time>
      </trkpt>
      <trkpt lat="46.11664" lon="6.22293">
        <ele>785</ele>
        <time>2022-02-10T12:48:47Z</time>
      </trkpt>
      <trkpt lat="46.11671" lon="6.22258">
        <ele>786.8</ele>
        <time>2022-02-10T12:48:55Z</time>
      </trkpt>
      <trkpt lat="46.11671" lon="6.22254">
        <ele>787.2</ele>
        <time>2022-02-10T12:48:56Z</time>
      </trkpt>
      <trkpt lat="46.1167" lon="6.22224">
        <ele>788.6</ele>
        <time>2022-02-10T12:49:03Z</time>
      </trkpt>
      <trkpt lat="46.1167" lon="6.22219">
        <ele>788.6</ele>
        <time>2022-02-10T12:49:04Z</time>
      </trkpt>
      <trkpt lat="46.11667" lon="6.22198">
        <ele>789</ele>
        <time>2022-02-10T12:49:09Z</time>
      </trkpt>
      <trkpt lat="46.11666" lon="6.22189">
        <ele>789.6</ele>
        <time>2022-02-10T12:49:11Z</time>
      </trkpt>
      <trkpt lat="46.11662" lon="6.22151">
        <ele>791.6</ele>
        <time>2022-02-10T12:49:19Z</time>
      </trkpt>
      <trkpt lat="46.11662" lon="6.22146">
        <ele>791.8</ele>
        <time>2022-02-10T12:49:20Z</time>
      </trkpt>
      <trkpt lat="46.11663" lon="6.22097">
        <ele>792.8</ele>
        <time>2022-02-10T12:49:29Z</time>
      </trkpt>
      <trkpt lat="46.11663" lon="6.2205">
        <ele>793.4</ele>
        <time>2022-02-10T12:49:39Z</time>
      </trkpt>
      <trkpt lat="46.11664" lon="6.22011">
        <ele>793.4</ele>
        <time>2022-02-10T12:49:46Z</time>
      </trkpt>
      <trkpt lat="46.11668" lon="6.21961">
        <ele>793.4</ele>
        <time>2022-02-10T12:49:53Z</time>
      </trkpt>
      <trkpt lat="46.11671" lon="6.21946">
        <ele>793</ele>
        <time>2022-02-10T12:49:55Z</time>
      </trkpt>
      <trkpt lat="46.11681" lon="6.21893">
        <ele>792.8</ele>
        <time>2022-02-10T12:50:02Z</time>
      </trkpt>
      <trkpt lat="46.11691" lon="6.21847">
        <ele>792.4</ele>
        <time>2022-02-10T12:50:08Z</time>
      </trkpt>
      <trkpt lat="46.11696" lon="6.21832">
        <ele>792.4</ele>
        <time>2022-02-10T12:50:10Z</time>
      </trkpt>
      <trkpt lat="46.11699" lon="6.21825">
        <ele>792.4</ele>
        <time>2022-02-10T12:50:11Z</time>
      </trkpt>
      <trkpt lat="46.11709" lon="6.21803">
        <ele>792.4</ele>
        <time>2022-02-10T12:50:14Z</time>
      </trkpt>
      <trkpt lat="46.11727" lon="6.21768">
        <ele>791.8</ele>
        <time>2022-02-10T12:50:19Z</time>
      </trkpt>
      <trkpt lat="46.1175" lon="6.21718">
        <ele>790.2</ele>
        <time>2022-02-10T12:50:26Z</time>
      </trkpt>
      <trkpt lat="46.1176" lon="6.21693">
        <ele>790</ele>
        <time>2022-02-10T12:50:29Z</time>
      </trkpt>
      <trkpt lat="46.11772" lon="6.21657">
        <ele>789.8</ele>
        <time>2022-02-10T12:50:33Z</time>
      </trkpt>
      <trkpt lat="46.11778" lon="6.21628">
        <ele>789.2</ele>
        <time>2022-02-10T12:50:36Z</time>
      </trkpt>
      <trkpt lat="46.1178" lon="6.2161">
        <ele>788.6</ele>
        <time>2022-02-10T12:50:38Z</time>
      </trkpt>
      <trkpt lat="46.1178" lon="6.21601">
        <ele>788.4</ele>
        <time>2022-02-10T12:50:39Z</time>
      </trkpt>
      <trkpt lat="46.11779" lon="6.21585">
        <ele>787.8</ele>
        <time>2022-02-10T12:50:41Z</time>
      </trkpt>
      <trkpt lat="46.11777" lon="6.21578">
        <ele>787.6</ele>
        <time>2022-02-10T12:50:42Z</time>
      </trkpt>
      <trkpt lat="46.11774" lon="6.21571">
        <ele>787.2</ele>
        <time>2022-02-10T12:50:43Z</time>
      </trkpt>
      <trkpt lat="46.1176" lon="6.21548">
        <ele>786.6</ele>
        <time>2022-02-10T12:50:47Z</time>
      </trkpt>
      <trkpt lat="46.11741" lon="6.21526">
        <ele>785.6</ele>
        <time>2022-02-10T12:50:52Z</time>
      </trkpt>
      <trkpt lat="46.11739" lon="6.21524">
        <ele>785.8</ele>
        <time>2022-02-10T12:50:53Z</time>
      </trkpt>
      <trkpt lat="46.11738" lon="6.21527">
        <ele>785.4</ele>
        <time>2022-02-10T12:50:55Z</time>
      </trkpt>
      <trkpt lat="46.11747" lon="6.21536">
        <ele>785.6</ele>
        <time>2022-02-10T12:50:59Z</time>
      </trkpt>
      <trkpt lat="46.11754" lon="6.21544">
        <ele>785.4</ele>
        <time>2022-02-10T12:51:01Z</time>
      </trkpt>
      <trkpt lat="46.11761" lon="6.21554">
        <ele>785.6</ele>
        <time>2022-02-10T12:51:03Z</time>
      </trkpt>
      <trkpt lat="46.11764" lon="6.21559">
        <ele>785.8</ele>
        <time>2022-02-10T12:51:04Z</time>
      </trkpt>
      <trkpt lat="46.11774" lon="6.21575">
        <ele>786</ele>
        <time>2022-02-10T12:51:07Z</time>
      </trkpt>
      <trkpt lat="46.11777" lon="6.21576">
        <ele>785.8</ele>
        <time>2022-02-10T12:51:08Z</time>
      </trkpt>
      <trkpt lat="46.11781" lon="6.21575">
        <ele>786</ele>
        <time>2022-02-10T12:51:09Z</time>
      </trkpt>
      <trkpt lat="46.11792" lon="6.21567">
        <ele>786</ele>
        <time>2022-02-10T12:51:12Z</time>
      </trkpt>
      <trkpt lat="46.11797" lon="6.21564">
        <ele>786</ele>
        <time>2022-02-10T12:51:13Z</time>
      </trkpt>
      <trkpt lat="46.11816" lon="6.21564">
        <ele>785.8</ele>
        <time>2022-02-10T12:51:16Z</time>
      </trkpt>
      <trkpt lat="46.11862" lon="6.21573">
        <ele>784.8</ele>
        <time>2022-02-10T12:51:23Z</time>
      </trkpt>
      <trkpt lat="46.11873" lon="6.21575">
        <ele>784.6</ele>
        <time>2022-02-10T12:51:25Z</time>
      </trkpt>
      <trkpt lat="46.11891" lon="6.21578">
        <ele>784.4</ele>
        <time>2022-02-10T12:51:29Z</time>
      </trkpt>
      <trkpt lat="46.11905" lon="6.2158">
        <ele>784.6</ele>
        <time>2022-02-10T12:51:32Z</time>
      </trkpt>
      <trkpt lat="46.11931" lon="6.21587">
        <ele>786.6</ele>
        <time>2022-02-10T12:51:38Z</time>
      </trkpt>
      <trkpt lat="46.11935" lon="6.21589">
        <ele>787</ele>
        <time>2022-02-10T12:51:39Z</time>
      </trkpt>
      <trkpt lat="46.11952" lon="6.21597">
        <ele>788.2</ele>
        <time>2022-02-10T12:51:43Z</time>
      </trkpt>
      <trkpt lat="46.11972" lon="6.21609">
        <ele>789.4</ele>
        <time>2022-02-10T12:51:48Z</time>
      </trkpt>
      <trkpt lat="46.11976" lon="6.21612">
        <ele>789.6</ele>
        <time>2022-02-10T12:51:49Z</time>
      </trkpt>
      <trkpt lat="46.12002" lon="6.21632">
        <ele>791.2</ele>
        <time>2022-02-10T12:51:55Z</time>
      </trkpt>
      <trkpt lat="46.12031" lon="6.21656">
        <ele>792</ele>
        <time>2022-02-10T12:52:01Z</time>
      </trkpt>
      <trkpt lat="46.12037" lon="6.21659">
        <ele>792</ele>
        <time>2022-02-10T12:52:02Z</time>
      </trkpt>
      <trkpt lat="46.12049" lon="6.21668">
        <ele>792</ele>
        <time>2022-02-10T12:52:04Z</time>
      </trkpt>
      <trkpt lat="46.12063" lon="6.21678">
        <ele>792</ele>
        <time>2022-02-10T12:52:06Z</time>
      </trkpt>
      <trkpt lat="46.1207" lon="6.21684">
        <ele>792</ele>
        <time>2022-02-10T12:52:07Z</time>
      </trkpt>
      <trkpt lat="46.12093" lon="6.21702">
        <ele>791.4</ele>
        <time>2022-02-10T12:52:10Z</time>
      </trkpt>
      <trkpt lat="46.1211" lon="6.21715">
        <ele>790.8</ele>
        <time>2022-02-10T12:52:12Z</time>
      </trkpt>
      <trkpt lat="46.12119" lon="6.21721">
        <ele>790.4</ele>
        <time>2022-02-10T12:52:13Z</time>
      </trkpt>
      <trkpt lat="46.12157" lon="6.21751">
        <ele>788.6</ele>
        <time>2022-02-10T12:52:17Z</time>
      </trkpt>
      <trkpt lat="46.12176" lon="6.21765">
        <ele>787.8</ele>
        <time>2022-02-10T12:52:19Z</time>
      </trkpt>
      <trkpt lat="46.12185" lon="6.21772">
        <ele>786.6</ele>
        <time>2022-02-10T12:52:20Z</time>
      </trkpt>
      <trkpt lat="46.12211" lon="6.21791">
        <ele>783.6</ele>
        <time>2022-02-10T12:52:23Z</time>
      </trkpt>
      <trkpt lat="46.12228" lon="6.21805">
        <ele>782.6</ele>
        <time>2022-02-10T12:52:25Z</time>
      </trkpt>
      <trkpt lat="46.12237" lon="6.21813">
        <ele>781.4</ele>
        <time>2022-02-10T12:52:26Z</time>
      </trkpt>
      <trkpt lat="46.12245" lon="6.21822">
        <ele>780.8</ele>
        <time>2022-02-10T12:52:27Z</time>
      </trkpt>
      <trkpt lat="46.12262" lon="6.2184">
        <ele>779.8</ele>
        <time>2022-02-10T12:52:29Z</time>
      </trkpt>
      <trkpt lat="46.1227" lon="6.2185">
        <ele>779.4</ele>
        <time>2022-02-10T12:52:30Z</time>
      </trkpt>
      <trkpt lat="46.12278" lon="6.2186">
        <ele>779</ele>
        <time>2022-02-10T12:52:31Z</time>
      </trkpt>
      <trkpt lat="46.12287" lon="6.2187">
        <ele>778.6</ele>
        <time>2022-02-10T12:52:32Z</time>
      </trkpt>
      <trkpt lat="46.12302" lon="6.21889">
        <ele>777</ele>
        <time>2022-02-10T12:52:34Z</time>
      </trkpt>
      <trkpt lat="46.12316" lon="6.21908">
        <ele>775</ele>
        <time>2022-02-10T12:52:36Z</time>
      </trkpt>
      <trkpt lat="46.12326" lon="6.21929">
        <ele>773.2</ele>
        <time>2022-02-10T12:52:38Z</time>
      </trkpt>
      <trkpt lat="46.1233" lon="6.21938">
        <ele>771.8</ele>
        <time>2022-02-10T12:52:39Z</time>
      </trkpt>
      <trkpt lat="46.12333" lon="6.21946">
        <ele>770.6</ele>
        <time>2022-02-10T12:52:40Z</time>
      </trkpt>
      <trkpt lat="46.12335" lon="6.21954">
        <ele>770</ele>
        <time>2022-02-10T12:52:41Z</time>
      </trkpt>
      <trkpt lat="46.12337" lon="6.21962">
        <ele>769.2</ele>
        <time>2022-02-10T12:52:42Z</time>
      </trkpt>
      <trkpt lat="46.12339" lon="6.2197">
        <ele>768</ele>
        <time>2022-02-10T12:52:43Z</time>
      </trkpt>
      <trkpt lat="46.12344" lon="6.21987">
        <ele>766.8</ele>
        <time>2022-02-10T12:52:45Z</time>
      </trkpt>
      <trkpt lat="46.1235" lon="6.22002">
        <ele>765</ele>
        <time>2022-02-10T12:52:47Z</time>
      </trkpt>
      <trkpt lat="46.12354" lon="6.22009">
        <ele>764.2</ele>
        <time>2022-02-10T12:52:48Z</time>
      </trkpt>
      <trkpt lat="46.12359" lon="6.22016">
        <ele>763.8</ele>
        <time>2022-02-10T12:52:49Z</time>
      </trkpt>
      <trkpt lat="46.12367" lon="6.22026">
        <ele>762</ele>
        <time>2022-02-10T12:52:52Z</time>
      </trkpt>
      <trkpt lat="46.12376" lon="6.2202">
        <ele>760</ele>
        <time>2022-02-10T12:52:55Z</time>
      </trkpt>
      <trkpt lat="46.1238" lon="6.22015">
        <ele>759.2</ele>
        <time>2022-02-10T12:52:56Z</time>
      </trkpt>
      <trkpt lat="46.12382" lon="6.22008">
        <ele>758.4</ele>
        <time>2022-02-10T12:52:57Z</time>
      </trkpt>
      <trkpt lat="46.12386" lon="6.21986">
        <ele>757.4</ele>
        <time>2022-02-10T12:53:00Z</time>
      </trkpt>
      <trkpt lat="46.1239" lon="6.21955">
        <ele>756.2</ele>
        <time>2022-02-10T12:53:04Z</time>
      </trkpt>
      <trkpt lat="46.12393" lon="6.21931">
        <ele>754.6</ele>
        <time>2022-02-10T12:53:07Z</time>
      </trkpt>
      <trkpt lat="46.12393" lon="6.21912">
        <ele>754.2</ele>
        <time>2022-02-10T12:53:09Z</time>
      </trkpt>
      <trkpt lat="46.12393" lon="6.21891">
        <ele>753.8</ele>
        <time>2022-02-10T12:53:11Z</time>
      </trkpt>
      <trkpt lat="46.12392" lon="6.2188">
        <ele>753.8</ele>
        <time>2022-02-10T12:53:12Z</time>
      </trkpt>
      <trkpt lat="46.12391" lon="6.21855">
        <ele>753.6</ele>
        <time>2022-02-10T12:53:14Z</time>
      </trkpt>
      <trkpt lat="46.1239" lon="6.21842">
        <ele>753</ele>
        <time>2022-02-10T12:53:15Z</time>
      </trkpt>
      <trkpt lat="46.1239" lon="6.21828">
        <ele>752.6</ele>
        <time>2022-02-10T12:53:16Z</time>
      </trkpt>
      <trkpt lat="46.12388" lon="6.21799">
        <ele>751.6</ele>
        <time>2022-02-10T12:53:18Z</time>
      </trkpt>
      <trkpt lat="46.12387" lon="6.21784">
        <ele>751.2</ele>
        <time>2022-02-10T12:53:19Z</time>
      </trkpt>
      <trkpt lat="46.12387" lon="6.21769">
        <ele>750.4</ele>
        <time>2022-02-10T12:53:20Z</time>
      </trkpt>
      <trkpt lat="46.12386" lon="6.21737">
        <ele>749</ele>
        <time>2022-02-10T12:53:22Z</time>
      </trkpt>
      <trkpt lat="46.12386" lon="6.21722">
        <ele>748.2</ele>
        <time>2022-02-10T12:53:23Z</time>
      </trkpt>
      <trkpt lat="46.12385" lon="6.21693">
        <ele>746.4</ele>
        <time>2022-02-10T12:53:25Z</time>
      </trkpt>
      <trkpt lat="46.12385" lon="6.21663">
        <ele>744.4</ele>
        <time>2022-02-10T12:53:27Z</time>
      </trkpt>
      <trkpt lat="46.12384" lon="6.21647">
        <ele>743.6</ele>
        <time>2022-02-10T12:53:28Z</time>
      </trkpt>
      <trkpt lat="46.12384" lon="6.21616">
        <ele>741.4</ele>
        <time>2022-02-10T12:53:30Z</time>
      </trkpt>
      <trkpt lat="46.12384" lon="6.21599">
        <ele>740</ele>
        <time>2022-02-10T12:53:31Z</time>
      </trkpt>
      <trkpt lat="46.12384" lon="6.21568">
        <ele>738</ele>
        <time>2022-02-10T12:53:33Z</time>
      </trkpt>
      <trkpt lat="46.12384" lon="6.21539">
        <ele>736.2</ele>
        <time>2022-02-10T12:53:35Z</time>
      </trkpt>
      <trkpt lat="46.12384" lon="6.21525">
        <ele>735.2</ele>
        <time>2022-02-10T12:53:36Z</time>
      </trkpt>
      <trkpt lat="46.12384" lon="6.21512">
        <ele>733.6</ele>
        <time>2022-02-10T12:53:37Z</time>
      </trkpt>
      <trkpt lat="46.12383" lon="6.21484">
        <ele>731.4</ele>
        <time>2022-02-10T12:53:39Z</time>
      </trkpt>
      <trkpt lat="46.1238" lon="6.21469">
        <ele>729.6</ele>
        <time>2022-02-10T12:53:40Z</time>
      </trkpt>
      <trkpt lat="46.12377" lon="6.21455">
        <ele>728.6</ele>
        <time>2022-02-10T12:53:41Z</time>
      </trkpt>
      <trkpt lat="46.12373" lon="6.21442">
        <ele>727.2</ele>
        <time>2022-02-10T12:53:42Z</time>
      </trkpt>
      <trkpt lat="46.12368" lon="6.21428">
        <ele>726.6</ele>
        <time>2022-02-10T12:53:43Z</time>
      </trkpt>
      <trkpt lat="46.12364" lon="6.21414">
        <ele>725.4</ele>
        <time>2022-02-10T12:53:44Z</time>
      </trkpt>
      <trkpt lat="46.12359" lon="6.214">
        <ele>724.8</ele>
        <time>2022-02-10T12:53:45Z</time>
      </trkpt>
      <trkpt lat="46.12354" lon="6.21386">
        <ele>724</ele>
        <time>2022-02-10T12:53:46Z</time>
      </trkpt>
      <trkpt lat="46.12341" lon="6.21349">
        <ele>721</ele>
        <time>2022-02-10T12:53:49Z</time>
      </trkpt>
      <trkpt lat="46.12337" lon="6.2134">
        <ele>719.6</ele>
        <time>2022-02-10T12:53:50Z</time>
      </trkpt>
      <trkpt lat="46.12333" lon="6.21324">
        <ele>717.4</ele>
        <time>2022-02-10T12:53:52Z</time>
      </trkpt>
      <trkpt lat="46.12333" lon="6.21317">
        <ele>716.2</ele>
        <time>2022-02-10T12:53:53Z</time>
      </trkpt>
      <trkpt lat="46.12335" lon="6.2131">
        <ele>714.8</ele>
        <time>2022-02-10T12:53:54Z</time>
      </trkpt>
      <trkpt lat="46.12339" lon="6.21306">
        <ele>713.2</ele>
        <time>2022-02-10T12:53:55Z</time>
      </trkpt>
      <trkpt lat="46.12344" lon="6.21305">
        <ele>712.4</ele>
        <time>2022-02-10T12:53:56Z</time>
      </trkpt>
      <trkpt lat="46.12351" lon="6.21307">
        <ele>711.8</ele>
        <time>2022-02-10T12:53:57Z</time>
      </trkpt>
      <trkpt lat="46.12357" lon="6.21311">
        <ele>711</ele>
        <time>2022-02-10T12:53:58Z</time>
      </trkpt>
      <trkpt lat="46.12373" lon="6.21319">
        <ele>709.4</ele>
        <time>2022-02-10T12:54:01Z</time>
      </trkpt>
      <trkpt lat="46.12381" lon="6.21316">
        <ele>708.4</ele>
        <time>2022-02-10T12:54:03Z</time>
      </trkpt>
      <trkpt lat="46.12383" lon="6.2131">
        <ele>707.6</ele>
        <time>2022-02-10T12:54:04Z</time>
      </trkpt>
      <trkpt lat="46.12383" lon="6.21302">
        <ele>707</ele>
        <time>2022-02-10T12:54:05Z</time>
      </trkpt>
      <trkpt lat="46.12381" lon="6.21294">
        <ele>706.2</ele>
        <time>2022-02-10T12:54:06Z</time>
      </trkpt>
      <trkpt lat="46.12377" lon="6.21287">
        <ele>705.4</ele>
        <time>2022-02-10T12:54:07Z</time>
      </trkpt>
      <trkpt lat="46.12371" lon="6.21281">
        <ele>705</ele>
        <time>2022-02-10T12:54:08Z</time>
      </trkpt>
      <trkpt lat="46.12365" lon="6.21274">
        <ele>704.8</ele>
        <time>2022-02-10T12:54:09Z</time>
      </trkpt>
      <trkpt lat="46.12358" lon="6.21266">
        <ele>704.6</ele>
        <time>2022-02-10T12:54:10Z</time>
      </trkpt>
      <trkpt lat="46.12352" lon="6.21259">
        <ele>704.4</ele>
        <time>2022-02-10T12:54:11Z</time>
      </trkpt>
      <trkpt lat="46.12345" lon="6.2125">
        <ele>703.8</ele>
        <time>2022-02-10T12:54:12Z</time>
      </trkpt>
      <trkpt lat="46.1233" lon="6.21234">
        <ele>702.6</ele>
        <time>2022-02-10T12:54:14Z</time>
      </trkpt>
      <trkpt lat="46.12322" lon="6.21226">
        <ele>701.6</ele>
        <time>2022-02-10T12:54:15Z</time>
      </trkpt>
      <trkpt lat="46.12314" lon="6.21217">
        <ele>701</ele>
        <time>2022-02-10T12:54:16Z</time>
      </trkpt>
      <trkpt lat="46.12289" lon="6.21194">
        <ele>697.2</ele>
        <time>2022-02-10T12:54:19Z</time>
      </trkpt>
      <trkpt lat="46.1228" lon="6.21189">
        <ele>696</ele>
        <time>2022-02-10T12:54:20Z</time>
      </trkpt>
      <trkpt lat="46.12273" lon="6.21185">
        <ele>695</ele>
        <time>2022-02-10T12:54:21Z</time>
      </trkpt>
      <trkpt lat="46.12261" lon="6.21179">
        <ele>693.4</ele>
        <time>2022-02-10T12:54:23Z</time>
      </trkpt>
      <trkpt lat="46.12257" lon="6.21174">
        <ele>692</ele>
        <time>2022-02-10T12:54:24Z</time>
      </trkpt>
      <trkpt lat="46.12255" lon="6.21168">
        <ele>690.6</ele>
        <time>2022-02-10T12:54:25Z</time>
      </trkpt>
      <trkpt lat="46.12256" lon="6.21161">
        <ele>689.8</ele>
        <time>2022-02-10T12:54:26Z</time>
      </trkpt>
      <trkpt lat="46.1226" lon="6.21156">
        <ele>689.4</ele>
        <time>2022-02-10T12:54:27Z</time>
      </trkpt>
      <trkpt lat="46.12266" lon="6.21153">
        <ele>688.6</ele>
        <time>2022-02-10T12:54:28Z</time>
      </trkpt>
      <trkpt lat="46.12273" lon="6.21151">
        <ele>688.6</ele>
        <time>2022-02-10T12:54:29Z</time>
      </trkpt>
      <trkpt lat="46.12281" lon="6.21151">
        <ele>688.2</ele>
        <time>2022-02-10T12:54:30Z</time>
      </trkpt>
      <trkpt lat="46.12289" lon="6.21151">
        <ele>687.6</ele>
        <time>2022-02-10T12:54:31Z</time>
      </trkpt>
      <trkpt lat="46.12308" lon="6.21153">
        <ele>687.2</ele>
        <time>2022-02-10T12:54:33Z</time>
      </trkpt>
      <trkpt lat="46.12329" lon="6.21157">
        <ele>686.6</ele>
        <time>2022-02-10T12:54:35Z</time>
      </trkpt>
      <trkpt lat="46.1234" lon="6.21158">
        <ele>686</ele>
        <time>2022-02-10T12:54:36Z</time>
      </trkpt>
      <trkpt lat="46.12351" lon="6.21159">
        <ele>685.6</ele>
        <time>2022-02-10T12:54:37Z</time>
      </trkpt>
      <trkpt lat="46.12369" lon="6.21161">
        <ele>684.4</ele>
        <time>2022-02-10T12:54:39Z</time>
      </trkpt>
      <trkpt lat="46.12383" lon="6.2116">
        <ele>682.4</ele>
        <time>2022-02-10T12:54:41Z</time>
      </trkpt>
      <trkpt lat="46.12388" lon="6.21157">
        <ele>681.4</ele>
        <time>2022-02-10T12:54:42Z</time>
      </trkpt>
      <trkpt lat="46.12391" lon="6.21151">
        <ele>680.6</ele>
        <time>2022-02-10T12:54:43Z</time>
      </trkpt>
      <trkpt lat="46.12391" lon="6.21144">
        <ele>679.4</ele>
        <time>2022-02-10T12:54:44Z</time>
      </trkpt>
      <trkpt lat="46.12385" lon="6.21129">
        <ele>677.2</ele>
        <time>2022-02-10T12:54:46Z</time>
      </trkpt>
      <trkpt lat="46.1238" lon="6.21124">
        <ele>676.4</ele>
        <time>2022-02-10T12:54:47Z</time>
      </trkpt>
      <trkpt lat="46.12374" lon="6.21119">
        <ele>675.8</ele>
        <time>2022-02-10T12:54:48Z</time>
      </trkpt>
      <trkpt lat="46.12361" lon="6.21108">
        <ele>674.4</ele>
        <time>2022-02-10T12:54:50Z</time>
      </trkpt>
      <trkpt lat="46.12354" lon="6.21102">
        <ele>673.8</ele>
        <time>2022-02-10T12:54:51Z</time>
      </trkpt>
      <trkpt lat="46.12347" lon="6.21095">
        <ele>673.4</ele>
        <time>2022-02-10T12:54:52Z</time>
      </trkpt>
      <trkpt lat="46.1234" lon="6.21088">
        <ele>672.6</ele>
        <time>2022-02-10T12:54:53Z</time>
      </trkpt>
      <trkpt lat="46.12332" lon="6.2108">
        <ele>671.8</ele>
        <time>2022-02-10T12:54:54Z</time>
      </trkpt>
      <trkpt lat="46.12325" lon="6.21072">
        <ele>671</ele>
        <time>2022-02-10T12:54:55Z</time>
      </trkpt>
      <trkpt lat="46.12302" lon="6.21048">
        <ele>669</ele>
        <time>2022-02-10T12:54:58Z</time>
      </trkpt>
      <trkpt lat="46.12293" lon="6.2104">
        <ele>668.4</ele>
        <time>2022-02-10T12:54:59Z</time>
      </trkpt>
      <trkpt lat="46.12284" lon="6.21034">
        <ele>667.2</ele>
        <time>2022-02-10T12:55:00Z</time>
      </trkpt>
      <trkpt lat="46.12274" lon="6.21027">
        <ele>665.8</ele>
        <time>2022-02-10T12:55:01Z</time>
      </trkpt>
      <trkpt lat="46.12264" lon="6.21022">
        <ele>664.6</ele>
        <time>2022-02-10T12:55:02Z</time>
      </trkpt>
      <trkpt lat="46.12253" lon="6.21016">
        <ele>663.4</ele>
        <time>2022-02-10T12:55:03Z</time>
      </trkpt>
      <trkpt lat="46.12227" lon="6.20998">
        <ele>660.4</ele>
        <time>2022-02-10T12:55:06Z</time>
      </trkpt>
      <trkpt lat="46.12222" lon="6.20993">
        <ele>659.8</ele>
        <time>2022-02-10T12:55:07Z</time>
      </trkpt>
      <trkpt lat="46.12218" lon="6.20989">
        <ele>658.4</ele>
        <time>2022-02-10T12:55:08Z</time>
      </trkpt>
      <trkpt lat="46.12215" lon="6.20983">
        <ele>657.2</ele>
        <time>2022-02-10T12:55:09Z</time>
      </trkpt>
      <trkpt lat="46.12216" lon="6.20972">
        <ele>654.2</ele>
        <time>2022-02-10T12:55:11Z</time>
      </trkpt>
      <trkpt lat="46.1222" lon="6.20969">
        <ele>653</ele>
        <time>2022-02-10T12:55:12Z</time>
      </trkpt>
      <trkpt lat="46.12226" lon="6.20967">
        <ele>652.2</ele>
        <time>2022-02-10T12:55:13Z</time>
      </trkpt>
      <trkpt lat="46.12233" lon="6.20965">
        <ele>651.4</ele>
        <time>2022-02-10T12:55:14Z</time>
      </trkpt>
      <trkpt lat="46.12241" lon="6.20966">
        <ele>651</ele>
        <time>2022-02-10T12:55:15Z</time>
      </trkpt>
      <trkpt lat="46.12249" lon="6.20968">
        <ele>650.6</ele>
        <time>2022-02-10T12:55:16Z</time>
      </trkpt>
      <trkpt lat="46.12262" lon="6.20973">
        <ele>650.2</ele>
        <time>2022-02-10T12:55:18Z</time>
      </trkpt>
      <trkpt lat="46.12267" lon="6.20973">
        <ele>650</ele>
        <time>2022-02-10T12:55:19Z</time>
      </trkpt>
      <trkpt lat="46.12272" lon="6.2097">
        <ele>649.8</ele>
        <time>2022-02-10T12:55:20Z</time>
      </trkpt>
      <trkpt lat="46.12276" lon="6.20965">
        <ele>649.4</ele>
        <time>2022-02-10T12:55:21Z</time>
      </trkpt>
      <trkpt lat="46.12277" lon="6.20957">
        <ele>649</ele>
        <time>2022-02-10T12:55:22Z</time>
      </trkpt>
      <trkpt lat="46.12276" lon="6.20948">
        <ele>648</ele>
        <time>2022-02-10T12:55:23Z</time>
      </trkpt>
      <trkpt lat="46.12272" lon="6.20939">
        <ele>646.6</ele>
        <time>2022-02-10T12:55:24Z</time>
      </trkpt>
      <trkpt lat="46.12264" lon="6.20922">
        <ele>644.8</ele>
        <time>2022-02-10T12:55:26Z</time>
      </trkpt>
      <trkpt lat="46.12256" lon="6.20901">
        <ele>643.6</ele>
        <time>2022-02-10T12:55:28Z</time>
      </trkpt>
      <trkpt lat="46.1225" lon="6.20881">
        <ele>642.6</ele>
        <time>2022-02-10T12:55:30Z</time>
      </trkpt>
      <trkpt lat="46.12247" lon="6.20869">
        <ele>642</ele>
        <time>2022-02-10T12:55:31Z</time>
      </trkpt>
      <trkpt lat="46.12243" lon="6.20858">
        <ele>641.8</ele>
        <time>2022-02-10T12:55:32Z</time>
      </trkpt>
      <trkpt lat="46.12238" lon="6.20848">
        <ele>641.2</ele>
        <time>2022-02-10T12:55:33Z</time>
      </trkpt>
      <trkpt lat="46.12233" lon="6.20838">
        <ele>640.6</ele>
        <time>2022-02-10T12:55:34Z</time>
      </trkpt>
      <trkpt lat="46.12215" lon="6.20815">
        <ele>638.8</ele>
        <time>2022-02-10T12:55:37Z</time>
      </trkpt>
      <trkpt lat="46.12209" lon="6.20809">
        <ele>638.4</ele>
        <time>2022-02-10T12:55:38Z</time>
      </trkpt>
      <trkpt lat="46.12202" lon="6.20805">
        <ele>637.8</ele>
        <time>2022-02-10T12:55:39Z</time>
      </trkpt>
      <trkpt lat="46.12181" lon="6.20798">
        <ele>634.2</ele>
        <time>2022-02-10T12:55:42Z</time>
      </trkpt>
      <trkpt lat="46.12175" lon="6.20795">
        <ele>633.2</ele>
        <time>2022-02-10T12:55:43Z</time>
      </trkpt>
      <trkpt lat="46.12151" lon="6.20786">
        <ele>632</ele>
        <time>2022-02-10T12:55:47Z</time>
      </trkpt>
      <trkpt lat="46.12146" lon="6.20783">
        <ele>632</ele>
        <time>2022-02-10T12:55:48Z</time>
      </trkpt>
      <trkpt lat="46.12128" lon="6.20769">
        <ele>631.6</ele>
        <time>2022-02-10T12:55:52Z</time>
      </trkpt>
      <trkpt lat="46.12111" lon="6.20755">
        <ele>631.6</ele>
        <time>2022-02-10T12:55:56Z</time>
      </trkpt>
      <trkpt lat="46.12105" lon="6.20752">
        <ele>631.6</ele>
        <time>2022-02-10T12:55:57Z</time>
      </trkpt>
      <trkpt lat="46.12093" lon="6.20747">
        <ele>631.6</ele>
        <time>2022-02-10T12:55:59Z</time>
      </trkpt>
      <trkpt lat="46.12083" lon="6.2074">
        <ele>631.4</ele>
        <time>2022-02-10T12:56:01Z</time>
      </trkpt>
      <trkpt lat="46.12074" lon="6.20733">
        <ele>631.6</ele>
        <time>2022-02-10T12:56:03Z</time>
      </trkpt>
      <trkpt lat="46.12068" lon="6.20724">
        <ele>631.6</ele>
        <time>2022-02-10T12:56:05Z</time>
      </trkpt>
      <trkpt lat="46.12065" lon="6.20716">
        <ele>631.8</ele>
        <time>2022-02-10T12:56:07Z</time>
      </trkpt>
      <trkpt lat="46.12063" lon="6.20712">
        <ele>632</ele>
        <time>2022-02-10T12:56:08Z</time>
      </trkpt>
      <trkpt lat="46.1206" lon="6.20699">
        <ele>632.6</ele>
        <time>2022-02-10T12:56:11Z</time>
      </trkpt>
      <trkpt lat="46.12059" lon="6.20687">
        <ele>634</ele>
        <time>2022-02-10T12:56:14Z</time>
      </trkpt>
      <trkpt lat="46.12059" lon="6.2068">
        <ele>635</ele>
        <time>2022-02-10T12:56:16Z</time>
      </trkpt>
      <trkpt lat="46.12063" lon="6.20669">
        <ele>636.2</ele>
        <time>2022-02-10T12:56:19Z</time>
      </trkpt>
      <trkpt lat="46.12074" lon="6.20659">
        <ele>637.6</ele>
        <time>2022-02-10T12:56:24Z</time>
      </trkpt>
      <trkpt lat="46.12076" lon="6.20658">
        <ele>637.8</ele>
        <time>2022-02-10T12:56:25Z</time>
      </trkpt>
      <trkpt lat="46.12088" lon="6.20651">
        <ele>639.4</ele>
        <time>2022-02-10T12:56:30Z</time>
      </trkpt>
      <trkpt lat="46.12094" lon="6.20647">
        <ele>640.4</ele>
        <time>2022-02-10T12:56:33Z</time>
      </trkpt>
      <trkpt lat="46.12096" lon="6.20645">
        <ele>640.6</ele>
        <time>2022-02-10T12:56:34Z</time>
      </trkpt>
      <trkpt lat="46.1211" lon="6.20637">
        <ele>642</ele>
        <time>2022-02-10T12:56:40Z</time>
      </trkpt>
      <trkpt lat="46.12113" lon="6.20636">
        <ele>642.2</ele>
        <time>2022-02-10T12:56:41Z</time>
      </trkpt>
      <trkpt lat="46.1213" lon="6.2063">
        <ele>643.4</ele>
        <time>2022-02-10T12:56:47Z</time>
      </trkpt>
      <trkpt lat="46.12142" lon="6.20626">
        <ele>644.4</ele>
        <time>2022-02-10T12:56:51Z</time>
      </trkpt>
      <trkpt lat="46.12148" lon="6.20625">
        <ele>644.6</ele>
        <time>2022-02-10T12:56:53Z</time>
      </trkpt>
      <trkpt lat="46.12168" lon="6.20622">
        <ele>645.4</ele>
        <time>2022-02-10T12:56:59Z</time>
      </trkpt>
      <trkpt lat="46.12171" lon="6.20621">
        <ele>645.6</ele>
        <time>2022-02-10T12:57:00Z</time>
      </trkpt>
      <trkpt lat="46.12185" lon="6.20613">
        <ele>646.4</ele>
        <time>2022-02-10T12:57:05Z</time>
      </trkpt>
      <trkpt lat="46.12188" lon="6.20611">
        <ele>646.4</ele>
        <time>2022-02-10T12:57:06Z</time>
      </trkpt>
      <trkpt lat="46.12205" lon="6.20604">
        <ele>648</ele>
        <time>2022-02-10T12:57:12Z</time>
      </trkpt>
      <trkpt lat="46.12214" lon="6.206">
        <ele>648.8</ele>
        <time>2022-02-10T12:57:16Z</time>
      </trkpt>
      <trkpt lat="46.12219" lon="6.20599">
        <ele>649.2</ele>
        <time>2022-02-10T12:57:18Z</time>
      </trkpt>
      <trkpt lat="46.12236" lon="6.20601">
        <ele>650.6</ele>
        <time>2022-02-10T12:57:24Z</time>
      </trkpt>
      <trkpt lat="46.12259" lon="6.20603">
        <ele>652</ele>
        <time>2022-02-10T12:57:30Z</time>
      </trkpt>
      <trkpt lat="46.12281" lon="6.20605">
        <ele>652.2</ele>
        <time>2022-02-10T12:57:36Z</time>
      </trkpt>
      <trkpt lat="46.12289" lon="6.20602">
        <ele>652</ele>
        <time>2022-02-10T12:57:38Z</time>
      </trkpt>
      <trkpt lat="46.12298" lon="6.20597">
        <ele>652</ele>
        <time>2022-02-10T12:57:40Z</time>
      </trkpt>
      <trkpt lat="46.1231" lon="6.20587">
        <ele>652</ele>
        <time>2022-02-10T12:57:43Z</time>
      </trkpt>
      <trkpt lat="46.12312" lon="6.20582">
        <ele>651.6</ele>
        <time>2022-02-10T12:57:44Z</time>
      </trkpt>
      <trkpt lat="46.1231" lon="6.20562">
        <ele>651</ele>
        <time>2022-02-10T12:57:48Z</time>
      </trkpt>
      <trkpt lat="46.1231" lon="6.20552">
        <ele>651.2</ele>
        <time>2022-02-10T12:57:50Z</time>
      </trkpt>
      <trkpt lat="46.12311" lon="6.20538">
        <ele>651</ele>
        <time>2022-02-10T12:57:53Z</time>
      </trkpt>
      <trkpt lat="46.12311" lon="6.2053">
        <ele>651</ele>
        <time>2022-02-10T12:57:55Z</time>
      </trkpt>
      <trkpt lat="46.12314" lon="6.20507">
        <ele>651.6</ele>
        <time>2022-02-10T12:58:00Z</time>
      </trkpt>
      <trkpt lat="46.12316" lon="6.20492">
        <ele>652.8</ele>
        <time>2022-02-10T12:58:03Z</time>
      </trkpt>
      <trkpt lat="46.12322" lon="6.20461">
        <ele>653.6</ele>
        <time>2022-02-10T12:58:09Z</time>
      </trkpt>
      <trkpt lat="46.12323" lon="6.20456">
        <ele>653.8</ele>
        <time>2022-02-10T12:58:10Z</time>
      </trkpt>
      <trkpt lat="46.12326" lon="6.20434">
        <ele>654.8</ele>
        <time>2022-02-10T12:58:14Z</time>
      </trkpt>
      <trkpt lat="46.12335" lon="6.20391">
        <ele>655.8</ele>
        <time>2022-02-10T12:58:22Z</time>
      </trkpt>
      <trkpt lat="46.12337" lon="6.20386">
        <ele>656.2</ele>
        <time>2022-02-10T12:58:23Z</time>
      </trkpt>
      <trkpt lat="46.12354" lon="6.20353">
        <ele>657.2</ele>
        <time>2022-02-10T12:58:30Z</time>
      </trkpt>
      <trkpt lat="46.12356" lon="6.20349">
        <ele>657.4</ele>
        <time>2022-02-10T12:58:31Z</time>
      </trkpt>
      <trkpt lat="46.12373" lon="6.20324">
        <ele>658.4</ele>
        <time>2022-02-10T12:58:37Z</time>
      </trkpt>
      <trkpt lat="46.12375" lon="6.2032">
        <ele>658.6</ele>
        <time>2022-02-10T12:58:38Z</time>
      </trkpt>
      <trkpt lat="46.12387" lon="6.203">
        <ele>659.4</ele>
        <time>2022-02-10T12:58:43Z</time>
      </trkpt>
      <trkpt lat="46.12394" lon="6.20288">
        <ele>660</ele>
        <time>2022-02-10T12:58:46Z</time>
      </trkpt>
      <trkpt lat="46.12401" lon="6.20271">
        <ele>661</ele>
        <time>2022-02-10T12:58:50Z</time>
      </trkpt>
      <trkpt lat="46.12404" lon="6.20258">
        <ele>661.6</ele>
        <time>2022-02-10T12:58:53Z</time>
      </trkpt>
      <trkpt lat="46.12406" lon="6.20249">
        <ele>662.2</ele>
        <time>2022-02-10T12:58:55Z</time>
      </trkpt>
      <trkpt lat="46.12407" lon="6.20233">
        <ele>663.4</ele>
        <time>2022-02-10T12:58:59Z</time>
      </trkpt>
      <trkpt lat="46.12408" lon="6.20224">
        <ele>664</ele>
        <time>2022-02-10T12:59:01Z</time>
      </trkpt>
      <trkpt lat="46.12409" lon="6.20216">
        <ele>664.6</ele>
        <time>2022-02-10T12:59:03Z</time>
      </trkpt>
      <trkpt lat="46.12409" lon="6.20196">
        <ele>665.8</ele>
        <time>2022-02-10T12:59:08Z</time>
      </trkpt>
      <trkpt lat="46.12409" lon="6.20192">
        <ele>665.8</ele>
        <time>2022-02-10T12:59:09Z</time>
      </trkpt>
      <trkpt lat="46.12404" lon="6.20169">
        <ele>667.6</ele>
        <time>2022-02-10T12:59:15Z</time>
      </trkpt>
      <trkpt lat="46.12396" lon="6.20158">
        <ele>668.4</ele>
        <time>2022-02-10T12:59:19Z</time>
      </trkpt>
      <trkpt lat="46.12392" lon="6.20152">
        <ele>668.8</ele>
        <time>2022-02-10T12:59:21Z</time>
      </trkpt>
      <trkpt lat="46.12386" lon="6.20142">
        <ele>669.6</ele>
        <time>2022-02-10T12:59:24Z</time>
      </trkpt>
      <trkpt lat="46.12383" lon="6.20128">
        <ele>670.8</ele>
        <time>2022-02-10T12:59:28Z</time>
      </trkpt>
      <trkpt lat="46.12384" lon="6.2011">
        <ele>672</ele>
        <time>2022-02-10T12:59:33Z</time>
      </trkpt>
      <trkpt lat="46.12388" lon="6.20095">
        <ele>673</ele>
        <time>2022-02-10T12:59:37Z</time>
      </trkpt>
      <trkpt lat="46.12391" lon="6.20089">
        <ele>673.6</ele>
        <time>2022-02-10T12:59:39Z</time>
      </trkpt>
      <trkpt lat="46.12397" lon="6.20077">
        <ele>674.6</ele>
        <time>2022-02-10T12:59:43Z</time>
      </trkpt>
      <trkpt lat="46.12398" lon="6.20074">
        <ele>674.6</ele>
        <time>2022-02-10T12:59:44Z</time>
      </trkpt>
      <trkpt lat="46.12405" lon="6.20067">
        <ele>675.2</ele>
        <time>2022-02-10T12:59:47Z</time>
      </trkpt>
      <trkpt lat="46.12413" lon="6.20063">
        <ele>676.2</ele>
        <time>2022-02-10T12:59:51Z</time>
      </trkpt>
      <trkpt lat="46.12417" lon="6.20063">
        <ele>676.8</ele>
        <time>2022-02-10T12:59:53Z</time>
      </trkpt>
      <trkpt lat="46.12427" lon="6.20066">
        <ele>678</ele>
        <time>2022-02-10T12:59:57Z</time>
      </trkpt>
      <trkpt lat="46.12434" lon="6.20071">
        <ele>678.6</ele>
        <time>2022-02-10T13:00:00Z</time>
      </trkpt>
      <trkpt lat="46.12446" lon="6.20085">
        <ele>679.8</ele>
        <time>2022-02-10T13:00:06Z</time>
      </trkpt>
      <trkpt lat="46.12448" lon="6.20088">
        <ele>680</ele>
        <time>2022-02-10T13:00:07Z</time>
      </trkpt>
      <trkpt lat="46.12457" lon="6.20112">
        <ele>681.4</ele>
        <time>2022-02-10T13:00:14Z</time>
      </trkpt>
      <trkpt lat="46.12459" lon="6.20119">
        <ele>681.6</ele>
        <time>2022-02-10T13:00:16Z</time>
      </trkpt>
      <trkpt lat="46.12466" lon="6.20141">
        <ele>682.4</ele>
        <time>2022-02-10T13:00:22Z</time>
      </trkpt>
      <trkpt lat="46.12467" lon="6.20144">
        <ele>682.4</ele>
        <time>2022-02-10T13:00:23Z</time>
      </trkpt>
      <trkpt lat="46.12469" lon="6.20151">
        <ele>682.8</ele>
        <time>2022-02-10T13:00:25Z</time>
      </trkpt>
      <trkpt lat="46.12479" lon="6.20172">
        <ele>684</ele>
        <time>2022-02-10T13:00:31Z</time>
      </trkpt>
      <trkpt lat="46.12481" lon="6.20175">
        <ele>684</ele>
        <time>2022-02-10T13:00:32Z</time>
      </trkpt>
      <trkpt lat="46.12492" lon="6.2019">
        <ele>686</ele>
        <time>2022-02-10T13:00:37Z</time>
      </trkpt>
      <trkpt lat="46.12502" lon="6.20204">
        <ele>686.8</ele>
        <time>2022-02-10T13:00:42Z</time>
      </trkpt>
      <trkpt lat="46.12511" lon="6.20215">
        <ele>687.6</ele>
        <time>2022-02-10T13:00:46Z</time>
      </trkpt>
      <trkpt lat="46.12521" lon="6.20229">
        <ele>688.2</ele>
        <time>2022-02-10T13:00:51Z</time>
      </trkpt>
      <trkpt lat="46.12524" lon="6.20232">
        <ele>688.6</ele>
        <time>2022-02-10T13:00:52Z</time>
      </trkpt>
      <trkpt lat="46.12532" lon="6.20243">
        <ele>689.2</ele>
        <time>2022-02-10T13:00:56Z</time>
      </trkpt>
      <trkpt lat="46.12536" lon="6.20247">
        <ele>689.6</ele>
        <time>2022-02-10T13:00:58Z</time>
      </trkpt>
      <trkpt lat="46.12541" lon="6.20253">
        <ele>690</ele>
        <time>2022-02-10T13:01:00Z</time>
      </trkpt>
      <trkpt lat="46.12553" lon="6.20263">
        <ele>691.2</ele>
        <time>2022-02-10T13:01:05Z</time>
      </trkpt>
      <trkpt lat="46.12555" lon="6.20265">
        <ele>691.6</ele>
        <time>2022-02-10T13:01:06Z</time>
      </trkpt>
      <trkpt lat="46.12569" lon="6.20271">
        <ele>693.2</ele>
        <time>2022-02-10T13:01:11Z</time>
      </trkpt>
      <trkpt lat="46.12578" lon="6.20273">
        <ele>694</ele>
        <time>2022-02-10T13:01:14Z</time>
      </trkpt>
      <trkpt lat="46.12587" lon="6.20271">
        <ele>694.6</ele>
        <time>2022-02-10T13:01:17Z</time>
      </trkpt>
      <trkpt lat="46.12602" lon="6.20265">
        <ele>695.4</ele>
        <time>2022-02-10T13:01:22Z</time>
      </trkpt>
      <trkpt lat="46.12608" lon="6.20262">
        <ele>695.8</ele>
        <time>2022-02-10T13:01:24Z</time>
      </trkpt>
      <trkpt lat="46.12628" lon="6.20249">
        <ele>697</ele>
        <time>2022-02-10T13:01:31Z</time>
      </trkpt>
      <trkpt lat="46.12631" lon="6.20247">
        <ele>697.4</ele>
        <time>2022-02-10T13:01:32Z</time>
      </trkpt>
      <trkpt lat="46.12639" lon="6.20241">
        <ele>698</ele>
        <time>2022-02-10T13:01:35Z</time>
      </trkpt>
      <trkpt lat="46.12648" lon="6.20229">
        <ele>698.6</ele>
        <time>2022-02-10T13:01:39Z</time>
      </trkpt>
      <trkpt lat="46.12652" lon="6.20209">
        <ele>700.2</ele>
        <time>2022-02-10T13:01:44Z</time>
      </trkpt>
      <trkpt lat="46.12647" lon="6.20194">
        <ele>701</ele>
        <time>2022-02-10T13:01:48Z</time>
      </trkpt>
      <trkpt lat="46.12633" lon="6.20183">
        <ele>701.8</ele>
        <time>2022-02-10T13:01:53Z</time>
      </trkpt>
      <trkpt lat="46.12631" lon="6.20182">
        <ele>701.8</ele>
        <time>2022-02-10T13:01:54Z</time>
      </trkpt>
      <trkpt lat="46.12623" lon="6.20178">
        <ele>702.2</ele>
        <time>2022-02-10T13:01:57Z</time>
      </trkpt>
      <trkpt lat="46.12612" lon="6.20172">
        <ele>702.6</ele>
        <time>2022-02-10T13:02:01Z</time>
      </trkpt>
      <trkpt lat="46.12607" lon="6.20169">
        <ele>703</ele>
        <time>2022-02-10T13:02:03Z</time>
      </trkpt>
      <trkpt lat="46.12598" lon="6.2016">
        <ele>704</ele>
        <time>2022-02-10T13:02:07Z</time>
      </trkpt>
      <trkpt lat="46.12594" lon="6.20155">
        <ele>704.4</ele>
        <time>2022-02-10T13:02:09Z</time>
      </trkpt>
      <trkpt lat="46.12585" lon="6.20141">
        <ele>705.8</ele>
        <time>2022-02-10T13:02:14Z</time>
      </trkpt>
      <trkpt lat="46.12578" lon="6.2013">
        <ele>706.4</ele>
        <time>2022-02-10T13:02:18Z</time>
      </trkpt>
      <trkpt lat="46.12575" lon="6.20123">
        <ele>706.6</ele>
        <time>2022-02-10T13:02:20Z</time>
      </trkpt>
      <trkpt lat="46.12565" lon="6.20105">
        <ele>708</ele>
        <time>2022-02-10T13:02:26Z</time>
      </trkpt>
      <trkpt lat="46.12562" lon="6.20098">
        <ele>708.4</ele>
        <time>2022-02-10T13:02:28Z</time>
      </trkpt>
      <trkpt lat="46.12556" lon="6.20089">
        <ele>709.4</ele>
        <time>2022-02-10T13:02:31Z</time>
      </trkpt>
      <trkpt lat="46.12548" lon="6.20074">
        <ele>710.2</ele>
        <time>2022-02-10T13:02:36Z</time>
      </trkpt>
      <trkpt lat="46.12545" lon="6.20063">
        <ele>710.8</ele>
        <time>2022-02-10T13:02:39Z</time>
      </trkpt>
      <trkpt lat="46.12544" lon="6.2006">
        <ele>711</ele>
        <time>2022-02-10T13:02:40Z</time>
      </trkpt>
      <trkpt lat="46.12542" lon="6.20042">
        <ele>712.2</ele>
        <time>2022-02-10T13:02:45Z</time>
      </trkpt>
      <trkpt lat="46.12542" lon="6.20038">
        <ele>712.4</ele>
        <time>2022-02-10T13:02:46Z</time>
      </trkpt>
      <trkpt lat="46.12546" lon="6.20015">
        <ele>714</ele>
        <time>2022-02-10T13:02:52Z</time>
      </trkpt>
      <trkpt lat="46.12548" lon="6.20008">
        <ele>714.4</ele>
        <time>2022-02-10T13:02:54Z</time>
      </trkpt>
      <trkpt lat="46.12553" lon="6.19989">
        <ele>715.4</ele>
        <time>2022-02-10T13:02:59Z</time>
      </trkpt>
      <trkpt lat="46.12557" lon="6.1997">
        <ele>716.2</ele>
        <time>2022-02-10T13:03:04Z</time>
      </trkpt>
      <trkpt lat="46.1256" lon="6.19962">
        <ele>716.6</ele>
        <time>2022-02-10T13:03:06Z</time>
      </trkpt>
      <trkpt lat="46.12569" lon="6.19955">
        <ele>717.2</ele>
        <time>2022-02-10T13:03:10Z</time>
      </trkpt>
      <trkpt lat="46.12574" lon="6.19956">
        <ele>717.6</ele>
        <time>2022-02-10T13:03:12Z</time>
      </trkpt>
      <trkpt lat="46.12582" lon="6.19959">
        <ele>718.2</ele>
        <time>2022-02-10T13:03:15Z</time>
      </trkpt>
      <trkpt lat="46.12584" lon="6.1996">
        <ele>718.4</ele>
        <time>2022-02-10T13:03:16Z</time>
      </trkpt>
      <trkpt lat="46.12596" lon="6.19958">
        <ele>719.2</ele>
        <time>2022-02-10T13:03:21Z</time>
      </trkpt>
      <trkpt lat="46.12606" lon="6.19946">
        <ele>720.2</ele>
        <time>2022-02-10T13:03:26Z</time>
      </trkpt>
      <trkpt lat="46.12611" lon="6.19927">
        <ele>721.4</ele>
        <time>2022-02-10T13:03:31Z</time>
      </trkpt>
      <trkpt lat="46.12612" lon="6.19923">
        <ele>721.6</ele>
        <time>2022-02-10T13:03:32Z</time>
      </trkpt>
      <trkpt lat="46.12615" lon="6.19907">
        <ele>722.2</ele>
        <time>2022-02-10T13:03:36Z</time>
      </trkpt>
      <trkpt lat="46.12618" lon="6.19888">
        <ele>723.2</ele>
        <time>2022-02-10T13:03:41Z</time>
      </trkpt>
      <trkpt lat="46.1262" lon="6.19873">
        <ele>724</ele>
        <time>2022-02-10T13:03:45Z</time>
      </trkpt>
      <trkpt lat="46.12623" lon="6.19858">
        <ele>724.8</ele>
        <time>2022-02-10T13:03:49Z</time>
      </trkpt>
      <trkpt lat="46.12624" lon="6.19854">
        <ele>725.2</ele>
        <time>2022-02-10T13:03:50Z</time>
      </trkpt>
      <trkpt lat="46.12626" lon="6.19835">
        <ele>726.8</ele>
        <time>2022-02-10T13:03:55Z</time>
      </trkpt>
      <trkpt lat="46.12628" lon="6.19824">
        <ele>727.4</ele>
        <time>2022-02-10T13:03:58Z</time>
      </trkpt>
      <trkpt lat="46.12629" lon="6.19817">
        <ele>728</ele>
        <time>2022-02-10T13:04:00Z</time>
      </trkpt>
      <trkpt lat="46.12629" lon="6.19794">
        <ele>729.4</ele>
        <time>2022-02-10T13:04:06Z</time>
      </trkpt>
      <trkpt lat="46.12619" lon="6.19772">
        <ele>730.6</ele>
        <time>2022-02-10T13:04:13Z</time>
      </trkpt>
      <trkpt lat="46.12614" lon="6.19767">
        <ele>731.2</ele>
        <time>2022-02-10T13:04:15Z</time>
      </trkpt>
      <trkpt lat="46.12602" lon="6.19758">
        <ele>731.8</ele>
        <time>2022-02-10T13:04:20Z</time>
      </trkpt>
      <trkpt lat="46.126" lon="6.19756">
        <ele>732.2</ele>
        <time>2022-02-10T13:04:21Z</time>
      </trkpt>
      <trkpt lat="46.12593" lon="6.19751">
        <ele>732.6</ele>
        <time>2022-02-10T13:04:24Z</time>
      </trkpt>
      <trkpt lat="46.12572" lon="6.19736">
        <ele>734.4</ele>
        <time>2022-02-10T13:04:33Z</time>
      </trkpt>
      <trkpt lat="46.12557" lon="6.19724">
        <ele>735.6</ele>
        <time>2022-02-10T13:04:40Z</time>
      </trkpt>
      <trkpt lat="46.12551" lon="6.19716">
        <ele>736.4</ele>
        <time>2022-02-10T13:04:44Z</time>
      </trkpt>
      <trkpt lat="46.12547" lon="6.19712">
        <ele>736.6</ele>
        <time>2022-02-10T13:04:46Z</time>
      </trkpt>
      <trkpt lat="46.12541" lon="6.19705">
        <ele>737.2</ele>
        <time>2022-02-10T13:04:49Z</time>
      </trkpt>
      <trkpt lat="46.12533" lon="6.19694">
        <ele>738.6</ele>
        <time>2022-02-10T13:04:54Z</time>
      </trkpt>
      <trkpt lat="46.12529" lon="6.19689">
        <ele>739.2</ele>
        <time>2022-02-10T13:04:56Z</time>
      </trkpt>
      <trkpt lat="46.12522" lon="6.19677">
        <ele>740.2</ele>
        <time>2022-02-10T13:05:01Z</time>
      </trkpt>
      <trkpt lat="46.12514" lon="6.19664">
        <ele>741</ele>
        <time>2022-02-10T13:05:06Z</time>
      </trkpt>
      <trkpt lat="46.12508" lon="6.19653">
        <ele>741.6</ele>
        <time>2022-02-10T13:05:09Z</time>
      </trkpt>
      <trkpt lat="46.12505" lon="6.19645">
        <ele>742.2</ele>
        <time>2022-02-10T13:05:11Z</time>
      </trkpt>
      <trkpt lat="46.12501" lon="6.19634">
        <ele>742.8</ele>
        <time>2022-02-10T13:05:14Z</time>
      </trkpt>
      <trkpt lat="46.12498" lon="6.19623">
        <ele>743.4</ele>
        <time>2022-02-10T13:05:17Z</time>
      </trkpt>
      <trkpt lat="46.12495" lon="6.19609">
        <ele>744.8</ele>
        <time>2022-02-10T13:05:21Z</time>
      </trkpt>
      <trkpt lat="46.12491" lon="6.19595">
        <ele>745.8</ele>
        <time>2022-02-10T13:05:25Z</time>
      </trkpt>
      <trkpt lat="46.12488" lon="6.19584">
        <ele>746.4</ele>
        <time>2022-02-10T13:05:28Z</time>
      </trkpt>
      <trkpt lat="46.12487" lon="6.19577">
        <ele>746.6</ele>
        <time>2022-02-10T13:05:30Z</time>
      </trkpt>
      <trkpt lat="46.12483" lon="6.19565">
        <ele>747.2</ele>
        <time>2022-02-10T13:05:34Z</time>
      </trkpt>
      <trkpt lat="46.12482" lon="6.19562">
        <ele>747.4</ele>
        <time>2022-02-10T13:05:35Z</time>
      </trkpt>
      <trkpt lat="46.12477" lon="6.19551">
        <ele>748.4</ele>
        <time>2022-02-10T13:05:39Z</time>
      </trkpt>
      <trkpt lat="46.12471" lon="6.19543">
        <ele>749.2</ele>
        <time>2022-02-10T13:05:42Z</time>
      </trkpt>
      <trkpt lat="46.12467" lon="6.19539">
        <ele>749.8</ele>
        <time>2022-02-10T13:05:44Z</time>
      </trkpt>
      <trkpt lat="46.12455" lon="6.19527">
        <ele>750.8</ele>
        <time>2022-02-10T13:05:49Z</time>
      </trkpt>
      <trkpt lat="46.12453" lon="6.19525">
        <ele>751</ele>
        <time>2022-02-10T13:05:50Z</time>
      </trkpt>
      <trkpt lat="46.1244" lon="6.19515">
        <ele>752.2</ele>
        <time>2022-02-10T13:05:56Z</time>
      </trkpt>
      <trkpt lat="46.12435" lon="6.19512">
        <ele>752.8</ele>
        <time>2022-02-10T13:05:58Z</time>
      </trkpt>
      <trkpt lat="46.12418" lon="6.19504">
        <ele>754.2</ele>
        <time>2022-02-10T13:06:05Z</time>
      </trkpt>
      <trkpt lat="46.12413" lon="6.19502">
        <ele>754.4</ele>
        <time>2022-02-10T13:06:07Z</time>
      </trkpt>
      <trkpt lat="46.12406" lon="6.19498">
        <ele>755</ele>
        <time>2022-02-10T13:06:10Z</time>
      </trkpt>
      <trkpt lat="46.12394" lon="6.19492">
        <ele>755.8</ele>
        <time>2022-02-10T13:06:15Z</time>
      </trkpt>
      <trkpt lat="46.12389" lon="6.19488">
        <ele>756.2</ele>
        <time>2022-02-10T13:06:17Z</time>
      </trkpt>
      <trkpt lat="46.12378" lon="6.19479">
        <ele>757.6</ele>
        <time>2022-02-10T13:06:22Z</time>
      </trkpt>
      <trkpt lat="46.12373" lon="6.19471">
        <ele>758.2</ele>
        <time>2022-02-10T13:06:25Z</time>
      </trkpt>
      <trkpt lat="46.12371" lon="6.19458">
        <ele>759</ele>
        <time>2022-02-10T13:06:29Z</time>
      </trkpt>
      <trkpt lat="46.12372" lon="6.19451">
        <ele>759.4</ele>
        <time>2022-02-10T13:06:31Z</time>
      </trkpt>
      <trkpt lat="46.12376" lon="6.19442">
        <ele>759.8</ele>
        <time>2022-02-10T13:06:34Z</time>
      </trkpt>
      <trkpt lat="46.12383" lon="6.19436">
        <ele>760</ele>
        <time>2022-02-10T13:06:37Z</time>
      </trkpt>
      <trkpt lat="46.12388" lon="6.19435">
        <ele>760.6</ele>
        <time>2022-02-10T13:06:39Z</time>
      </trkpt>
      <trkpt lat="46.12395" lon="6.19437">
        <ele>761.4</ele>
        <time>2022-02-10T13:06:42Z</time>
      </trkpt>
      <trkpt lat="46.12402" lon="6.19444">
        <ele>762.4</ele>
        <time>2022-02-10T13:06:45Z</time>
      </trkpt>
      <trkpt lat="46.12408" lon="6.19451">
        <ele>763.6</ele>
        <time>2022-02-10T13:06:48Z</time>
      </trkpt>
      <trkpt lat="46.12418" lon="6.19466">
        <ele>764.8</ele>
        <time>2022-02-10T13:06:55Z</time>
      </trkpt>
      <trkpt lat="46.12418" lon="6.19467">
        <ele>765</ele>
        <time>2022-02-10T13:06:56Z</time>
      </trkpt>
      <trkpt lat="46.12418" lon="6.19467">
        <ele>765.2</ele>
        <time>2022-02-10T13:06:59Z</time>
      </trkpt>
      <trkpt lat="46.12418" lon="6.19467">
        <ele>766</ele>
        <time>2022-02-10T13:07:26Z</time>
      </trkpt>
      <trkpt lat="46.12418" lon="6.19467">
        <ele>766</ele>
        <time>2022-02-10T13:08:03Z</time>
      </trkpt>
      <trkpt lat="46.12418" lon="6.19467">
        <ele>765.8</ele>
        <time>2022-02-10T13:08:19Z</time>
      </trkpt>
      <trkpt lat="46.12418" lon="6.19467">
        <ele>765.6</ele>
        <time>2022-02-10T13:08:58Z</time>
      </trkpt>
      <trkpt lat="46.12421" lon="6.19469">
        <ele>765.8</ele>
        <time>2022-02-10T13:09:06Z</time>
      </trkpt>
      <trkpt lat="46.12423" lon="6.1947">
        <ele>765.8</ele>
        <time>2022-02-10T13:09:07Z</time>
      </trkpt>
      <trkpt lat="46.12436" lon="6.1947">
        <ele>766</ele>
        <time>2022-02-10T13:09:13Z</time>
      </trkpt>
      <trkpt lat="46.1244" lon="6.19468">
        <ele>766</ele>
        <time>2022-02-10T13:09:15Z</time>
      </trkpt>
      <trkpt lat="46.12446" lon="6.19461">
        <ele>766.4</ele>
        <time>2022-02-10T13:09:18Z</time>
      </trkpt>
      <trkpt lat="46.12447" lon="6.1946">
        <ele>766.6</ele>
        <time>2022-02-10T13:09:19Z</time>
      </trkpt>
      <trkpt lat="46.12448" lon="6.19459">
        <ele>767</ele>
        <time>2022-02-10T13:09:22Z</time>
      </trkpt>
      <trkpt lat="46.12449" lon="6.1946">
        <ele>767.8</ele>
        <time>2022-02-10T13:09:27Z</time>
      </trkpt>
      <trkpt lat="46.12449" lon="6.19459">
        <ele>768</ele>
        <time>2022-02-10T13:09:30Z</time>
      </trkpt>
      <trkpt lat="46.12449" lon="6.19458">
        <ele>768</ele>
        <time>2022-02-10T13:09:39Z</time>
      </trkpt>
      <trkpt lat="46.12449" lon="6.19458">
        <ele>768</ele>
        <time>2022-02-10T13:09:58Z</time>
      </trkpt>
      <trkpt lat="46.12449" lon="6.19457">
        <ele>768.2</ele>
        <time>2022-02-10T13:10:28Z</time>
      </trkpt>
      <trkpt lat="46.12449" lon="6.19457">
        <ele>768.6</ele>
        <time>2022-02-10T13:10:48Z</time>
      </trkpt>
      <trkpt lat="46.12449" lon="6.19457">
        <ele>768.8</ele>
        <time>2022-02-10T13:10:52Z</time>
      </trkpt>
      <trkpt lat="46.12449" lon="6.19457">
        <ele>769.8</ele>
        <time>2022-02-10T13:11:14Z</time>
      </trkpt>
      <trkpt lat="46.12447" lon="6.19452">
        <ele>769.8</ele>
        <time>2022-02-10T13:11:22Z</time>
      </trkpt>
      <trkpt lat="46.12447" lon="6.19437">
        <ele>769.8</ele>
        <time>2022-02-10T13:11:27Z</time>
      </trkpt>
      <trkpt lat="46.12446" lon="6.19431">
        <ele>769.8</ele>
        <time>2022-02-10T13:11:29Z</time>
      </trkpt>
      <trkpt lat="46.12441" lon="6.19418">
        <ele>770</ele>
        <time>2022-02-10T13:11:33Z</time>
      </trkpt>
      <trkpt lat="46.12439" lon="6.19415">
        <ele>770</ele>
        <time>2022-02-10T13:11:34Z</time>
      </trkpt>
      <trkpt lat="46.12425" lon="6.19394">
        <ele>771.4</ele>
        <time>2022-02-10T13:11:41Z</time>
      </trkpt>
      <trkpt lat="46.12419" lon="6.19385">
        <ele>772</ele>
        <time>2022-02-10T13:11:44Z</time>
      </trkpt>
      <trkpt lat="46.12413" lon="6.19373">
        <ele>772.8</ele>
        <time>2022-02-10T13:11:48Z</time>
      </trkpt>
      <trkpt lat="46.12408" lon="6.19361">
        <ele>773.6</ele>
        <time>2022-02-10T13:11:52Z</time>
      </trkpt>
      <trkpt lat="46.12405" lon="6.19354">
        <ele>773.8</ele>
        <time>2022-02-10T13:11:54Z</time>
      </trkpt>
      <trkpt lat="46.12397" lon="6.19338">
        <ele>774.8</ele>
        <time>2022-02-10T13:11:59Z</time>
      </trkpt>
      <trkpt lat="46.12393" lon="6.19328">
        <ele>775.2</ele>
        <time>2022-02-10T13:12:02Z</time>
      </trkpt>
      <trkpt lat="46.12391" lon="6.19325">
        <ele>775.4</ele>
        <time>2022-02-10T13:12:03Z</time>
      </trkpt>
      <trkpt lat="46.12382" lon="6.19312">
        <ele>776.6</ele>
        <time>2022-02-10T13:12:08Z</time>
      </trkpt>
      <trkpt lat="46.12379" lon="6.1931">
        <ele>776.8</ele>
        <time>2022-02-10T13:12:09Z</time>
      </trkpt>
      <trkpt lat="46.12361" lon="6.19295">
        <ele>779</ele>
        <time>2022-02-10T13:12:17Z</time>
      </trkpt>
      <trkpt lat="46.12359" lon="6.19293">
        <ele>779</ele>
        <time>2022-02-10T13:12:18Z</time>
      </trkpt>
      <trkpt lat="46.12352" lon="6.19279">
        <ele>780</ele>
        <time>2022-02-10T13:12:23Z</time>
      </trkpt>
      <trkpt lat="46.12351" lon="6.19276">
        <ele>780.2</ele>
        <time>2022-02-10T13:12:24Z</time>
      </trkpt>
      <trkpt lat="46.12349" lon="6.19259">
        <ele>781</ele>
        <time>2022-02-10T13:12:29Z</time>
      </trkpt>
      <trkpt lat="46.12349" lon="6.19251">
        <ele>781.4</ele>
        <time>2022-02-10T13:12:31Z</time>
      </trkpt>
      <trkpt lat="46.12342" lon="6.1923">
        <ele>783</ele>
        <time>2022-02-10T13:12:37Z</time>
      </trkpt>
      <trkpt lat="46.1234" lon="6.19226">
        <ele>783.2</ele>
        <time>2022-02-10T13:12:38Z</time>
      </trkpt>
      <trkpt lat="46.12325" lon="6.19215">
        <ele>783.8</ele>
        <time>2022-02-10T13:12:43Z</time>
      </trkpt>
      <trkpt lat="46.1231" lon="6.19213">
        <ele>784.4</ele>
        <time>2022-02-10T13:12:48Z</time>
      </trkpt>
      <trkpt lat="46.12307" lon="6.19213">
        <ele>784.6</ele>
        <time>2022-02-10T13:12:49Z</time>
      </trkpt>
      <trkpt lat="46.12295" lon="6.1922">
        <ele>785.6</ele>
        <time>2022-02-10T13:12:53Z</time>
      </trkpt>
      <trkpt lat="46.12288" lon="6.19227">
        <ele>786</ele>
        <time>2022-02-10T13:12:56Z</time>
      </trkpt>
      <trkpt lat="46.12284" lon="6.19231">
        <ele>786.6</ele>
        <time>2022-02-10T13:12:58Z</time>
      </trkpt>
      <trkpt lat="46.12273" lon="6.19244">
        <ele>787.8</ele>
        <time>2022-02-10T13:13:03Z</time>
      </trkpt>
      <trkpt lat="46.12267" lon="6.19251">
        <ele>788.6</ele>
        <time>2022-02-10T13:13:06Z</time>
      </trkpt>
      <trkpt lat="46.12262" lon="6.19256">
        <ele>788.8</ele>
        <time>2022-02-10T13:13:08Z</time>
      </trkpt>
      <trkpt lat="46.12254" lon="6.19267">
        <ele>789.8</ele>
        <time>2022-02-10T13:13:12Z</time>
      </trkpt>
      <trkpt lat="46.12249" lon="6.19272">
        <ele>790</ele>
        <time>2022-02-10T13:13:14Z</time>
      </trkpt>
      <trkpt lat="46.12238" lon="6.19285">
        <ele>791.2</ele>
        <time>2022-02-10T13:13:19Z</time>
      </trkpt>
      <trkpt lat="46.12231" lon="6.19291">
        <ele>792</ele>
        <time>2022-02-10T13:13:22Z</time>
      </trkpt>
      <trkpt lat="46.12226" lon="6.19296">
        <ele>792.4</ele>
        <time>2022-02-10T13:13:24Z</time>
      </trkpt>
      <trkpt lat="46.12217" lon="6.19309">
        <ele>793.4</ele>
        <time>2022-02-10T13:13:29Z</time>
      </trkpt>
      <trkpt lat="46.12207" lon="6.19322">
        <ele>794.8</ele>
        <time>2022-02-10T13:13:34Z</time>
      </trkpt>
      <trkpt lat="46.122" lon="6.1933">
        <ele>795.4</ele>
        <time>2022-02-10T13:13:37Z</time>
      </trkpt>
      <trkpt lat="46.12193" lon="6.19334">
        <ele>796.2</ele>
        <time>2022-02-10T13:13:40Z</time>
      </trkpt>
      <trkpt lat="46.12184" lon="6.19334">
        <ele>797</ele>
        <time>2022-02-10T13:13:44Z</time>
      </trkpt>
      <trkpt lat="46.1218" lon="6.19334">
        <ele>797.4</ele>
        <time>2022-02-10T13:13:46Z</time>
      </trkpt>
      <trkpt lat="46.1217" lon="6.19334">
        <ele>798.4</ele>
        <time>2022-02-10T13:13:50Z</time>
      </trkpt>
      <trkpt lat="46.12168" lon="6.19334">
        <ele>798.6</ele>
        <time>2022-02-10T13:13:51Z</time>
      </trkpt>
      <trkpt lat="46.12157" lon="6.19342">
        <ele>799.8</ele>
        <time>2022-02-10T13:13:56Z</time>
      </trkpt>
      <trkpt lat="46.12155" lon="6.19344">
        <ele>800.2</ele>
        <time>2022-02-10T13:13:57Z</time>
      </trkpt>
      <trkpt lat="46.12149" lon="6.19354">
        <ele>801</ele>
        <time>2022-02-10T13:14:01Z</time>
      </trkpt>
      <trkpt lat="46.12144" lon="6.1938">
        <ele>802.2</ele>
        <time>2022-02-10T13:14:07Z</time>
      </trkpt>
      <trkpt lat="46.12145" lon="6.19394">
        <ele>802.8</ele>
        <time>2022-02-10T13:14:10Z</time>
      </trkpt>
      <trkpt lat="46.12144" lon="6.19414">
        <ele>803.4</ele>
        <time>2022-02-10T13:14:15Z</time>
      </trkpt>
      <trkpt lat="46.12142" lon="6.19442">
        <ele>804.8</ele>
        <time>2022-02-10T13:14:22Z</time>
      </trkpt>
      <trkpt lat="46.12141" lon="6.19449">
        <ele>805.2</ele>
        <time>2022-02-10T13:14:24Z</time>
      </trkpt>
      <trkpt lat="46.1214" lon="6.19468">
        <ele>806</ele>
        <time>2022-02-10T13:14:29Z</time>
      </trkpt>
      <trkpt lat="46.12139" lon="6.19481">
        <ele>806.4</ele>
        <time>2022-02-10T13:14:32Z</time>
      </trkpt>
      <trkpt lat="46.12135" lon="6.19497">
        <ele>807</ele>
        <time>2022-02-10T13:14:36Z</time>
      </trkpt>
      <trkpt lat="46.1213" lon="6.19507">
        <ele>807.8</ele>
        <time>2022-02-10T13:14:39Z</time>
      </trkpt>
      <trkpt lat="46.12116" lon="6.19513">
        <ele>808.6</ele>
        <time>2022-02-10T13:14:44Z</time>
      </trkpt>
      <trkpt lat="46.12099" lon="6.19511">
        <ele>809</ele>
        <time>2022-02-10T13:14:50Z</time>
      </trkpt>
      <trkpt lat="46.12093" lon="6.19509">
        <ele>809</ele>
        <time>2022-02-10T13:14:52Z</time>
      </trkpt>
      <trkpt lat="46.12078" lon="6.19505">
        <ele>810</ele>
        <time>2022-02-10T13:14:57Z</time>
      </trkpt>
      <trkpt lat="46.12064" lon="6.195">
        <ele>811</ele>
        <time>2022-02-10T13:15:02Z</time>
      </trkpt>
      <trkpt lat="46.12057" lon="6.19497">
        <ele>811.2</ele>
        <time>2022-02-10T13:15:04Z</time>
      </trkpt>
      <trkpt lat="46.12037" lon="6.19485">
        <ele>812.6</ele>
        <time>2022-02-10T13:15:11Z</time>
      </trkpt>
      <trkpt lat="46.1202" lon="6.19472">
        <ele>813.6</ele>
        <time>2022-02-10T13:15:17Z</time>
      </trkpt>
      <trkpt lat="46.12008" lon="6.19465">
        <ele>814.2</ele>
        <time>2022-02-10T13:15:21Z</time>
      </trkpt>
      <trkpt lat="46.12005" lon="6.19465">
        <ele>814.2</ele>
        <time>2022-02-10T13:15:22Z</time>
      </trkpt>
      <trkpt lat="46.11987" lon="6.19466">
        <ele>815.6</ele>
        <time>2022-02-10T13:15:28Z</time>
      </trkpt>
      <trkpt lat="46.11984" lon="6.19467">
        <ele>815.8</ele>
        <time>2022-02-10T13:15:29Z</time>
      </trkpt>
      <trkpt lat="46.11962" lon="6.19484">
        <ele>817.2</ele>
        <time>2022-02-10T13:15:37Z</time>
      </trkpt>
      <trkpt lat="46.11955" lon="6.19493">
        <ele>817.6</ele>
        <time>2022-02-10T13:15:40Z</time>
      </trkpt>
      <trkpt lat="46.11945" lon="6.19508">
        <ele>818.2</ele>
        <time>2022-02-10T13:15:45Z</time>
      </trkpt>
      <trkpt lat="46.11942" lon="6.19511">
        <ele>818.2</ele>
        <time>2022-02-10T13:15:46Z</time>
      </trkpt>
      <trkpt lat="46.11932" lon="6.19525">
        <ele>819</ele>
        <time>2022-02-10T13:15:51Z</time>
      </trkpt>
      <trkpt lat="46.11928" lon="6.19532">
        <ele>819.4</ele>
        <time>2022-02-10T13:15:53Z</time>
      </trkpt>
      <trkpt lat="46.11922" lon="6.19543">
        <ele>820.2</ele>
        <time>2022-02-10T13:15:56Z</time>
      </trkpt>
      <trkpt lat="46.11912" lon="6.19562">
        <ele>821.2</ele>
        <time>2022-02-10T13:16:01Z</time>
      </trkpt>
      <trkpt lat="46.11907" lon="6.19569">
        <ele>821.6</ele>
        <time>2022-02-10T13:16:03Z</time>
      </trkpt>
      <trkpt lat="46.1189" lon="6.19595">
        <ele>823</ele>
        <time>2022-02-10T13:16:11Z</time>
      </trkpt>
      <trkpt lat="46.11884" lon="6.19601">
        <ele>823.2</ele>
        <time>2022-02-10T13:16:13Z</time>
      </trkpt>
      <trkpt lat="46.11875" lon="6.19606">
        <ele>823.8</ele>
        <time>2022-02-10T13:16:16Z</time>
      </trkpt>
      <trkpt lat="46.11868" lon="6.19608">
        <ele>824.2</ele>
        <time>2022-02-10T13:16:18Z</time>
      </trkpt>
      <trkpt lat="46.11852" lon="6.19607">
        <ele>824.4</ele>
        <time>2022-02-10T13:16:23Z</time>
      </trkpt>
      <trkpt lat="46.11842" lon="6.19604">
        <ele>824.8</ele>
        <time>2022-02-10T13:16:26Z</time>
      </trkpt>
      <trkpt lat="46.11836" lon="6.19602">
        <ele>825</ele>
        <time>2022-02-10T13:16:28Z</time>
      </trkpt>
      <trkpt lat="46.11807" lon="6.1959">
        <ele>826.6</ele>
        <time>2022-02-10T13:16:37Z</time>
      </trkpt>
      <trkpt lat="46.11782" lon="6.19578">
        <ele>828</ele>
        <time>2022-02-10T13:16:45Z</time>
      </trkpt>
      <trkpt lat="46.11772" lon="6.19575">
        <ele>828.4</ele>
        <time>2022-02-10T13:16:48Z</time>
      </trkpt>
      <trkpt lat="46.11766" lon="6.19572">
        <ele>828.6</ele>
        <time>2022-02-10T13:16:50Z</time>
      </trkpt>
      <trkpt lat="46.1175" lon="6.19565">
        <ele>829.4</ele>
        <time>2022-02-10T13:16:55Z</time>
      </trkpt>
      <trkpt lat="46.11741" lon="6.19561">
        <ele>830.2</ele>
        <time>2022-02-10T13:16:58Z</time>
      </trkpt>
      <trkpt lat="46.11719" lon="6.19552">
        <ele>831.6</ele>
        <time>2022-02-10T13:17:05Z</time>
      </trkpt>
      <trkpt lat="46.11709" lon="6.19547">
        <ele>832</ele>
        <time>2022-02-10T13:17:08Z</time>
      </trkpt>
      <trkpt lat="46.11694" lon="6.19538">
        <ele>832.6</ele>
        <time>2022-02-10T13:17:13Z</time>
      </trkpt>
      <trkpt lat="46.11683" lon="6.19529">
        <ele>833.8</ele>
        <time>2022-02-10T13:17:17Z</time>
      </trkpt>
      <trkpt lat="46.11674" lon="6.19517">
        <ele>834.2</ele>
        <time>2022-02-10T13:17:21Z</time>
      </trkpt>
      <trkpt lat="46.11668" lon="6.19509">
        <ele>835</ele>
        <time>2022-02-10T13:17:24Z</time>
      </trkpt>
      <trkpt lat="46.11659" lon="6.19496">
        <ele>836.6</ele>
        <time>2022-02-10T13:17:29Z</time>
      </trkpt>
      <trkpt lat="46.11649" lon="6.19483">
        <ele>837.4</ele>
        <time>2022-02-10T13:17:34Z</time>
      </trkpt>
      <trkpt lat="46.11636" lon="6.19465">
        <ele>839</ele>
        <time>2022-02-10T13:17:41Z</time>
      </trkpt>
      <trkpt lat="46.11634" lon="6.19462">
        <ele>839.2</ele>
        <time>2022-02-10T13:17:42Z</time>
      </trkpt>
      <trkpt lat="46.11625" lon="6.19449">
        <ele>840.2</ele>
        <time>2022-02-10T13:17:47Z</time>
      </trkpt>
      <trkpt lat="46.11616" lon="6.19436">
        <ele>841.4</ele>
        <time>2022-02-10T13:17:52Z</time>
      </trkpt>
      <trkpt lat="46.11612" lon="6.19431">
        <ele>841.8</ele>
        <time>2022-02-10T13:17:54Z</time>
      </trkpt>
      <trkpt lat="46.11604" lon="6.19422">
        <ele>842.8</ele>
        <time>2022-02-10T13:17:58Z</time>
      </trkpt>
      <trkpt lat="46.11596" lon="6.19413">
        <ele>843.8</ele>
        <time>2022-02-10T13:18:02Z</time>
      </trkpt>
      <trkpt lat="46.11593" lon="6.19411">
        <ele>844</ele>
        <time>2022-02-10T13:18:03Z</time>
      </trkpt>
      <trkpt lat="46.11573" lon="6.19399">
        <ele>845.8</ele>
        <time>2022-02-10T13:18:11Z</time>
      </trkpt>
      <trkpt lat="46.11556" lon="6.19389">
        <ele>847</ele>
        <time>2022-02-10T13:18:18Z</time>
      </trkpt>
      <trkpt lat="46.11548" lon="6.19385">
        <ele>847.6</ele>
        <time>2022-02-10T13:18:21Z</time>
      </trkpt>
      <trkpt lat="46.11543" lon="6.19382">
        <ele>848</ele>
        <time>2022-02-10T13:18:23Z</time>
      </trkpt>
      <trkpt lat="46.11533" lon="6.19377">
        <ele>848.6</ele>
        <time>2022-02-10T13:18:27Z</time>
      </trkpt>
      <trkpt lat="46.11523" lon="6.19372">
        <ele>849.6</ele>
        <time>2022-02-10T13:18:31Z</time>
      </trkpt>
      <trkpt lat="46.11521" lon="6.19371">
        <ele>849.8</ele>
        <time>2022-02-10T13:18:32Z</time>
      </trkpt>
      <trkpt lat="46.11511" lon="6.19366">
        <ele>850.8</ele>
        <time>2022-02-10T13:18:36Z</time>
      </trkpt>
      <trkpt lat="46.11501" lon="6.19361">
        <ele>852</ele>
        <time>2022-02-10T13:18:40Z</time>
      </trkpt>
      <trkpt lat="46.11495" lon="6.1936">
        <ele>852.4</ele>
        <time>2022-02-10T13:18:42Z</time>
      </trkpt>
      <trkpt lat="46.11485" lon="6.19356">
        <ele>853</ele>
        <time>2022-02-10T13:18:46Z</time>
      </trkpt>
      <trkpt lat="46.11474" lon="6.19356">
        <ele>854.2</ele>
        <time>2022-02-10T13:18:50Z</time>
      </trkpt>
      <trkpt lat="46.11471" lon="6.19356">
        <ele>854.4</ele>
        <time>2022-02-10T13:18:51Z</time>
      </trkpt>
      <trkpt lat="46.11461" lon="6.19359">
        <ele>855.4</ele>
        <time>2022-02-10T13:18:55Z</time>
      </trkpt>
      <trkpt lat="46.11454" lon="6.19363">
        <ele>856.2</ele>
        <time>2022-02-10T13:18:58Z</time>
      </trkpt>
      <trkpt lat="46.11444" lon="6.19369">
        <ele>857.2</ele>
        <time>2022-02-10T13:19:02Z</time>
      </trkpt>
      <trkpt lat="46.11433" lon="6.19377">
        <ele>858.2</ele>
        <time>2022-02-10T13:19:07Z</time>
      </trkpt>
      <trkpt lat="46.11428" lon="6.1938">
        <ele>858.4</ele>
        <time>2022-02-10T13:19:09Z</time>
      </trkpt>
      <trkpt lat="46.11419" lon="6.19381">
        <ele>859.2</ele>
        <time>2022-02-10T13:19:13Z</time>
      </trkpt>
      <trkpt lat="46.11417" lon="6.19379">
        <ele>859.2</ele>
        <time>2022-02-10T13:19:14Z</time>
      </trkpt>
      <trkpt lat="46.11414" lon="6.19369">
        <ele>860</ele>
        <time>2022-02-10T13:19:18Z</time>
      </trkpt>
      <trkpt lat="46.11418" lon="6.19354">
        <ele>861.4</ele>
        <time>2022-02-10T13:19:23Z</time>
      </trkpt>
      <trkpt lat="46.11429" lon="6.19348">
        <ele>862.8</ele>
        <time>2022-02-10T13:19:28Z</time>
      </trkpt>
      <trkpt lat="46.11431" lon="6.19347">
        <ele>863</ele>
        <time>2022-02-10T13:19:29Z</time>
      </trkpt>
      <trkpt lat="46.11436" lon="6.19344">
        <ele>863.4</ele>
        <time>2022-02-10T13:19:31Z</time>
      </trkpt>
      <trkpt lat="46.1144" lon="6.19342">
        <ele>863.8</ele>
        <time>2022-02-10T13:19:33Z</time>
      </trkpt>
      <trkpt lat="46.11447" lon="6.19337">
        <ele>864.6</ele>
        <time>2022-02-10T13:19:36Z</time>
      </trkpt>
      <trkpt lat="46.11449" lon="6.19336">
        <ele>864.8</ele>
        <time>2022-02-10T13:19:37Z</time>
      </trkpt>
      <trkpt lat="46.11464" lon="6.19327">
        <ele>866.2</ele>
        <time>2022-02-10T13:19:43Z</time>
      </trkpt>
      <trkpt lat="46.11466" lon="6.19325">
        <ele>866.4</ele>
        <time>2022-02-10T13:19:44Z</time>
      </trkpt>
      <trkpt lat="46.11477" lon="6.19314">
        <ele>867.6</ele>
        <time>2022-02-10T13:19:49Z</time>
      </trkpt>
      <trkpt lat="46.11485" lon="6.19305">
        <ele>868.2</ele>
        <time>2022-02-10T13:19:53Z</time>
      </trkpt>
      <trkpt lat="46.1149" lon="6.19301">
        <ele>868.8</ele>
        <time>2022-02-10T13:19:55Z</time>
      </trkpt>
      <trkpt lat="46.115" lon="6.19291">
        <ele>869.8</ele>
        <time>2022-02-10T13:20:00Z</time>
      </trkpt>
      <trkpt lat="46.11507" lon="6.19285">
        <ele>870.4</ele>
        <time>2022-02-10T13:20:03Z</time>
      </trkpt>
      <trkpt lat="46.11509" lon="6.19283">
        <ele>870.8</ele>
        <time>2022-02-10T13:20:04Z</time>
      </trkpt>
      <trkpt lat="46.11522" lon="6.19277">
        <ele>871.8</ele>
        <time>2022-02-10T13:20:09Z</time>
      </trkpt>
      <trkpt lat="46.11524" lon="6.19276">
        <ele>872</ele>
        <time>2022-02-10T13:20:10Z</time>
      </trkpt>
      <trkpt lat="46.11534" lon="6.19275">
        <ele>873.2</ele>
        <time>2022-02-10T13:20:14Z</time>
      </trkpt>
      <trkpt lat="46.11542" lon="6.19277">
        <ele>874</ele>
        <time>2022-02-10T13:20:17Z</time>
      </trkpt>
      <trkpt lat="46.1155" lon="6.19279">
        <ele>874.6</ele>
        <time>2022-02-10T13:20:20Z</time>
      </trkpt>
      <trkpt lat="46.1156" lon="6.19281">
        <ele>875.6</ele>
        <time>2022-02-10T13:20:24Z</time>
      </trkpt>
      <trkpt lat="46.11565" lon="6.19282">
        <ele>876</ele>
        <time>2022-02-10T13:20:26Z</time>
      </trkpt>
      <trkpt lat="46.11575" lon="6.19278">
        <ele>876.8</ele>
        <time>2022-02-10T13:20:30Z</time>
      </trkpt>
      <trkpt lat="46.11579" lon="6.19273">
        <ele>877.2</ele>
        <time>2022-02-10T13:20:32Z</time>
      </trkpt>
      <trkpt lat="46.11583" lon="6.19263">
        <ele>877.6</ele>
        <time>2022-02-10T13:20:35Z</time>
      </trkpt>
      <trkpt lat="46.11584" lon="6.19251">
        <ele>878.2</ele>
        <time>2022-02-10T13:20:38Z</time>
      </trkpt>
      <trkpt lat="46.11583" lon="6.19244">
        <ele>878.8</ele>
        <time>2022-02-10T13:20:40Z</time>
      </trkpt>
      <trkpt lat="46.11575" lon="6.19232">
        <ele>879.8</ele>
        <time>2022-02-10T13:20:45Z</time>
      </trkpt>
      <trkpt lat="46.11573" lon="6.1923">
        <ele>880</ele>
        <time>2022-02-10T13:20:46Z</time>
      </trkpt>
      <trkpt lat="46.11562" lon="6.19228">
        <ele>880.6</ele>
        <time>2022-02-10T13:20:50Z</time>
      </trkpt>
      <trkpt lat="46.11557" lon="6.19228">
        <ele>881</ele>
        <time>2022-02-10T13:20:52Z</time>
      </trkpt>
      <trkpt lat="46.11543" lon="6.19228">
        <ele>881.8</ele>
        <time>2022-02-10T13:20:57Z</time>
      </trkpt>
      <trkpt lat="46.11535" lon="6.19227">
        <ele>882.4</ele>
        <time>2022-02-10T13:21:00Z</time>
      </trkpt>
      <trkpt lat="46.11527" lon="6.19226">
        <ele>883.2</ele>
        <time>2022-02-10T13:21:03Z</time>
      </trkpt>
      <trkpt lat="46.11512" lon="6.19223">
        <ele>884</ele>
        <time>2022-02-10T13:21:09Z</time>
      </trkpt>
      <trkpt lat="46.11508" lon="6.19221">
        <ele>884.6</ele>
        <time>2022-02-10T13:21:11Z</time>
      </trkpt>
      <trkpt lat="46.11503" lon="6.19219">
        <ele>884.8</ele>
        <time>2022-02-10T13:21:13Z</time>
      </trkpt>
      <trkpt lat="46.11488" lon="6.19213">
        <ele>886</ele>
        <time>2022-02-10T13:21:19Z</time>
      </trkpt>
      <trkpt lat="46.1147" lon="6.19207">
        <ele>887.8</ele>
        <time>2022-02-10T13:21:26Z</time>
      </trkpt>
      <trkpt lat="46.11464" lon="6.19205">
        <ele>888.2</ele>
        <time>2022-02-10T13:21:28Z</time>
      </trkpt>
      <trkpt lat="46.11454" lon="6.19203">
        <ele>888.8</ele>
        <time>2022-02-10T13:21:32Z</time>
      </trkpt>
      <trkpt lat="46.11441" lon="6.19203">
        <ele>889.8</ele>
        <time>2022-02-10T13:21:37Z</time>
      </trkpt>
      <trkpt lat="46.11439" lon="6.19203">
        <ele>890.2</ele>
        <time>2022-02-10T13:21:38Z</time>
      </trkpt>
      <trkpt lat="46.11429" lon="6.19205">
        <ele>890.8</ele>
        <time>2022-02-10T13:21:42Z</time>
      </trkpt>
      <trkpt lat="46.11418" lon="6.19205">
        <ele>891.6</ele>
        <time>2022-02-10T13:21:46Z</time>
      </trkpt>
      <trkpt lat="46.11413" lon="6.19206">
        <ele>892.2</ele>
        <time>2022-02-10T13:21:48Z</time>
      </trkpt>
      <trkpt lat="46.114" lon="6.19211">
        <ele>893.4</ele>
        <time>2022-02-10T13:21:53Z</time>
      </trkpt>
      <trkpt lat="46.11395" lon="6.19214">
        <ele>893.8</ele>
        <time>2022-02-10T13:21:55Z</time>
      </trkpt>
      <trkpt lat="46.11385" lon="6.19221">
        <ele>894.6</ele>
        <time>2022-02-10T13:21:59Z</time>
      </trkpt>
      <trkpt lat="46.11379" lon="6.19228">
        <ele>895</ele>
        <time>2022-02-10T13:22:02Z</time>
      </trkpt>
      <trkpt lat="46.11368" lon="6.19238">
        <ele>897</ele>
        <time>2022-02-10T13:22:07Z</time>
      </trkpt>
      <trkpt lat="46.11358" lon="6.19245">
        <ele>897.4</ele>
        <time>2022-02-10T13:22:11Z</time>
      </trkpt>
      <trkpt lat="46.11353" lon="6.19246">
        <ele>897.8</ele>
        <time>2022-02-10T13:22:13Z</time>
      </trkpt>
      <trkpt lat="46.1134" lon="6.19245">
        <ele>898.4</ele>
        <time>2022-02-10T13:22:18Z</time>
      </trkpt>
      <trkpt lat="46.11328" lon="6.19234">
        <ele>899.2</ele>
        <time>2022-02-10T13:22:23Z</time>
      </trkpt>
      <trkpt lat="46.11327" lon="6.19231">
        <ele>899.4</ele>
        <time>2022-02-10T13:22:24Z</time>
      </trkpt>
      <trkpt lat="46.11323" lon="6.19221">
        <ele>899.8</ele>
        <time>2022-02-10T13:22:27Z</time>
      </trkpt>
      <trkpt lat="46.1132" lon="6.19209">
        <ele>900.2</ele>
        <time>2022-02-10T13:22:30Z</time>
      </trkpt>
      <trkpt lat="46.11325" lon="6.19182">
        <ele>901.8</ele>
        <time>2022-02-10T13:22:36Z</time>
      </trkpt>
      <trkpt lat="46.1134" lon="6.19165">
        <ele>903</ele>
        <time>2022-02-10T13:22:42Z</time>
      </trkpt>
      <trkpt lat="46.11366" lon="6.19151">
        <ele>904</ele>
        <time>2022-02-10T13:22:50Z</time>
      </trkpt>
      <trkpt lat="46.11384" lon="6.19142">
        <ele>904.4</ele>
        <time>2022-02-10T13:22:55Z</time>
      </trkpt>
      <trkpt lat="46.11398" lon="6.19135">
        <ele>904.6</ele>
        <time>2022-02-10T13:22:59Z</time>
      </trkpt>
      <trkpt lat="46.11411" lon="6.19128">
        <ele>904.8</ele>
        <time>2022-02-10T13:23:03Z</time>
      </trkpt>
      <trkpt lat="46.11426" lon="6.1912">
        <ele>905.8</ele>
        <time>2022-02-10T13:23:08Z</time>
      </trkpt>
      <trkpt lat="46.11436" lon="6.19114">
        <ele>905.8</ele>
        <time>2022-02-10T13:23:11Z</time>
      </trkpt>
      <trkpt lat="46.11455" lon="6.19102">
        <ele>906.6</ele>
        <time>2022-02-10T13:23:17Z</time>
      </trkpt>
      <trkpt lat="46.11464" lon="6.19094">
        <ele>906.8</ele>
        <time>2022-02-10T13:23:20Z</time>
      </trkpt>
      <trkpt lat="46.11481" lon="6.1908">
        <ele>907.8</ele>
        <time>2022-02-10T13:23:26Z</time>
      </trkpt>
      <trkpt lat="46.11497" lon="6.19062">
        <ele>909.2</ele>
        <time>2022-02-10T13:23:33Z</time>
      </trkpt>
      <trkpt lat="46.11504" lon="6.19055">
        <ele>909.8</ele>
        <time>2022-02-10T13:23:36Z</time>
      </trkpt>
      <trkpt lat="46.11508" lon="6.1905">
        <ele>909.8</ele>
        <time>2022-02-10T13:23:38Z</time>
      </trkpt>
      <trkpt lat="46.11517" lon="6.19041">
        <ele>910.6</ele>
        <time>2022-02-10T13:23:42Z</time>
      </trkpt>
      <trkpt lat="46.11529" lon="6.19027">
        <ele>912.2</ele>
        <time>2022-02-10T13:23:48Z</time>
      </trkpt>
      <trkpt lat="46.11541" lon="6.19014">
        <ele>913.8</ele>
        <time>2022-02-10T13:23:54Z</time>
      </trkpt>
      <trkpt lat="46.11546" lon="6.19009">
        <ele>914</ele>
        <time>2022-02-10T13:23:56Z</time>
      </trkpt>
      <trkpt lat="46.11551" lon="6.19002">
        <ele>914.8</ele>
        <time>2022-02-10T13:23:59Z</time>
      </trkpt>
      <trkpt lat="46.11561" lon="6.1899">
        <ele>916</ele>
        <time>2022-02-10T13:24:04Z</time>
      </trkpt>
      <trkpt lat="46.11567" lon="6.18982">
        <ele>916.4</ele>
        <time>2022-02-10T13:24:07Z</time>
      </trkpt>
      <trkpt lat="46.11575" lon="6.18972">
        <ele>917.4</ele>
        <time>2022-02-10T13:24:11Z</time>
      </trkpt>
      <trkpt lat="46.11584" lon="6.18959">
        <ele>918.2</ele>
        <time>2022-02-10T13:24:16Z</time>
      </trkpt>
      <trkpt lat="46.1159" lon="6.18951">
        <ele>918.8</ele>
        <time>2022-02-10T13:24:19Z</time>
      </trkpt>
      <trkpt lat="46.11593" lon="6.18945">
        <ele>919.4</ele>
        <time>2022-02-10T13:24:21Z</time>
      </trkpt>
      <trkpt lat="46.11605" lon="6.18929">
        <ele>920.4</ele>
        <time>2022-02-10T13:24:27Z</time>
      </trkpt>
      <trkpt lat="46.1161" lon="6.18921">
        <ele>921.2</ele>
        <time>2022-02-10T13:24:30Z</time>
      </trkpt>
      <trkpt lat="46.11612" lon="6.18918">
        <ele>921.4</ele>
        <time>2022-02-10T13:24:31Z</time>
      </trkpt>
      <trkpt lat="46.11625" lon="6.189">
        <ele>923.4</ele>
        <time>2022-02-10T13:24:38Z</time>
      </trkpt>
      <trkpt lat="46.11632" lon="6.1889">
        <ele>924.2</ele>
        <time>2022-02-10T13:24:42Z</time>
      </trkpt>
      <trkpt lat="46.11635" lon="6.18885">
        <ele>924.6</ele>
        <time>2022-02-10T13:24:44Z</time>
      </trkpt>
      <trkpt lat="46.11647" lon="6.18867">
        <ele>925.8</ele>
        <time>2022-02-10T13:24:51Z</time>
      </trkpt>
      <trkpt lat="46.11649" lon="6.18865">
        <ele>926</ele>
        <time>2022-02-10T13:24:52Z</time>
      </trkpt>
      <trkpt lat="46.11656" lon="6.18855">
        <ele>927</ele>
        <time>2022-02-10T13:24:56Z</time>
      </trkpt>
      <trkpt lat="46.11664" lon="6.18842">
        <ele>927.8</ele>
        <time>2022-02-10T13:25:01Z</time>
      </trkpt>
      <trkpt lat="46.11665" lon="6.1884">
        <ele>928</ele>
        <time>2022-02-10T13:25:02Z</time>
      </trkpt>
      <trkpt lat="46.11669" lon="6.18832">
        <ele>928.8</ele>
        <time>2022-02-10T13:25:05Z</time>
      </trkpt>
      <trkpt lat="46.11676" lon="6.18816">
        <ele>929.8</ele>
        <time>2022-02-10T13:25:10Z</time>
      </trkpt>
      <trkpt lat="46.1168" lon="6.18802">
        <ele>930.8</ele>
        <time>2022-02-10T13:25:14Z</time>
      </trkpt>
      <trkpt lat="46.11682" lon="6.18792">
        <ele>931.2</ele>
        <time>2022-02-10T13:25:17Z</time>
      </trkpt>
      <trkpt lat="46.11683" lon="6.18785">
        <ele>931.6</ele>
        <time>2022-02-10T13:25:19Z</time>
      </trkpt>
      <trkpt lat="46.11686" lon="6.18761">
        <ele>932.8</ele>
        <time>2022-02-10T13:25:26Z</time>
      </trkpt>
      <trkpt lat="46.11687" lon="6.18746">
        <ele>933.6</ele>
        <time>2022-02-10T13:25:30Z</time>
      </trkpt>
      <trkpt lat="46.11688" lon="6.18732">
        <ele>934</ele>
        <time>2022-02-10T13:25:34Z</time>
      </trkpt>
      <trkpt lat="46.11688" lon="6.18725">
        <ele>934.2</ele>
        <time>2022-02-10T13:25:36Z</time>
      </trkpt>
      <trkpt lat="46.11689" lon="6.18706">
        <ele>935</ele>
        <time>2022-02-10T13:25:41Z</time>
      </trkpt>
      <trkpt lat="46.11689" lon="6.18702">
        <ele>935.2</ele>
        <time>2022-02-10T13:25:42Z</time>
      </trkpt>
      <trkpt lat="46.11686" lon="6.18673">
        <ele>936.6</ele>
        <time>2022-02-10T13:25:49Z</time>
      </trkpt>
      <trkpt lat="46.11684" lon="6.18665">
        <ele>937.4</ele>
        <time>2022-02-10T13:25:51Z</time>
      </trkpt>
      <trkpt lat="46.11672" lon="6.18631">
        <ele>938.4</ele>
        <time>2022-02-10T13:25:59Z</time>
      </trkpt>
      <trkpt lat="46.1166" lon="6.1861">
        <ele>939</ele>
        <time>2022-02-10T13:26:04Z</time>
      </trkpt>
      <trkpt lat="46.11651" lon="6.18594">
        <ele>939.2</ele>
        <time>2022-02-10T13:26:08Z</time>
      </trkpt>
      <trkpt lat="46.11631" lon="6.18557">
        <ele>939.8</ele>
        <time>2022-02-10T13:26:16Z</time>
      </trkpt>
      <trkpt lat="46.1163" lon="6.18552">
        <ele>939.8</ele>
        <time>2022-02-10T13:26:17Z</time>
      </trkpt>
      <trkpt lat="46.11625" lon="6.18535">
        <ele>940</ele>
        <time>2022-02-10T13:26:20Z</time>
      </trkpt>
      <trkpt lat="46.11625" lon="6.18529">
        <ele>940</ele>
        <time>2022-02-10T13:26:21Z</time>
      </trkpt>
      <trkpt lat="46.11624" lon="6.18517">
        <ele>940.2</ele>
        <time>2022-02-10T13:26:23Z</time>
      </trkpt>
      <trkpt lat="46.11627" lon="6.18475">
        <ele>940.8</ele>
        <time>2022-02-10T13:26:30Z</time>
      </trkpt>
      <trkpt lat="46.11628" lon="6.18469">
        <ele>941</ele>
        <time>2022-02-10T13:26:31Z</time>
      </trkpt>
      <trkpt lat="46.1163" lon="6.18446">
        <ele>941.4</ele>
        <time>2022-02-10T13:26:35Z</time>
      </trkpt>
      <trkpt lat="46.11632" lon="6.18429">
        <ele>941.8</ele>
        <time>2022-02-10T13:26:38Z</time>
      </trkpt>
      <trkpt lat="46.11633" lon="6.18424">
        <ele>941.8</ele>
        <time>2022-02-10T13:26:39Z</time>
      </trkpt>
      <trkpt lat="46.11633" lon="6.18397">
        <ele>943</ele>
        <time>2022-02-10T13:26:45Z</time>
      </trkpt>
      <trkpt lat="46.11629" lon="6.18379">
        <ele>944.4</ele>
        <time>2022-02-10T13:26:50Z</time>
      </trkpt>
      <trkpt lat="46.11626" lon="6.18372">
        <ele>944.8</ele>
        <time>2022-02-10T13:26:52Z</time>
      </trkpt>
      <trkpt lat="46.11616" lon="6.18359">
        <ele>946.2</ele>
        <time>2022-02-10T13:26:57Z</time>
      </trkpt>
      <trkpt lat="46.11611" lon="6.18355">
        <ele>946.8</ele>
        <time>2022-02-10T13:26:59Z</time>
      </trkpt>
      <trkpt lat="46.11601" lon="6.18348">
        <ele>947.2</ele>
        <time>2022-02-10T13:27:03Z</time>
      </trkpt>
      <trkpt lat="46.1159" lon="6.18346">
        <ele>948.2</ele>
        <time>2022-02-10T13:27:07Z</time>
      </trkpt>
      <trkpt lat="46.11587" lon="6.18345">
        <ele>948.4</ele>
        <time>2022-02-10T13:27:08Z</time>
      </trkpt>
      <trkpt lat="46.11576" lon="6.18349">
        <ele>949</ele>
        <time>2022-02-10T13:27:12Z</time>
      </trkpt>
      <trkpt lat="46.11574" lon="6.1835">
        <ele>949.2</ele>
        <time>2022-02-10T13:27:13Z</time>
      </trkpt>
      <trkpt lat="46.11563" lon="6.18357">
        <ele>950.6</ele>
        <time>2022-02-10T13:27:19Z</time>
      </trkpt>
      <trkpt lat="46.11563" lon="6.18358">
        <ele>952.2</ele>
        <time>2022-02-10T13:27:28Z</time>
      </trkpt>
      <trkpt lat="46.11563" lon="6.18358">
        <ele>951.8</ele>
        <time>2022-02-10T13:27:55Z</time>
      </trkpt>
      <trkpt lat="46.11563" lon="6.18358">
        <ele>951.4</ele>
        <time>2022-02-10T13:28:31Z</time>
      </trkpt>
      <trkpt lat="46.11563" lon="6.18358">
        <ele>951.4</ele>
        <time>2022-02-10T13:29:01Z</time>
      </trkpt>
      <trkpt lat="46.11562" lon="6.18359">
        <ele>951.6</ele>
        <time>2022-02-10T13:29:57Z</time>
      </trkpt>
      <trkpt lat="46.11559" lon="6.18362">
        <ele>951.8</ele>
        <time>2022-02-10T13:30:00Z</time>
      </trkpt>
      <trkpt lat="46.11552" lon="6.18367">
        <ele>951.6</ele>
        <time>2022-02-10T13:30:03Z</time>
      </trkpt>
      <trkpt lat="46.11549" lon="6.18368">
        <ele>951.8</ele>
        <time>2022-02-10T13:30:04Z</time>
      </trkpt>
      <trkpt lat="46.11542" lon="6.18372">
        <ele>951.8</ele>
        <time>2022-02-10T13:30:06Z</time>
      </trkpt>
      <trkpt lat="46.11526" lon="6.18381">
        <ele>951.6</ele>
        <time>2022-02-10T13:30:10Z</time>
      </trkpt>
      <trkpt lat="46.11521" lon="6.18383">
        <ele>951.6</ele>
        <time>2022-02-10T13:30:11Z</time>
      </trkpt>
      <trkpt lat="46.11496" lon="6.18391">
        <ele>950.6</ele>
        <time>2022-02-10T13:30:16Z</time>
      </trkpt>
      <trkpt lat="46.1147" lon="6.18393">
        <ele>949.2</ele>
        <time>2022-02-10T13:30:22Z</time>
      </trkpt>
      <trkpt lat="46.11466" lon="6.18394">
        <ele>948.8</ele>
        <time>2022-02-10T13:30:23Z</time>
      </trkpt>
      <trkpt lat="46.11462" lon="6.18394">
        <ele>948.8</ele>
        <time>2022-02-10T13:30:27Z</time>
      </trkpt>
      <trkpt lat="46.11462" lon="6.18393">
        <ele>948.6</ele>
        <time>2022-02-10T13:30:34Z</time>
      </trkpt>
      <trkpt lat="46.11462" lon="6.18393">
        <ele>948.4</ele>
        <time>2022-02-10T13:31:09Z</time>
      </trkpt>
      <trkpt lat="46.11462" lon="6.18393">
        <ele>948.2</ele>
        <time>2022-02-10T13:31:53Z</time>
      </trkpt>
      <trkpt lat="46.11462" lon="6.18394">
        <ele>948.4</ele>
        <time>2022-02-10T13:32:09Z</time>
      </trkpt>
      <trkpt lat="46.11454" lon="6.18396">
        <ele>948.4</ele>
        <time>2022-02-10T13:32:13Z</time>
      </trkpt>
      <trkpt lat="46.11448" lon="6.18396">
        <ele>948.6</ele>
        <time>2022-02-10T13:32:15Z</time>
      </trkpt>
      <trkpt lat="46.11435" lon="6.18398">
        <ele>948.6</ele>
        <time>2022-02-10T13:32:18Z</time>
      </trkpt>
      <trkpt lat="46.11425" lon="6.18399">
        <ele>948.6</ele>
        <time>2022-02-10T13:32:20Z</time>
      </trkpt>
      <trkpt lat="46.11412" lon="6.184">
        <ele>948.4</ele>
        <time>2022-02-10T13:32:22Z</time>
      </trkpt>
      <trkpt lat="46.11405" lon="6.18401">
        <ele>948.4</ele>
        <time>2022-02-10T13:32:23Z</time>
      </trkpt>
      <trkpt lat="46.11391" lon="6.184">
        <ele>947.4</ele>
        <time>2022-02-10T13:32:25Z</time>
      </trkpt>
      <trkpt lat="46.11376" lon="6.18398">
        <ele>946.8</ele>
        <time>2022-02-10T13:32:27Z</time>
      </trkpt>
      <trkpt lat="46.11368" lon="6.18397">
        <ele>946.8</ele>
        <time>2022-02-10T13:32:28Z</time>
      </trkpt>
      <trkpt lat="46.11351" lon="6.18394">
        <ele>945.6</ele>
        <time>2022-02-10T13:32:30Z</time>
      </trkpt>
      <trkpt lat="46.11325" lon="6.18388">
        <ele>944.4</ele>
        <time>2022-02-10T13:32:33Z</time>
      </trkpt>
      <trkpt lat="46.11316" lon="6.18386">
        <ele>944</ele>
        <time>2022-02-10T13:32:34Z</time>
      </trkpt>
      <trkpt lat="46.11307" lon="6.18385">
        <ele>943</ele>
        <time>2022-02-10T13:32:35Z</time>
      </trkpt>
      <trkpt lat="46.1129" lon="6.1838">
        <ele>942</ele>
        <time>2022-02-10T13:32:37Z</time>
      </trkpt>
      <trkpt lat="46.11272" lon="6.18376">
        <ele>941.4</ele>
        <time>2022-02-10T13:32:39Z</time>
      </trkpt>
      <trkpt lat="46.11253" lon="6.18372">
        <ele>940.4</ele>
        <time>2022-02-10T13:32:41Z</time>
      </trkpt>
      <trkpt lat="46.11244" lon="6.18369">
        <ele>939.8</ele>
        <time>2022-02-10T13:32:42Z</time>
      </trkpt>
      <trkpt lat="46.11225" lon="6.18364">
        <ele>938.8</ele>
        <time>2022-02-10T13:32:44Z</time>
      </trkpt>
      <trkpt lat="46.11207" lon="6.18356">
        <ele>938</ele>
        <time>2022-02-10T13:32:46Z</time>
      </trkpt>
      <trkpt lat="46.11197" lon="6.18351">
        <ele>937.2</ele>
        <time>2022-02-10T13:32:47Z</time>
      </trkpt>
      <trkpt lat="46.11188" lon="6.18346">
        <ele>936.2</ele>
        <time>2022-02-10T13:32:48Z</time>
      </trkpt>
      <trkpt lat="46.11169" lon="6.18337">
        <ele>934.4</ele>
        <time>2022-02-10T13:32:50Z</time>
      </trkpt>
      <trkpt lat="46.1116" lon="6.18333">
        <ele>933.6</ele>
        <time>2022-02-10T13:32:51Z</time>
      </trkpt>
      <trkpt lat="46.1114" lon="6.18326">
        <ele>932.2</ele>
        <time>2022-02-10T13:32:53Z</time>
      </trkpt>
      <trkpt lat="46.11111" lon="6.18318">
        <ele>930.2</ele>
        <time>2022-02-10T13:32:56Z</time>
      </trkpt>
      <trkpt lat="46.11092" lon="6.18313">
        <ele>929.2</ele>
        <time>2022-02-10T13:32:58Z</time>
      </trkpt>
      <trkpt lat="46.11074" lon="6.18309">
        <ele>927.8</ele>
        <time>2022-02-10T13:33:00Z</time>
      </trkpt>
      <trkpt lat="46.11065" lon="6.18304">
        <ele>927.2</ele>
        <time>2022-02-10T13:33:01Z</time>
      </trkpt>
      <trkpt lat="46.11056" lon="6.18299">
        <ele>927</ele>
        <time>2022-02-10T13:33:02Z</time>
      </trkpt>
      <trkpt lat="46.11047" lon="6.18291">
        <ele>926.6</ele>
        <time>2022-02-10T13:33:03Z</time>
      </trkpt>
      <trkpt lat="46.11032" lon="6.18273">
        <ele>926.6</ele>
        <time>2022-02-10T13:33:05Z</time>
      </trkpt>
      <trkpt lat="46.11026" lon="6.18262">
        <ele>926.2</ele>
        <time>2022-02-10T13:33:06Z</time>
      </trkpt>
      <trkpt lat="46.1102" lon="6.18251">
        <ele>926</ele>
        <time>2022-02-10T13:33:07Z</time>
      </trkpt>
      <trkpt lat="46.11001" lon="6.18219">
        <ele>925.6</ele>
        <time>2022-02-10T13:33:10Z</time>
      </trkpt>
      <trkpt lat="46.10993" lon="6.1821">
        <ele>925</ele>
        <time>2022-02-10T13:33:11Z</time>
      </trkpt>
      <trkpt lat="46.10986" lon="6.18201">
        <ele>924.6</ele>
        <time>2022-02-10T13:33:12Z</time>
      </trkpt>
      <trkpt lat="46.10961" lon="6.18178">
        <ele>923.8</ele>
        <time>2022-02-10T13:33:15Z</time>
      </trkpt>
      <trkpt lat="46.10943" lon="6.18165">
        <ele>922.4</ele>
        <time>2022-02-10T13:33:17Z</time>
      </trkpt>
      <trkpt lat="46.10934" lon="6.18158">
        <ele>922</ele>
        <time>2022-02-10T13:33:18Z</time>
      </trkpt>
      <trkpt lat="46.10916" lon="6.18146">
        <ele>920.4</ele>
        <time>2022-02-10T13:33:20Z</time>
      </trkpt>
      <trkpt lat="46.10907" lon="6.1814">
        <ele>919.6</ele>
        <time>2022-02-10T13:33:21Z</time>
      </trkpt>
      <trkpt lat="46.10897" lon="6.18135">
        <ele>919</ele>
        <time>2022-02-10T13:33:22Z</time>
      </trkpt>
      <trkpt lat="46.10887" lon="6.18132">
        <ele>918.8</ele>
        <time>2022-02-10T13:33:23Z</time>
      </trkpt>
      <trkpt lat="46.10866" lon="6.18136">
        <ele>918</ele>
        <time>2022-02-10T13:33:25Z</time>
      </trkpt>
      <trkpt lat="46.1084" lon="6.18157">
        <ele>916.6</ele>
        <time>2022-02-10T13:33:28Z</time>
      </trkpt>
      <trkpt lat="46.10822" lon="6.18166">
        <ele>914.8</ele>
        <time>2022-02-10T13:33:30Z</time>
      </trkpt>
      <trkpt lat="46.10812" lon="6.18169">
        <ele>913.2</ele>
        <time>2022-02-10T13:33:31Z</time>
      </trkpt>
      <trkpt lat="46.10792" lon="6.18174">
        <ele>912</ele>
        <time>2022-02-10T13:33:33Z</time>
      </trkpt>
      <trkpt lat="46.10771" lon="6.1818">
        <ele>911.6</ele>
        <time>2022-02-10T13:33:35Z</time>
      </trkpt>
      <trkpt lat="46.10762" lon="6.18185">
        <ele>911.6</ele>
        <time>2022-02-10T13:33:36Z</time>
      </trkpt>
      <trkpt lat="46.10737" lon="6.182">
        <ele>910.8</ele>
        <time>2022-02-10T13:33:39Z</time>
      </trkpt>
      <trkpt lat="46.10731" lon="6.18204">
        <ele>910.8</ele>
        <time>2022-02-10T13:33:40Z</time>
      </trkpt>
      <trkpt lat="46.10724" lon="6.18208">
        <ele>910.6</ele>
        <time>2022-02-10T13:33:41Z</time>
      </trkpt>
      <trkpt lat="46.10713" lon="6.18213">
        <ele>910.6</ele>
        <time>2022-02-10T13:33:43Z</time>
      </trkpt>
      <trkpt lat="46.10707" lon="6.18215">
        <ele>910.6</ele>
        <time>2022-02-10T13:33:44Z</time>
      </trkpt>
      <trkpt lat="46.10702" lon="6.18216">
        <ele>910.6</ele>
        <time>2022-02-10T13:33:45Z</time>
      </trkpt>
      <trkpt lat="46.10686" lon="6.18217">
        <ele>910.8</ele>
        <time>2022-02-10T13:33:48Z</time>
      </trkpt>
      <trkpt lat="46.10681" lon="6.18217">
        <ele>911</ele>
        <time>2022-02-10T13:33:49Z</time>
      </trkpt>
      <trkpt lat="46.10644" lon="6.18208">
        <ele>914.6</ele>
        <time>2022-02-10T13:33:57Z</time>
      </trkpt>
      <trkpt lat="46.10613" lon="6.18198">
        <ele>916</ele>
        <time>2022-02-10T13:34:04Z</time>
      </trkpt>
      <trkpt lat="46.10601" lon="6.18194">
        <ele>916.4</ele>
        <time>2022-02-10T13:34:07Z</time>
      </trkpt>
      <trkpt lat="46.10597" lon="6.18193">
        <ele>916.6</ele>
        <time>2022-02-10T13:34:08Z</time>
      </trkpt>
      <trkpt lat="46.10583" lon="6.18188">
        <ele>917.4</ele>
        <time>2022-02-10T13:34:12Z</time>
      </trkpt>
      <trkpt lat="46.10573" lon="6.18184">
        <ele>918.6</ele>
        <time>2022-02-10T13:34:15Z</time>
      </trkpt>
      <trkpt lat="46.1057" lon="6.18182">
        <ele>919</ele>
        <time>2022-02-10T13:34:16Z</time>
      </trkpt>
      <trkpt lat="46.10554" lon="6.18175">
        <ele>920.4</ele>
        <time>2022-02-10T13:34:21Z</time>
      </trkpt>
      <trkpt lat="46.10545" lon="6.1817">
        <ele>921.2</ele>
        <time>2022-02-10T13:34:24Z</time>
      </trkpt>
      <trkpt lat="46.10513" lon="6.18147">
        <ele>923</ele>
        <time>2022-02-10T13:34:33Z</time>
      </trkpt>
      <trkpt lat="46.10493" lon="6.18129">
        <ele>923.2</ele>
        <time>2022-02-10T13:34:38Z</time>
      </trkpt>
      <trkpt lat="46.10485" lon="6.1812">
        <ele>923</ele>
        <time>2022-02-10T13:34:40Z</time>
      </trkpt>
      <trkpt lat="46.10462" lon="6.18095">
        <ele>922.8</ele>
        <time>2022-02-10T13:34:45Z</time>
      </trkpt>
      <trkpt lat="46.10443" lon="6.18074">
        <ele>922.4</ele>
        <time>2022-02-10T13:34:49Z</time>
      </trkpt>
      <trkpt lat="46.10411" lon="6.1804">
        <ele>921.8</ele>
        <time>2022-02-10T13:34:55Z</time>
      </trkpt>
      <trkpt lat="46.10406" lon="6.18034">
        <ele>921.8</ele>
        <time>2022-02-10T13:34:56Z</time>
      </trkpt>
      <trkpt lat="46.10371" lon="6.17996">
        <ele>920.4</ele>
        <time>2022-02-10T13:35:02Z</time>
      </trkpt>
      <trkpt lat="46.10352" lon="6.17978">
        <ele>919.4</ele>
        <time>2022-02-10T13:35:05Z</time>
      </trkpt>
      <trkpt lat="46.10345" lon="6.17974">
        <ele>919.2</ele>
        <time>2022-02-10T13:35:06Z</time>
      </trkpt>
      <trkpt lat="46.10315" lon="6.17961">
        <ele>918.4</ele>
        <time>2022-02-10T13:35:10Z</time>
      </trkpt>
      <trkpt lat="46.10285" lon="6.1795">
        <ele>917.6</ele>
        <time>2022-02-10T13:35:14Z</time>
      </trkpt>
      <trkpt lat="46.10261" lon="6.1794">
        <ele>917.4</ele>
        <time>2022-02-10T13:35:17Z</time>
      </trkpt>
      <trkpt lat="46.10237" lon="6.1793">
        <ele>916.4</ele>
        <time>2022-02-10T13:35:20Z</time>
      </trkpt>
      <trkpt lat="46.10229" lon="6.17927">
        <ele>916</ele>
        <time>2022-02-10T13:35:21Z</time>
      </trkpt>
      <trkpt lat="46.10197" lon="6.17913">
        <ele>915</ele>
        <time>2022-02-10T13:35:25Z</time>
      </trkpt>
      <trkpt lat="46.10182" lon="6.17904">
        <ele>913.8</ele>
        <time>2022-02-10T13:35:27Z</time>
      </trkpt>
      <trkpt lat="46.10159" lon="6.17873">
        <ele>912.8</ele>
        <time>2022-02-10T13:35:31Z</time>
      </trkpt>
      <trkpt lat="46.10148" lon="6.17857">
        <ele>912.4</ele>
        <time>2022-02-10T13:35:33Z</time>
      </trkpt>
      <trkpt lat="46.10126" lon="6.17825">
        <ele>911.4</ele>
        <time>2022-02-10T13:35:37Z</time>
      </trkpt>
      <trkpt lat="46.10083" lon="6.17769">
        <ele>910.6</ele>
        <time>2022-02-10T13:35:45Z</time>
      </trkpt>
      <trkpt lat="46.10065" lon="6.17745">
        <ele>910.6</ele>
        <time>2022-02-10T13:35:49Z</time>
      </trkpt>
      <trkpt lat="46.10056" lon="6.17734">
        <ele>910.6</ele>
        <time>2022-02-10T13:35:51Z</time>
      </trkpt>
      <trkpt lat="46.10053" lon="6.17729">
        <ele>910.6</ele>
        <time>2022-02-10T13:35:52Z</time>
      </trkpt>
      <trkpt lat="46.10045" lon="6.1772">
        <ele>910.6</ele>
        <time>2022-02-10T13:35:54Z</time>
      </trkpt>
      <trkpt lat="46.10033" lon="6.17702">
        <ele>911.2</ele>
        <time>2022-02-10T13:35:58Z</time>
      </trkpt>
      <trkpt lat="46.1003" lon="6.17698">
        <ele>911.8</ele>
        <time>2022-02-10T13:35:59Z</time>
      </trkpt>
      <trkpt lat="46.10022" lon="6.17685">
        <ele>913.8</ele>
        <time>2022-02-10T13:36:02Z</time>
      </trkpt>
      <trkpt lat="46.10009" lon="6.17665">
        <ele>915.4</ele>
        <time>2022-02-10T13:36:07Z</time>
      </trkpt>
      <trkpt lat="46.10001" lon="6.17653">
        <ele>916.4</ele>
        <time>2022-02-10T13:36:10Z</time>
      </trkpt>
      <trkpt lat="46.09996" lon="6.17646">
        <ele>916.8</ele>
        <time>2022-02-10T13:36:12Z</time>
      </trkpt>
      <trkpt lat="46.0998" lon="6.17623">
        <ele>918.6</ele>
        <time>2022-02-10T13:36:18Z</time>
      </trkpt>
      <trkpt lat="46.09974" lon="6.17615">
        <ele>919.2</ele>
        <time>2022-02-10T13:36:20Z</time>
      </trkpt>
      <trkpt lat="46.0995" lon="6.17578">
        <ele>921</ele>
        <time>2022-02-10T13:36:29Z</time>
      </trkpt>
      <trkpt lat="46.09945" lon="6.1757">
        <ele>921.2</ele>
        <time>2022-02-10T13:36:31Z</time>
      </trkpt>
      <trkpt lat="46.09922" lon="6.17536">
        <ele>922</ele>
        <time>2022-02-10T13:36:39Z</time>
      </trkpt>
      <trkpt lat="46.0989" lon="6.1749">
        <ele>922.8</ele>
        <time>2022-02-10T13:36:49Z</time>
      </trkpt>
      <trkpt lat="46.09883" lon="6.17481">
        <ele>922.8</ele>
        <time>2022-02-10T13:36:51Z</time>
      </trkpt>
      <trkpt lat="46.0986" lon="6.17451">
        <ele>923.4</ele>
        <time>2022-02-10T13:36:58Z</time>
      </trkpt>
      <trkpt lat="46.09833" lon="6.17408">
        <ele>925</ele>
        <time>2022-02-10T13:37:07Z</time>
      </trkpt>
      <trkpt lat="46.0983" lon="6.17403">
        <ele>925</ele>
        <time>2022-02-10T13:37:08Z</time>
      </trkpt>
      <trkpt lat="46.09808" lon="6.17361">
        <ele>925.8</ele>
        <time>2022-02-10T13:37:16Z</time>
      </trkpt>
      <trkpt lat="46.09805" lon="6.17356">
        <ele>925.8</ele>
        <time>2022-02-10T13:37:17Z</time>
      </trkpt>
      <trkpt lat="46.09794" lon="6.17336">
        <ele>926.6</ele>
        <time>2022-02-10T13:37:21Z</time>
      </trkpt>
      <trkpt lat="46.09782" lon="6.17316">
        <ele>927</ele>
        <time>2022-02-10T13:37:25Z</time>
      </trkpt>
      <trkpt lat="46.09751" lon="6.17257">
        <ele>928.4</ele>
        <time>2022-02-10T13:37:36Z</time>
      </trkpt>
      <trkpt lat="46.09731" lon="6.17203">
        <ele>928.6</ele>
        <time>2022-02-10T13:37:44Z</time>
      </trkpt>
      <trkpt lat="46.09721" lon="6.17173">
        <ele>928.6</ele>
        <time>2022-02-10T13:37:48Z</time>
      </trkpt>
      <trkpt lat="46.09714" lon="6.17158">
        <ele>928.4</ele>
        <time>2022-02-10T13:37:50Z</time>
      </trkpt>
      <trkpt lat="46.09696" lon="6.17124">
        <ele>927.8</ele>
        <time>2022-02-10T13:37:55Z</time>
      </trkpt>
      <trkpt lat="46.09658" lon="6.17065">
        <ele>927</ele>
        <time>2022-02-10T13:38:04Z</time>
      </trkpt>
      <trkpt lat="46.09637" lon="6.17038">
        <ele>926.8</ele>
        <time>2022-02-10T13:38:08Z</time>
      </trkpt>
      <trkpt lat="46.09631" lon="6.17032">
        <ele>926.8</ele>
        <time>2022-02-10T13:38:09Z</time>
      </trkpt>
      <trkpt lat="46.09625" lon="6.17027">
        <ele>927</ele>
        <time>2022-02-10T13:38:10Z</time>
      </trkpt>
      <trkpt lat="46.09603" lon="6.17017">
        <ele>926.4</ele>
        <time>2022-02-10T13:38:13Z</time>
      </trkpt>
      <trkpt lat="46.09588" lon="6.17011">
        <ele>925.8</ele>
        <time>2022-02-10T13:38:15Z</time>
      </trkpt>
      <trkpt lat="46.09552" lon="6.16988">
        <ele>924.6</ele>
        <time>2022-02-10T13:38:20Z</time>
      </trkpt>
      <trkpt lat="46.09531" lon="6.16971">
        <ele>923.6</ele>
        <time>2022-02-10T13:38:23Z</time>
      </trkpt>
      <trkpt lat="46.0951" lon="6.16954">
        <ele>923.2</ele>
        <time>2022-02-10T13:38:26Z</time>
      </trkpt>
      <trkpt lat="46.09471" lon="6.16922">
        <ele>921</ele>
        <time>2022-02-10T13:38:32Z</time>
      </trkpt>
      <trkpt lat="46.09446" lon="6.16902">
        <ele>920</ele>
        <time>2022-02-10T13:38:36Z</time>
      </trkpt>
      <trkpt lat="46.0942" lon="6.16882">
        <ele>919.8</ele>
        <time>2022-02-10T13:38:40Z</time>
      </trkpt>
      <trkpt lat="46.09414" lon="6.16877">
        <ele>919.6</ele>
        <time>2022-02-10T13:38:41Z</time>
      </trkpt>
      <trkpt lat="46.09375" lon="6.16843">
        <ele>919.4</ele>
        <time>2022-02-10T13:38:47Z</time>
      </trkpt>
      <trkpt lat="46.09369" lon="6.16836">
        <ele>919.4</ele>
        <time>2022-02-10T13:38:48Z</time>
      </trkpt>
      <trkpt lat="46.09352" lon="6.16811">
        <ele>919.2</ele>
        <time>2022-02-10T13:38:51Z</time>
      </trkpt>
      <trkpt lat="46.09342" lon="6.16794">
        <ele>919.2</ele>
        <time>2022-02-10T13:38:53Z</time>
      </trkpt>
      <trkpt lat="46.09332" lon="6.16776">
        <ele>918.8</ele>
        <time>2022-02-10T13:38:55Z</time>
      </trkpt>
      <trkpt lat="46.09315" lon="6.16752">
        <ele>917</ele>
        <time>2022-02-10T13:38:58Z</time>
      </trkpt>
      <trkpt lat="46.09308" lon="6.16746">
        <ele>916.6</ele>
        <time>2022-02-10T13:38:59Z</time>
      </trkpt>
      <trkpt lat="46.093" lon="6.16741">
        <ele>916.6</ele>
        <time>2022-02-10T13:39:00Z</time>
      </trkpt>
      <trkpt lat="46.09277" lon="6.1673">
        <ele>916</ele>
        <time>2022-02-10T13:39:03Z</time>
      </trkpt>
      <trkpt lat="46.09261" lon="6.16723">
        <ele>916</ele>
        <time>2022-02-10T13:39:05Z</time>
      </trkpt>
      <trkpt lat="46.09214" lon="6.16698">
        <ele>913.4</ele>
        <time>2022-02-10T13:39:11Z</time>
      </trkpt>
      <trkpt lat="46.09184" lon="6.16674">
        <ele>911.2</ele>
        <time>2022-02-10T13:39:15Z</time>
      </trkpt>
      <trkpt lat="46.09177" lon="6.1667">
        <ele>911.2</ele>
        <time>2022-02-10T13:39:16Z</time>
      </trkpt>
      <trkpt lat="46.09135" lon="6.16656">
        <ele>909.4</ele>
        <time>2022-02-10T13:39:21Z</time>
      </trkpt>
      <trkpt lat="46.09118" lon="6.16652">
        <ele>909</ele>
        <time>2022-02-10T13:39:23Z</time>
      </trkpt>
      <trkpt lat="46.09109" lon="6.16649">
        <ele>908.8</ele>
        <time>2022-02-10T13:39:24Z</time>
      </trkpt>
      <trkpt lat="46.09076" lon="6.16641">
        <ele>908</ele>
        <time>2022-02-10T13:39:28Z</time>
      </trkpt>
      <trkpt lat="46.09069" lon="6.16639">
        <ele>907.8</ele>
        <time>2022-02-10T13:39:29Z</time>
      </trkpt>
      <trkpt lat="46.0904" lon="6.16631">
        <ele>907.8</ele>
        <time>2022-02-10T13:39:33Z</time>
      </trkpt>
      <trkpt lat="46.09034" lon="6.16628">
        <ele>908</ele>
        <time>2022-02-10T13:39:34Z</time>
      </trkpt>
      <trkpt lat="46.09028" lon="6.16627">
        <ele>907.8</ele>
        <time>2022-02-10T13:39:35Z</time>
      </trkpt>
      <trkpt lat="46.09005" lon="6.16625">
        <ele>908</ele>
        <time>2022-02-10T13:39:39Z</time>
      </trkpt>
      <trkpt lat="46.08971" lon="6.16628">
        <ele>910</ele>
        <time>2022-02-10T13:39:45Z</time>
      </trkpt>
      <trkpt lat="46.08965" lon="6.16628">
        <ele>910.4</ele>
        <time>2022-02-10T13:39:46Z</time>
      </trkpt>
      <trkpt lat="46.0894" lon="6.1663">
        <ele>911</ele>
        <time>2022-02-10T13:39:50Z</time>
      </trkpt>
      <trkpt lat="46.08906" lon="6.16633">
        <ele>911.6</ele>
        <time>2022-02-10T13:39:56Z</time>
      </trkpt>
      <trkpt lat="46.08895" lon="6.1663">
        <ele>911.6</ele>
        <time>2022-02-10T13:39:58Z</time>
      </trkpt>
      <trkpt lat="46.08885" lon="6.16624">
        <ele>911.6</ele>
        <time>2022-02-10T13:40:00Z</time>
      </trkpt>
      <trkpt lat="46.08877" lon="6.16615">
        <ele>911.6</ele>
        <time>2022-02-10T13:40:02Z</time>
      </trkpt>
      <trkpt lat="46.08866" lon="6.16601">
        <ele>911.8</ele>
        <time>2022-02-10T13:40:05Z</time>
      </trkpt>
      <trkpt lat="46.08856" lon="6.16586">
        <ele>912.2</ele>
        <time>2022-02-10T13:40:08Z</time>
      </trkpt>
      <trkpt lat="46.08835" lon="6.1655">
        <ele>912.6</ele>
        <time>2022-02-10T13:40:15Z</time>
      </trkpt>
      <trkpt lat="46.08826" lon="6.16541">
        <ele>912.6</ele>
        <time>2022-02-10T13:40:17Z</time>
      </trkpt>
      <trkpt lat="46.08815" lon="6.16531">
        <ele>912.6</ele>
        <time>2022-02-10T13:40:19Z</time>
      </trkpt>
      <trkpt lat="46.08809" lon="6.16526">
        <ele>912.6</ele>
        <time>2022-02-10T13:40:20Z</time>
      </trkpt>
      <trkpt lat="46.08803" lon="6.16521">
        <ele>912.6</ele>
        <time>2022-02-10T13:40:21Z</time>
      </trkpt>
      <trkpt lat="46.08797" lon="6.16515">
        <ele>912.6</ele>
        <time>2022-02-10T13:40:22Z</time>
      </trkpt>
      <trkpt lat="46.0879" lon="6.1651">
        <ele>912.6</ele>
        <time>2022-02-10T13:40:23Z</time>
      </trkpt>
      <trkpt lat="46.08768" lon="6.16493">
        <ele>911.4</ele>
        <time>2022-02-10T13:40:26Z</time>
      </trkpt>
      <trkpt lat="46.08753" lon="6.16481">
        <ele>910.2</ele>
        <time>2022-02-10T13:40:28Z</time>
      </trkpt>
      <trkpt lat="46.08746" lon="6.16475">
        <ele>909.6</ele>
        <time>2022-02-10T13:40:29Z</time>
      </trkpt>
      <trkpt lat="46.0873" lon="6.16462">
        <ele>907.8</ele>
        <time>2022-02-10T13:40:31Z</time>
      </trkpt>
      <trkpt lat="46.08722" lon="6.16456">
        <ele>906.4</ele>
        <time>2022-02-10T13:40:32Z</time>
      </trkpt>
      <trkpt lat="46.08715" lon="6.1645">
        <ele>905.6</ele>
        <time>2022-02-10T13:40:33Z</time>
      </trkpt>
      <trkpt lat="46.08707" lon="6.16444">
        <ele>904.8</ele>
        <time>2022-02-10T13:40:34Z</time>
      </trkpt>
      <trkpt lat="46.0869" lon="6.16431">
        <ele>903.4</ele>
        <time>2022-02-10T13:40:36Z</time>
      </trkpt>
      <trkpt lat="46.08682" lon="6.16425">
        <ele>902.8</ele>
        <time>2022-02-10T13:40:37Z</time>
      </trkpt>
      <trkpt lat="46.08664" lon="6.16411">
        <ele>900.8</ele>
        <time>2022-02-10T13:40:39Z</time>
      </trkpt>
      <trkpt lat="46.08656" lon="6.16404">
        <ele>900</ele>
        <time>2022-02-10T13:40:40Z</time>
      </trkpt>
      <trkpt lat="46.08647" lon="6.16396">
        <ele>899</ele>
        <time>2022-02-10T13:40:41Z</time>
      </trkpt>
      <trkpt lat="46.08616" lon="6.16356">
        <ele>896.2</ele>
        <time>2022-02-10T13:40:45Z</time>
      </trkpt>
      <trkpt lat="46.08609" lon="6.16344">
        <ele>895.4</ele>
        <time>2022-02-10T13:40:46Z</time>
      </trkpt>
      <trkpt lat="46.08602" lon="6.16332">
        <ele>894.6</ele>
        <time>2022-02-10T13:40:47Z</time>
      </trkpt>
      <trkpt lat="46.08595" lon="6.16319">
        <ele>893.8</ele>
        <time>2022-02-10T13:40:48Z</time>
      </trkpt>
      <trkpt lat="46.08589" lon="6.16306">
        <ele>893</ele>
        <time>2022-02-10T13:40:49Z</time>
      </trkpt>
      <trkpt lat="46.08582" lon="6.16292">
        <ele>891.6</ele>
        <time>2022-02-10T13:40:50Z</time>
      </trkpt>
      <trkpt lat="46.08576" lon="6.16279">
        <ele>890.6</ele>
        <time>2022-02-10T13:40:51Z</time>
      </trkpt>
      <trkpt lat="46.08563" lon="6.16251">
        <ele>889.6</ele>
        <time>2022-02-10T13:40:53Z</time>
      </trkpt>
      <trkpt lat="46.08544" lon="6.16209">
        <ele>888</ele>
        <time>2022-02-10T13:40:56Z</time>
      </trkpt>
      <trkpt lat="46.08538" lon="6.16194">
        <ele>886.6</ele>
        <time>2022-02-10T13:40:57Z</time>
      </trkpt>
      <trkpt lat="46.08526" lon="6.16165">
        <ele>883.6</ele>
        <time>2022-02-10T13:40:59Z</time>
      </trkpt>
      <trkpt lat="46.08513" lon="6.16135">
        <ele>881.4</ele>
        <time>2022-02-10T13:41:01Z</time>
      </trkpt>
      <trkpt lat="46.08507" lon="6.16121">
        <ele>880.6</ele>
        <time>2022-02-10T13:41:02Z</time>
      </trkpt>
      <trkpt lat="46.08488" lon="6.16077">
        <ele>877.4</ele>
        <time>2022-02-10T13:41:05Z</time>
      </trkpt>
      <trkpt lat="46.08482" lon="6.16063">
        <ele>875.8</ele>
        <time>2022-02-10T13:41:06Z</time>
      </trkpt>
      <trkpt lat="46.08453" lon="6.16013">
        <ele>871.4</ele>
        <time>2022-02-10T13:41:10Z</time>
      </trkpt>
      <trkpt lat="46.08446" lon="6.16002">
        <ele>870.2</ele>
        <time>2022-02-10T13:41:11Z</time>
      </trkpt>
      <trkpt lat="46.08423" lon="6.15971">
        <ele>868</ele>
        <time>2022-02-10T13:41:14Z</time>
      </trkpt>
      <trkpt lat="46.08416" lon="6.15962">
        <ele>866.6</ele>
        <time>2022-02-10T13:41:15Z</time>
      </trkpt>
      <trkpt lat="46.08409" lon="6.15955">
        <ele>866.2</ele>
        <time>2022-02-10T13:41:16Z</time>
      </trkpt>
      <trkpt lat="46.0839" lon="6.15935">
        <ele>864.6</ele>
        <time>2022-02-10T13:41:19Z</time>
      </trkpt>
      <trkpt lat="46.0838" lon="6.15922">
        <ele>862.2</ele>
        <time>2022-02-10T13:41:21Z</time>
      </trkpt>
      <trkpt lat="46.08374" lon="6.15913">
        <ele>861</ele>
        <time>2022-02-10T13:41:23Z</time>
      </trkpt>
      <trkpt lat="46.08371" lon="6.15909">
        <ele>860</ele>
        <time>2022-02-10T13:41:24Z</time>
      </trkpt>
      <trkpt lat="46.0836" lon="6.15904">
        <ele>858.8</ele>
        <time>2022-02-10T13:41:27Z</time>
      </trkpt>
      <trkpt lat="46.08356" lon="6.15903">
        <ele>858.4</ele>
        <time>2022-02-10T13:41:28Z</time>
      </trkpt>
      <trkpt lat="46.0834" lon="6.15894">
        <ele>857.8</ele>
        <time>2022-02-10T13:41:32Z</time>
      </trkpt>
      <trkpt lat="46.08331" lon="6.15891">
        <ele>857.2</ele>
        <time>2022-02-10T13:41:34Z</time>
      </trkpt>
      <trkpt lat="46.08327" lon="6.1589">
        <ele>857.2</ele>
        <time>2022-02-10T13:41:35Z</time>
      </trkpt>
      <trkpt lat="46.08322" lon="6.15887">
        <ele>856.8</ele>
        <time>2022-02-10T13:41:36Z</time>
      </trkpt>
      <trkpt lat="46.08317" lon="6.15883">
        <ele>856.6</ele>
        <time>2022-02-10T13:41:37Z</time>
      </trkpt>
      <trkpt lat="46.08312" lon="6.15879">
        <ele>856.2</ele>
        <time>2022-02-10T13:41:38Z</time>
      </trkpt>
      <trkpt lat="46.083" lon="6.15869">
        <ele>855.8</ele>
        <time>2022-02-10T13:41:40Z</time>
      </trkpt>
      <trkpt lat="46.08288" lon="6.15858">
        <ele>855.4</ele>
        <time>2022-02-10T13:41:42Z</time>
      </trkpt>
      <trkpt lat="46.08274" lon="6.15847">
        <ele>854.8</ele>
        <time>2022-02-10T13:41:44Z</time>
      </trkpt>
      <trkpt lat="46.0825" lon="6.15832">
        <ele>852.6</ele>
        <time>2022-02-10T13:41:47Z</time>
      </trkpt>
      <trkpt lat="46.08241" lon="6.15828">
        <ele>851.8</ele>
        <time>2022-02-10T13:41:48Z</time>
      </trkpt>
      <trkpt lat="46.08232" lon="6.15822">
        <ele>851.4</ele>
        <time>2022-02-10T13:41:49Z</time>
      </trkpt>
      <trkpt lat="46.08215" lon="6.15809">
        <ele>849.8</ele>
        <time>2022-02-10T13:41:51Z</time>
      </trkpt>
      <trkpt lat="46.08206" lon="6.15802">
        <ele>848.8</ele>
        <time>2022-02-10T13:41:52Z</time>
      </trkpt>
      <trkpt lat="46.08197" lon="6.15794">
        <ele>848</ele>
        <time>2022-02-10T13:41:53Z</time>
      </trkpt>
      <trkpt lat="46.08178" lon="6.15779">
        <ele>847.2</ele>
        <time>2022-02-10T13:41:55Z</time>
      </trkpt>
      <trkpt lat="46.08162" lon="6.15765">
        <ele>845</ele>
        <time>2022-02-10T13:41:57Z</time>
      </trkpt>
      <trkpt lat="46.08148" lon="6.15752">
        <ele>842</ele>
        <time>2022-02-10T13:41:59Z</time>
      </trkpt>
      <trkpt lat="46.08142" lon="6.15748">
        <ele>841.4</ele>
        <time>2022-02-10T13:42:00Z</time>
      </trkpt>
      <trkpt lat="46.08135" lon="6.15744">
        <ele>840.4</ele>
        <time>2022-02-10T13:42:01Z</time>
      </trkpt>
      <trkpt lat="46.08128" lon="6.15741">
        <ele>840</ele>
        <time>2022-02-10T13:42:02Z</time>
      </trkpt>
      <trkpt lat="46.0812" lon="6.15743">
        <ele>839.2</ele>
        <time>2022-02-10T13:42:03Z</time>
      </trkpt>
      <trkpt lat="46.08113" lon="6.15746">
        <ele>838.8</ele>
        <time>2022-02-10T13:42:04Z</time>
      </trkpt>
      <trkpt lat="46.08099" lon="6.15759">
        <ele>838</ele>
        <time>2022-02-10T13:42:06Z</time>
      </trkpt>
      <trkpt lat="46.08093" lon="6.15766">
        <ele>837.4</ele>
        <time>2022-02-10T13:42:07Z</time>
      </trkpt>
      <trkpt lat="46.08086" lon="6.15773">
        <ele>836.8</ele>
        <time>2022-02-10T13:42:08Z</time>
      </trkpt>
      <trkpt lat="46.08079" lon="6.1578">
        <ele>836.2</ele>
        <time>2022-02-10T13:42:09Z</time>
      </trkpt>
      <trkpt lat="46.0807" lon="6.15785">
        <ele>836</ele>
        <time>2022-02-10T13:42:10Z</time>
      </trkpt>
      <trkpt lat="46.08061" lon="6.15789">
        <ele>835.4</ele>
        <time>2022-02-10T13:42:11Z</time>
      </trkpt>
      <trkpt lat="46.08041" lon="6.15796">
        <ele>834</ele>
        <time>2022-02-10T13:42:13Z</time>
      </trkpt>
      <trkpt lat="46.08031" lon="6.158">
        <ele>833</ele>
        <time>2022-02-10T13:42:14Z</time>
      </trkpt>
      <trkpt lat="46.08021" lon="6.15804">
        <ele>832.4</ele>
        <time>2022-02-10T13:42:15Z</time>
      </trkpt>
      <trkpt lat="46.08011" lon="6.1581">
        <ele>831.4</ele>
        <time>2022-02-10T13:42:16Z</time>
      </trkpt>
      <trkpt lat="46.07985" lon="6.15835">
        <ele>828.2</ele>
        <time>2022-02-10T13:42:19Z</time>
      </trkpt>
      <trkpt lat="46.07972" lon="6.15855">
        <ele>826.2</ele>
        <time>2022-02-10T13:42:21Z</time>
      </trkpt>
      <trkpt lat="46.07958" lon="6.15877">
        <ele>824</ele>
        <time>2022-02-10T13:42:23Z</time>
      </trkpt>
      <trkpt lat="46.07951" lon="6.15888">
        <ele>822.2</ele>
        <time>2022-02-10T13:42:24Z</time>
      </trkpt>
      <trkpt lat="46.07944" lon="6.159">
        <ele>821.6</ele>
        <time>2022-02-10T13:42:25Z</time>
      </trkpt>
      <trkpt lat="46.07936" lon="6.15912">
        <ele>821</ele>
        <time>2022-02-10T13:42:26Z</time>
      </trkpt>
      <trkpt lat="46.07929" lon="6.15924">
        <ele>820.8</ele>
        <time>2022-02-10T13:42:27Z</time>
      </trkpt>
      <trkpt lat="46.07921" lon="6.15936">
        <ele>820.6</ele>
        <time>2022-02-10T13:42:28Z</time>
      </trkpt>
      <trkpt lat="46.07898" lon="6.15974">
        <ele>818.8</ele>
        <time>2022-02-10T13:42:31Z</time>
      </trkpt>
      <trkpt lat="46.0789" lon="6.15986">
        <ele>818</ele>
        <time>2022-02-10T13:42:32Z</time>
      </trkpt>
      <trkpt lat="46.07882" lon="6.15998">
        <ele>817.4</ele>
        <time>2022-02-10T13:42:33Z</time>
      </trkpt>
      <trkpt lat="46.07861" lon="6.16032">
        <ele>813.6</ele>
        <time>2022-02-10T13:42:36Z</time>
      </trkpt>
      <trkpt lat="46.07853" lon="6.16042">
        <ele>812.4</ele>
        <time>2022-02-10T13:42:37Z</time>
      </trkpt>
      <trkpt lat="46.07844" lon="6.16049">
        <ele>811.4</ele>
        <time>2022-02-10T13:42:38Z</time>
      </trkpt>
      <trkpt lat="46.07834" lon="6.16053">
        <ele>810.8</ele>
        <time>2022-02-10T13:42:39Z</time>
      </trkpt>
      <trkpt lat="46.07802" lon="6.16059">
        <ele>808</ele>
        <time>2022-02-10T13:42:42Z</time>
      </trkpt>
      <trkpt lat="46.07792" lon="6.16061">
        <ele>807</ele>
        <time>2022-02-10T13:42:43Z</time>
      </trkpt>
      <trkpt lat="46.07782" lon="6.16066">
        <ele>806.4</ele>
        <time>2022-02-10T13:42:44Z</time>
      </trkpt>
      <trkpt lat="46.07774" lon="6.16074">
        <ele>805.6</ele>
        <time>2022-02-10T13:42:45Z</time>
      </trkpt>
      <trkpt lat="46.07766" lon="6.16083">
        <ele>804.6</ele>
        <time>2022-02-10T13:42:46Z</time>
      </trkpt>
      <trkpt lat="46.07759" lon="6.16095">
        <ele>804</ele>
        <time>2022-02-10T13:42:47Z</time>
      </trkpt>
      <trkpt lat="46.07746" lon="6.16119">
        <ele>803.4</ele>
        <time>2022-02-10T13:42:49Z</time>
      </trkpt>
      <trkpt lat="46.07734" lon="6.16144">
        <ele>802.6</ele>
        <time>2022-02-10T13:42:51Z</time>
      </trkpt>
      <trkpt lat="46.07725" lon="6.16169">
        <ele>800.8</ele>
        <time>2022-02-10T13:42:53Z</time>
      </trkpt>
      <trkpt lat="46.07722" lon="6.16183">
        <ele>799.8</ele>
        <time>2022-02-10T13:42:54Z</time>
      </trkpt>
      <trkpt lat="46.07723" lon="6.16197">
        <ele>798.8</ele>
        <time>2022-02-10T13:42:55Z</time>
      </trkpt>
      <trkpt lat="46.07725" lon="6.1621">
        <ele>798</ele>
        <time>2022-02-10T13:42:56Z</time>
      </trkpt>
      <trkpt lat="46.07727" lon="6.16224">
        <ele>797.2</ele>
        <time>2022-02-10T13:42:57Z</time>
      </trkpt>
      <trkpt lat="46.07734" lon="6.16253">
        <ele>795.6</ele>
        <time>2022-02-10T13:42:59Z</time>
      </trkpt>
      <trkpt lat="46.0774" lon="6.16281">
        <ele>794</ele>
        <time>2022-02-10T13:43:01Z</time>
      </trkpt>
      <trkpt lat="46.07743" lon="6.16295">
        <ele>793.6</ele>
        <time>2022-02-10T13:43:02Z</time>
      </trkpt>
      <trkpt lat="46.07748" lon="6.16324">
        <ele>792.4</ele>
        <time>2022-02-10T13:43:04Z</time>
      </trkpt>
      <trkpt lat="46.07748" lon="6.16353">
        <ele>791.4</ele>
        <time>2022-02-10T13:43:06Z</time>
      </trkpt>
      <trkpt lat="46.07744" lon="6.16381">
        <ele>790.4</ele>
        <time>2022-02-10T13:43:08Z</time>
      </trkpt>
      <trkpt lat="46.07739" lon="6.1641">
        <ele>789.2</ele>
        <time>2022-02-10T13:43:10Z</time>
      </trkpt>
      <trkpt lat="46.07736" lon="6.16424">
        <ele>788.6</ele>
        <time>2022-02-10T13:43:11Z</time>
      </trkpt>
      <trkpt lat="46.07733" lon="6.16439">
        <ele>788.2</ele>
        <time>2022-02-10T13:43:12Z</time>
      </trkpt>
      <trkpt lat="46.0773" lon="6.16453">
        <ele>787.6</ele>
        <time>2022-02-10T13:43:13Z</time>
      </trkpt>
      <trkpt lat="46.07725" lon="6.1648">
        <ele>787.2</ele>
        <time>2022-02-10T13:43:15Z</time>
      </trkpt>
      <trkpt lat="46.07723" lon="6.16492">
        <ele>786.6</ele>
        <time>2022-02-10T13:43:16Z</time>
      </trkpt>
      <trkpt lat="46.0772" lon="6.16502">
        <ele>785.8</ele>
        <time>2022-02-10T13:43:17Z</time>
      </trkpt>
      <trkpt lat="46.07715" lon="6.16511">
        <ele>785.2</ele>
        <time>2022-02-10T13:43:18Z</time>
      </trkpt>
      <trkpt lat="46.07708" lon="6.16518">
        <ele>784.8</ele>
        <time>2022-02-10T13:43:19Z</time>
      </trkpt>
      <trkpt lat="46.07701" lon="6.16522">
        <ele>784.6</ele>
        <time>2022-02-10T13:43:20Z</time>
      </trkpt>
      <trkpt lat="46.07692" lon="6.16523">
        <ele>783.8</ele>
        <time>2022-02-10T13:43:21Z</time>
      </trkpt>
      <trkpt lat="46.07664" lon="6.16515">
        <ele>780.6</ele>
        <time>2022-02-10T13:43:24Z</time>
      </trkpt>
      <trkpt lat="46.07654" lon="6.16512">
        <ele>780.2</ele>
        <time>2022-02-10T13:43:25Z</time>
      </trkpt>
      <trkpt lat="46.07644" lon="6.16509">
        <ele>779.4</ele>
        <time>2022-02-10T13:43:26Z</time>
      </trkpt>
      <trkpt lat="46.07614" lon="6.165">
        <ele>776</ele>
        <time>2022-02-10T13:43:29Z</time>
      </trkpt>
      <trkpt lat="46.07604" lon="6.16497">
        <ele>775.2</ele>
        <time>2022-02-10T13:43:30Z</time>
      </trkpt>
      <trkpt lat="46.07565" lon="6.16483">
        <ele>771.6</ele>
        <time>2022-02-10T13:43:34Z</time>
      </trkpt>
      <trkpt lat="46.07537" lon="6.16472">
        <ele>769</ele>
        <time>2022-02-10T13:43:37Z</time>
      </trkpt>
      <trkpt lat="46.07519" lon="6.16465">
        <ele>768</ele>
        <time>2022-02-10T13:43:39Z</time>
      </trkpt>
      <trkpt lat="46.07475" lon="6.1645">
        <ele>766</ele>
        <time>2022-02-10T13:43:44Z</time>
      </trkpt>
      <trkpt lat="46.07466" lon="6.16449">
        <ele>765.6</ele>
        <time>2022-02-10T13:43:45Z</time>
      </trkpt>
      <trkpt lat="46.07457" lon="6.16447">
        <ele>765.2</ele>
        <time>2022-02-10T13:43:46Z</time>
      </trkpt>
      <trkpt lat="46.07438" lon="6.16444">
        <ele>764.8</ele>
        <time>2022-02-10T13:43:48Z</time>
      </trkpt>
      <trkpt lat="46.07429" lon="6.16443">
        <ele>764.6</ele>
        <time>2022-02-10T13:43:49Z</time>
      </trkpt>
      <trkpt lat="46.074" lon="6.16439">
        <ele>764</ele>
        <time>2022-02-10T13:43:52Z</time>
      </trkpt>
      <trkpt lat="46.07389" lon="6.16438">
        <ele>763.6</ele>
        <time>2022-02-10T13:43:53Z</time>
      </trkpt>
      <trkpt lat="46.07379" lon="6.16437">
        <ele>763.2</ele>
        <time>2022-02-10T13:43:54Z</time>
      </trkpt>
      <trkpt lat="46.07358" lon="6.16435">
        <ele>761.6</ele>
        <time>2022-02-10T13:43:56Z</time>
      </trkpt>
      <trkpt lat="46.07348" lon="6.16434">
        <ele>760.6</ele>
        <time>2022-02-10T13:43:57Z</time>
      </trkpt>
      <trkpt lat="46.07315" lon="6.16428">
        <ele>758.6</ele>
        <time>2022-02-10T13:44:00Z</time>
      </trkpt>
      <trkpt lat="46.07304" lon="6.16423">
        <ele>757.6</ele>
        <time>2022-02-10T13:44:01Z</time>
      </trkpt>
      <trkpt lat="46.07294" lon="6.16417">
        <ele>756.6</ele>
        <time>2022-02-10T13:44:02Z</time>
      </trkpt>
      <trkpt lat="46.07285" lon="6.1641">
        <ele>755.2</ele>
        <time>2022-02-10T13:44:03Z</time>
      </trkpt>
      <trkpt lat="46.07275" lon="6.16403">
        <ele>754</ele>
        <time>2022-02-10T13:44:04Z</time>
      </trkpt>
      <trkpt lat="46.07251" lon="6.16384">
        <ele>751</ele>
        <time>2022-02-10T13:44:07Z</time>
      </trkpt>
      <trkpt lat="46.07244" lon="6.16378">
        <ele>750.2</ele>
        <time>2022-02-10T13:44:08Z</time>
      </trkpt>
      <trkpt lat="46.07237" lon="6.16373">
        <ele>749.4</ele>
        <time>2022-02-10T13:44:09Z</time>
      </trkpt>
      <trkpt lat="46.07229" lon="6.16369">
        <ele>748.6</ele>
        <time>2022-02-10T13:44:10Z</time>
      </trkpt>
      <trkpt lat="46.0722" lon="6.16366">
        <ele>747.4</ele>
        <time>2022-02-10T13:44:11Z</time>
      </trkpt>
      <trkpt lat="46.07176" lon="6.16365">
        <ele>743.2</ele>
        <time>2022-02-10T13:44:16Z</time>
      </trkpt>
      <trkpt lat="46.07167" lon="6.16365">
        <ele>742.8</ele>
        <time>2022-02-10T13:44:17Z</time>
      </trkpt>
      <trkpt lat="46.07158" lon="6.16365">
        <ele>741.6</ele>
        <time>2022-02-10T13:44:18Z</time>
      </trkpt>
      <trkpt lat="46.07138" lon="6.16366">
        <ele>739.8</ele>
        <time>2022-02-10T13:44:20Z</time>
      </trkpt>
      <trkpt lat="46.07127" lon="6.16367">
        <ele>739.6</ele>
        <time>2022-02-10T13:44:21Z</time>
      </trkpt>
      <trkpt lat="46.07106" lon="6.16368">
        <ele>739.2</ele>
        <time>2022-02-10T13:44:23Z</time>
      </trkpt>
      <trkpt lat="46.07096" lon="6.16368">
        <ele>739</ele>
        <time>2022-02-10T13:44:24Z</time>
      </trkpt>
      <trkpt lat="46.07076" lon="6.16369">
        <ele>738.4</ele>
        <time>2022-02-10T13:44:26Z</time>
      </trkpt>
      <trkpt lat="46.07067" lon="6.16371">
        <ele>737.4</ele>
        <time>2022-02-10T13:44:27Z</time>
      </trkpt>
      <trkpt lat="46.07059" lon="6.16375">
        <ele>736.8</ele>
        <time>2022-02-10T13:44:28Z</time>
      </trkpt>
      <trkpt lat="46.07052" lon="6.16381">
        <ele>735.6</ele>
        <time>2022-02-10T13:44:29Z</time>
      </trkpt>
      <trkpt lat="46.07045" lon="6.16389">
        <ele>734.6</ele>
        <time>2022-02-10T13:44:30Z</time>
      </trkpt>
      <trkpt lat="46.07026" lon="6.16414">
        <ele>731.4</ele>
        <time>2022-02-10T13:44:33Z</time>
      </trkpt>
      <trkpt lat="46.07019" lon="6.16421">
        <ele>730.6</ele>
        <time>2022-02-10T13:44:34Z</time>
      </trkpt>
      <trkpt lat="46.07012" lon="6.16425">
        <ele>729.8</ele>
        <time>2022-02-10T13:44:35Z</time>
      </trkpt>
      <trkpt lat="46.07006" lon="6.16427">
        <ele>729.2</ele>
        <time>2022-02-10T13:44:36Z</time>
      </trkpt>
      <trkpt lat="46.07" lon="6.16427">
        <ele>728.6</ele>
        <time>2022-02-10T13:44:37Z</time>
      </trkpt>
      <trkpt lat="46.06989" lon="6.16428">
        <ele>728.2</ele>
        <time>2022-02-10T13:44:39Z</time>
      </trkpt>
      <trkpt lat="46.06975" lon="6.16431">
        <ele>728</ele>
        <time>2022-02-10T13:44:42Z</time>
      </trkpt>
      <trkpt lat="46.06971" lon="6.16432">
        <ele>728</ele>
        <time>2022-02-10T13:44:43Z</time>
      </trkpt>
      <trkpt lat="46.06967" lon="6.16433">
        <ele>728</ele>
        <time>2022-02-10T13:44:44Z</time>
      </trkpt>
      <trkpt lat="46.06947" lon="6.16448">
        <ele>728.8</ele>
        <time>2022-02-10T13:44:50Z</time>
      </trkpt>
      <trkpt lat="46.06936" lon="6.16459">
        <ele>730.6</ele>
        <time>2022-02-10T13:44:54Z</time>
      </trkpt>
      <trkpt lat="46.06929" lon="6.16466">
        <ele>731.2</ele>
        <time>2022-02-10T13:44:57Z</time>
      </trkpt>
      <trkpt lat="46.06927" lon="6.16469">
        <ele>731.6</ele>
        <time>2022-02-10T13:44:58Z</time>
      </trkpt>
      <trkpt lat="46.06917" lon="6.16478">
        <ele>732.6</ele>
        <time>2022-02-10T13:45:02Z</time>
      </trkpt>
      <trkpt lat="46.0691" lon="6.16485">
        <ele>733.6</ele>
        <time>2022-02-10T13:45:05Z</time>
      </trkpt>
      <trkpt lat="46.06906" lon="6.1649">
        <ele>734.2</ele>
        <time>2022-02-10T13:45:07Z</time>
      </trkpt>
      <trkpt lat="46.06896" lon="6.16499">
        <ele>735.8</ele>
        <time>2022-02-10T13:45:12Z</time>
      </trkpt>
      <trkpt lat="46.0689" lon="6.16505">
        <ele>736.6</ele>
        <time>2022-02-10T13:45:15Z</time>
      </trkpt>
      <trkpt lat="46.06882" lon="6.16515">
        <ele>737.4</ele>
        <time>2022-02-10T13:45:19Z</time>
      </trkpt>
      <trkpt lat="46.06865" lon="6.16524">
        <ele>739</ele>
        <time>2022-02-10T13:45:25Z</time>
      </trkpt>
      <trkpt lat="46.06857" lon="6.16522">
        <ele>739.2</ele>
        <time>2022-02-10T13:45:27Z</time>
      </trkpt>
      <trkpt lat="46.06848" lon="6.16518">
        <ele>739.4</ele>
        <time>2022-02-10T13:45:29Z</time>
      </trkpt>
      <trkpt lat="46.06828" lon="6.16506">
        <ele>739.4</ele>
        <time>2022-02-10T13:45:33Z</time>
      </trkpt>
      <trkpt lat="46.06818" lon="6.16498">
        <ele>739.4</ele>
        <time>2022-02-10T13:45:35Z</time>
      </trkpt>
      <trkpt lat="46.06809" lon="6.16489">
        <ele>739.4</ele>
        <time>2022-02-10T13:45:37Z</time>
      </trkpt>
      <trkpt lat="46.06804" lon="6.16486">
        <ele>739.2</ele>
        <time>2022-02-10T13:45:38Z</time>
      </trkpt>
      <trkpt lat="46.06798" lon="6.16484">
        <ele>739.2</ele>
        <time>2022-02-10T13:45:39Z</time>
      </trkpt>
      <trkpt lat="46.06785" lon="6.1648">
        <ele>738.6</ele>
        <time>2022-02-10T13:45:41Z</time>
      </trkpt>
      <trkpt lat="46.06778" lon="6.16478">
        <ele>738.4</ele>
        <time>2022-02-10T13:45:42Z</time>
      </trkpt>
      <trkpt lat="46.06771" lon="6.16475">
        <ele>738</ele>
        <time>2022-02-10T13:45:43Z</time>
      </trkpt>
      <trkpt lat="46.06763" lon="6.16471">
        <ele>737.6</ele>
        <time>2022-02-10T13:45:44Z</time>
      </trkpt>
      <trkpt lat="46.06755" lon="6.16466">
        <ele>737.4</ele>
        <time>2022-02-10T13:45:45Z</time>
      </trkpt>
      <trkpt lat="46.0673" lon="6.16447">
        <ele>736.6</ele>
        <time>2022-02-10T13:45:48Z</time>
      </trkpt>
      <trkpt lat="46.06712" lon="6.16438">
        <ele>735.4</ele>
        <time>2022-02-10T13:45:50Z</time>
      </trkpt>
      <trkpt lat="46.06703" lon="6.16436">
        <ele>734.4</ele>
        <time>2022-02-10T13:45:51Z</time>
      </trkpt>
      <trkpt lat="46.06694" lon="6.16435">
        <ele>733</ele>
        <time>2022-02-10T13:45:52Z</time>
      </trkpt>
      <trkpt lat="46.06684" lon="6.16436">
        <ele>732.2</ele>
        <time>2022-02-10T13:45:53Z</time>
      </trkpt>
      <trkpt lat="46.06667" lon="6.1644">
        <ele>730.6</ele>
        <time>2022-02-10T13:45:55Z</time>
      </trkpt>
      <trkpt lat="46.06658" lon="6.1644">
        <ele>729.8</ele>
        <time>2022-02-10T13:45:56Z</time>
      </trkpt>
      <trkpt lat="46.06642" lon="6.16433">
        <ele>729.2</ele>
        <time>2022-02-10T13:45:58Z</time>
      </trkpt>
      <trkpt lat="46.06627" lon="6.16423">
        <ele>728.4</ele>
        <time>2022-02-10T13:46:00Z</time>
      </trkpt>
      <trkpt lat="46.06605" lon="6.16408">
        <ele>727.6</ele>
        <time>2022-02-10T13:46:03Z</time>
      </trkpt>
      <trkpt lat="46.06583" lon="6.16394">
        <ele>726.6</ele>
        <time>2022-02-10T13:46:06Z</time>
      </trkpt>
      <trkpt lat="46.06577" lon="6.16388">
        <ele>726.4</ele>
        <time>2022-02-10T13:46:07Z</time>
      </trkpt>
      <trkpt lat="46.06571" lon="6.16381">
        <ele>725.8</ele>
        <time>2022-02-10T13:46:08Z</time>
      </trkpt>
      <trkpt lat="46.06548" lon="6.1636">
        <ele>724.2</ele>
        <time>2022-02-10T13:46:12Z</time>
      </trkpt>
      <trkpt lat="46.06542" lon="6.16356">
        <ele>724</ele>
        <time>2022-02-10T13:46:13Z</time>
      </trkpt>
      <trkpt lat="46.06537" lon="6.16354">
        <ele>724</ele>
        <time>2022-02-10T13:46:14Z</time>
      </trkpt>
      <trkpt lat="46.06533" lon="6.16353">
        <ele>724</ele>
        <time>2022-02-10T13:46:15Z</time>
      </trkpt>
      <trkpt lat="46.06529" lon="6.16351">
        <ele>724</ele>
        <time>2022-02-10T13:46:16Z</time>
      </trkpt>
      <trkpt lat="46.06525" lon="6.1635">
        <ele>724</ele>
        <time>2022-02-10T13:46:17Z</time>
      </trkpt>
      <trkpt lat="46.06518" lon="6.16348">
        <ele>724</ele>
        <time>2022-02-10T13:46:19Z</time>
      </trkpt>
      <trkpt lat="46.06506" lon="6.16345">
        <ele>725.2</ele>
        <time>2022-02-10T13:46:22Z</time>
      </trkpt>
      <trkpt lat="46.06489" lon="6.1634">
        <ele>728.4</ele>
        <time>2022-02-10T13:46:26Z</time>
      </trkpt>
      <trkpt lat="46.06474" lon="6.16338">
        <ele>729.8</ele>
        <time>2022-02-10T13:46:29Z</time>
      </trkpt>
      <trkpt lat="46.06439" lon="6.16336">
        <ele>730.2</ele>
        <time>2022-02-10T13:46:35Z</time>
      </trkpt>
      <trkpt lat="46.06433" lon="6.16338">
        <ele>730.2</ele>
        <time>2022-02-10T13:46:36Z</time>
      </trkpt>
      <trkpt lat="46.06423" lon="6.16344">
        <ele>730.4</ele>
        <time>2022-02-10T13:46:38Z</time>
      </trkpt>
      <trkpt lat="46.06409" lon="6.16354">
        <ele>730.4</ele>
        <time>2022-02-10T13:46:41Z</time>
      </trkpt>
      <trkpt lat="46.064" lon="6.16358">
        <ele>730.6</ele>
        <time>2022-02-10T13:46:43Z</time>
      </trkpt>
      <trkpt lat="46.06396" lon="6.16359">
        <ele>730.6</ele>
        <time>2022-02-10T13:46:44Z</time>
      </trkpt>
      <trkpt lat="46.06388" lon="6.1636">
        <ele>730.6</ele>
        <time>2022-02-10T13:46:46Z</time>
      </trkpt>
      <trkpt lat="46.0638" lon="6.16361">
        <ele>730.8</ele>
        <time>2022-02-10T13:46:48Z</time>
      </trkpt>
      <trkpt lat="46.06365" lon="6.16361">
        <ele>731.8</ele>
        <time>2022-02-10T13:46:52Z</time>
      </trkpt>
      <trkpt lat="46.06348" lon="6.16359">
        <ele>734</ele>
        <time>2022-02-10T13:46:57Z</time>
      </trkpt>
      <trkpt lat="46.06335" lon="6.16356">
        <ele>735.4</ele>
        <time>2022-02-10T13:47:01Z</time>
      </trkpt>
      <trkpt lat="46.06327" lon="6.16351">
        <ele>736.2</ele>
        <time>2022-02-10T13:47:04Z</time>
      </trkpt>
      <trkpt lat="46.06324" lon="6.16349">
        <ele>736.4</ele>
        <time>2022-02-10T13:47:05Z</time>
      </trkpt>
      <trkpt lat="46.06313" lon="6.16339">
        <ele>737.4</ele>
        <time>2022-02-10T13:47:09Z</time>
      </trkpt>
      <trkpt lat="46.0631" lon="6.16336">
        <ele>737.8</ele>
        <time>2022-02-10T13:47:10Z</time>
      </trkpt>
      <trkpt lat="46.06294" lon="6.16326">
        <ele>739.2</ele>
        <time>2022-02-10T13:47:15Z</time>
      </trkpt>
      <trkpt lat="46.06291" lon="6.16325">
        <ele>739.4</ele>
        <time>2022-02-10T13:47:16Z</time>
      </trkpt>
      <trkpt lat="46.06276" lon="6.16321">
        <ele>740.2</ele>
        <time>2022-02-10T13:47:20Z</time>
      </trkpt>
      <trkpt lat="46.06265" lon="6.16321">
        <ele>740.8</ele>
        <time>2022-02-10T13:47:23Z</time>
      </trkpt>
      <trkpt lat="46.06258" lon="6.16321">
        <ele>741.4</ele>
        <time>2022-02-10T13:47:25Z</time>
      </trkpt>
      <trkpt lat="46.06238" lon="6.16318">
        <ele>742.6</ele>
        <time>2022-02-10T13:47:30Z</time>
      </trkpt>
      <trkpt lat="46.06219" lon="6.16314">
        <ele>743</ele>
        <time>2022-02-10T13:47:34Z</time>
      </trkpt>
      <trkpt lat="46.06208" lon="6.16311">
        <ele>743.2</ele>
        <time>2022-02-10T13:47:36Z</time>
      </trkpt>
      <trkpt lat="46.06195" lon="6.16309">
        <ele>743.2</ele>
        <time>2022-02-10T13:47:38Z</time>
      </trkpt>
      <trkpt lat="46.06169" lon="6.16303">
        <ele>743.2</ele>
        <time>2022-02-10T13:47:42Z</time>
      </trkpt>
      <trkpt lat="46.06162" lon="6.16301">
        <ele>742.8</ele>
        <time>2022-02-10T13:47:43Z</time>
      </trkpt>
      <trkpt lat="46.06116" lon="6.16286">
        <ele>741.4</ele>
        <time>2022-02-10T13:47:50Z</time>
      </trkpt>
      <trkpt lat="46.0611" lon="6.16284">
        <ele>741.2</ele>
        <time>2022-02-10T13:47:51Z</time>
      </trkpt>
      <trkpt lat="46.06068" lon="6.1627">
        <ele>741.2</ele>
        <time>2022-02-10T13:47:58Z</time>
      </trkpt>
      <trkpt lat="46.06062" lon="6.16268">
        <ele>741.2</ele>
        <time>2022-02-10T13:47:59Z</time>
      </trkpt>
      <trkpt lat="46.06017" lon="6.16253">
        <ele>741.8</ele>
        <time>2022-02-10T13:48:07Z</time>
      </trkpt>
      <trkpt lat="46.06001" lon="6.1625">
        <ele>742</ele>
        <time>2022-02-10T13:48:10Z</time>
      </trkpt>
      <trkpt lat="46.05972" lon="6.16247">
        <ele>742.4</ele>
        <time>2022-02-10T13:48:15Z</time>
      </trkpt>
      <trkpt lat="46.05927" lon="6.16249">
        <ele>742.4</ele>
        <time>2022-02-10T13:48:23Z</time>
      </trkpt>
      <trkpt lat="46.05921" lon="6.16249">
        <ele>742.4</ele>
        <time>2022-02-10T13:48:24Z</time>
      </trkpt>
      <trkpt lat="46.05878" lon="6.16253">
        <ele>742.8</ele>
        <time>2022-02-10T13:48:31Z</time>
      </trkpt>
      <trkpt lat="46.05859" lon="6.16255">
        <ele>742.8</ele>
        <time>2022-02-10T13:48:34Z</time>
      </trkpt>
      <trkpt lat="46.05803" lon="6.16256">
        <ele>742.8</ele>
        <time>2022-02-10T13:48:42Z</time>
      </trkpt>
      <trkpt lat="46.05747" lon="6.16254">
        <ele>741.8</ele>
        <time>2022-02-10T13:48:50Z</time>
      </trkpt>
      <trkpt lat="46.05733" lon="6.16254">
        <ele>741.8</ele>
        <time>2022-02-10T13:48:52Z</time>
      </trkpt>
      <trkpt lat="46.05688" lon="6.16253">
        <ele>741.4</ele>
        <time>2022-02-10T13:48:59Z</time>
      </trkpt>
      <trkpt lat="46.05677" lon="6.16258">
        <ele>741.6</ele>
        <time>2022-02-10T13:49:01Z</time>
      </trkpt>
      <trkpt lat="46.05672" lon="6.16263">
        <ele>741.4</ele>
        <time>2022-02-10T13:49:02Z</time>
      </trkpt>
      <trkpt lat="46.05649" lon="6.1629">
        <ele>741.6</ele>
        <time>2022-02-10T13:49:08Z</time>
      </trkpt>
      <trkpt lat="46.05645" lon="6.16294">
        <ele>741.6</ele>
        <time>2022-02-10T13:49:09Z</time>
      </trkpt>
      <trkpt lat="46.05629" lon="6.16313">
        <ele>741.8</ele>
        <time>2022-02-10T13:49:13Z</time>
      </trkpt>
      <trkpt lat="46.05622" lon="6.16323">
        <ele>742</ele>
        <time>2022-02-10T13:49:15Z</time>
      </trkpt>
      <trkpt lat="46.05606" lon="6.16345">
        <ele>741.8</ele>
        <time>2022-02-10T13:49:19Z</time>
      </trkpt>
      <trkpt lat="46.05602" lon="6.16352">
        <ele>741.8</ele>
        <time>2022-02-10T13:49:20Z</time>
      </trkpt>
      <trkpt lat="46.05595" lon="6.16367">
        <ele>741.8</ele>
        <time>2022-02-10T13:49:22Z</time>
      </trkpt>
      <trkpt lat="46.05588" lon="6.16392">
        <ele>741.8</ele>
        <time>2022-02-10T13:49:25Z</time>
      </trkpt>
      <trkpt lat="46.05581" lon="6.16428">
        <ele>741.2</ele>
        <time>2022-02-10T13:49:29Z</time>
      </trkpt>
      <trkpt lat="46.05578" lon="6.16446">
        <ele>741</ele>
        <time>2022-02-10T13:49:31Z</time>
      </trkpt>
      <trkpt lat="46.05572" lon="6.16515">
        <ele>741.4</ele>
        <time>2022-02-10T13:49:39Z</time>
      </trkpt>
      <trkpt lat="46.05572" lon="6.16522">
        <ele>741.6</ele>
        <time>2022-02-10T13:49:40Z</time>
      </trkpt>
      <trkpt lat="46.05572" lon="6.16531">
        <ele>741.8</ele>
        <time>2022-02-10T13:49:42Z</time>
      </trkpt>
      <trkpt lat="46.05572" lon="6.16532">
        <ele>742.2</ele>
        <time>2022-02-10T13:49:46Z</time>
      </trkpt>
      <trkpt lat="46.05572" lon="6.16532">
        <ele>743.4</ele>
        <time>2022-02-10T13:50:17Z</time>
      </trkpt>
      <trkpt lat="46.05573" lon="6.16533">
        <ele>743.2</ele>
        <time>2022-02-10T13:50:51Z</time>
      </trkpt>
      <trkpt lat="46.05573" lon="6.16547">
        <ele>743.4</ele>
        <time>2022-02-10T13:50:55Z</time>
      </trkpt>
      <trkpt lat="46.05574" lon="6.16572">
        <ele>743.2</ele>
        <time>2022-02-10T13:50:59Z</time>
      </trkpt>
      <trkpt lat="46.0558" lon="6.16612">
        <ele>742.6</ele>
        <time>2022-02-10T13:51:05Z</time>
      </trkpt>
      <trkpt lat="46.05581" lon="6.16619">
        <ele>742.4</ele>
        <time>2022-02-10T13:51:06Z</time>
      </trkpt>
      <trkpt lat="46.05583" lon="6.16625">
        <ele>742.4</ele>
        <time>2022-02-10T13:51:07Z</time>
      </trkpt>
      <trkpt lat="46.05588" lon="6.16645">
        <ele>742.2</ele>
        <time>2022-02-10T13:51:10Z</time>
      </trkpt>
      <trkpt lat="46.0559" lon="6.16653">
        <ele>742.2</ele>
        <time>2022-02-10T13:51:11Z</time>
      </trkpt>
      <trkpt lat="46.05592" lon="6.16661">
        <ele>742.4</ele>
        <time>2022-02-10T13:51:12Z</time>
      </trkpt>
      <trkpt lat="46.05592" lon="6.1667">
        <ele>742</ele>
        <time>2022-02-10T13:51:13Z</time>
      </trkpt>
      <trkpt lat="46.05592" lon="6.16679">
        <ele>742.2</ele>
        <time>2022-02-10T13:51:14Z</time>
      </trkpt>
      <trkpt lat="46.05591" lon="6.16688">
        <ele>742</ele>
        <time>2022-02-10T13:51:15Z</time>
      </trkpt>
      <trkpt lat="46.0558" lon="6.16729">
        <ele>740.6</ele>
        <time>2022-02-10T13:51:20Z</time>
      </trkpt>
      <trkpt lat="46.05565" lon="6.16782">
        <ele>739</ele>
        <time>2022-02-10T13:51:27Z</time>
      </trkpt>
      <trkpt lat="46.05563" lon="6.16788">
        <ele>739</ele>
        <time>2022-02-10T13:51:28Z</time>
      </trkpt>
      <trkpt lat="46.0556" lon="6.16794">
        <ele>739</ele>
        <time>2022-02-10T13:51:29Z</time>
      </trkpt>
      <trkpt lat="46.05552" lon="6.16805">
        <ele>739</ele>
        <time>2022-02-10T13:51:32Z</time>
      </trkpt>
      <trkpt lat="46.05542" lon="6.16806">
        <ele>739.4</ele>
        <time>2022-02-10T13:51:35Z</time>
      </trkpt>
      <trkpt lat="46.0554" lon="6.16805">
        <ele>739.8</ele>
        <time>2022-02-10T13:51:36Z</time>
      </trkpt>
      <trkpt lat="46.05535" lon="6.16802">
        <ele>740.6</ele>
        <time>2022-02-10T13:51:38Z</time>
      </trkpt>
      <trkpt lat="46.05526" lon="6.16796">
        <ele>742</ele>
        <time>2022-02-10T13:51:42Z</time>
      </trkpt>
      <trkpt lat="46.05517" lon="6.16792">
        <ele>743</ele>
        <time>2022-02-10T13:51:45Z</time>
      </trkpt>
      <trkpt lat="46.05512" lon="6.16788">
        <ele>744</ele>
        <time>2022-02-10T13:51:47Z</time>
      </trkpt>
      <trkpt lat="46.05498" lon="6.1678">
        <ele>745.4</ele>
        <time>2022-02-10T13:51:51Z</time>
      </trkpt>
      <trkpt lat="46.05492" lon="6.16777">
        <ele>746</ele>
        <time>2022-02-10T13:51:53Z</time>
      </trkpt>
      <trkpt lat="46.05483" lon="6.16773">
        <ele>746.8</ele>
        <time>2022-02-10T13:51:56Z</time>
      </trkpt>
      <trkpt lat="46.05471" lon="6.16772">
        <ele>747.8</ele>
        <time>2022-02-10T13:52:00Z</time>
      </trkpt>
      <trkpt lat="46.05455" lon="6.16779">
        <ele>749</ele>
        <time>2022-02-10T13:52:05Z</time>
      </trkpt>
      <trkpt lat="46.05448" lon="6.16783">
        <ele>749.4</ele>
        <time>2022-02-10T13:52:07Z</time>
      </trkpt>
      <trkpt lat="46.05436" lon="6.16791">
        <ele>750.8</ele>
        <time>2022-02-10T13:52:11Z</time>
      </trkpt>
      <trkpt lat="46.05423" lon="6.16799">
        <ele>751.4</ele>
        <time>2022-02-10T13:52:15Z</time>
      </trkpt>
      <trkpt lat="46.0542" lon="6.16801">
        <ele>751.6</ele>
        <time>2022-02-10T13:52:16Z</time>
      </trkpt>
      <trkpt lat="46.05411" lon="6.16806">
        <ele>752.4</ele>
        <time>2022-02-10T13:52:19Z</time>
      </trkpt>
      <trkpt lat="46.05395" lon="6.16816">
        <ele>753.6</ele>
        <time>2022-02-10T13:52:24Z</time>
      </trkpt>
      <trkpt lat="46.05392" lon="6.16818">
        <ele>753.6</ele>
        <time>2022-02-10T13:52:25Z</time>
      </trkpt>
      <trkpt lat="46.05379" lon="6.16825">
        <ele>754.8</ele>
        <time>2022-02-10T13:52:29Z</time>
      </trkpt>
      <trkpt lat="46.05364" lon="6.16835">
        <ele>756</ele>
        <time>2022-02-10T13:52:34Z</time>
      </trkpt>
      <trkpt lat="46.05358" lon="6.1684">
        <ele>756.4</ele>
        <time>2022-02-10T13:52:36Z</time>
      </trkpt>
      <trkpt lat="46.05339" lon="6.16853">
        <ele>757.6</ele>
        <time>2022-02-10T13:52:42Z</time>
      </trkpt>
      <trkpt lat="46.05332" lon="6.16856">
        <ele>758</ele>
        <time>2022-02-10T13:52:44Z</time>
      </trkpt>
      <trkpt lat="46.0532" lon="6.16863">
        <ele>758.8</ele>
        <time>2022-02-10T13:52:48Z</time>
      </trkpt>
      <trkpt lat="46.05307" lon="6.16868">
        <ele>759.2</ele>
        <time>2022-02-10T13:52:52Z</time>
      </trkpt>
      <trkpt lat="46.05304" lon="6.16869">
        <ele>759.4</ele>
        <time>2022-02-10T13:52:53Z</time>
      </trkpt>
      <trkpt lat="46.05294" lon="6.16872">
        <ele>759.6</ele>
        <time>2022-02-10T13:52:56Z</time>
      </trkpt>
      <trkpt lat="46.0528" lon="6.16875">
        <ele>760.2</ele>
        <time>2022-02-10T13:53:00Z</time>
      </trkpt>
      <trkpt lat="46.05276" lon="6.16876">
        <ele>760.4</ele>
        <time>2022-02-10T13:53:01Z</time>
      </trkpt>
      <trkpt lat="46.05263" lon="6.16879">
        <ele>761.6</ele>
        <time>2022-02-10T13:53:05Z</time>
      </trkpt>
      <trkpt lat="46.0526" lon="6.1688">
        <ele>761.8</ele>
        <time>2022-02-10T13:53:06Z</time>
      </trkpt>
      <trkpt lat="46.05254" lon="6.16882">
        <ele>762.4</ele>
        <time>2022-02-10T13:53:08Z</time>
      </trkpt>
      <trkpt lat="46.05245" lon="6.16885">
        <ele>763</ele>
        <time>2022-02-10T13:53:11Z</time>
      </trkpt>
      <trkpt lat="46.05239" lon="6.16888">
        <ele>763.4</ele>
        <time>2022-02-10T13:53:13Z</time>
      </trkpt>
      <trkpt lat="46.05225" lon="6.16892">
        <ele>765.2</ele>
        <time>2022-02-10T13:53:18Z</time>
      </trkpt>
      <trkpt lat="46.05219" lon="6.16893">
        <ele>765.8</ele>
        <time>2022-02-10T13:53:20Z</time>
      </trkpt>
      <trkpt lat="46.05216" lon="6.16894">
        <ele>766</ele>
        <time>2022-02-10T13:53:21Z</time>
      </trkpt>
      <trkpt lat="46.05202" lon="6.16898">
        <ele>767.2</ele>
        <time>2022-02-10T13:53:26Z</time>
      </trkpt>
      <trkpt lat="46.052" lon="6.16899">
        <ele>767.2</ele>
        <time>2022-02-10T13:53:27Z</time>
      </trkpt>
      <trkpt lat="46.0519" lon="6.16902">
        <ele>768.4</ele>
        <time>2022-02-10T13:53:31Z</time>
      </trkpt>
      <trkpt lat="46.0518" lon="6.16905">
        <ele>769.4</ele>
        <time>2022-02-10T13:53:35Z</time>
      </trkpt>
      <trkpt lat="46.05177" lon="6.16906">
        <ele>769.8</ele>
        <time>2022-02-10T13:53:36Z</time>
      </trkpt>
      <trkpt lat="46.05164" lon="6.16905">
        <ele>771</ele>
        <time>2022-02-10T13:53:41Z</time>
      </trkpt>
      <trkpt lat="46.05161" lon="6.16905">
        <ele>771.2</ele>
        <time>2022-02-10T13:53:42Z</time>
      </trkpt>
      <trkpt lat="46.0515" lon="6.16896">
        <ele>772.6</ele>
        <time>2022-02-10T13:53:47Z</time>
      </trkpt>
      <trkpt lat="46.05148" lon="6.16894">
        <ele>772.6</ele>
        <time>2022-02-10T13:53:48Z</time>
      </trkpt>
      <trkpt lat="46.05141" lon="6.16885">
        <ele>773.2</ele>
        <time>2022-02-10T13:53:52Z</time>
      </trkpt>
      <trkpt lat="46.05137" lon="6.1688">
        <ele>773.6</ele>
        <time>2022-02-10T13:53:54Z</time>
      </trkpt>
      <trkpt lat="46.05126" lon="6.1687">
        <ele>774.6</ele>
        <time>2022-02-10T13:53:59Z</time>
      </trkpt>
      <trkpt lat="46.05118" lon="6.16867">
        <ele>775.4</ele>
        <time>2022-02-10T13:54:02Z</time>
      </trkpt>
      <trkpt lat="46.05113" lon="6.16867">
        <ele>775.8</ele>
        <time>2022-02-10T13:54:04Z</time>
      </trkpt>
      <trkpt lat="46.05099" lon="6.16864">
        <ele>776.8</ele>
        <time>2022-02-10T13:54:09Z</time>
      </trkpt>
      <trkpt lat="46.05096" lon="6.16862">
        <ele>776.8</ele>
        <time>2022-02-10T13:54:10Z</time>
      </trkpt>
      <trkpt lat="46.05083" lon="6.16855">
        <ele>778.8</ele>
        <time>2022-02-10T13:54:15Z</time>
      </trkpt>
      <trkpt lat="46.05074" lon="6.16851">
        <ele>779.4</ele>
        <time>2022-02-10T13:54:19Z</time>
      </trkpt>
      <trkpt lat="46.0507" lon="6.16853">
        <ele>779.8</ele>
        <time>2022-02-10T13:54:21Z</time>
      </trkpt>
      <trkpt lat="46.05069" lon="6.16856">
        <ele>779.8</ele>
        <time>2022-02-10T13:54:22Z</time>
      </trkpt>
      <trkpt lat="46.05069" lon="6.16859">
        <ele>780.2</ele>
        <time>2022-02-10T13:54:23Z</time>
      </trkpt>
      <trkpt lat="46.05074" lon="6.16877">
        <ele>781</ele>
        <time>2022-02-10T13:54:28Z</time>
      </trkpt>
      <trkpt lat="46.05075" lon="6.16881">
        <ele>781.2</ele>
        <time>2022-02-10T13:54:29Z</time>
      </trkpt>
      <trkpt lat="46.05085" lon="6.1691">
        <ele>782.2</ele>
        <time>2022-02-10T13:54:36Z</time>
      </trkpt>
      <trkpt lat="46.05086" lon="6.16915">
        <ele>782.2</ele>
        <time>2022-02-10T13:54:37Z</time>
      </trkpt>
      <trkpt lat="46.05094" lon="6.16941">
        <ele>783.4</ele>
        <time>2022-02-10T13:54:43Z</time>
      </trkpt>
      <trkpt lat="46.051" lon="6.16963">
        <ele>784.2</ele>
        <time>2022-02-10T13:54:48Z</time>
      </trkpt>
      <trkpt lat="46.05112" lon="6.16985">
        <ele>785.4</ele>
        <time>2022-02-10T13:54:54Z</time>
      </trkpt>
      <trkpt lat="46.05115" lon="6.16988">
        <ele>785.6</ele>
        <time>2022-02-10T13:54:55Z</time>
      </trkpt>
      <trkpt lat="46.05136" lon="6.17003">
        <ele>786.6</ele>
        <time>2022-02-10T13:55:02Z</time>
      </trkpt>
      <trkpt lat="46.0514" lon="6.17005">
        <ele>786.8</ele>
        <time>2022-02-10T13:55:03Z</time>
      </trkpt>
      <trkpt lat="46.05158" lon="6.17016">
        <ele>788.2</ele>
        <time>2022-02-10T13:55:09Z</time>
      </trkpt>
      <trkpt lat="46.05164" lon="6.1702">
        <ele>788.4</ele>
        <time>2022-02-10T13:55:11Z</time>
      </trkpt>
      <trkpt lat="46.05173" lon="6.17026">
        <ele>789</ele>
        <time>2022-02-10T13:55:14Z</time>
      </trkpt>
      <trkpt lat="46.05192" lon="6.17037">
        <ele>790.2</ele>
        <time>2022-02-10T13:55:20Z</time>
      </trkpt>
      <trkpt lat="46.05195" lon="6.17038">
        <ele>790.4</ele>
        <time>2022-02-10T13:55:21Z</time>
      </trkpt>
      <trkpt lat="46.05209" lon="6.17048">
        <ele>791.4</ele>
        <time>2022-02-10T13:55:26Z</time>
      </trkpt>
      <trkpt lat="46.05225" lon="6.17058">
        <ele>792.2</ele>
        <time>2022-02-10T13:55:31Z</time>
      </trkpt>
      <trkpt lat="46.05227" lon="6.1706">
        <ele>792.4</ele>
        <time>2022-02-10T13:55:32Z</time>
      </trkpt>
      <trkpt lat="46.05242" lon="6.17069">
        <ele>793.4</ele>
        <time>2022-02-10T13:55:37Z</time>
      </trkpt>
      <trkpt lat="46.05254" lon="6.17077">
        <ele>794.4</ele>
        <time>2022-02-10T13:55:41Z</time>
      </trkpt>
      <trkpt lat="46.05258" lon="6.17078">
        <ele>794.4</ele>
        <time>2022-02-10T13:55:42Z</time>
      </trkpt>
      <trkpt lat="46.05276" lon="6.17087">
        <ele>795.8</ele>
        <time>2022-02-10T13:55:48Z</time>
      </trkpt>
      <trkpt lat="46.05283" lon="6.17089">
        <ele>796.4</ele>
        <time>2022-02-10T13:55:50Z</time>
      </trkpt>
      <trkpt lat="46.05286" lon="6.17091">
        <ele>796.6</ele>
        <time>2022-02-10T13:55:51Z</time>
      </trkpt>
      <trkpt lat="46.05307" lon="6.17101">
        <ele>797.8</ele>
        <time>2022-02-10T13:55:58Z</time>
      </trkpt>
      <trkpt lat="46.0531" lon="6.17103">
        <ele>798.2</ele>
        <time>2022-02-10T13:55:59Z</time>
      </trkpt>
      <trkpt lat="46.05327" lon="6.17122">
        <ele>799.4</ele>
        <time>2022-02-10T13:56:06Z</time>
      </trkpt>
      <trkpt lat="46.05338" lon="6.17152">
        <ele>801</ele>
        <time>2022-02-10T13:56:13Z</time>
      </trkpt>
      <trkpt lat="46.05339" lon="6.17156">
        <ele>801</ele>
        <time>2022-02-10T13:56:14Z</time>
      </trkpt>
      <trkpt lat="46.0534" lon="6.17185">
        <ele>801.8</ele>
        <time>2022-02-10T13:56:20Z</time>
      </trkpt>
      <trkpt lat="46.05341" lon="6.17206">
        <ele>802.6</ele>
        <time>2022-02-10T13:56:24Z</time>
      </trkpt>
      <trkpt lat="46.05341" lon="6.17216">
        <ele>802.8</ele>
        <time>2022-02-10T13:56:26Z</time>
      </trkpt>
      <trkpt lat="46.05344" lon="6.17248">
        <ele>803.4</ele>
        <time>2022-02-10T13:56:32Z</time>
      </trkpt>
      <trkpt lat="46.05343" lon="6.17263">
        <ele>804</ele>
        <time>2022-02-10T13:56:35Z</time>
      </trkpt>
      <trkpt lat="46.05338" lon="6.17283">
        <ele>804.4</ele>
        <time>2022-02-10T13:56:39Z</time>
      </trkpt>
      <trkpt lat="46.05333" lon="6.17296">
        <ele>805</ele>
        <time>2022-02-10T13:56:42Z</time>
      </trkpt>
      <trkpt lat="46.05319" lon="6.17312">
        <ele>805.6</ele>
        <time>2022-02-10T13:56:47Z</time>
      </trkpt>
      <trkpt lat="46.05316" lon="6.17315">
        <ele>806</ele>
        <time>2022-02-10T13:56:48Z</time>
      </trkpt>
      <trkpt lat="46.0529" lon="6.17332">
        <ele>807</ele>
        <time>2022-02-10T13:56:56Z</time>
      </trkpt>
      <trkpt lat="46.05266" lon="6.17349">
        <ele>808.2</ele>
        <time>2022-02-10T13:57:03Z</time>
      </trkpt>
      <trkpt lat="46.05263" lon="6.17352">
        <ele>808.2</ele>
        <time>2022-02-10T13:57:04Z</time>
      </trkpt>
      <trkpt lat="46.05233" lon="6.17373">
        <ele>809</ele>
        <time>2022-02-10T13:57:12Z</time>
      </trkpt>
      <trkpt lat="46.05205" lon="6.17394">
        <ele>809.8</ele>
        <time>2022-02-10T13:57:19Z</time>
      </trkpt>
      <trkpt lat="46.05198" lon="6.17399">
        <ele>809.8</ele>
        <time>2022-02-10T13:57:21Z</time>
      </trkpt>
      <trkpt lat="46.05189" lon="6.17399">
        <ele>810</ele>
        <time>2022-02-10T13:57:24Z</time>
      </trkpt>
      <trkpt lat="46.05189" lon="6.17398">
        <ele>810.2</ele>
        <time>2022-02-10T13:57:25Z</time>
      </trkpt>
      <trkpt lat="46.05189" lon="6.17398">
        <ele>810.4</ele>
        <time>2022-02-10T13:57:28Z</time>
      </trkpt>
      <trkpt lat="46.05187" lon="6.17393">
        <ele>812.2</ele>
        <time>2022-02-10T13:57:38Z</time>
      </trkpt>
      <trkpt lat="46.05183" lon="6.17393">
        <ele>812.4</ele>
        <time>2022-02-10T13:57:45Z</time>
      </trkpt>
      <trkpt lat="46.05183" lon="6.17393">
        <ele>812.8</ele>
        <time>2022-02-10T13:58:05Z</time>
      </trkpt>
      <trkpt lat="46.05183" lon="6.17393">
        <ele>812.8</ele>
        <time>2022-02-10T13:58:15Z</time>
      </trkpt>
      <trkpt lat="46.05185" lon="6.17394">
        <ele>812.8</ele>
        <time>2022-02-10T13:58:18Z</time>
      </trkpt>
      <trkpt lat="46.05188" lon="6.17397">
        <ele>812.8</ele>
        <time>2022-02-10T13:58:21Z</time>
      </trkpt>
      <trkpt lat="46.05188" lon="6.17399">
        <ele>812.8</ele>
        <time>2022-02-10T13:58:29Z</time>
      </trkpt>
      <trkpt lat="46.05189" lon="6.17399">
        <ele>812.6</ele>
        <time>2022-02-10T13:58:36Z</time>
      </trkpt>
      <trkpt lat="46.05188" lon="6.17402">
        <ele>812.4</ele>
        <time>2022-02-10T13:58:40Z</time>
      </trkpt>
      <trkpt lat="46.05187" lon="6.17405">
        <ele>812.2</ele>
        <time>2022-02-10T13:58:41Z</time>
      </trkpt>
      <trkpt lat="46.05175" lon="6.17416">
        <ele>812.2</ele>
        <time>2022-02-10T13:58:46Z</time>
      </trkpt>
      <trkpt lat="46.05154" lon="6.17436">
        <ele>811.6</ele>
        <time>2022-02-10T13:58:52Z</time>
      </trkpt>
      <trkpt lat="46.05125" lon="6.1747">
        <ele>811.4</ele>
        <time>2022-02-10T13:59:00Z</time>
      </trkpt>
      <trkpt lat="46.05121" lon="6.17475">
        <ele>811.4</ele>
        <time>2022-02-10T13:59:01Z</time>
      </trkpt>
      <trkpt lat="46.05115" lon="6.17485">
        <ele>811.4</ele>
        <time>2022-02-10T13:59:03Z</time>
      </trkpt>
      <trkpt lat="46.05104" lon="6.17506">
        <ele>812</ele>
        <time>2022-02-10T13:59:07Z</time>
      </trkpt>
      <trkpt lat="46.05091" lon="6.17524">
        <ele>812.2</ele>
        <time>2022-02-10T13:59:11Z</time>
      </trkpt>
      <trkpt lat="46.05088" lon="6.17528">
        <ele>812.6</ele>
        <time>2022-02-10T13:59:12Z</time>
      </trkpt>
      <trkpt lat="46.05078" lon="6.17541">
        <ele>812.8</ele>
        <time>2022-02-10T13:59:15Z</time>
      </trkpt>
      <trkpt lat="46.05063" lon="6.17557">
        <ele>813.2</ele>
        <time>2022-02-10T13:59:19Z</time>
      </trkpt>
      <trkpt lat="46.05059" lon="6.17562">
        <ele>813.4</ele>
        <time>2022-02-10T13:59:20Z</time>
      </trkpt>
      <trkpt lat="46.0505" lon="6.17578">
        <ele>813.6</ele>
        <time>2022-02-10T13:59:23Z</time>
      </trkpt>
      <trkpt lat="46.05043" lon="6.1759">
        <ele>814</ele>
        <time>2022-02-10T13:59:25Z</time>
      </trkpt>
      <trkpt lat="46.05023" lon="6.17632">
        <ele>814.6</ele>
        <time>2022-02-10T13:59:32Z</time>
      </trkpt>
      <trkpt lat="46.05014" lon="6.17648">
        <ele>814.8</ele>
        <time>2022-02-10T13:59:35Z</time>
      </trkpt>
      <trkpt lat="46.05011" lon="6.17654">
        <ele>815</ele>
        <time>2022-02-10T13:59:36Z</time>
      </trkpt>
      <trkpt lat="46.05003" lon="6.17669">
        <ele>815.2</ele>
        <time>2022-02-10T13:59:39Z</time>
      </trkpt>
      <trkpt lat="46.04999" lon="6.17674">
        <ele>815.2</ele>
        <time>2022-02-10T13:59:40Z</time>
      </trkpt>
      <trkpt lat="46.04977" lon="6.17703">
        <ele>816.2</ele>
        <time>2022-02-10T13:59:46Z</time>
      </trkpt>
      <trkpt lat="46.04968" lon="6.17711">
        <ele>816.6</ele>
        <time>2022-02-10T13:59:48Z</time>
      </trkpt>
      <trkpt lat="46.04939" lon="6.17741">
        <ele>817.8</ele>
        <time>2022-02-10T13:59:55Z</time>
      </trkpt>
      <trkpt lat="46.04935" lon="6.17746">
        <ele>817.8</ele>
        <time>2022-02-10T13:59:56Z</time>
      </trkpt>
      <trkpt lat="46.0493" lon="6.17758">
        <ele>818.2</ele>
        <time>2022-02-10T13:59:58Z</time>
      </trkpt>
      <trkpt lat="46.04926" lon="6.17771">
        <ele>818.6</ele>
        <time>2022-02-10T14:00:00Z</time>
      </trkpt>
      <trkpt lat="46.04923" lon="6.17783">
        <ele>818.8</ele>
        <time>2022-02-10T14:00:02Z</time>
      </trkpt>
      <trkpt lat="46.04916" lon="6.17817">
        <ele>819.8</ele>
        <time>2022-02-10T14:00:07Z</time>
      </trkpt>
      <trkpt lat="46.04911" lon="6.17845">
        <ele>820.4</ele>
        <time>2022-02-10T14:00:11Z</time>
      </trkpt>
      <trkpt lat="46.04901" lon="6.17878">
        <ele>820.8</ele>
        <time>2022-02-10T14:00:16Z</time>
      </trkpt>
      <trkpt lat="46.04886" lon="6.17914">
        <ele>821.8</ele>
        <time>2022-02-10T14:00:22Z</time>
      </trkpt>
      <trkpt lat="46.04879" lon="6.17932">
        <ele>822</ele>
        <time>2022-02-10T14:00:25Z</time>
      </trkpt>
      <trkpt lat="46.04872" lon="6.17956">
        <ele>822.2</ele>
        <time>2022-02-10T14:00:29Z</time>
      </trkpt>
      <trkpt lat="46.04872" lon="6.17963">
        <ele>822.6</ele>
        <time>2022-02-10T14:00:30Z</time>
      </trkpt>
      <trkpt lat="46.04872" lon="6.1797">
        <ele>822.6</ele>
        <time>2022-02-10T14:00:31Z</time>
      </trkpt>
      <trkpt lat="46.04874" lon="6.17983">
        <ele>823</ele>
        <time>2022-02-10T14:00:33Z</time>
      </trkpt>
      <trkpt lat="46.04879" lon="6.17995">
        <ele>823</ele>
        <time>2022-02-10T14:00:35Z</time>
      </trkpt>
      <trkpt lat="46.04885" lon="6.18005">
        <ele>823.4</ele>
        <time>2022-02-10T14:00:37Z</time>
      </trkpt>
      <trkpt lat="46.04897" lon="6.18017">
        <ele>823.8</ele>
        <time>2022-02-10T14:00:40Z</time>
      </trkpt>
      <trkpt lat="46.04917" lon="6.18039">
        <ele>824.8</ele>
        <time>2022-02-10T14:00:45Z</time>
      </trkpt>
      <trkpt lat="46.04923" lon="6.18051">
        <ele>825</ele>
        <time>2022-02-10T14:00:47Z</time>
      </trkpt>
      <trkpt lat="46.04925" lon="6.18064">
        <ele>825.4</ele>
        <time>2022-02-10T14:00:49Z</time>
      </trkpt>
      <trkpt lat="46.04925" lon="6.18078">
        <ele>825.2</ele>
        <time>2022-02-10T14:00:51Z</time>
      </trkpt>
      <trkpt lat="46.04921" lon="6.18091">
        <ele>825.6</ele>
        <time>2022-02-10T14:00:53Z</time>
      </trkpt>
      <trkpt lat="46.04913" lon="6.181">
        <ele>825.6</ele>
        <time>2022-02-10T14:00:55Z</time>
      </trkpt>
      <trkpt lat="46.04904" lon="6.18107">
        <ele>826</ele>
        <time>2022-02-10T14:00:57Z</time>
      </trkpt>
      <trkpt lat="46.04888" lon="6.18112">
        <ele>826.2</ele>
        <time>2022-02-10T14:01:00Z</time>
      </trkpt>
      <trkpt lat="46.04846" lon="6.18129">
        <ele>826.6</ele>
        <time>2022-02-10T14:01:08Z</time>
      </trkpt>
      <trkpt lat="46.04824" lon="6.18154">
        <ele>826.6</ele>
        <time>2022-02-10T14:01:13Z</time>
      </trkpt>
      <trkpt lat="46.04798" lon="6.182">
        <ele>826.8</ele>
        <time>2022-02-10T14:01:20Z</time>
      </trkpt>
      <trkpt lat="46.04771" lon="6.18247">
        <ele>827</ele>
        <time>2022-02-10T14:01:27Z</time>
      </trkpt>
      <trkpt lat="46.04766" lon="6.18252">
        <ele>827</ele>
        <time>2022-02-10T14:01:28Z</time>
      </trkpt>
      <trkpt lat="46.04761" lon="6.18257">
        <ele>827</ele>
        <time>2022-02-10T14:01:29Z</time>
      </trkpt>
      <trkpt lat="46.04749" lon="6.18262">
        <ele>827</ele>
        <time>2022-02-10T14:01:31Z</time>
      </trkpt>
      <trkpt lat="46.04743" lon="6.18264">
        <ele>827</ele>
        <time>2022-02-10T14:01:32Z</time>
      </trkpt>
      <trkpt lat="46.04719" lon="6.1827">
        <ele>827.2</ele>
        <time>2022-02-10T14:01:36Z</time>
      </trkpt>
      <trkpt lat="46.04714" lon="6.18272">
        <ele>827.2</ele>
        <time>2022-02-10T14:01:37Z</time>
      </trkpt>
      <trkpt lat="46.04703" lon="6.18279">
        <ele>827.2</ele>
        <time>2022-02-10T14:01:39Z</time>
      </trkpt>
      <trkpt lat="46.04695" lon="6.18289">
        <ele>827.2</ele>
        <time>2022-02-10T14:01:41Z</time>
      </trkpt>
      <trkpt lat="46.04687" lon="6.18299">
        <ele>827.2</ele>
        <time>2022-02-10T14:01:43Z</time>
      </trkpt>
      <trkpt lat="46.04682" lon="6.18303">
        <ele>827.4</ele>
        <time>2022-02-10T14:01:44Z</time>
      </trkpt>
      <trkpt lat="46.04678" lon="6.18308">
        <ele>827.6</ele>
        <time>2022-02-10T14:01:45Z</time>
      </trkpt>
      <trkpt lat="46.04671" lon="6.18319">
        <ele>827.8</ele>
        <time>2022-02-10T14:01:47Z</time>
      </trkpt>
      <trkpt lat="46.04669" lon="6.18324">
        <ele>828.2</ele>
        <time>2022-02-10T14:01:48Z</time>
      </trkpt>
      <trkpt lat="46.04666" lon="6.18329">
        <ele>828.2</ele>
        <time>2022-02-10T14:01:49Z</time>
      </trkpt>
      <trkpt lat="46.04654" lon="6.18345">
        <ele>829</ele>
        <time>2022-02-10T14:01:53Z</time>
      </trkpt>
      <trkpt lat="46.04644" lon="6.18369">
        <ele>830</ele>
        <time>2022-02-10T14:01:58Z</time>
      </trkpt>
      <trkpt lat="46.04643" lon="6.18375">
        <ele>830.4</ele>
        <time>2022-02-10T14:01:59Z</time>
      </trkpt>
      <trkpt lat="46.04641" lon="6.18386">
        <ele>830.6</ele>
        <time>2022-02-10T14:02:01Z</time>
      </trkpt>
      <trkpt lat="46.04639" lon="6.18397">
        <ele>831.2</ele>
        <time>2022-02-10T14:02:03Z</time>
      </trkpt>
      <trkpt lat="46.04634" lon="6.18408">
        <ele>831.6</ele>
        <time>2022-02-10T14:02:05Z</time>
      </trkpt>
      <trkpt lat="46.04622" lon="6.18423">
        <ele>831.8</ele>
        <time>2022-02-10T14:02:09Z</time>
      </trkpt>
      <trkpt lat="46.04618" lon="6.18425">
        <ele>832.2</ele>
        <time>2022-02-10T14:02:10Z</time>
      </trkpt>
      <trkpt lat="46.04607" lon="6.1843">
        <ele>832.6</ele>
        <time>2022-02-10T14:02:13Z</time>
      </trkpt>
      <trkpt lat="46.04592" lon="6.18435">
        <ele>833.2</ele>
        <time>2022-02-10T14:02:17Z</time>
      </trkpt>
      <trkpt lat="46.04574" lon="6.18447">
        <ele>834.6</ele>
        <time>2022-02-10T14:02:22Z</time>
      </trkpt>
      <trkpt lat="46.04568" lon="6.18454">
        <ele>835.2</ele>
        <time>2022-02-10T14:02:24Z</time>
      </trkpt>
      <trkpt lat="46.04557" lon="6.1846">
        <ele>836</ele>
        <time>2022-02-10T14:02:27Z</time>
      </trkpt>
      <trkpt lat="46.0455" lon="6.18465">
        <ele>836.6</ele>
        <time>2022-02-10T14:02:29Z</time>
      </trkpt>
      <trkpt lat="46.04545" lon="6.18475">
        <ele>836.8</ele>
        <time>2022-02-10T14:02:31Z</time>
      </trkpt>
      <trkpt lat="46.04543" lon="6.18482">
        <ele>837</ele>
        <time>2022-02-10T14:02:32Z</time>
      </trkpt>
      <trkpt lat="46.04542" lon="6.18489">
        <ele>837</ele>
        <time>2022-02-10T14:02:33Z</time>
      </trkpt>
      <trkpt lat="46.0454" lon="6.18522">
        <ele>837</ele>
        <time>2022-02-10T14:02:37Z</time>
      </trkpt>
      <trkpt lat="46.0454" lon="6.18531">
        <ele>837</ele>
        <time>2022-02-10T14:02:38Z</time>
      </trkpt>
      <trkpt lat="46.04542" lon="6.186">
        <ele>836.2</ele>
        <time>2022-02-10T14:02:46Z</time>
      </trkpt>
      <trkpt lat="46.04542" lon="6.1867">
        <ele>835.4</ele>
        <time>2022-02-10T14:02:53Z</time>
      </trkpt>
      <trkpt lat="46.0454" lon="6.1868">
        <ele>835.2</ele>
        <time>2022-02-10T14:02:54Z</time>
      </trkpt>
      <trkpt lat="46.04538" lon="6.18688">
        <ele>834.8</ele>
        <time>2022-02-10T14:02:55Z</time>
      </trkpt>
      <trkpt lat="46.04533" lon="6.18694">
        <ele>834.8</ele>
        <time>2022-02-10T14:02:56Z</time>
      </trkpt>
      <trkpt lat="46.04528" lon="6.18698">
        <ele>834.6</ele>
        <time>2022-02-10T14:02:57Z</time>
      </trkpt>
      <trkpt lat="46.04522" lon="6.18699">
        <ele>834.4</ele>
        <time>2022-02-10T14:02:58Z</time>
      </trkpt>
      <trkpt lat="46.04517" lon="6.18696">
        <ele>834.2</ele>
        <time>2022-02-10T14:02:59Z</time>
      </trkpt>
      <trkpt lat="46.04512" lon="6.18692">
        <ele>834</ele>
        <time>2022-02-10T14:03:00Z</time>
      </trkpt>
      <trkpt lat="46.04509" lon="6.18685">
        <ele>833.8</ele>
        <time>2022-02-10T14:03:01Z</time>
      </trkpt>
      <trkpt lat="46.04503" lon="6.1867">
        <ele>833.8</ele>
        <time>2022-02-10T14:03:03Z</time>
      </trkpt>
      <trkpt lat="46.04498" lon="6.1865">
        <ele>833.8</ele>
        <time>2022-02-10T14:03:06Z</time>
      </trkpt>
      <trkpt lat="46.04496" lon="6.18638">
        <ele>833.8</ele>
        <time>2022-02-10T14:03:08Z</time>
      </trkpt>
      <trkpt lat="46.04495" lon="6.18632">
        <ele>833.8</ele>
        <time>2022-02-10T14:03:09Z</time>
      </trkpt>
      <trkpt lat="46.04492" lon="6.1862">
        <ele>834</ele>
        <time>2022-02-10T14:03:11Z</time>
      </trkpt>
      <trkpt lat="46.04491" lon="6.18615">
        <ele>834.6</ele>
        <time>2022-02-10T14:03:12Z</time>
      </trkpt>
      <trkpt lat="46.04486" lon="6.18597">
        <ele>836</ele>
        <time>2022-02-10T14:03:15Z</time>
      </trkpt>
      <trkpt lat="46.04485" lon="6.18592">
        <ele>836.2</ele>
        <time>2022-02-10T14:03:16Z</time>
      </trkpt>
      <trkpt lat="46.0448" lon="6.18576">
        <ele>837.4</ele>
        <time>2022-02-10T14:03:19Z</time>
      </trkpt>
      <trkpt lat="46.04476" lon="6.18566">
        <ele>838</ele>
        <time>2022-02-10T14:03:21Z</time>
      </trkpt>
      <trkpt lat="46.04464" lon="6.18546">
        <ele>839.8</ele>
        <time>2022-02-10T14:03:25Z</time>
      </trkpt>
      <trkpt lat="46.04461" lon="6.18542">
        <ele>840</ele>
        <time>2022-02-10T14:03:26Z</time>
      </trkpt>
      <trkpt lat="46.04452" lon="6.18534">
        <ele>840.6</ele>
        <time>2022-02-10T14:03:28Z</time>
      </trkpt>
      <trkpt lat="46.04438" lon="6.18525">
        <ele>841.2</ele>
        <time>2022-02-10T14:03:31Z</time>
      </trkpt>
      <trkpt lat="46.04416" lon="6.18519">
        <ele>841.2</ele>
        <time>2022-02-10T14:03:35Z</time>
      </trkpt>
      <trkpt lat="46.04405" lon="6.18518">
        <ele>841.2</ele>
        <time>2022-02-10T14:03:37Z</time>
      </trkpt>
      <trkpt lat="46.04399" lon="6.18519">
        <ele>841.2</ele>
        <time>2022-02-10T14:03:38Z</time>
      </trkpt>
      <trkpt lat="46.0437" lon="6.18528">
        <ele>840.8</ele>
        <time>2022-02-10T14:03:43Z</time>
      </trkpt>
      <trkpt lat="46.04328" lon="6.18546">
        <ele>839.4</ele>
        <time>2022-02-10T14:03:50Z</time>
      </trkpt>
      <trkpt lat="46.04315" lon="6.18551">
        <ele>839.4</ele>
        <time>2022-02-10T14:03:52Z</time>
      </trkpt>
      <trkpt lat="46.04269" lon="6.18567">
        <ele>839.6</ele>
        <time>2022-02-10T14:03:59Z</time>
      </trkpt>
      <trkpt lat="46.04261" lon="6.18569">
        <ele>839.6</ele>
        <time>2022-02-10T14:04:00Z</time>
      </trkpt>
      <trkpt lat="46.04233" lon="6.18572">
        <ele>839.4</ele>
        <time>2022-02-10T14:04:04Z</time>
      </trkpt>
      <trkpt lat="46.04196" lon="6.18576">
        <ele>839</ele>
        <time>2022-02-10T14:04:09Z</time>
      </trkpt>
      <trkpt lat="46.04146" lon="6.1858">
        <ele>838.8</ele>
        <time>2022-02-10T14:04:16Z</time>
      </trkpt>
      <trkpt lat="46.04134" lon="6.18582">
        <ele>838.8</ele>
        <time>2022-02-10T14:04:18Z</time>
      </trkpt>
      <trkpt lat="46.04116" lon="6.18587">
        <ele>839</ele>
        <time>2022-02-10T14:04:21Z</time>
      </trkpt>
      <trkpt lat="46.04111" lon="6.18589">
        <ele>839</ele>
        <time>2022-02-10T14:04:22Z</time>
      </trkpt>
      <trkpt lat="46.04106" lon="6.18592">
        <ele>839.2</ele>
        <time>2022-02-10T14:04:23Z</time>
      </trkpt>
      <trkpt lat="46.0407" lon="6.18612">
        <ele>840.8</ele>
        <time>2022-02-10T14:04:30Z</time>
      </trkpt>
      <trkpt lat="46.04039" lon="6.18643">
        <ele>842.6</ele>
        <time>2022-02-10T14:04:36Z</time>
      </trkpt>
      <trkpt lat="46.04028" lon="6.18655">
        <ele>842.6</ele>
        <time>2022-02-10T14:04:38Z</time>
      </trkpt>
      <trkpt lat="46.03994" lon="6.18691">
        <ele>842.2</ele>
        <time>2022-02-10T14:04:44Z</time>
      </trkpt>
      <trkpt lat="46.03974" lon="6.18714">
        <ele>841.8</ele>
        <time>2022-02-10T14:04:48Z</time>
      </trkpt>
      <trkpt lat="46.0396" lon="6.1873">
        <ele>841.6</ele>
        <time>2022-02-10T14:04:51Z</time>
      </trkpt>
      <trkpt lat="46.03955" lon="6.18735">
        <ele>841.6</ele>
        <time>2022-02-10T14:04:52Z</time>
      </trkpt>
      <trkpt lat="46.03946" lon="6.18744">
        <ele>841.8</ele>
        <time>2022-02-10T14:04:54Z</time>
      </trkpt>
      <trkpt lat="46.03942" lon="6.18748">
        <ele>841.8</ele>
        <time>2022-02-10T14:04:55Z</time>
      </trkpt>
      <trkpt lat="46.03932" lon="6.18753">
        <ele>842.2</ele>
        <time>2022-02-10T14:04:57Z</time>
      </trkpt>
      <trkpt lat="46.03927" lon="6.18754">
        <ele>842.4</ele>
        <time>2022-02-10T14:04:58Z</time>
      </trkpt>
      <trkpt lat="46.03922" lon="6.18754">
        <ele>842.6</ele>
        <time>2022-02-10T14:04:59Z</time>
      </trkpt>
      <trkpt lat="46.03913" lon="6.18751">
        <ele>843.2</ele>
        <time>2022-02-10T14:05:01Z</time>
      </trkpt>
      <trkpt lat="46.03894" lon="6.18739">
        <ele>844.8</ele>
        <time>2022-02-10T14:05:05Z</time>
      </trkpt>
      <trkpt lat="46.03872" lon="6.18723">
        <ele>845.6</ele>
        <time>2022-02-10T14:05:10Z</time>
      </trkpt>
      <trkpt lat="46.0386" lon="6.18714">
        <ele>846.2</ele>
        <time>2022-02-10T14:05:13Z</time>
      </trkpt>
      <trkpt lat="46.03833" lon="6.18689">
        <ele>847.8</ele>
        <time>2022-02-10T14:05:20Z</time>
      </trkpt>
      <trkpt lat="46.03798" lon="6.1865">
        <ele>849.6</ele>
        <time>2022-02-10T14:05:29Z</time>
      </trkpt>
      <trkpt lat="46.0379" lon="6.18641">
        <ele>849.6</ele>
        <time>2022-02-10T14:05:31Z</time>
      </trkpt>
      <trkpt lat="46.03753" lon="6.18601">
        <ele>850</ele>
        <time>2022-02-10T14:05:40Z</time>
      </trkpt>
      <trkpt lat="46.03716" lon="6.18571">
        <ele>850.4</ele>
        <time>2022-02-10T14:05:48Z</time>
      </trkpt>
      <trkpt lat="46.03674" lon="6.18546">
        <ele>851.2</ele>
        <time>2022-02-10T14:05:57Z</time>
      </trkpt>
      <trkpt lat="46.03659" lon="6.18545">
        <ele>851.4</ele>
        <time>2022-02-10T14:06:00Z</time>
      </trkpt>
      <trkpt lat="46.03648" lon="6.18547">
        <ele>851.6</ele>
        <time>2022-02-10T14:06:02Z</time>
      </trkpt>
      <trkpt lat="46.03615" lon="6.18559">
        <ele>852.2</ele>
        <time>2022-02-10T14:06:08Z</time>
      </trkpt>
      <trkpt lat="46.03603" lon="6.18563">
        <ele>852.2</ele>
        <time>2022-02-10T14:06:10Z</time>
      </trkpt>
      <trkpt lat="46.03596" lon="6.18565">
        <ele>852.2</ele>
        <time>2022-02-10T14:06:11Z</time>
      </trkpt>
      <trkpt lat="46.0359" lon="6.18567">
        <ele>852</ele>
        <time>2022-02-10T14:06:12Z</time>
      </trkpt>
      <trkpt lat="46.03562" lon="6.18574">
        <ele>852.2</ele>
        <time>2022-02-10T14:06:16Z</time>
      </trkpt>
      <trkpt lat="46.03554" lon="6.18575">
        <ele>852</ele>
        <time>2022-02-10T14:06:17Z</time>
      </trkpt>
      <trkpt lat="46.03546" lon="6.18574">
        <ele>852.2</ele>
        <time>2022-02-10T14:06:18Z</time>
      </trkpt>
      <trkpt lat="46.03531" lon="6.1857">
        <ele>851.4</ele>
        <time>2022-02-10T14:06:20Z</time>
      </trkpt>
      <trkpt lat="46.03524" lon="6.18566">
        <ele>850.6</ele>
        <time>2022-02-10T14:06:21Z</time>
      </trkpt>
      <trkpt lat="46.03488" lon="6.18544">
        <ele>847.6</ele>
        <time>2022-02-10T14:06:26Z</time>
      </trkpt>
      <trkpt lat="46.03465" lon="6.18531">
        <ele>846.4</ele>
        <time>2022-02-10T14:06:29Z</time>
      </trkpt>
      <trkpt lat="46.0345" lon="6.18522">
        <ele>845.4</ele>
        <time>2022-02-10T14:06:31Z</time>
      </trkpt>
      <trkpt lat="46.03425" lon="6.18512">
        <ele>845</ele>
        <time>2022-02-10T14:06:34Z</time>
      </trkpt>
      <trkpt lat="46.03416" lon="6.18509">
        <ele>844.4</ele>
        <time>2022-02-10T14:06:35Z</time>
      </trkpt>
      <trkpt lat="46.03407" lon="6.18506">
        <ele>844</ele>
        <time>2022-02-10T14:06:36Z</time>
      </trkpt>
      <trkpt lat="46.03389" lon="6.18501">
        <ele>843.4</ele>
        <time>2022-02-10T14:06:38Z</time>
      </trkpt>
      <trkpt lat="46.03379" lon="6.185">
        <ele>843.4</ele>
        <time>2022-02-10T14:06:39Z</time>
      </trkpt>
      <trkpt lat="46.03369" lon="6.18499">
        <ele>842.8</ele>
        <time>2022-02-10T14:06:40Z</time>
      </trkpt>
      <trkpt lat="46.0336" lon="6.18499">
        <ele>842.4</ele>
        <time>2022-02-10T14:06:41Z</time>
      </trkpt>
      <trkpt lat="46.0334" lon="6.18499">
        <ele>841.2</ele>
        <time>2022-02-10T14:06:43Z</time>
      </trkpt>
      <trkpt lat="46.03319" lon="6.18499">
        <ele>840.2</ele>
        <time>2022-02-10T14:06:45Z</time>
      </trkpt>
      <trkpt lat="46.03298" lon="6.185">
        <ele>839.2</ele>
        <time>2022-02-10T14:06:47Z</time>
      </trkpt>
      <trkpt lat="46.03278" lon="6.18502">
        <ele>838.2</ele>
        <time>2022-02-10T14:06:49Z</time>
      </trkpt>
      <trkpt lat="46.03267" lon="6.18503">
        <ele>837.4</ele>
        <time>2022-02-10T14:06:50Z</time>
      </trkpt>
      <trkpt lat="46.03256" lon="6.18502">
        <ele>836.6</ele>
        <time>2022-02-10T14:06:51Z</time>
      </trkpt>
      <trkpt lat="46.03244" lon="6.18499">
        <ele>836</ele>
        <time>2022-02-10T14:06:52Z</time>
      </trkpt>
      <trkpt lat="46.03233" lon="6.18493">
        <ele>835.4</ele>
        <time>2022-02-10T14:06:53Z</time>
      </trkpt>
      <trkpt lat="46.03223" lon="6.18488">
        <ele>834.4</ele>
        <time>2022-02-10T14:06:54Z</time>
      </trkpt>
      <trkpt lat="46.03201" lon="6.18477">
        <ele>832.6</ele>
        <time>2022-02-10T14:06:56Z</time>
      </trkpt>
      <trkpt lat="46.0319" lon="6.18472">
        <ele>831.8</ele>
        <time>2022-02-10T14:06:57Z</time>
      </trkpt>
      <trkpt lat="46.03179" lon="6.18466">
        <ele>830.8</ele>
        <time>2022-02-10T14:06:58Z</time>
      </trkpt>
      <trkpt lat="46.03169" lon="6.18458">
        <ele>829.8</ele>
        <time>2022-02-10T14:06:59Z</time>
      </trkpt>
      <trkpt lat="46.0316" lon="6.18449">
        <ele>828.6</ele>
        <time>2022-02-10T14:07:00Z</time>
      </trkpt>
      <trkpt lat="46.03136" lon="6.18417">
        <ele>824.6</ele>
        <time>2022-02-10T14:07:03Z</time>
      </trkpt>
      <trkpt lat="46.0312" lon="6.18395">
        <ele>822.8</ele>
        <time>2022-02-10T14:07:05Z</time>
      </trkpt>
      <trkpt lat="46.03113" lon="6.18384">
        <ele>821.6</ele>
        <time>2022-02-10T14:07:06Z</time>
      </trkpt>
      <trkpt lat="46.03097" lon="6.18361">
        <ele>820.4</ele>
        <time>2022-02-10T14:07:08Z</time>
      </trkpt>
      <trkpt lat="46.03081" lon="6.1834">
        <ele>820</ele>
        <time>2022-02-10T14:07:10Z</time>
      </trkpt>
      <trkpt lat="46.03073" lon="6.1833">
        <ele>819.6</ele>
        <time>2022-02-10T14:07:11Z</time>
      </trkpt>
      <trkpt lat="46.03055" lon="6.18313">
        <ele>819.6</ele>
        <time>2022-02-10T14:07:13Z</time>
      </trkpt>
      <trkpt lat="46.03045" lon="6.18309">
        <ele>819</ele>
        <time>2022-02-10T14:07:14Z</time>
      </trkpt>
      <trkpt lat="46.03035" lon="6.1831">
        <ele>818.4</ele>
        <time>2022-02-10T14:07:15Z</time>
      </trkpt>
      <trkpt lat="46.03025" lon="6.18316">
        <ele>817.6</ele>
        <time>2022-02-10T14:07:16Z</time>
      </trkpt>
      <trkpt lat="46.03008" lon="6.18333">
        <ele>816.2</ele>
        <time>2022-02-10T14:07:18Z</time>
      </trkpt>
      <trkpt lat="46.0299" lon="6.18349">
        <ele>814.4</ele>
        <time>2022-02-10T14:07:20Z</time>
      </trkpt>
      <trkpt lat="46.02982" lon="6.18357">
        <ele>813.8</ele>
        <time>2022-02-10T14:07:21Z</time>
      </trkpt>
      <trkpt lat="46.02973" lon="6.18365">
        <ele>813</ele>
        <time>2022-02-10T14:07:22Z</time>
      </trkpt>
      <trkpt lat="46.02937" lon="6.18392">
        <ele>808.6</ele>
        <time>2022-02-10T14:07:26Z</time>
      </trkpt>
      <trkpt lat="46.02927" lon="6.18396">
        <ele>808.2</ele>
        <time>2022-02-10T14:07:27Z</time>
      </trkpt>
      <trkpt lat="46.02908" lon="6.184">
        <ele>807</ele>
        <time>2022-02-10T14:07:29Z</time>
      </trkpt>
      <trkpt lat="46.02898" lon="6.184">
        <ele>806.4</ele>
        <time>2022-02-10T14:07:30Z</time>
      </trkpt>
      <trkpt lat="46.02856" lon="6.18393">
        <ele>805.8</ele>
        <time>2022-02-10T14:07:35Z</time>
      </trkpt>
      <trkpt lat="46.02834" lon="6.18393">
        <ele>805.6</ele>
        <time>2022-02-10T14:07:38Z</time>
      </trkpt>
      <trkpt lat="46.02821" lon="6.18398">
        <ele>805.6</ele>
        <time>2022-02-10T14:07:40Z</time>
      </trkpt>
      <trkpt lat="46.02803" lon="6.18416">
        <ele>805.6</ele>
        <time>2022-02-10T14:07:43Z</time>
      </trkpt>
      <trkpt lat="46.02798" lon="6.18423">
        <ele>805.8</ele>
        <time>2022-02-10T14:07:44Z</time>
      </trkpt>
      <trkpt lat="46.02777" lon="6.18466">
        <ele>806.6</ele>
        <time>2022-02-10T14:07:49Z</time>
      </trkpt>
      <trkpt lat="46.02774" lon="6.18475">
        <ele>806.8</ele>
        <time>2022-02-10T14:07:50Z</time>
      </trkpt>
      <trkpt lat="46.0275" lon="6.18524">
        <ele>807</ele>
        <time>2022-02-10T14:07:56Z</time>
      </trkpt>
      <trkpt lat="46.02732" lon="6.18547">
        <ele>807.2</ele>
        <time>2022-02-10T14:08:00Z</time>
      </trkpt>
      <trkpt lat="46.02723" lon="6.18556">
        <ele>807.4</ele>
        <time>2022-02-10T14:08:02Z</time>
      </trkpt>
      <trkpt lat="46.02691" lon="6.18597">
        <ele>808.6</ele>
        <time>2022-02-10T14:08:09Z</time>
      </trkpt>
      <trkpt lat="46.02674" lon="6.18614">
        <ele>808.8</ele>
        <time>2022-02-10T14:08:12Z</time>
      </trkpt>
      <trkpt lat="46.02661" lon="6.1862">
        <ele>808.8</ele>
        <time>2022-02-10T14:08:14Z</time>
      </trkpt>
      <trkpt lat="46.02646" lon="6.18625">
        <ele>809</ele>
        <time>2022-02-10T14:08:16Z</time>
      </trkpt>
      <trkpt lat="46.02618" lon="6.1863">
        <ele>808.6</ele>
        <time>2022-02-10T14:08:20Z</time>
      </trkpt>
      <trkpt lat="46.0258" lon="6.18631">
        <ele>807.4</ele>
        <time>2022-02-10T14:08:26Z</time>
      </trkpt>
      <trkpt lat="46.02575" lon="6.18634">
        <ele>807.2</ele>
        <time>2022-02-10T14:08:27Z</time>
      </trkpt>
      <trkpt lat="46.02563" lon="6.18639">
        <ele>807</ele>
        <time>2022-02-10T14:08:29Z</time>
      </trkpt>
      <trkpt lat="46.02556" lon="6.18641">
        <ele>807</ele>
        <time>2022-02-10T14:08:30Z</time>
      </trkpt>
      <trkpt lat="46.02549" lon="6.18643">
        <ele>806.8</ele>
        <time>2022-02-10T14:08:31Z</time>
      </trkpt>
      <trkpt lat="46.02535" lon="6.18647">
        <ele>806.8</ele>
        <time>2022-02-10T14:08:33Z</time>
      </trkpt>
      <trkpt lat="46.02521" lon="6.18651">
        <ele>806.6</ele>
        <time>2022-02-10T14:08:35Z</time>
      </trkpt>
      <trkpt lat="46.02505" lon="6.18658">
        <ele>806</ele>
        <time>2022-02-10T14:08:37Z</time>
      </trkpt>
      <trkpt lat="46.02498" lon="6.18663">
        <ele>805.6</ele>
        <time>2022-02-10T14:08:38Z</time>
      </trkpt>
      <trkpt lat="46.0249" lon="6.18669">
        <ele>805</ele>
        <time>2022-02-10T14:08:39Z</time>
      </trkpt>
      <trkpt lat="46.02482" lon="6.18677">
        <ele>804.4</ele>
        <time>2022-02-10T14:08:40Z</time>
      </trkpt>
      <trkpt lat="46.02474" lon="6.18685">
        <ele>804</ele>
        <time>2022-02-10T14:08:41Z</time>
      </trkpt>
      <trkpt lat="46.02466" lon="6.18694">
        <ele>803.4</ele>
        <time>2022-02-10T14:08:42Z</time>
      </trkpt>
      <trkpt lat="46.02457" lon="6.18704">
        <ele>802.8</ele>
        <time>2022-02-10T14:08:43Z</time>
      </trkpt>
      <trkpt lat="46.02448" lon="6.18715">
        <ele>802.2</ele>
        <time>2022-02-10T14:08:44Z</time>
      </trkpt>
      <trkpt lat="46.02439" lon="6.18725">
        <ele>801.2</ele>
        <time>2022-02-10T14:08:45Z</time>
      </trkpt>
      <trkpt lat="46.02431" lon="6.18735">
        <ele>800.4</ele>
        <time>2022-02-10T14:08:46Z</time>
      </trkpt>
      <trkpt lat="46.02422" lon="6.18745">
        <ele>799.2</ele>
        <time>2022-02-10T14:08:47Z</time>
      </trkpt>
      <trkpt lat="46.02413" lon="6.18754">
        <ele>798</ele>
        <time>2022-02-10T14:08:48Z</time>
      </trkpt>
      <trkpt lat="46.02403" lon="6.18763">
        <ele>796.6</ele>
        <time>2022-02-10T14:08:49Z</time>
      </trkpt>
      <trkpt lat="46.02394" lon="6.18772">
        <ele>795.2</ele>
        <time>2022-02-10T14:08:50Z</time>
      </trkpt>
      <trkpt lat="46.02385" lon="6.18779">
        <ele>793.4</ele>
        <time>2022-02-10T14:08:51Z</time>
      </trkpt>
      <trkpt lat="46.02375" lon="6.18785">
        <ele>791.4</ele>
        <time>2022-02-10T14:08:52Z</time>
      </trkpt>
      <trkpt lat="46.02364" lon="6.18789">
        <ele>789.8</ele>
        <time>2022-02-10T14:08:53Z</time>
      </trkpt>
      <trkpt lat="46.02341" lon="6.18795">
        <ele>788.4</ele>
        <time>2022-02-10T14:08:55Z</time>
      </trkpt>
      <trkpt lat="46.02329" lon="6.18797">
        <ele>787.2</ele>
        <time>2022-02-10T14:08:56Z</time>
      </trkpt>
      <trkpt lat="46.02317" lon="6.188">
        <ele>785.4</ele>
        <time>2022-02-10T14:08:57Z</time>
      </trkpt>
      <trkpt lat="46.02304" lon="6.18803">
        <ele>783.6</ele>
        <time>2022-02-10T14:08:58Z</time>
      </trkpt>
      <trkpt lat="46.02291" lon="6.18808">
        <ele>782.2</ele>
        <time>2022-02-10T14:08:59Z</time>
      </trkpt>
      <trkpt lat="46.02279" lon="6.18813">
        <ele>781</ele>
        <time>2022-02-10T14:09:00Z</time>
      </trkpt>
      <trkpt lat="46.02267" lon="6.18818">
        <ele>779.6</ele>
        <time>2022-02-10T14:09:01Z</time>
      </trkpt>
      <trkpt lat="46.02254" lon="6.18821">
        <ele>778</ele>
        <time>2022-02-10T14:09:02Z</time>
      </trkpt>
      <trkpt lat="46.0224" lon="6.18822">
        <ele>776.6</ele>
        <time>2022-02-10T14:09:03Z</time>
      </trkpt>
      <trkpt lat="46.02226" lon="6.18821">
        <ele>775</ele>
        <time>2022-02-10T14:09:04Z</time>
      </trkpt>
      <trkpt lat="46.02213" lon="6.1882">
        <ele>773</ele>
        <time>2022-02-10T14:09:05Z</time>
      </trkpt>
      <trkpt lat="46.02199" lon="6.18818">
        <ele>771.2</ele>
        <time>2022-02-10T14:09:06Z</time>
      </trkpt>
      <trkpt lat="46.02185" lon="6.18816">
        <ele>768.8</ele>
        <time>2022-02-10T14:09:07Z</time>
      </trkpt>
      <trkpt lat="46.02171" lon="6.18814">
        <ele>766.2</ele>
        <time>2022-02-10T14:09:08Z</time>
      </trkpt>
      <trkpt lat="46.02157" lon="6.18813">
        <ele>763.6</ele>
        <time>2022-02-10T14:09:09Z</time>
      </trkpt>
      <trkpt lat="46.02143" lon="6.18812">
        <ele>761.6</ele>
        <time>2022-02-10T14:09:10Z</time>
      </trkpt>
      <trkpt lat="46.0213" lon="6.18811">
        <ele>759.6</ele>
        <time>2022-02-10T14:09:11Z</time>
      </trkpt>
      <trkpt lat="46.02117" lon="6.18809">
        <ele>757.4</ele>
        <time>2022-02-10T14:09:12Z</time>
      </trkpt>
      <trkpt lat="46.02082" lon="6.188">
        <ele>751.8</ele>
        <time>2022-02-10T14:09:15Z</time>
      </trkpt>
      <trkpt lat="46.02062" lon="6.18791">
        <ele>748.4</ele>
        <time>2022-02-10T14:09:17Z</time>
      </trkpt>
      <trkpt lat="46.02054" lon="6.18786">
        <ele>746.2</ele>
        <time>2022-02-10T14:09:18Z</time>
      </trkpt>
      <trkpt lat="46.02046" lon="6.18781">
        <ele>744.4</ele>
        <time>2022-02-10T14:09:19Z</time>
      </trkpt>
      <trkpt lat="46.02027" lon="6.18765">
        <ele>738.6</ele>
        <time>2022-02-10T14:09:22Z</time>
      </trkpt>
      <trkpt lat="46.0202" lon="6.18759">
        <ele>738</ele>
        <time>2022-02-10T14:09:23Z</time>
      </trkpt>
      <trkpt lat="46.02013" lon="6.18753">
        <ele>737.4</ele>
        <time>2022-02-10T14:09:24Z</time>
      </trkpt>
      <trkpt lat="46.01992" lon="6.18733">
        <ele>734.6</ele>
        <time>2022-02-10T14:09:27Z</time>
      </trkpt>
      <trkpt lat="46.01985" lon="6.18726">
        <ele>734</ele>
        <time>2022-02-10T14:09:28Z</time>
      </trkpt>
      <trkpt lat="46.01969" lon="6.18712">
        <ele>733</ele>
        <time>2022-02-10T14:09:30Z</time>
      </trkpt>
      <trkpt lat="46.01954" lon="6.18696">
        <ele>731.4</ele>
        <time>2022-02-10T14:09:32Z</time>
      </trkpt>
      <trkpt lat="46.01939" lon="6.18678">
        <ele>730</ele>
        <time>2022-02-10T14:09:34Z</time>
      </trkpt>
      <trkpt lat="46.01931" lon="6.18669">
        <ele>729.6</ele>
        <time>2022-02-10T14:09:35Z</time>
      </trkpt>
      <trkpt lat="46.01923" lon="6.18659">
        <ele>729</ele>
        <time>2022-02-10T14:09:36Z</time>
      </trkpt>
      <trkpt lat="46.01915" lon="6.1865">
        <ele>728</ele>
        <time>2022-02-10T14:09:37Z</time>
      </trkpt>
      <trkpt lat="46.0189" lon="6.18623">
        <ele>726</ele>
        <time>2022-02-10T14:09:40Z</time>
      </trkpt>
      <trkpt lat="46.01883" lon="6.18614">
        <ele>724.8</ele>
        <time>2022-02-10T14:09:41Z</time>
      </trkpt>
      <trkpt lat="46.01861" lon="6.18574">
        <ele>720.2</ele>
        <time>2022-02-10T14:09:45Z</time>
      </trkpt>
      <trkpt lat="46.01846" lon="6.18545">
        <ele>717.6</ele>
        <time>2022-02-10T14:09:48Z</time>
      </trkpt>
      <trkpt lat="46.01832" lon="6.18517">
        <ele>716.6</ele>
        <time>2022-02-10T14:09:51Z</time>
      </trkpt>
      <trkpt lat="46.01826" lon="6.18507">
        <ele>716.2</ele>
        <time>2022-02-10T14:09:52Z</time>
      </trkpt>
      <trkpt lat="46.01821" lon="6.18497">
        <ele>716.2</ele>
        <time>2022-02-10T14:09:53Z</time>
      </trkpt>
      <trkpt lat="46.01816" lon="6.18486">
        <ele>715.8</ele>
        <time>2022-02-10T14:09:54Z</time>
      </trkpt>
      <trkpt lat="46.01811" lon="6.18474">
        <ele>715.6</ele>
        <time>2022-02-10T14:09:55Z</time>
      </trkpt>
      <trkpt lat="46.01807" lon="6.18461">
        <ele>715.2</ele>
        <time>2022-02-10T14:09:56Z</time>
      </trkpt>
      <trkpt lat="46.01804" lon="6.18447">
        <ele>715</ele>
        <time>2022-02-10T14:09:57Z</time>
      </trkpt>
      <trkpt lat="46.01803" lon="6.18431">
        <ele>714.8</ele>
        <time>2022-02-10T14:09:58Z</time>
      </trkpt>
      <trkpt lat="46.01803" lon="6.18415">
        <ele>714.4</ele>
        <time>2022-02-10T14:09:59Z</time>
      </trkpt>
      <trkpt lat="46.01804" lon="6.18398">
        <ele>713.2</ele>
        <time>2022-02-10T14:10:00Z</time>
      </trkpt>
      <trkpt lat="46.01806" lon="6.18381">
        <ele>712.4</ele>
        <time>2022-02-10T14:10:01Z</time>
      </trkpt>
      <trkpt lat="46.01807" lon="6.18364">
        <ele>711.6</ele>
        <time>2022-02-10T14:10:02Z</time>
      </trkpt>
      <trkpt lat="46.01811" lon="6.1833">
        <ele>709.2</ele>
        <time>2022-02-10T14:10:04Z</time>
      </trkpt>
      <trkpt lat="46.01827" lon="6.1827">
        <ele>703.8</ele>
        <time>2022-02-10T14:10:08Z</time>
      </trkpt>
      <trkpt lat="46.01834" lon="6.18243">
        <ele>700.4</ele>
        <time>2022-02-10T14:10:10Z</time>
      </trkpt>
      <trkpt lat="46.01834" lon="6.18229">
        <ele>698.8</ele>
        <time>2022-02-10T14:10:11Z</time>
      </trkpt>
      <trkpt lat="46.01832" lon="6.18215">
        <ele>697.4</ele>
        <time>2022-02-10T14:10:12Z</time>
      </trkpt>
      <trkpt lat="46.01828" lon="6.18204">
        <ele>696.2</ele>
        <time>2022-02-10T14:10:13Z</time>
      </trkpt>
      <trkpt lat="46.01822" lon="6.18195">
        <ele>695.6</ele>
        <time>2022-02-10T14:10:14Z</time>
      </trkpt>
      <trkpt lat="46.01816" lon="6.18189">
        <ele>695.6</ele>
        <time>2022-02-10T14:10:15Z</time>
      </trkpt>
      <trkpt lat="46.01804" lon="6.1818">
        <ele>695.4</ele>
        <time>2022-02-10T14:10:17Z</time>
      </trkpt>
      <trkpt lat="46.01787" lon="6.18167">
        <ele>695.2</ele>
        <time>2022-02-10T14:10:20Z</time>
      </trkpt>
      <trkpt lat="46.01783" lon="6.18163">
        <ele>695.2</ele>
        <time>2022-02-10T14:10:21Z</time>
      </trkpt>
      <trkpt lat="46.01778" lon="6.18158">
        <ele>695.4</ele>
        <time>2022-02-10T14:10:22Z</time>
      </trkpt>
      <trkpt lat="46.01766" lon="6.18145">
        <ele>696</ele>
        <time>2022-02-10T14:10:25Z</time>
      </trkpt>
      <trkpt lat="46.01761" lon="6.1814">
        <ele>696.4</ele>
        <time>2022-02-10T14:10:26Z</time>
      </trkpt>
      <trkpt lat="46.01748" lon="6.18129">
        <ele>697.8</ele>
        <time>2022-02-10T14:10:29Z</time>
      </trkpt>
      <trkpt lat="46.01739" lon="6.18125">
        <ele>699.4</ele>
        <time>2022-02-10T14:10:31Z</time>
      </trkpt>
      <trkpt lat="46.01712" lon="6.18114">
        <ele>701.2</ele>
        <time>2022-02-10T14:10:36Z</time>
      </trkpt>
      <trkpt lat="46.01696" lon="6.18105">
        <ele>701.6</ele>
        <time>2022-02-10T14:10:39Z</time>
      </trkpt>
      <trkpt lat="46.01683" lon="6.18098">
        <ele>701.6</ele>
        <time>2022-02-10T14:10:41Z</time>
      </trkpt>
      <trkpt lat="46.01662" lon="6.18086">
        <ele>701.4</ele>
        <time>2022-02-10T14:10:44Z</time>
      </trkpt>
      <trkpt lat="46.01647" lon="6.18077">
        <ele>701.6</ele>
        <time>2022-02-10T14:10:46Z</time>
      </trkpt>
      <trkpt lat="46.01624" lon="6.18064">
        <ele>700</ele>
        <time>2022-02-10T14:10:49Z</time>
      </trkpt>
      <trkpt lat="46.01601" lon="6.18051">
        <ele>698.4</ele>
        <time>2022-02-10T14:10:52Z</time>
      </trkpt>
      <trkpt lat="46.01571" lon="6.18034">
        <ele>696</ele>
        <time>2022-02-10T14:10:56Z</time>
      </trkpt>
      <trkpt lat="46.01542" lon="6.18016">
        <ele>694.2</ele>
        <time>2022-02-10T14:11:00Z</time>
      </trkpt>
      <trkpt lat="46.01528" lon="6.18006">
        <ele>693.8</ele>
        <time>2022-02-10T14:11:02Z</time>
      </trkpt>
      <trkpt lat="46.01515" lon="6.17993">
        <ele>693.6</ele>
        <time>2022-02-10T14:11:04Z</time>
      </trkpt>
      <trkpt lat="46.01501" lon="6.17979">
        <ele>693.4</ele>
        <time>2022-02-10T14:11:06Z</time>
      </trkpt>
      <trkpt lat="46.01487" lon="6.17962">
        <ele>693</ele>
        <time>2022-02-10T14:11:08Z</time>
      </trkpt>
      <trkpt lat="46.01469" lon="6.17934">
        <ele>690.8</ele>
        <time>2022-02-10T14:11:11Z</time>
      </trkpt>
      <trkpt lat="46.01459" lon="6.17914">
        <ele>690</ele>
        <time>2022-02-10T14:11:13Z</time>
      </trkpt>
      <trkpt lat="46.01449" lon="6.17893">
        <ele>689</ele>
        <time>2022-02-10T14:11:15Z</time>
      </trkpt>
      <trkpt lat="46.0144" lon="6.1787">
        <ele>687.6</ele>
        <time>2022-02-10T14:11:17Z</time>
      </trkpt>
      <trkpt lat="46.01424" lon="6.1781">
        <ele>684.2</ele>
        <time>2022-02-10T14:11:22Z</time>
      </trkpt>
      <trkpt lat="46.01418" lon="6.17785">
        <ele>682.6</ele>
        <time>2022-02-10T14:11:24Z</time>
      </trkpt>
      <trkpt lat="46.0141" lon="6.17748">
        <ele>681</ele>
        <time>2022-02-10T14:11:27Z</time>
      </trkpt>
      <trkpt lat="46.014" lon="6.17701">
        <ele>679.8</ele>
        <time>2022-02-10T14:11:31Z</time>
      </trkpt>
      <trkpt lat="46.01392" lon="6.17666">
        <ele>679</ele>
        <time>2022-02-10T14:11:34Z</time>
      </trkpt>
      <trkpt lat="46.01384" lon="6.17632">
        <ele>677.8</ele>
        <time>2022-02-10T14:11:37Z</time>
      </trkpt>
      <trkpt lat="46.01381" lon="6.17621">
        <ele>677.2</ele>
        <time>2022-02-10T14:11:38Z</time>
      </trkpt>
      <trkpt lat="46.01377" lon="6.17611">
        <ele>676.8</ele>
        <time>2022-02-10T14:11:39Z</time>
      </trkpt>
      <trkpt lat="46.01366" lon="6.17592">
        <ele>675.6</ele>
        <time>2022-02-10T14:11:41Z</time>
      </trkpt>
      <trkpt lat="46.01343" lon="6.17577">
        <ele>674</ele>
        <time>2022-02-10T14:11:44Z</time>
      </trkpt>
      <trkpt lat="46.01335" lon="6.17575">
        <ele>673.6</ele>
        <time>2022-02-10T14:11:45Z</time>
      </trkpt>
      <trkpt lat="46.01326" lon="6.17574">
        <ele>673.2</ele>
        <time>2022-02-10T14:11:46Z</time>
      </trkpt>
      <trkpt lat="46.01318" lon="6.17574">
        <ele>672.2</ele>
        <time>2022-02-10T14:11:47Z</time>
      </trkpt>
      <trkpt lat="46.01309" lon="6.17574">
        <ele>671.6</ele>
        <time>2022-02-10T14:11:48Z</time>
      </trkpt>
      <trkpt lat="46.01263" lon="6.17572">
        <ele>669.8</ele>
        <time>2022-02-10T14:11:54Z</time>
      </trkpt>
      <trkpt lat="46.0125" lon="6.17572">
        <ele>668.8</ele>
        <time>2022-02-10T14:11:56Z</time>
      </trkpt>
      <trkpt lat="46.01235" lon="6.17571">
        <ele>667.8</ele>
        <time>2022-02-10T14:11:59Z</time>
      </trkpt>
      <trkpt lat="46.01226" lon="6.17571">
        <ele>667.6</ele>
        <time>2022-02-10T14:12:01Z</time>
      </trkpt>
      <trkpt lat="46.01218" lon="6.17571">
        <ele>667.2</ele>
        <time>2022-02-10T14:12:03Z</time>
      </trkpt>
      <trkpt lat="46.01214" lon="6.1757">
        <ele>667</ele>
        <time>2022-02-10T14:12:04Z</time>
      </trkpt>
      <trkpt lat="46.0121" lon="6.17569">
        <ele>666.8</ele>
        <time>2022-02-10T14:12:05Z</time>
      </trkpt>
      <trkpt lat="46.01199" lon="6.17566">
        <ele>666.6</ele>
        <time>2022-02-10T14:12:08Z</time>
      </trkpt>
      <trkpt lat="46.01197" lon="6.17566">
        <ele>666.2</ele>
        <time>2022-02-10T14:12:09Z</time>
      </trkpt>
      <trkpt lat="46.01189" lon="6.17572">
        <ele>665.6</ele>
        <time>2022-02-10T14:12:12Z</time>
      </trkpt>
      <trkpt lat="46.01187" lon="6.17576">
        <ele>665</ele>
        <time>2022-02-10T14:12:13Z</time>
      </trkpt>
      <trkpt lat="46.01182" lon="6.17591">
        <ele>664.2</ele>
        <time>2022-02-10T14:12:16Z</time>
      </trkpt>
      <trkpt lat="46.0117" lon="6.17615">
        <ele>663.2</ele>
        <time>2022-02-10T14:12:22Z</time>
      </trkpt>
      <trkpt lat="46.01167" lon="6.1762">
        <ele>662.6</ele>
        <time>2022-02-10T14:12:27Z</time>
      </trkpt>
      <trkpt lat="46.01167" lon="6.17621">
        <ele>662.2</ele>
        <time>2022-02-10T14:13:00Z</time>
      </trkpt>
      <trkpt lat="46.01167" lon="6.17621">
        <ele>662.2</ele>
        <time>2022-02-10T14:13:36Z</time>
      </trkpt>
      <trkpt lat="46.01167" lon="6.17621">
        <ele>662.2</ele>
        <time>2022-02-10T14:13:59Z</time>
      </trkpt>
      <trkpt lat="46.01168" lon="6.17621">
        <ele>662.2</ele>
        <time>2022-02-10T14:14:36Z</time>
      </trkpt>
      <trkpt lat="46.01168" lon="6.17621">
        <ele>662.2</ele>
        <time>2022-02-10T14:14:52Z</time>
      </trkpt>
      <trkpt lat="46.01168" lon="6.17622">
        <ele>662</ele>
        <time>2022-02-10T14:15:17Z</time>
      </trkpt>
      <trkpt lat="46.01168" lon="6.17622">
        <ele>662.2</ele>
        <time>2022-02-10T14:16:00Z</time>
      </trkpt>
      <trkpt lat="46.01168" lon="6.17622">
        <ele>662.2</ele>
        <time>2022-02-10T14:16:29Z</time>
      </trkpt>
      <trkpt lat="46.01166" lon="6.17623">
        <ele>662.4</ele>
        <time>2022-02-10T14:16:36Z</time>
      </trkpt>
      <trkpt lat="46.01165" lon="6.17623">
        <ele>662.4</ele>
        <time>2022-02-10T14:16:37Z</time>
      </trkpt>
      <trkpt lat="46.01162" lon="6.17623">
        <ele>662.4</ele>
        <time>2022-02-10T14:16:38Z</time>
      </trkpt>
      <trkpt lat="46.01153" lon="6.17623">
        <ele>662.4</ele>
        <time>2022-02-10T14:16:42Z</time>
      </trkpt>
      <trkpt lat="46.01151" lon="6.17625">
        <ele>662.4</ele>
        <time>2022-02-10T14:16:43Z</time>
      </trkpt>
      <trkpt lat="46.01152" lon="6.17627">
        <ele>662.2</ele>
        <time>2022-02-10T14:16:44Z</time>
      </trkpt>
      <trkpt lat="46.01153" lon="6.17628">
        <ele>661.8</ele>
        <time>2022-02-10T14:16:45Z</time>
      </trkpt>
      <trkpt lat="46.01161" lon="6.17631">
        <ele>661</ele>
        <time>2022-02-10T14:16:50Z</time>
      </trkpt>
      <trkpt lat="46.01171" lon="6.17632">
        <ele>661</ele>
        <time>2022-02-10T14:16:54Z</time>
      </trkpt>
      <trkpt lat="46.01174" lon="6.17632">
        <ele>661</ele>
        <time>2022-02-10T14:16:55Z</time>
      </trkpt>
      <trkpt lat="46.0118" lon="6.17637">
        <ele>661.2</ele>
        <time>2022-02-10T14:16:57Z</time>
      </trkpt>
      <trkpt lat="46.01183" lon="6.17642">
        <ele>661.2</ele>
        <time>2022-02-10T14:16:58Z</time>
      </trkpt>
      <trkpt lat="46.01186" lon="6.17648">
        <ele>661.4</ele>
        <time>2022-02-10T14:16:59Z</time>
      </trkpt>
      <trkpt lat="46.01193" lon="6.17662">
        <ele>661.2</ele>
        <time>2022-02-10T14:17:01Z</time>
      </trkpt>
      <trkpt lat="46.012" lon="6.17678">
        <ele>661.2</ele>
        <time>2022-02-10T14:17:03Z</time>
      </trkpt>
      <trkpt lat="46.01208" lon="6.17695">
        <ele>661.2</ele>
        <time>2022-02-10T14:17:05Z</time>
      </trkpt>
      <trkpt lat="46.01221" lon="6.17724">
        <ele>661.2</ele>
        <time>2022-02-10T14:17:08Z</time>
      </trkpt>
      <trkpt lat="46.01225" lon="6.17735">
        <ele>660.8</ele>
        <time>2022-02-10T14:17:09Z</time>
      </trkpt>
      <trkpt lat="46.01229" lon="6.17747">
        <ele>660.2</ele>
        <time>2022-02-10T14:17:10Z</time>
      </trkpt>
      <trkpt lat="46.01236" lon="6.17772">
        <ele>659</ele>
        <time>2022-02-10T14:17:12Z</time>
      </trkpt>
      <trkpt lat="46.01243" lon="6.17797">
        <ele>657.4</ele>
        <time>2022-02-10T14:17:14Z</time>
      </trkpt>
      <trkpt lat="46.0126" lon="6.1788">
        <ele>651.2</ele>
        <time>2022-02-10T14:17:21Z</time>
      </trkpt>
      <trkpt lat="46.01263" lon="6.17891">
        <ele>650.6</ele>
        <time>2022-02-10T14:17:22Z</time>
      </trkpt>
      <trkpt lat="46.01271" lon="6.17927">
        <ele>650</ele>
        <time>2022-02-10T14:17:25Z</time>
      </trkpt>
      <trkpt lat="46.01288" lon="6.18009">
        <ele>649.4</ele>
        <time>2022-02-10T14:17:32Z</time>
      </trkpt>
      <trkpt lat="46.01292" lon="6.1802">
        <ele>649.4</ele>
        <time>2022-02-10T14:17:33Z</time>
      </trkpt>
      <trkpt lat="46.01306" lon="6.18049">
        <ele>648.8</ele>
        <time>2022-02-10T14:17:36Z</time>
      </trkpt>
      <trkpt lat="46.01343" lon="6.18111">
        <ele>648.2</ele>
        <time>2022-02-10T14:17:43Z</time>
      </trkpt>
      <trkpt lat="46.01347" lon="6.18118">
        <ele>648.2</ele>
        <time>2022-02-10T14:17:44Z</time>
      </trkpt>
      <trkpt lat="46.01352" lon="6.18129">
        <ele>648.4</ele>
        <time>2022-02-10T14:17:47Z</time>
      </trkpt>
      <trkpt lat="46.01352" lon="6.18129">
        <ele>648.4</ele>
        <time>2022-02-10T14:17:49Z</time>
      </trkpt>
      <trkpt lat="46.01352" lon="6.18129">
        <ele>649</ele>
        <time>2022-02-10T14:17:54Z</time>
      </trkpt>
      <trkpt lat="46.01354" lon="6.18131">
        <ele>649.6</ele>
        <time>2022-02-10T14:18:03Z</time>
      </trkpt>
      <trkpt lat="46.01355" lon="6.18132">
        <ele>649.6</ele>
        <time>2022-02-10T14:18:04Z</time>
      </trkpt>
      <trkpt lat="46.01362" lon="6.18143">
        <ele>649.6</ele>
        <time>2022-02-10T14:18:08Z</time>
      </trkpt>
      <trkpt lat="46.01378" lon="6.1817">
        <ele>649.6</ele>
        <time>2022-02-10T14:18:13Z</time>
      </trkpt>
      <trkpt lat="46.01386" lon="6.18183">
        <ele>649.4</ele>
        <time>2022-02-10T14:18:15Z</time>
      </trkpt>
      <trkpt lat="46.01404" lon="6.18211">
        <ele>649.2</ele>
        <time>2022-02-10T14:18:19Z</time>
      </trkpt>
      <trkpt lat="46.01409" lon="6.18217">
        <ele>649</ele>
        <time>2022-02-10T14:18:20Z</time>
      </trkpt>
      <trkpt lat="46.01432" lon="6.18236">
        <ele>649</ele>
        <time>2022-02-10T14:18:24Z</time>
      </trkpt>
      <trkpt lat="46.01482" lon="6.18264">
        <ele>648.6</ele>
        <time>2022-02-10T14:18:31Z</time>
      </trkpt>
      <trkpt lat="46.01509" lon="6.18284">
        <ele>648.2</ele>
        <time>2022-02-10T14:18:35Z</time>
      </trkpt>
      <trkpt lat="46.01515" lon="6.18291">
        <ele>648.2</ele>
        <time>2022-02-10T14:18:36Z</time>
      </trkpt>
      <trkpt lat="46.01518" lon="6.18301">
        <ele>648</ele>
        <time>2022-02-10T14:18:37Z</time>
      </trkpt>
      <trkpt lat="46.01519" lon="6.1831">
        <ele>648</ele>
        <time>2022-02-10T14:18:38Z</time>
      </trkpt>
      <trkpt lat="46.01519" lon="6.1832">
        <ele>648</ele>
        <time>2022-02-10T14:18:39Z</time>
      </trkpt>
      <trkpt lat="46.01517" lon="6.18329">
        <ele>647.8</ele>
        <time>2022-02-10T14:18:40Z</time>
      </trkpt>
      <trkpt lat="46.01515" lon="6.18336">
        <ele>647.8</ele>
        <time>2022-02-10T14:18:41Z</time>
      </trkpt>
      <trkpt lat="46.01512" lon="6.18343">
        <ele>647.8</ele>
        <time>2022-02-10T14:18:42Z</time>
      </trkpt>
      <trkpt lat="46.01506" lon="6.18364">
        <ele>647.8</ele>
        <time>2022-02-10T14:18:45Z</time>
      </trkpt>
      <trkpt lat="46.01502" lon="6.18377">
        <ele>647.8</ele>
        <time>2022-02-10T14:18:47Z</time>
      </trkpt>
      <trkpt lat="46.015" lon="6.18384">
        <ele>648.2</ele>
        <time>2022-02-10T14:18:48Z</time>
      </trkpt>
      <trkpt lat="46.01499" lon="6.18391">
        <ele>648.6</ele>
        <time>2022-02-10T14:18:49Z</time>
      </trkpt>
      <trkpt lat="46.01495" lon="6.18422">
        <ele>650.8</ele>
        <time>2022-02-10T14:18:53Z</time>
      </trkpt>
      <trkpt lat="46.01492" lon="6.18455">
        <ele>652.4</ele>
        <time>2022-02-10T14:18:57Z</time>
      </trkpt>
      <trkpt lat="46.01493" lon="6.18471">
        <ele>652.6</ele>
        <time>2022-02-10T14:18:59Z</time>
      </trkpt>
      <trkpt lat="46.01494" lon="6.18479">
        <ele>652.8</ele>
        <time>2022-02-10T14:19:00Z</time>
      </trkpt>
      <trkpt lat="46.01501" lon="6.18503">
        <ele>653</ele>
        <time>2022-02-10T14:19:03Z</time>
      </trkpt>
      <trkpt lat="46.01509" lon="6.18525">
        <ele>653.2</ele>
        <time>2022-02-10T14:19:06Z</time>
      </trkpt>
      <trkpt lat="46.01511" lon="6.18531">
        <ele>653.2</ele>
        <time>2022-02-10T14:19:07Z</time>
      </trkpt>
      <trkpt lat="46.01515" lon="6.18544">
        <ele>653.4</ele>
        <time>2022-02-10T14:19:09Z</time>
      </trkpt>
      <trkpt lat="46.01524" lon="6.18568">
        <ele>654</ele>
        <time>2022-02-10T14:19:13Z</time>
      </trkpt>
      <trkpt lat="46.0153" lon="6.18586">
        <ele>654.8</ele>
        <time>2022-02-10T14:19:16Z</time>
      </trkpt>
      <trkpt lat="46.01536" lon="6.18603">
        <ele>656</ele>
        <time>2022-02-10T14:19:19Z</time>
      </trkpt>
      <trkpt lat="46.0154" lon="6.18614">
        <ele>656.6</ele>
        <time>2022-02-10T14:19:21Z</time>
      </trkpt>
      <trkpt lat="46.01547" lon="6.18631">
        <ele>657.2</ele>
        <time>2022-02-10T14:19:24Z</time>
      </trkpt>
      <trkpt lat="46.01559" lon="6.18664">
        <ele>658.8</ele>
        <time>2022-02-10T14:19:30Z</time>
      </trkpt>
      <trkpt lat="46.01572" lon="6.18698">
        <ele>660</ele>
        <time>2022-02-10T14:19:36Z</time>
      </trkpt>
      <trkpt lat="46.01579" lon="6.18715">
        <ele>660.4</ele>
        <time>2022-02-10T14:19:39Z</time>
      </trkpt>
      <trkpt lat="46.01585" lon="6.18733">
        <ele>660.8</ele>
        <time>2022-02-10T14:19:42Z</time>
      </trkpt>
      <trkpt lat="46.01589" lon="6.18744">
        <ele>661.4</ele>
        <time>2022-02-10T14:19:44Z</time>
      </trkpt>
      <trkpt lat="46.01595" lon="6.18767">
        <ele>661.8</ele>
        <time>2022-02-10T14:19:48Z</time>
      </trkpt>
      <trkpt lat="46.016" lon="6.18785">
        <ele>662.4</ele>
        <time>2022-02-10T14:19:51Z</time>
      </trkpt>
      <trkpt lat="46.01611" lon="6.18815">
        <ele>664.4</ele>
        <time>2022-02-10T14:19:56Z</time>
      </trkpt>
      <trkpt lat="46.01618" lon="6.18833">
        <ele>664.6</ele>
        <time>2022-02-10T14:19:59Z</time>
      </trkpt>
      <trkpt lat="46.0163" lon="6.18859">
        <ele>665.2</ele>
        <time>2022-02-10T14:20:04Z</time>
      </trkpt>
      <trkpt lat="46.01636" lon="6.18869">
        <ele>665.2</ele>
        <time>2022-02-10T14:20:06Z</time>
      </trkpt>
      <trkpt lat="46.01647" lon="6.1889">
        <ele>666.4</ele>
        <time>2022-02-10T14:20:10Z</time>
      </trkpt>
      <trkpt lat="46.01659" lon="6.1891">
        <ele>667.6</ele>
        <time>2022-02-10T14:20:14Z</time>
      </trkpt>
      <trkpt lat="46.01668" lon="6.18926">
        <ele>668</ele>
        <time>2022-02-10T14:20:17Z</time>
      </trkpt>
      <trkpt lat="46.01684" lon="6.18955">
        <ele>668.8</ele>
        <time>2022-02-10T14:20:23Z</time>
      </trkpt>
      <trkpt lat="46.01695" lon="6.18974">
        <ele>669.6</ele>
        <time>2022-02-10T14:20:27Z</time>
      </trkpt>
      <trkpt lat="46.01698" lon="6.18979">
        <ele>670</ele>
        <time>2022-02-10T14:20:28Z</time>
      </trkpt>
      <trkpt lat="46.0171" lon="6.19001">
        <ele>671</ele>
        <time>2022-02-10T14:20:33Z</time>
      </trkpt>
      <trkpt lat="46.0172" lon="6.19019">
        <ele>671.6</ele>
        <time>2022-02-10T14:20:37Z</time>
      </trkpt>
      <trkpt lat="46.01723" lon="6.19023">
        <ele>672</ele>
        <time>2022-02-10T14:20:38Z</time>
      </trkpt>
      <trkpt lat="46.01738" lon="6.19051">
        <ele>673.6</ele>
        <time>2022-02-10T14:20:44Z</time>
      </trkpt>
      <trkpt lat="46.01751" lon="6.19071">
        <ele>674.4</ele>
        <time>2022-02-10T14:20:48Z</time>
      </trkpt>
      <trkpt lat="46.01767" lon="6.19093">
        <ele>675</ele>
        <time>2022-02-10T14:20:52Z</time>
      </trkpt>
      <trkpt lat="46.01778" lon="6.19104">
        <ele>675.2</ele>
        <time>2022-02-10T14:20:54Z</time>
      </trkpt>
      <trkpt lat="46.0179" lon="6.19117">
        <ele>675</ele>
        <time>2022-02-10T14:20:56Z</time>
      </trkpt>
      <trkpt lat="46.01803" lon="6.19131">
        <ele>675</ele>
        <time>2022-02-10T14:20:58Z</time>
      </trkpt>
      <trkpt lat="46.01811" lon="6.19139">
        <ele>675</ele>
        <time>2022-02-10T14:20:59Z</time>
      </trkpt>
      <trkpt lat="46.01825" lon="6.19156">
        <ele>674.8</ele>
        <time>2022-02-10T14:21:01Z</time>
      </trkpt>
      <trkpt lat="46.01831" lon="6.19166">
        <ele>674.4</ele>
        <time>2022-02-10T14:21:02Z</time>
      </trkpt>
      <trkpt lat="46.01837" lon="6.19177">
        <ele>673.6</ele>
        <time>2022-02-10T14:21:03Z</time>
      </trkpt>
      <trkpt lat="46.01849" lon="6.19199">
        <ele>672.4</ele>
        <time>2022-02-10T14:21:05Z</time>
      </trkpt>
      <trkpt lat="46.01858" lon="6.19224">
        <ele>671</ele>
        <time>2022-02-10T14:21:07Z</time>
      </trkpt>
      <trkpt lat="46.01861" lon="6.1926">
        <ele>669.6</ele>
        <time>2022-02-10T14:21:10Z</time>
      </trkpt>
      <trkpt lat="46.0186" lon="6.19271">
        <ele>669</ele>
        <time>2022-02-10T14:21:11Z</time>
      </trkpt>
      <trkpt lat="46.01858" lon="6.19281">
        <ele>669</ele>
        <time>2022-02-10T14:21:12Z</time>
      </trkpt>
      <trkpt lat="46.01855" lon="6.19289">
        <ele>668.8</ele>
        <time>2022-02-10T14:21:13Z</time>
      </trkpt>
      <trkpt lat="46.01851" lon="6.19297">
        <ele>668.6</ele>
        <time>2022-02-10T14:21:14Z</time>
      </trkpt>
      <trkpt lat="46.01848" lon="6.19304">
        <ele>668.8</ele>
        <time>2022-02-10T14:21:15Z</time>
      </trkpt>
      <trkpt lat="46.0184" lon="6.19316">
        <ele>668.8</ele>
        <time>2022-02-10T14:21:17Z</time>
      </trkpt>
      <trkpt lat="46.01826" lon="6.19328">
        <ele>668.6</ele>
        <time>2022-02-10T14:21:20Z</time>
      </trkpt>
      <trkpt lat="46.01821" lon="6.19331">
        <ele>669</ele>
        <time>2022-02-10T14:21:21Z</time>
      </trkpt>
      <trkpt lat="46.01816" lon="6.19334">
        <ele>669.6</ele>
        <time>2022-02-10T14:21:22Z</time>
      </trkpt>
      <trkpt lat="46.01811" lon="6.19336">
        <ele>670</ele>
        <time>2022-02-10T14:21:23Z</time>
      </trkpt>
      <trkpt lat="46.01794" lon="6.19337">
        <ele>671.2</ele>
        <time>2022-02-10T14:21:26Z</time>
      </trkpt>
      <trkpt lat="46.01788" lon="6.19336">
        <ele>671.4</ele>
        <time>2022-02-10T14:21:27Z</time>
      </trkpt>
      <trkpt lat="46.01777" lon="6.19333">
        <ele>672</ele>
        <time>2022-02-10T14:21:29Z</time>
      </trkpt>
      <trkpt lat="46.01761" lon="6.19328">
        <ele>672.6</ele>
        <time>2022-02-10T14:21:32Z</time>
      </trkpt>
      <trkpt lat="46.01751" lon="6.19324">
        <ele>673</ele>
        <time>2022-02-10T14:21:34Z</time>
      </trkpt>
      <trkpt lat="46.01725" lon="6.19319">
        <ele>674</ele>
        <time>2022-02-10T14:21:39Z</time>
      </trkpt>
      <trkpt lat="46.01704" lon="6.19323">
        <ele>675.2</ele>
        <time>2022-02-10T14:21:43Z</time>
      </trkpt>
      <trkpt lat="46.01699" lon="6.19325">
        <ele>675.4</ele>
        <time>2022-02-10T14:21:44Z</time>
      </trkpt>
      <trkpt lat="46.01685" lon="6.19334">
        <ele>675.8</ele>
        <time>2022-02-10T14:21:47Z</time>
      </trkpt>
      <trkpt lat="46.01669" lon="6.19347">
        <ele>676.2</ele>
        <time>2022-02-10T14:21:51Z</time>
      </trkpt>
      <trkpt lat="46.01663" lon="6.19355">
        <ele>676.8</ele>
        <time>2022-02-10T14:21:53Z</time>
      </trkpt>
      <trkpt lat="46.01649" lon="6.19379">
        <ele>678</ele>
        <time>2022-02-10T14:21:58Z</time>
      </trkpt>
      <trkpt lat="46.01647" lon="6.19384">
        <ele>678.2</ele>
        <time>2022-02-10T14:21:59Z</time>
      </trkpt>
      <trkpt lat="46.01645" lon="6.1939">
        <ele>678.6</ele>
        <time>2022-02-10T14:22:00Z</time>
      </trkpt>
      <trkpt lat="46.01639" lon="6.19414">
        <ele>679.8</ele>
        <time>2022-02-10T14:22:04Z</time>
      </trkpt>
      <trkpt lat="46.01639" lon="6.1942">
        <ele>680.2</ele>
        <time>2022-02-10T14:22:05Z</time>
      </trkpt>
      <trkpt lat="46.0164" lon="6.19455">
        <ele>681.4</ele>
        <time>2022-02-10T14:22:11Z</time>
      </trkpt>
      <trkpt lat="46.01641" lon="6.19467">
        <ele>681.8</ele>
        <time>2022-02-10T14:22:13Z</time>
      </trkpt>
      <trkpt lat="46.01642" lon="6.19473">
        <ele>682</ele>
        <time>2022-02-10T14:22:14Z</time>
      </trkpt>
      <trkpt lat="46.01645" lon="6.1949">
        <ele>682.2</ele>
        <time>2022-02-10T14:22:17Z</time>
      </trkpt>
      <trkpt lat="46.01647" lon="6.19495">
        <ele>682.6</ele>
        <time>2022-02-10T14:22:18Z</time>
      </trkpt>
      <trkpt lat="46.01653" lon="6.1951">
        <ele>683</ele>
        <time>2022-02-10T14:22:21Z</time>
      </trkpt>
      <trkpt lat="46.0166" lon="6.19521">
        <ele>684</ele>
        <time>2022-02-10T14:22:24Z</time>
      </trkpt>
      <trkpt lat="46.01663" lon="6.19524">
        <ele>684.2</ele>
        <time>2022-02-10T14:22:25Z</time>
      </trkpt>
      <trkpt lat="46.01681" lon="6.1954">
        <ele>685.8</ele>
        <time>2022-02-10T14:22:31Z</time>
      </trkpt>
      <trkpt lat="46.01698" lon="6.19551">
        <ele>687.4</ele>
        <time>2022-02-10T14:22:36Z</time>
      </trkpt>
      <trkpt lat="46.01708" lon="6.19556">
        <ele>687.8</ele>
        <time>2022-02-10T14:22:39Z</time>
      </trkpt>
      <trkpt lat="46.01719" lon="6.1956">
        <ele>688.2</ele>
        <time>2022-02-10T14:22:42Z</time>
      </trkpt>
      <trkpt lat="46.01736" lon="6.19567">
        <ele>689.8</ele>
        <time>2022-02-10T14:22:47Z</time>
      </trkpt>
      <trkpt lat="46.01742" lon="6.1957">
        <ele>690.2</ele>
        <time>2022-02-10T14:22:49Z</time>
      </trkpt>
      <trkpt lat="46.01759" lon="6.19576">
        <ele>691.2</ele>
        <time>2022-02-10T14:22:54Z</time>
      </trkpt>
      <trkpt lat="46.01768" lon="6.1958">
        <ele>692.2</ele>
        <time>2022-02-10T14:22:57Z</time>
      </trkpt>
      <trkpt lat="46.01777" lon="6.19583">
        <ele>692.8</ele>
        <time>2022-02-10T14:23:00Z</time>
      </trkpt>
      <trkpt lat="46.0178" lon="6.19585">
        <ele>693</ele>
        <time>2022-02-10T14:23:01Z</time>
      </trkpt>
      <trkpt lat="46.01792" lon="6.1959">
        <ele>693.8</ele>
        <time>2022-02-10T14:23:05Z</time>
      </trkpt>
      <trkpt lat="46.01807" lon="6.19596">
        <ele>695.4</ele>
        <time>2022-02-10T14:23:10Z</time>
      </trkpt>
      <trkpt lat="46.01811" lon="6.19597">
        <ele>695.8</ele>
        <time>2022-02-10T14:23:11Z</time>
      </trkpt>
      <trkpt lat="46.01817" lon="6.19599">
        <ele>696.4</ele>
        <time>2022-02-10T14:23:13Z</time>
      </trkpt>
      <trkpt lat="46.01849" lon="6.19612">
        <ele>699</ele>
        <time>2022-02-10T14:23:23Z</time>
      </trkpt>
      <trkpt lat="46.01851" lon="6.19623">
        <ele>699.4</ele>
        <time>2022-02-10T14:23:25Z</time>
      </trkpt>
      <trkpt lat="46.01851" lon="6.1963">
        <ele>699.4</ele>
        <time>2022-02-10T14:23:26Z</time>
      </trkpt>
      <trkpt lat="46.01852" lon="6.19664">
        <ele>699.6</ele>
        <time>2022-02-10T14:23:31Z</time>
      </trkpt>
      <trkpt lat="46.01855" lon="6.19679">
        <ele>699.4</ele>
        <time>2022-02-10T14:23:33Z</time>
      </trkpt>
      <trkpt lat="46.01862" lon="6.19707">
        <ele>699.4</ele>
        <time>2022-02-10T14:23:37Z</time>
      </trkpt>
      <trkpt lat="46.01867" lon="6.19729">
        <ele>699.4</ele>
        <time>2022-02-10T14:23:40Z</time>
      </trkpt>
      <trkpt lat="46.01872" lon="6.19749">
        <ele>699.4</ele>
        <time>2022-02-10T14:23:43Z</time>
      </trkpt>
      <trkpt lat="46.01876" lon="6.19761">
        <ele>699.4</ele>
        <time>2022-02-10T14:23:45Z</time>
      </trkpt>
      <trkpt lat="46.01883" lon="6.19777">
        <ele>699.8</ele>
        <time>2022-02-10T14:23:48Z</time>
      </trkpt>
      <trkpt lat="46.01886" lon="6.19782">
        <ele>700</ele>
        <time>2022-02-10T14:23:49Z</time>
      </trkpt>
      <trkpt lat="46.01889" lon="6.19786">
        <ele>700</ele>
        <time>2022-02-10T14:23:50Z</time>
      </trkpt>
      <trkpt lat="46.01906" lon="6.19802">
        <ele>700.6</ele>
        <time>2022-02-10T14:23:54Z</time>
      </trkpt>
      <trkpt lat="46.01914" lon="6.19809">
        <ele>701.6</ele>
        <time>2022-02-10T14:23:56Z</time>
      </trkpt>
      <trkpt lat="46.01935" lon="6.19827">
        <ele>702.4</ele>
        <time>2022-02-10T14:24:01Z</time>
      </trkpt>
      <trkpt lat="46.01946" lon="6.19837">
        <ele>702.4</ele>
        <time>2022-02-10T14:24:04Z</time>
      </trkpt>
      <trkpt lat="46.01953" lon="6.19843">
        <ele>703</ele>
        <time>2022-02-10T14:24:06Z</time>
      </trkpt>
      <trkpt lat="46.0197" lon="6.19858">
        <ele>704</ele>
        <time>2022-02-10T14:24:11Z</time>
      </trkpt>
      <trkpt lat="46.01979" lon="6.19866">
        <ele>704.8</ele>
        <time>2022-02-10T14:24:14Z</time>
      </trkpt>
      <trkpt lat="46.01982" lon="6.19869">
        <ele>705.2</ele>
        <time>2022-02-10T14:24:15Z</time>
      </trkpt>
      <trkpt lat="46.01994" lon="6.1988">
        <ele>706</ele>
        <time>2022-02-10T14:24:19Z</time>
      </trkpt>
      <trkpt lat="46.02008" lon="6.19893">
        <ele>707.4</ele>
        <time>2022-02-10T14:24:24Z</time>
      </trkpt>
      <trkpt lat="46.02011" lon="6.19896">
        <ele>707.6</ele>
        <time>2022-02-10T14:24:25Z</time>
      </trkpt>
      <trkpt lat="46.02014" lon="6.19898">
        <ele>707.6</ele>
        <time>2022-02-10T14:24:26Z</time>
      </trkpt>
      <trkpt lat="46.0202" lon="6.19902">
        <ele>708.2</ele>
        <time>2022-02-10T14:24:28Z</time>
      </trkpt>
      <trkpt lat="46.02033" lon="6.1991">
        <ele>709.2</ele>
        <time>2022-02-10T14:24:32Z</time>
      </trkpt>
      <trkpt lat="46.02043" lon="6.19915">
        <ele>710.2</ele>
        <time>2022-02-10T14:24:35Z</time>
      </trkpt>
      <trkpt lat="46.02046" lon="6.19917">
        <ele>710.6</ele>
        <time>2022-02-10T14:24:36Z</time>
      </trkpt>
      <trkpt lat="46.02062" lon="6.19928">
        <ele>711.8</ele>
        <time>2022-02-10T14:24:41Z</time>
      </trkpt>
      <trkpt lat="46.02068" lon="6.19934">
        <ele>712.4</ele>
        <time>2022-02-10T14:24:43Z</time>
      </trkpt>
      <trkpt lat="46.02075" lon="6.19941">
        <ele>713</ele>
        <time>2022-02-10T14:24:45Z</time>
      </trkpt>
      <trkpt lat="46.02092" lon="6.19959">
        <ele>714</ele>
        <time>2022-02-10T14:24:50Z</time>
      </trkpt>
      <trkpt lat="46.02136" lon="6.19991">
        <ele>715.6</ele>
        <time>2022-02-10T14:25:00Z</time>
      </trkpt>
      <trkpt lat="46.0217" lon="6.20015">
        <ele>716.2</ele>
        <time>2022-02-10T14:25:08Z</time>
      </trkpt>
      <trkpt lat="46.02175" lon="6.20018">
        <ele>716.6</ele>
        <time>2022-02-10T14:25:09Z</time>
      </trkpt>
      <trkpt lat="46.02203" lon="6.20038">
        <ele>717</ele>
        <time>2022-02-10T14:25:16Z</time>
      </trkpt>
      <trkpt lat="46.02219" lon="6.20049">
        <ele>718</ele>
        <time>2022-02-10T14:25:20Z</time>
      </trkpt>
      <trkpt lat="46.02234" lon="6.2006">
        <ele>718.6</ele>
        <time>2022-02-10T14:25:24Z</time>
      </trkpt>
      <trkpt lat="46.02241" lon="6.20065">
        <ele>719.2</ele>
        <time>2022-02-10T14:25:26Z</time>
      </trkpt>
      <trkpt lat="46.02248" lon="6.2007">
        <ele>719.6</ele>
        <time>2022-02-10T14:25:28Z</time>
      </trkpt>
      <trkpt lat="46.02269" lon="6.20084">
        <ele>721.4</ele>
        <time>2022-02-10T14:25:34Z</time>
      </trkpt>
      <trkpt lat="46.02273" lon="6.20087">
        <ele>721.6</ele>
        <time>2022-02-10T14:25:35Z</time>
      </trkpt>
      <trkpt lat="46.02283" lon="6.20093">
        <ele>722.4</ele>
        <time>2022-02-10T14:25:38Z</time>
      </trkpt>
      <trkpt lat="46.02295" lon="6.20102">
        <ele>723.2</ele>
        <time>2022-02-10T14:25:42Z</time>
      </trkpt>
      <trkpt lat="46.02304" lon="6.20109">
        <ele>723.8</ele>
        <time>2022-02-10T14:25:45Z</time>
      </trkpt>
      <trkpt lat="46.02307" lon="6.20111">
        <ele>723.8</ele>
        <time>2022-02-10T14:25:46Z</time>
      </trkpt>
      <trkpt lat="46.02318" lon="6.20119">
        <ele>725.4</ele>
        <time>2022-02-10T14:25:50Z</time>
      </trkpt>
      <trkpt lat="46.02335" lon="6.2013">
        <ele>726.8</ele>
        <time>2022-02-10T14:25:56Z</time>
      </trkpt>
      <trkpt lat="46.02349" lon="6.20139">
        <ele>728.4</ele>
        <time>2022-02-10T14:26:01Z</time>
      </trkpt>
      <trkpt lat="46.02361" lon="6.20147">
        <ele>729.4</ele>
        <time>2022-02-10T14:26:05Z</time>
      </trkpt>
      <trkpt lat="46.02367" lon="6.20151">
        <ele>729.8</ele>
        <time>2022-02-10T14:26:07Z</time>
      </trkpt>
      <trkpt lat="46.02389" lon="6.20166">
        <ele>731.6</ele>
        <time>2022-02-10T14:26:14Z</time>
      </trkpt>
      <trkpt lat="46.02396" lon="6.20171">
        <ele>732</ele>
        <time>2022-02-10T14:26:16Z</time>
      </trkpt>
      <trkpt lat="46.02428" lon="6.20192">
        <ele>733</ele>
        <time>2022-02-10T14:26:24Z</time>
      </trkpt>
      <trkpt lat="46.0244" lon="6.202">
        <ele>733</ele>
        <time>2022-02-10T14:26:27Z</time>
      </trkpt>
      <trkpt lat="46.02471" lon="6.2022">
        <ele>733.8</ele>
        <time>2022-02-10T14:26:34Z</time>
      </trkpt>
      <trkpt lat="46.02475" lon="6.20223">
        <ele>733.8</ele>
        <time>2022-02-10T14:26:35Z</time>
      </trkpt>
      <trkpt lat="46.02509" lon="6.20245">
        <ele>735</ele>
        <time>2022-02-10T14:26:43Z</time>
      </trkpt>
      <trkpt lat="46.02525" lon="6.20256">
        <ele>735.6</ele>
        <time>2022-02-10T14:26:47Z</time>
      </trkpt>
      <trkpt lat="46.02545" lon="6.2027">
        <ele>736.2</ele>
        <time>2022-02-10T14:26:52Z</time>
      </trkpt>
      <trkpt lat="46.02561" lon="6.20281">
        <ele>737.4</ele>
        <time>2022-02-10T14:26:56Z</time>
      </trkpt>
      <trkpt lat="46.02569" lon="6.20287">
        <ele>737.4</ele>
        <time>2022-02-10T14:26:58Z</time>
      </trkpt>
      <trkpt lat="46.02584" lon="6.20297">
        <ele>738.6</ele>
        <time>2022-02-10T14:27:02Z</time>
      </trkpt>
      <trkpt lat="46.02588" lon="6.20299">
        <ele>739</ele>
        <time>2022-02-10T14:27:03Z</time>
      </trkpt>
      <trkpt lat="46.02607" lon="6.20312">
        <ele>739.6</ele>
        <time>2022-02-10T14:27:08Z</time>
      </trkpt>
      <trkpt lat="46.02621" lon="6.20322">
        <ele>740.4</ele>
        <time>2022-02-10T14:27:12Z</time>
      </trkpt>
      <trkpt lat="46.02641" lon="6.20335">
        <ele>741.6</ele>
        <time>2022-02-10T14:27:17Z</time>
      </trkpt>
      <trkpt lat="46.02657" lon="6.20347">
        <ele>742.4</ele>
        <time>2022-02-10T14:27:21Z</time>
      </trkpt>
      <trkpt lat="46.02665" lon="6.20353">
        <ele>742.8</ele>
        <time>2022-02-10T14:27:23Z</time>
      </trkpt>
      <trkpt lat="46.02685" lon="6.2037">
        <ele>743.4</ele>
        <time>2022-02-10T14:27:28Z</time>
      </trkpt>
      <trkpt lat="46.02696" lon="6.20381">
        <ele>743.8</ele>
        <time>2022-02-10T14:27:31Z</time>
      </trkpt>
      <trkpt lat="46.02714" lon="6.204">
        <ele>744.6</ele>
        <time>2022-02-10T14:27:36Z</time>
      </trkpt>
      <trkpt lat="46.02718" lon="6.20404">
        <ele>744.8</ele>
        <time>2022-02-10T14:27:37Z</time>
      </trkpt>
      <trkpt lat="46.02743" lon="6.20434">
        <ele>746</ele>
        <time>2022-02-10T14:27:44Z</time>
      </trkpt>
      <trkpt lat="46.02747" lon="6.20439">
        <ele>746</ele>
        <time>2022-02-10T14:27:45Z</time>
      </trkpt>
      <trkpt lat="46.0277" lon="6.20469">
        <ele>746.6</ele>
        <time>2022-02-10T14:27:51Z</time>
      </trkpt>
      <trkpt lat="46.02774" lon="6.20475">
        <ele>746.6</ele>
        <time>2022-02-10T14:27:52Z</time>
      </trkpt>
      <trkpt lat="46.02787" lon="6.20505">
        <ele>746.6</ele>
        <time>2022-02-10T14:27:56Z</time>
      </trkpt>
      <trkpt lat="46.02793" lon="6.2052">
        <ele>746.8</ele>
        <time>2022-02-10T14:27:58Z</time>
      </trkpt>
      <trkpt lat="46.02802" lon="6.2054">
        <ele>747</ele>
        <time>2022-02-10T14:28:01Z</time>
      </trkpt>
      <trkpt lat="46.02805" lon="6.20546">
        <ele>747.2</ele>
        <time>2022-02-10T14:28:02Z</time>
      </trkpt>
      <trkpt lat="46.02811" lon="6.20557">
        <ele>747.6</ele>
        <time>2022-02-10T14:28:04Z</time>
      </trkpt>
      <trkpt lat="46.02823" lon="6.20577">
        <ele>747.6</ele>
        <time>2022-02-10T14:28:08Z</time>
      </trkpt>
      <trkpt lat="46.0283" lon="6.20591">
        <ele>748.4</ele>
        <time>2022-02-10T14:28:11Z</time>
      </trkpt>
      <trkpt lat="46.02836" lon="6.206">
        <ele>749.2</ele>
        <time>2022-02-10T14:28:13Z</time>
      </trkpt>
      <trkpt lat="46.02846" lon="6.20616">
        <ele>750.6</ele>
        <time>2022-02-10T14:28:17Z</time>
      </trkpt>
      <trkpt lat="46.02851" lon="6.20623">
        <ele>751.4</ele>
        <time>2022-02-10T14:28:19Z</time>
      </trkpt>
      <trkpt lat="46.02857" lon="6.20634">
        <ele>752.2</ele>
        <time>2022-02-10T14:28:22Z</time>
      </trkpt>
      <trkpt lat="46.02868" lon="6.20648">
        <ele>753.4</ele>
        <time>2022-02-10T14:28:26Z</time>
      </trkpt>
      <trkpt lat="46.02878" lon="6.2066">
        <ele>754.4</ele>
        <time>2022-02-10T14:28:30Z</time>
      </trkpt>
      <trkpt lat="46.02881" lon="6.20662">
        <ele>754.6</ele>
        <time>2022-02-10T14:28:31Z</time>
      </trkpt>
      <trkpt lat="46.02891" lon="6.20673">
        <ele>755.6</ele>
        <time>2022-02-10T14:28:35Z</time>
      </trkpt>
      <trkpt lat="46.02902" lon="6.20683">
        <ele>756.8</ele>
        <time>2022-02-10T14:28:39Z</time>
      </trkpt>
      <trkpt lat="46.02912" lon="6.20691">
        <ele>757.8</ele>
        <time>2022-02-10T14:28:43Z</time>
      </trkpt>
      <trkpt lat="46.02915" lon="6.20693">
        <ele>758.2</ele>
        <time>2022-02-10T14:28:44Z</time>
      </trkpt>
      <trkpt lat="46.02927" lon="6.20699">
        <ele>759.2</ele>
        <time>2022-02-10T14:28:48Z</time>
      </trkpt>
      <trkpt lat="46.02946" lon="6.20707">
        <ele>761.2</ele>
        <time>2022-02-10T14:28:54Z</time>
      </trkpt>
      <trkpt lat="46.02959" lon="6.20711">
        <ele>761.8</ele>
        <time>2022-02-10T14:28:58Z</time>
      </trkpt>
      <trkpt lat="46.02974" lon="6.20717">
        <ele>762.6</ele>
        <time>2022-02-10T14:29:03Z</time>
      </trkpt>
      <trkpt lat="46.02989" lon="6.20722">
        <ele>763.8</ele>
        <time>2022-02-10T14:29:08Z</time>
      </trkpt>
      <trkpt lat="46.03004" lon="6.20726">
        <ele>765.2</ele>
        <time>2022-02-10T14:29:13Z</time>
      </trkpt>
      <trkpt lat="46.03018" lon="6.20728">
        <ele>766.4</ele>
        <time>2022-02-10T14:29:18Z</time>
      </trkpt>
      <trkpt lat="46.03027" lon="6.20727">
        <ele>767.2</ele>
        <time>2022-02-10T14:29:21Z</time>
      </trkpt>
      <trkpt lat="46.03036" lon="6.20724">
        <ele>767.6</ele>
        <time>2022-02-10T14:29:24Z</time>
      </trkpt>
      <trkpt lat="46.03045" lon="6.20719">
        <ele>768.6</ele>
        <time>2022-02-10T14:29:28Z</time>
      </trkpt>
      <trkpt lat="46.03048" lon="6.20718">
        <ele>768.8</ele>
        <time>2022-02-10T14:29:29Z</time>
      </trkpt>
      <trkpt lat="46.03062" lon="6.20714">
        <ele>770</ele>
        <time>2022-02-10T14:29:34Z</time>
      </trkpt>
      <trkpt lat="46.03068" lon="6.20712">
        <ele>770.4</ele>
        <time>2022-02-10T14:29:36Z</time>
      </trkpt>
      <trkpt lat="46.03076" lon="6.20708">
        <ele>771.2</ele>
        <time>2022-02-10T14:29:39Z</time>
      </trkpt>
      <trkpt lat="46.0309" lon="6.20702">
        <ele>772.2</ele>
        <time>2022-02-10T14:29:44Z</time>
      </trkpt>
      <trkpt lat="46.031" lon="6.20697">
        <ele>773.2</ele>
        <time>2022-02-10T14:29:48Z</time>
      </trkpt>
      <trkpt lat="46.03105" lon="6.20696">
        <ele>773.8</ele>
        <time>2022-02-10T14:29:50Z</time>
      </trkpt>
      <trkpt lat="46.03113" lon="6.20696">
        <ele>774.4</ele>
        <time>2022-02-10T14:29:53Z</time>
      </trkpt>
      <trkpt lat="46.03123" lon="6.20696">
        <ele>775.6</ele>
        <time>2022-02-10T14:29:57Z</time>
      </trkpt>
      <trkpt lat="46.03128" lon="6.20697">
        <ele>776</ele>
        <time>2022-02-10T14:29:59Z</time>
      </trkpt>
      <trkpt lat="46.03135" lon="6.207">
        <ele>776.4</ele>
        <time>2022-02-10T14:30:02Z</time>
      </trkpt>
      <trkpt lat="46.03147" lon="6.20708">
        <ele>777.8</ele>
        <time>2022-02-10T14:30:07Z</time>
      </trkpt>
      <trkpt lat="46.03168" lon="6.20729">
        <ele>779.8</ele>
        <time>2022-02-10T14:30:15Z</time>
      </trkpt>
      <trkpt lat="46.03174" lon="6.20734">
        <ele>780</ele>
        <time>2022-02-10T14:30:17Z</time>
      </trkpt>
      <trkpt lat="46.03193" lon="6.20751">
        <ele>780.6</ele>
        <time>2022-02-10T14:30:23Z</time>
      </trkpt>
      <trkpt lat="46.03221" lon="6.20777">
        <ele>781.2</ele>
        <time>2022-02-10T14:30:31Z</time>
      </trkpt>
      <trkpt lat="46.0325" lon="6.20801">
        <ele>781.4</ele>
        <time>2022-02-10T14:30:38Z</time>
      </trkpt>
      <trkpt lat="46.03278" lon="6.20823">
        <ele>781.4</ele>
        <time>2022-02-10T14:30:44Z</time>
      </trkpt>
      <trkpt lat="46.03288" lon="6.20829">
        <ele>781.6</ele>
        <time>2022-02-10T14:30:46Z</time>
      </trkpt>
      <trkpt lat="46.03297" lon="6.20836">
        <ele>781.6</ele>
        <time>2022-02-10T14:30:48Z</time>
      </trkpt>
      <trkpt lat="46.03326" lon="6.20855">
        <ele>782.6</ele>
        <time>2022-02-10T14:30:54Z</time>
      </trkpt>
      <trkpt lat="46.0334" lon="6.20863">
        <ele>783.2</ele>
        <time>2022-02-10T14:30:57Z</time>
      </trkpt>
      <trkpt lat="46.03363" lon="6.20878">
        <ele>783.4</ele>
        <time>2022-02-10T14:31:02Z</time>
      </trkpt>
      <trkpt lat="46.03368" lon="6.2088">
        <ele>783.8</ele>
        <time>2022-02-10T14:31:03Z</time>
      </trkpt>
      <trkpt lat="46.03407" lon="6.20901">
        <ele>785.4</ele>
        <time>2022-02-10T14:31:11Z</time>
      </trkpt>
      <trkpt lat="46.03412" lon="6.20903">
        <ele>785.4</ele>
        <time>2022-02-10T14:31:12Z</time>
      </trkpt>
      <trkpt lat="46.03454" lon="6.2092">
        <ele>786.6</ele>
        <time>2022-02-10T14:31:20Z</time>
      </trkpt>
      <trkpt lat="46.0347" lon="6.20927">
        <ele>786.8</ele>
        <time>2022-02-10T14:31:23Z</time>
      </trkpt>
      <trkpt lat="46.03495" lon="6.20937">
        <ele>787.4</ele>
        <time>2022-02-10T14:31:28Z</time>
      </trkpt>
      <trkpt lat="46.03541" lon="6.20955">
        <ele>788.8</ele>
        <time>2022-02-10T14:31:37Z</time>
      </trkpt>
      <trkpt lat="46.0357" lon="6.20966">
        <ele>789.8</ele>
        <time>2022-02-10T14:31:43Z</time>
      </trkpt>
      <trkpt lat="46.03575" lon="6.20968">
        <ele>789.8</ele>
        <time>2022-02-10T14:31:44Z</time>
      </trkpt>
      <trkpt lat="46.03603" lon="6.20979">
        <ele>791</ele>
        <time>2022-02-10T14:31:50Z</time>
      </trkpt>
      <trkpt lat="46.03618" lon="6.20986">
        <ele>791.8</ele>
        <time>2022-02-10T14:31:53Z</time>
      </trkpt>
      <trkpt lat="46.03646" lon="6.21">
        <ele>792</ele>
        <time>2022-02-10T14:31:58Z</time>
      </trkpt>
      <trkpt lat="46.03662" lon="6.21012">
        <ele>792.4</ele>
        <time>2022-02-10T14:32:01Z</time>
      </trkpt>
      <trkpt lat="46.03673" lon="6.21023">
        <ele>792.2</ele>
        <time>2022-02-10T14:32:03Z</time>
      </trkpt>
      <trkpt lat="46.03685" lon="6.21037">
        <ele>792.4</ele>
        <time>2022-02-10T14:32:05Z</time>
      </trkpt>
      <trkpt lat="46.03703" lon="6.21061">
        <ele>792.2</ele>
        <time>2022-02-10T14:32:08Z</time>
      </trkpt>
      <trkpt lat="46.03713" lon="6.21079">
        <ele>792.2</ele>
        <time>2022-02-10T14:32:10Z</time>
      </trkpt>
      <trkpt lat="46.03722" lon="6.21099">
        <ele>791.8</ele>
        <time>2022-02-10T14:32:12Z</time>
      </trkpt>
      <trkpt lat="46.03728" lon="6.21119">
        <ele>790.6</ele>
        <time>2022-02-10T14:32:14Z</time>
      </trkpt>
      <trkpt lat="46.03733" lon="6.21136">
        <ele>789.8</ele>
        <time>2022-02-10T14:32:16Z</time>
      </trkpt>
      <trkpt lat="46.03735" lon="6.21144">
        <ele>790</ele>
        <time>2022-02-10T14:32:17Z</time>
      </trkpt>
      <trkpt lat="46.03737" lon="6.21151">
        <ele>789.8</ele>
        <time>2022-02-10T14:32:18Z</time>
      </trkpt>
      <trkpt lat="46.03746" lon="6.21177">
        <ele>789.8</ele>
        <time>2022-02-10T14:32:22Z</time>
      </trkpt>
      <trkpt lat="46.03759" lon="6.2121">
        <ele>792.2</ele>
        <time>2022-02-10T14:32:28Z</time>
      </trkpt>
      <trkpt lat="46.03761" lon="6.21216">
        <ele>792.8</ele>
        <time>2022-02-10T14:32:29Z</time>
      </trkpt>
      <trkpt lat="46.03776" lon="6.21242">
        <ele>794</ele>
        <time>2022-02-10T14:32:34Z</time>
      </trkpt>
      <trkpt lat="46.03791" lon="6.21265">
        <ele>795.2</ele>
        <time>2022-02-10T14:32:39Z</time>
      </trkpt>
      <trkpt lat="46.03804" lon="6.21283">
        <ele>795.8</ele>
        <time>2022-02-10T14:32:43Z</time>
      </trkpt>
      <trkpt lat="46.03824" lon="6.21309">
        <ele>797</ele>
        <time>2022-02-10T14:32:49Z</time>
      </trkpt>
      <trkpt lat="46.0384" lon="6.2133">
        <ele>798.2</ele>
        <time>2022-02-10T14:32:54Z</time>
      </trkpt>
      <trkpt lat="46.03856" lon="6.21352">
        <ele>799.6</ele>
        <time>2022-02-10T14:32:59Z</time>
      </trkpt>
      <trkpt lat="46.03858" lon="6.21357">
        <ele>799.8</ele>
        <time>2022-02-10T14:33:00Z</time>
      </trkpt>
      <trkpt lat="46.03881" lon="6.21402">
        <ele>801.6</ele>
        <time>2022-02-10T14:33:09Z</time>
      </trkpt>
      <trkpt lat="46.03884" lon="6.21407">
        <ele>801.6</ele>
        <time>2022-02-10T14:33:10Z</time>
      </trkpt>
      <trkpt lat="46.03904" lon="6.21449">
        <ele>802.6</ele>
        <time>2022-02-10T14:33:18Z</time>
      </trkpt>
      <trkpt lat="46.03927" lon="6.21489">
        <ele>803.4</ele>
        <time>2022-02-10T14:33:25Z</time>
      </trkpt>
      <trkpt lat="46.03968" lon="6.21534">
        <ele>803</ele>
        <time>2022-02-10T14:33:34Z</time>
      </trkpt>
      <trkpt lat="46.04007" lon="6.21567">
        <ele>802.8</ele>
        <time>2022-02-10T14:33:41Z</time>
      </trkpt>
      <trkpt lat="46.0404" lon="6.21586">
        <ele>802.8</ele>
        <time>2022-02-10T14:33:46Z</time>
      </trkpt>
      <trkpt lat="46.04054" lon="6.21592">
        <ele>802.6</ele>
        <time>2022-02-10T14:33:48Z</time>
      </trkpt>
      <trkpt lat="46.04109" lon="6.21615">
        <ele>802.4</ele>
        <time>2022-02-10T14:33:56Z</time>
      </trkpt>
      <trkpt lat="46.04115" lon="6.21618">
        <ele>802.2</ele>
        <time>2022-02-10T14:33:57Z</time>
      </trkpt>
      <trkpt lat="46.04141" lon="6.21628">
        <ele>802.2</ele>
        <time>2022-02-10T14:34:01Z</time>
      </trkpt>
      <trkpt lat="46.04148" lon="6.2163">
        <ele>802.2</ele>
        <time>2022-02-10T14:34:02Z</time>
      </trkpt>
      <trkpt lat="46.04192" lon="6.21654">
        <ele>802.4</ele>
        <time>2022-02-10T14:34:09Z</time>
      </trkpt>
      <trkpt lat="46.04227" lon="6.21688">
        <ele>802.4</ele>
        <time>2022-02-10T14:34:15Z</time>
      </trkpt>
      <trkpt lat="46.04232" lon="6.21694">
        <ele>802.4</ele>
        <time>2022-02-10T14:34:16Z</time>
      </trkpt>
      <trkpt lat="46.04251" lon="6.21714">
        <ele>802.6</ele>
        <time>2022-02-10T14:34:20Z</time>
      </trkpt>
      <trkpt lat="46.04259" lon="6.21723">
        <ele>802.8</ele>
        <time>2022-02-10T14:34:22Z</time>
      </trkpt>
      <trkpt lat="46.04267" lon="6.21732">
        <ele>803.2</ele>
        <time>2022-02-10T14:34:24Z</time>
      </trkpt>
      <trkpt lat="46.04275" lon="6.2174">
        <ele>804</ele>
        <time>2022-02-10T14:34:26Z</time>
      </trkpt>
      <trkpt lat="46.04279" lon="6.21744">
        <ele>804.2</ele>
        <time>2022-02-10T14:34:27Z</time>
      </trkpt>
      <trkpt lat="46.04293" lon="6.21758">
        <ele>805.6</ele>
        <time>2022-02-10T14:34:31Z</time>
      </trkpt>
      <trkpt lat="46.04306" lon="6.21773">
        <ele>807.2</ele>
        <time>2022-02-10T14:34:35Z</time>
      </trkpt>
      <trkpt lat="46.0431" lon="6.21776">
        <ele>807.4</ele>
        <time>2022-02-10T14:34:36Z</time>
      </trkpt>
      <trkpt lat="46.04324" lon="6.21789">
        <ele>808.8</ele>
        <time>2022-02-10T14:34:40Z</time>
      </trkpt>
      <trkpt lat="46.04338" lon="6.21801">
        <ele>809.6</ele>
        <time>2022-02-10T14:34:44Z</time>
      </trkpt>
      <trkpt lat="46.04352" lon="6.21822">
        <ele>810.8</ele>
        <time>2022-02-10T14:34:49Z</time>
      </trkpt>
      <trkpt lat="46.04354" lon="6.21828">
        <ele>811.2</ele>
        <time>2022-02-10T14:34:50Z</time>
      </trkpt>
      <trkpt lat="46.04356" lon="6.21838">
        <ele>811.8</ele>
        <time>2022-02-10T14:34:52Z</time>
      </trkpt>
      <trkpt lat="46.04357" lon="6.21844">
        <ele>812</ele>
        <time>2022-02-10T14:34:53Z</time>
      </trkpt>
      <trkpt lat="46.04358" lon="6.21854">
        <ele>812.4</ele>
        <time>2022-02-10T14:34:55Z</time>
      </trkpt>
      <trkpt lat="46.04358" lon="6.21864">
        <ele>812.6</ele>
        <time>2022-02-10T14:34:57Z</time>
      </trkpt>
      <trkpt lat="46.04359" lon="6.21886">
        <ele>813.8</ele>
        <time>2022-02-10T14:35:02Z</time>
      </trkpt>
      <trkpt lat="46.04362" lon="6.21908">
        <ele>815.6</ele>
        <time>2022-02-10T14:35:07Z</time>
      </trkpt>
      <trkpt lat="46.04367" lon="6.21926">
        <ele>816.4</ele>
        <time>2022-02-10T14:35:11Z</time>
      </trkpt>
      <trkpt lat="46.04372" lon="6.2194">
        <ele>817.4</ele>
        <time>2022-02-10T14:35:14Z</time>
      </trkpt>
      <trkpt lat="46.04387" lon="6.21982">
        <ele>818.8</ele>
        <time>2022-02-10T14:35:22Z</time>
      </trkpt>
      <trkpt lat="46.04394" lon="6.21999">
        <ele>819</ele>
        <time>2022-02-10T14:35:25Z</time>
      </trkpt>
      <trkpt lat="46.04408" lon="6.22037">
        <ele>819.8</ele>
        <time>2022-02-10T14:35:32Z</time>
      </trkpt>
      <trkpt lat="46.04419" lon="6.22058">
        <ele>820.2</ele>
        <time>2022-02-10T14:35:36Z</time>
      </trkpt>
      <trkpt lat="46.04432" lon="6.22076">
        <ele>820.8</ele>
        <time>2022-02-10T14:35:40Z</time>
      </trkpt>
      <trkpt lat="46.0445" lon="6.22096">
        <ele>821.2</ele>
        <time>2022-02-10T14:35:45Z</time>
      </trkpt>
      <trkpt lat="46.04462" lon="6.22108">
        <ele>821.4</ele>
        <time>2022-02-10T14:35:48Z</time>
      </trkpt>
      <trkpt lat="46.04498" lon="6.22145">
        <ele>822.8</ele>
        <time>2022-02-10T14:35:57Z</time>
      </trkpt>
      <trkpt lat="46.04502" lon="6.22149">
        <ele>822.8</ele>
        <time>2022-02-10T14:35:58Z</time>
      </trkpt>
      <trkpt lat="46.04541" lon="6.22191">
        <ele>823.4</ele>
        <time>2022-02-10T14:36:07Z</time>
      </trkpt>
      <trkpt lat="46.04576" lon="6.22246">
        <ele>823.8</ele>
        <time>2022-02-10T14:36:16Z</time>
      </trkpt>
      <trkpt lat="46.046" lon="6.22289">
        <ele>824</ele>
        <time>2022-02-10T14:36:23Z</time>
      </trkpt>
      <trkpt lat="46.04604" lon="6.22296">
        <ele>824.2</ele>
        <time>2022-02-10T14:36:24Z</time>
      </trkpt>
      <trkpt lat="46.04636" lon="6.22351">
        <ele>824.6</ele>
        <time>2022-02-10T14:36:32Z</time>
      </trkpt>
      <trkpt lat="46.04665" lon="6.22394">
        <ele>824.6</ele>
        <time>2022-02-10T14:36:38Z</time>
      </trkpt>
      <trkpt lat="46.04683" lon="6.22415">
        <ele>824.4</ele>
        <time>2022-02-10T14:36:41Z</time>
      </trkpt>
      <trkpt lat="46.04703" lon="6.22437">
        <ele>824.2</ele>
        <time>2022-02-10T14:36:44Z</time>
      </trkpt>
      <trkpt lat="46.0471" lon="6.22444">
        <ele>824</ele>
        <time>2022-02-10T14:36:45Z</time>
      </trkpt>
      <trkpt lat="46.04755" lon="6.22495">
        <ele>822</ele>
        <time>2022-02-10T14:36:52Z</time>
      </trkpt>
      <trkpt lat="46.04774" lon="6.22516">
        <ele>821.6</ele>
        <time>2022-02-10T14:36:55Z</time>
      </trkpt>
      <trkpt lat="46.04802" lon="6.22547">
        <ele>821.6</ele>
        <time>2022-02-10T14:37:00Z</time>
      </trkpt>
      <trkpt lat="46.04807" lon="6.22552">
        <ele>821.6</ele>
        <time>2022-02-10T14:37:01Z</time>
      </trkpt>
      <trkpt lat="46.04811" lon="6.22557">
        <ele>821.6</ele>
        <time>2022-02-10T14:37:02Z</time>
      </trkpt>
      <trkpt lat="46.04824" lon="6.22571">
        <ele>822</ele>
        <time>2022-02-10T14:37:05Z</time>
      </trkpt>
      <trkpt lat="46.0483" lon="6.2258">
        <ele>822.2</ele>
        <time>2022-02-10T14:37:07Z</time>
      </trkpt>
      <trkpt lat="46.04833" lon="6.22585">
        <ele>822.6</ele>
        <time>2022-02-10T14:37:08Z</time>
      </trkpt>
      <trkpt lat="46.04841" lon="6.226">
        <ele>824.4</ele>
        <time>2022-02-10T14:37:11Z</time>
      </trkpt>
      <trkpt lat="46.04847" lon="6.2261">
        <ele>825</ele>
        <time>2022-02-10T14:37:13Z</time>
      </trkpt>
      <trkpt lat="46.04856" lon="6.22633">
        <ele>826.8</ele>
        <time>2022-02-10T14:37:17Z</time>
      </trkpt>
      <trkpt lat="46.0486" lon="6.22644">
        <ele>827.4</ele>
        <time>2022-02-10T14:37:19Z</time>
      </trkpt>
      <trkpt lat="46.04865" lon="6.22661">
        <ele>828.4</ele>
        <time>2022-02-10T14:37:22Z</time>
      </trkpt>
      <trkpt lat="46.04872" lon="6.22685">
        <ele>829.2</ele>
        <time>2022-02-10T14:37:26Z</time>
      </trkpt>
      <trkpt lat="46.04876" lon="6.22696">
        <ele>829.8</ele>
        <time>2022-02-10T14:37:28Z</time>
      </trkpt>
      <trkpt lat="46.04879" lon="6.22707">
        <ele>830.4</ele>
        <time>2022-02-10T14:37:30Z</time>
      </trkpt>
      <trkpt lat="46.04886" lon="6.22721">
        <ele>830.8</ele>
        <time>2022-02-10T14:37:33Z</time>
      </trkpt>
      <trkpt lat="46.04889" lon="6.22724">
        <ele>830.8</ele>
        <time>2022-02-10T14:37:34Z</time>
      </trkpt>
      <trkpt lat="46.04895" lon="6.2273">
        <ele>830.8</ele>
        <time>2022-02-10T14:37:36Z</time>
      </trkpt>
      <trkpt lat="46.04908" lon="6.22738">
        <ele>832.4</ele>
        <time>2022-02-10T14:37:40Z</time>
      </trkpt>
      <trkpt lat="46.04911" lon="6.2274">
        <ele>832.6</ele>
        <time>2022-02-10T14:37:41Z</time>
      </trkpt>
      <trkpt lat="46.04927" lon="6.2275">
        <ele>834</ele>
        <time>2022-02-10T14:37:46Z</time>
      </trkpt>
      <trkpt lat="46.04933" lon="6.22754">
        <ele>834.6</ele>
        <time>2022-02-10T14:37:48Z</time>
      </trkpt>
      <trkpt lat="46.04941" lon="6.2276">
        <ele>835.4</ele>
        <time>2022-02-10T14:37:51Z</time>
      </trkpt>
      <trkpt lat="46.04952" lon="6.22769">
        <ele>836.4</ele>
        <time>2022-02-10T14:37:55Z</time>
      </trkpt>
      <trkpt lat="46.04973" lon="6.22788">
        <ele>838.4</ele>
        <time>2022-02-10T14:38:02Z</time>
      </trkpt>
      <trkpt lat="46.04979" lon="6.22794">
        <ele>839</ele>
        <time>2022-02-10T14:38:04Z</time>
      </trkpt>
      <trkpt lat="46.05007" lon="6.22819">
        <ele>840.2</ele>
        <time>2022-02-10T14:38:12Z</time>
      </trkpt>
      <trkpt lat="46.05032" lon="6.22844">
        <ele>840.8</ele>
        <time>2022-02-10T14:38:18Z</time>
      </trkpt>
      <trkpt lat="46.05041" lon="6.22854">
        <ele>840.8</ele>
        <time>2022-02-10T14:38:20Z</time>
      </trkpt>
      <trkpt lat="46.05058" lon="6.22881">
        <ele>840.6</ele>
        <time>2022-02-10T14:38:24Z</time>
      </trkpt>
      <trkpt lat="46.05062" lon="6.22889">
        <ele>840.6</ele>
        <time>2022-02-10T14:38:25Z</time>
      </trkpt>
      <trkpt lat="46.05089" lon="6.22944">
        <ele>839.8</ele>
        <time>2022-02-10T14:38:32Z</time>
      </trkpt>
      <trkpt lat="46.05123" lon="6.23006">
        <ele>838.8</ele>
        <time>2022-02-10T14:38:40Z</time>
      </trkpt>
      <trkpt lat="46.05137" lon="6.23028">
        <ele>839</ele>
        <time>2022-02-10T14:38:43Z</time>
      </trkpt>
      <trkpt lat="46.05171" lon="6.2306">
        <ele>839.4</ele>
        <time>2022-02-10T14:38:49Z</time>
      </trkpt>
      <trkpt lat="46.05176" lon="6.23065">
        <ele>839.4</ele>
        <time>2022-02-10T14:38:50Z</time>
      </trkpt>
      <trkpt lat="46.05192" lon="6.23078">
        <ele>839.8</ele>
        <time>2022-02-10T14:38:53Z</time>
      </trkpt>
      <trkpt lat="46.052" lon="6.23084">
        <ele>839.8</ele>
        <time>2022-02-10T14:38:55Z</time>
      </trkpt>
      <trkpt lat="46.05207" lon="6.23085">
        <ele>839.8</ele>
        <time>2022-02-10T14:38:57Z</time>
      </trkpt>
      <trkpt lat="46.0521" lon="6.23082">
        <ele>840</ele>
        <time>2022-02-10T14:38:58Z</time>
      </trkpt>
      <trkpt lat="46.05219" lon="6.2306">
        <ele>841.6</ele>
        <time>2022-02-10T14:39:03Z</time>
      </trkpt>
      <trkpt lat="46.05221" lon="6.23055">
        <ele>842.2</ele>
        <time>2022-02-10T14:39:04Z</time>
      </trkpt>
      <trkpt lat="46.05224" lon="6.23044">
        <ele>842.6</ele>
        <time>2022-02-10T14:39:06Z</time>
      </trkpt>
      <trkpt lat="46.05227" lon="6.23033">
        <ele>843</ele>
        <time>2022-02-10T14:39:08Z</time>
      </trkpt>
      <trkpt lat="46.05231" lon="6.23016">
        <ele>843.4</ele>
        <time>2022-02-10T14:39:11Z</time>
      </trkpt>
      <trkpt lat="46.05232" lon="6.2301">
        <ele>843.8</ele>
        <time>2022-02-10T14:39:12Z</time>
      </trkpt>
      <trkpt lat="46.05238" lon="6.22975">
        <ele>845.2</ele>
        <time>2022-02-10T14:39:18Z</time>
      </trkpt>
      <trkpt lat="46.05242" lon="6.22922">
        <ele>847</ele>
        <time>2022-02-10T14:39:27Z</time>
      </trkpt>
      <trkpt lat="46.05241" lon="6.22892">
        <ele>847.6</ele>
        <time>2022-02-10T14:39:32Z</time>
      </trkpt>
      <trkpt lat="46.0524" lon="6.22868">
        <ele>848.2</ele>
        <time>2022-02-10T14:39:36Z</time>
      </trkpt>
      <trkpt lat="46.05239" lon="6.22844">
        <ele>849.2</ele>
        <time>2022-02-10T14:39:40Z</time>
      </trkpt>
      <trkpt lat="46.05238" lon="6.22828">
        <ele>850</ele>
        <time>2022-02-10T14:39:43Z</time>
      </trkpt>
      <trkpt lat="46.05237" lon="6.2281">
        <ele>850.2</ele>
        <time>2022-02-10T14:39:46Z</time>
      </trkpt>
      <trkpt lat="46.05235" lon="6.22785">
        <ele>850.6</ele>
        <time>2022-02-10T14:39:50Z</time>
      </trkpt>
      <trkpt lat="46.05233" lon="6.22749">
        <ele>851.6</ele>
        <time>2022-02-10T14:39:56Z</time>
      </trkpt>
      <trkpt lat="46.05233" lon="6.22725">
        <ele>853.2</ele>
        <time>2022-02-10T14:40:00Z</time>
      </trkpt>
      <trkpt lat="46.05234" lon="6.22708">
        <ele>853.4</ele>
        <time>2022-02-10T14:40:03Z</time>
      </trkpt>
      <trkpt lat="46.05238" lon="6.2266">
        <ele>854.6</ele>
        <time>2022-02-10T14:40:11Z</time>
      </trkpt>
      <trkpt lat="46.05238" lon="6.22653">
        <ele>855</ele>
        <time>2022-02-10T14:40:12Z</time>
      </trkpt>
      <trkpt lat="46.05239" lon="6.22642">
        <ele>855.2</ele>
        <time>2022-02-10T14:40:14Z</time>
      </trkpt>
      <trkpt lat="46.05243" lon="6.22632">
        <ele>855.6</ele>
        <time>2022-02-10T14:40:16Z</time>
      </trkpt>
      <trkpt lat="46.05252" lon="6.22629">
        <ele>856</ele>
        <time>2022-02-10T14:40:18Z</time>
      </trkpt>
      <trkpt lat="46.05257" lon="6.22629">
        <ele>856</ele>
        <time>2022-02-10T14:40:19Z</time>
      </trkpt>
      <trkpt lat="46.05299" lon="6.22632">
        <ele>856.2</ele>
        <time>2022-02-10T14:40:27Z</time>
      </trkpt>
      <trkpt lat="46.05341" lon="6.22628">
        <ele>856</ele>
        <time>2022-02-10T14:40:35Z</time>
      </trkpt>
      <trkpt lat="46.05356" lon="6.22623">
        <ele>856.2</ele>
        <time>2022-02-10T14:40:38Z</time>
      </trkpt>
      <trkpt lat="46.05376" lon="6.22614">
        <ele>856.4</ele>
        <time>2022-02-10T14:40:42Z</time>
      </trkpt>
      <trkpt lat="46.05386" lon="6.22611">
        <ele>856.6</ele>
        <time>2022-02-10T14:40:44Z</time>
      </trkpt>
      <trkpt lat="46.05402" lon="6.22607">
        <ele>856.6</ele>
        <time>2022-02-10T14:40:47Z</time>
      </trkpt>
      <trkpt lat="46.05413" lon="6.22609">
        <ele>856.8</ele>
        <time>2022-02-10T14:40:49Z</time>
      </trkpt>
      <trkpt lat="46.05418" lon="6.2261">
        <ele>857</ele>
        <time>2022-02-10T14:40:50Z</time>
      </trkpt>
      <trkpt lat="46.05448" lon="6.22628">
        <ele>858</ele>
        <time>2022-02-10T14:40:56Z</time>
      </trkpt>
      <trkpt lat="46.05472" lon="6.22643">
        <ele>859</ele>
        <time>2022-02-10T14:41:01Z</time>
      </trkpt>
      <trkpt lat="46.05492" lon="6.2265">
        <ele>859.8</ele>
        <time>2022-02-10T14:41:05Z</time>
      </trkpt>
      <trkpt lat="46.05496" lon="6.22652">
        <ele>860</ele>
        <time>2022-02-10T14:41:06Z</time>
      </trkpt>
      <trkpt lat="46.05514" lon="6.22658">
        <ele>860.8</ele>
        <time>2022-02-10T14:41:10Z</time>
      </trkpt>
      <trkpt lat="46.0553" lon="6.22663">
        <ele>861.6</ele>
        <time>2022-02-10T14:41:14Z</time>
      </trkpt>
      <trkpt lat="46.05546" lon="6.22668">
        <ele>862.8</ele>
        <time>2022-02-10T14:41:18Z</time>
      </trkpt>
      <trkpt lat="46.0556" lon="6.22672">
        <ele>863.8</ele>
        <time>2022-02-10T14:41:22Z</time>
      </trkpt>
      <trkpt lat="46.05564" lon="6.22673">
        <ele>864.4</ele>
        <time>2022-02-10T14:41:23Z</time>
      </trkpt>
      <trkpt lat="46.05574" lon="6.22676">
        <ele>865</ele>
        <time>2022-02-10T14:41:26Z</time>
      </trkpt>
      <trkpt lat="46.05585" lon="6.22681">
        <ele>866.4</ele>
        <time>2022-02-10T14:41:30Z</time>
      </trkpt>
      <trkpt lat="46.05597" lon="6.22685">
        <ele>867.4</ele>
        <time>2022-02-10T14:41:34Z</time>
      </trkpt>
      <trkpt lat="46.05606" lon="6.22687">
        <ele>868.4</ele>
        <time>2022-02-10T14:41:37Z</time>
      </trkpt>
      <trkpt lat="46.05613" lon="6.22687">
        <ele>869.2</ele>
        <time>2022-02-10T14:41:39Z</time>
      </trkpt>
      <trkpt lat="46.05632" lon="6.22683">
        <ele>870.4</ele>
        <time>2022-02-10T14:41:45Z</time>
      </trkpt>
      <trkpt lat="46.05648" lon="6.2268">
        <ele>871.6</ele>
        <time>2022-02-10T14:41:50Z</time>
      </trkpt>
      <trkpt lat="46.05661" lon="6.22677">
        <ele>872.2</ele>
        <time>2022-02-10T14:41:54Z</time>
      </trkpt>
      <trkpt lat="46.05667" lon="6.22675">
        <ele>872.4</ele>
        <time>2022-02-10T14:41:56Z</time>
      </trkpt>
      <trkpt lat="46.05682" lon="6.2267">
        <ele>873.2</ele>
        <time>2022-02-10T14:42:01Z</time>
      </trkpt>
      <trkpt lat="46.05688" lon="6.22668">
        <ele>873.6</ele>
        <time>2022-02-10T14:42:03Z</time>
      </trkpt>
      <trkpt lat="46.05696" lon="6.22663">
        <ele>874.2</ele>
        <time>2022-02-10T14:42:06Z</time>
      </trkpt>
      <trkpt lat="46.05703" lon="6.22657">
        <ele>874.8</ele>
        <time>2022-02-10T14:42:09Z</time>
      </trkpt>
      <trkpt lat="46.05705" lon="6.22654">
        <ele>875.2</ele>
        <time>2022-02-10T14:42:10Z</time>
      </trkpt>
      <trkpt lat="46.05711" lon="6.22647">
        <ele>875.8</ele>
        <time>2022-02-10T14:42:13Z</time>
      </trkpt>
      <trkpt lat="46.05715" lon="6.22639">
        <ele>876.6</ele>
        <time>2022-02-10T14:42:16Z</time>
      </trkpt>
      <trkpt lat="46.05717" lon="6.22634">
        <ele>877.4</ele>
        <time>2022-02-10T14:42:18Z</time>
      </trkpt>
      <trkpt lat="46.05724" lon="6.22622">
        <ele>878.4</ele>
        <time>2022-02-10T14:42:22Z</time>
      </trkpt>
      <trkpt lat="46.05725" lon="6.22619">
        <ele>878.8</ele>
        <time>2022-02-10T14:42:23Z</time>
      </trkpt>
      <trkpt lat="46.05731" lon="6.22605">
        <ele>879.6</ele>
        <time>2022-02-10T14:42:27Z</time>
      </trkpt>
      <trkpt lat="46.05738" lon="6.22592">
        <ele>880.8</ele>
        <time>2022-02-10T14:42:31Z</time>
      </trkpt>
      <trkpt lat="46.05746" lon="6.22575">
        <ele>882</ele>
        <time>2022-02-10T14:42:36Z</time>
      </trkpt>
      <trkpt lat="46.05754" lon="6.22556">
        <ele>883</ele>
        <time>2022-02-10T14:42:41Z</time>
      </trkpt>
      <trkpt lat="46.05757" lon="6.22548">
        <ele>883.6</ele>
        <time>2022-02-10T14:42:43Z</time>
      </trkpt>
      <trkpt lat="46.05767" lon="6.22516">
        <ele>885</ele>
        <time>2022-02-10T14:42:50Z</time>
      </trkpt>
      <trkpt lat="46.0577" lon="6.22507">
        <ele>885.2</ele>
        <time>2022-02-10T14:42:52Z</time>
      </trkpt>
      <trkpt lat="46.05778" lon="6.22476">
        <ele>886.2</ele>
        <time>2022-02-10T14:42:59Z</time>
      </trkpt>
      <trkpt lat="46.05779" lon="6.22471">
        <ele>886.4</ele>
        <time>2022-02-10T14:43:00Z</time>
      </trkpt>
      <trkpt lat="46.05782" lon="6.22438">
        <ele>887.4</ele>
        <time>2022-02-10T14:43:07Z</time>
      </trkpt>
      <trkpt lat="46.05782" lon="6.22424">
        <ele>887.8</ele>
        <time>2022-02-10T14:43:10Z</time>
      </trkpt>
      <trkpt lat="46.05783" lon="6.22416">
        <ele>888</ele>
        <time>2022-02-10T14:43:12Z</time>
      </trkpt>
      <trkpt lat="46.05787" lon="6.22394">
        <ele>888.8</ele>
        <time>2022-02-10T14:43:17Z</time>
      </trkpt>
      <trkpt lat="46.05788" lon="6.22387">
        <ele>889.2</ele>
        <time>2022-02-10T14:43:19Z</time>
      </trkpt>
      <trkpt lat="46.05791" lon="6.22376">
        <ele>889.8</ele>
        <time>2022-02-10T14:43:22Z</time>
      </trkpt>
      <trkpt lat="46.05799" lon="6.22364">
        <ele>890.8</ele>
        <time>2022-02-10T14:43:26Z</time>
      </trkpt>
      <trkpt lat="46.05802" lon="6.22362">
        <ele>891</ele>
        <time>2022-02-10T14:43:27Z</time>
      </trkpt>
      <trkpt lat="46.0581" lon="6.22356">
        <ele>891.8</ele>
        <time>2022-02-10T14:43:31Z</time>
      </trkpt>
      <trkpt lat="46.05815" lon="6.22354">
        <ele>892.2</ele>
        <time>2022-02-10T14:43:33Z</time>
      </trkpt>
      <trkpt lat="46.05822" lon="6.22352">
        <ele>892.8</ele>
        <time>2022-02-10T14:43:36Z</time>
      </trkpt>
      <trkpt lat="46.05832" lon="6.22355">
        <ele>894</ele>
        <time>2022-02-10T14:43:40Z</time>
      </trkpt>
      <trkpt lat="46.05841" lon="6.22362">
        <ele>894.8</ele>
        <time>2022-02-10T14:43:44Z</time>
      </trkpt>
      <trkpt lat="46.05847" lon="6.2237">
        <ele>895.6</ele>
        <time>2022-02-10T14:43:47Z</time>
      </trkpt>
      <trkpt lat="46.0585" lon="6.22377">
        <ele>896</ele>
        <time>2022-02-10T14:43:49Z</time>
      </trkpt>
      <trkpt lat="46.05855" lon="6.224">
        <ele>898</ele>
        <time>2022-02-10T14:43:55Z</time>
      </trkpt>
      <trkpt lat="46.05856" lon="6.22405">
        <ele>898</ele>
        <time>2022-02-10T14:43:56Z</time>
      </trkpt>
      <trkpt lat="46.05859" lon="6.2243">
        <ele>899.2</ele>
        <time>2022-02-10T14:44:02Z</time>
      </trkpt>
      <trkpt lat="46.0586" lon="6.22435">
        <ele>899.6</ele>
        <time>2022-02-10T14:44:03Z</time>
      </trkpt>
      <trkpt lat="46.05865" lon="6.22468">
        <ele>900.6</ele>
        <time>2022-02-10T14:44:10Z</time>
      </trkpt>
      <trkpt lat="46.05867" lon="6.22478">
        <ele>901.2</ele>
        <time>2022-02-10T14:44:12Z</time>
      </trkpt>
      <trkpt lat="46.05874" lon="6.22521">
        <ele>902</ele>
        <time>2022-02-10T14:44:20Z</time>
      </trkpt>
      <trkpt lat="46.05876" lon="6.22532">
        <ele>902.4</ele>
        <time>2022-02-10T14:44:22Z</time>
      </trkpt>
      <trkpt lat="46.05883" lon="6.22564">
        <ele>903.2</ele>
        <time>2022-02-10T14:44:28Z</time>
      </trkpt>
      <trkpt lat="46.05886" lon="6.22575">
        <ele>903.2</ele>
        <time>2022-02-10T14:44:30Z</time>
      </trkpt>
      <trkpt lat="46.05894" lon="6.22605">
        <ele>904</ele>
        <time>2022-02-10T14:44:36Z</time>
      </trkpt>
      <trkpt lat="46.05898" lon="6.2262">
        <ele>904.6</ele>
        <time>2022-02-10T14:44:39Z</time>
      </trkpt>
      <trkpt lat="46.059" lon="6.2263">
        <ele>905.2</ele>
        <time>2022-02-10T14:44:41Z</time>
      </trkpt>
      <trkpt lat="46.05907" lon="6.22649">
        <ele>905.8</ele>
        <time>2022-02-10T14:44:45Z</time>
      </trkpt>
      <trkpt lat="46.05914" lon="6.22662">
        <ele>906.4</ele>
        <time>2022-02-10T14:44:48Z</time>
      </trkpt>
      <trkpt lat="46.05926" lon="6.22683">
        <ele>907.6</ele>
        <time>2022-02-10T14:44:53Z</time>
      </trkpt>
      <trkpt lat="46.05938" lon="6.22702">
        <ele>908.4</ele>
        <time>2022-02-10T14:44:58Z</time>
      </trkpt>
      <trkpt lat="46.05946" lon="6.22712">
        <ele>909</ele>
        <time>2022-02-10T14:45:01Z</time>
      </trkpt>
      <trkpt lat="46.05952" lon="6.22715">
        <ele>909.4</ele>
        <time>2022-02-10T14:45:03Z</time>
      </trkpt>
      <trkpt lat="46.05962" lon="6.22716">
        <ele>910</ele>
        <time>2022-02-10T14:45:06Z</time>
      </trkpt>
      <trkpt lat="46.05983" lon="6.22713">
        <ele>911</ele>
        <time>2022-02-10T14:45:12Z</time>
      </trkpt>
      <trkpt lat="46.05992" lon="6.22712">
        <ele>911.8</ele>
        <time>2022-02-10T14:45:15Z</time>
      </trkpt>
      <trkpt lat="46.06002" lon="6.22711">
        <ele>912</ele>
        <time>2022-02-10T14:45:18Z</time>
      </trkpt>
      <trkpt lat="46.06027" lon="6.22703">
        <ele>913.2</ele>
        <time>2022-02-10T14:45:25Z</time>
      </trkpt>
      <trkpt lat="46.06065" lon="6.22685">
        <ele>914.4</ele>
        <time>2022-02-10T14:45:34Z</time>
      </trkpt>
      <trkpt lat="46.06107" lon="6.22662">
        <ele>914.6</ele>
        <time>2022-02-10T14:45:43Z</time>
      </trkpt>
      <trkpt lat="46.06112" lon="6.22659">
        <ele>914.4</ele>
        <time>2022-02-10T14:45:44Z</time>
      </trkpt>
      <trkpt lat="46.06144" lon="6.22642">
        <ele>914.8</ele>
        <time>2022-02-10T14:45:51Z</time>
      </trkpt>
      <trkpt lat="46.06156" lon="6.22636">
        <ele>915</ele>
        <time>2022-02-10T14:45:54Z</time>
      </trkpt>
      <trkpt lat="46.06172" lon="6.22629">
        <ele>915.2</ele>
        <time>2022-02-10T14:45:58Z</time>
      </trkpt>
      <trkpt lat="46.06175" lon="6.22627">
        <ele>915.4</ele>
        <time>2022-02-10T14:45:59Z</time>
      </trkpt>
      <trkpt lat="46.06189" lon="6.22622">
        <ele>915.8</ele>
        <time>2022-02-10T14:46:03Z</time>
      </trkpt>
      <trkpt lat="46.06203" lon="6.22619">
        <ele>917</ele>
        <time>2022-02-10T14:46:07Z</time>
      </trkpt>
      <trkpt lat="46.06206" lon="6.22619">
        <ele>917.4</ele>
        <time>2022-02-10T14:46:08Z</time>
      </trkpt>
      <trkpt lat="46.0622" lon="6.22623">
        <ele>918.4</ele>
        <time>2022-02-10T14:46:12Z</time>
      </trkpt>
      <trkpt lat="46.06223" lon="6.22625">
        <ele>918.6</ele>
        <time>2022-02-10T14:46:13Z</time>
      </trkpt>
      <trkpt lat="46.06228" lon="6.2263">
        <ele>919.2</ele>
        <time>2022-02-10T14:46:15Z</time>
      </trkpt>
      <trkpt lat="46.06239" lon="6.22642">
        <ele>920</ele>
        <time>2022-02-10T14:46:19Z</time>
      </trkpt>
      <trkpt lat="46.06243" lon="6.22648">
        <ele>920.6</ele>
        <time>2022-02-10T14:46:21Z</time>
      </trkpt>
      <trkpt lat="46.06246" lon="6.2265">
        <ele>920.8</ele>
        <time>2022-02-10T14:46:22Z</time>
      </trkpt>
      <trkpt lat="46.06256" lon="6.22661">
        <ele>922.4</ele>
        <time>2022-02-10T14:46:26Z</time>
      </trkpt>
      <trkpt lat="46.06261" lon="6.22665">
        <ele>923.2</ele>
        <time>2022-02-10T14:46:28Z</time>
      </trkpt>
      <trkpt lat="46.0627" lon="6.22672">
        <ele>924.2</ele>
        <time>2022-02-10T14:46:31Z</time>
      </trkpt>
      <trkpt lat="46.06282" lon="6.22679">
        <ele>925.4</ele>
        <time>2022-02-10T14:46:35Z</time>
      </trkpt>
      <trkpt lat="46.06306" lon="6.22691">
        <ele>927</ele>
        <time>2022-02-10T14:46:42Z</time>
      </trkpt>
      <trkpt lat="46.06309" lon="6.22692">
        <ele>927.4</ele>
        <time>2022-02-10T14:46:43Z</time>
      </trkpt>
      <trkpt lat="46.06328" lon="6.22705">
        <ele>928.6</ele>
        <time>2022-02-10T14:46:49Z</time>
      </trkpt>
      <trkpt lat="46.06338" lon="6.22712">
        <ele>928.8</ele>
        <time>2022-02-10T14:46:52Z</time>
      </trkpt>
      <trkpt lat="46.06351" lon="6.22724">
        <ele>929.2</ele>
        <time>2022-02-10T14:46:56Z</time>
      </trkpt>
      <trkpt lat="46.06369" lon="6.2274">
        <ele>930</ele>
        <time>2022-02-10T14:47:01Z</time>
      </trkpt>
      <trkpt lat="46.06382" lon="6.22756">
        <ele>930.4</ele>
        <time>2022-02-10T14:47:05Z</time>
      </trkpt>
      <trkpt lat="46.06391" lon="6.22767">
        <ele>930.8</ele>
        <time>2022-02-10T14:47:08Z</time>
      </trkpt>
      <trkpt lat="46.06398" lon="6.22777">
        <ele>931.2</ele>
        <time>2022-02-10T14:47:11Z</time>
      </trkpt>
      <trkpt lat="46.06413" lon="6.22797">
        <ele>932</ele>
        <time>2022-02-10T14:47:16Z</time>
      </trkpt>
      <trkpt lat="46.06433" lon="6.22823">
        <ele>932</ele>
        <time>2022-02-10T14:47:22Z</time>
      </trkpt>
      <trkpt lat="46.06456" lon="6.22848">
        <ele>932.2</ele>
        <time>2022-02-10T14:47:27Z</time>
      </trkpt>
      <trkpt lat="46.06473" lon="6.22887">
        <ele>931.8</ele>
        <time>2022-02-10T14:47:33Z</time>
      </trkpt>
      <trkpt lat="46.06475" lon="6.22895">
        <ele>931.8</ele>
        <time>2022-02-10T14:47:34Z</time>
      </trkpt>
      <trkpt lat="46.06483" lon="6.22926">
        <ele>931.8</ele>
        <time>2022-02-10T14:47:38Z</time>
      </trkpt>
      <trkpt lat="46.06498" lon="6.22984">
        <ele>931.6</ele>
        <time>2022-02-10T14:47:45Z</time>
      </trkpt>
      <trkpt lat="46.06503" lon="6.23001">
        <ele>931.6</ele>
        <time>2022-02-10T14:47:47Z</time>
      </trkpt>
      <trkpt lat="46.06512" lon="6.23023">
        <ele>931.6</ele>
        <time>2022-02-10T14:47:50Z</time>
      </trkpt>
      <trkpt lat="46.06516" lon="6.2303">
        <ele>931.8</ele>
        <time>2022-02-10T14:47:51Z</time>
      </trkpt>
      <trkpt lat="46.06535" lon="6.23056">
        <ele>932</ele>
        <time>2022-02-10T14:47:55Z</time>
      </trkpt>
      <trkpt lat="46.06544" lon="6.23069">
        <ele>932</ele>
        <time>2022-02-10T14:47:57Z</time>
      </trkpt>
      <trkpt lat="46.06563" lon="6.23097">
        <ele>932.6</ele>
        <time>2022-02-10T14:48:02Z</time>
      </trkpt>
      <trkpt lat="46.06566" lon="6.23102">
        <ele>932.8</ele>
        <time>2022-02-10T14:48:03Z</time>
      </trkpt>
      <trkpt lat="46.06581" lon="6.23124">
        <ele>933.6</ele>
        <time>2022-02-10T14:48:07Z</time>
      </trkpt>
      <trkpt lat="46.0659" lon="6.23139">
        <ele>934</ele>
        <time>2022-02-10T14:48:10Z</time>
      </trkpt>
      <trkpt lat="46.06595" lon="6.23151">
        <ele>934.6</ele>
        <time>2022-02-10T14:48:12Z</time>
      </trkpt>
      <trkpt lat="46.06598" lon="6.23157">
        <ele>934.8</ele>
        <time>2022-02-10T14:48:13Z</time>
      </trkpt>
      <trkpt lat="46.06606" lon="6.23181">
        <ele>935.6</ele>
        <time>2022-02-10T14:48:17Z</time>
      </trkpt>
      <trkpt lat="46.06611" lon="6.23193">
        <ele>936</ele>
        <time>2022-02-10T14:48:19Z</time>
      </trkpt>
      <trkpt lat="46.06619" lon="6.23218">
        <ele>937</ele>
        <time>2022-02-10T14:48:23Z</time>
      </trkpt>
      <trkpt lat="46.06625" lon="6.23236">
        <ele>937.8</ele>
        <time>2022-02-10T14:48:26Z</time>
      </trkpt>
      <trkpt lat="46.0663" lon="6.23248">
        <ele>938.2</ele>
        <time>2022-02-10T14:48:28Z</time>
      </trkpt>
      <trkpt lat="46.06642" lon="6.23277">
        <ele>939.4</ele>
        <time>2022-02-10T14:48:33Z</time>
      </trkpt>
      <trkpt lat="46.06644" lon="6.23282">
        <ele>939.6</ele>
        <time>2022-02-10T14:48:34Z</time>
      </trkpt>
      <trkpt lat="46.06667" lon="6.23328">
        <ele>941</ele>
        <time>2022-02-10T14:48:42Z</time>
      </trkpt>
      <trkpt lat="46.06675" lon="6.23348">
        <ele>941.8</ele>
        <time>2022-02-10T14:48:45Z</time>
      </trkpt>
      <trkpt lat="46.06683" lon="6.23376">
        <ele>942.2</ele>
        <time>2022-02-10T14:48:49Z</time>
      </trkpt>
      <trkpt lat="46.06702" lon="6.23427">
        <ele>942.4</ele>
        <time>2022-02-10T14:48:56Z</time>
      </trkpt>
      <trkpt lat="46.06729" lon="6.23488">
        <ele>942.6</ele>
        <time>2022-02-10T14:49:04Z</time>
      </trkpt>
      <trkpt lat="46.06746" lon="6.23545">
        <ele>942.4</ele>
        <time>2022-02-10T14:49:11Z</time>
      </trkpt>
      <trkpt lat="46.06758" lon="6.23585">
        <ele>942.8</ele>
        <time>2022-02-10T14:49:16Z</time>
      </trkpt>
      <trkpt lat="46.06764" lon="6.23599">
        <ele>942.8</ele>
        <time>2022-02-10T14:49:18Z</time>
      </trkpt>
      <trkpt lat="46.06774" lon="6.2362">
        <ele>943</ele>
        <time>2022-02-10T14:49:21Z</time>
      </trkpt>
      <trkpt lat="46.06778" lon="6.23627">
        <ele>943</ele>
        <time>2022-02-10T14:49:22Z</time>
      </trkpt>
      <trkpt lat="46.06792" lon="6.23643">
        <ele>943</ele>
        <time>2022-02-10T14:49:25Z</time>
      </trkpt>
      <trkpt lat="46.06797" lon="6.23648">
        <ele>943</ele>
        <time>2022-02-10T14:49:26Z</time>
      </trkpt>
      <trkpt lat="46.06802" lon="6.23652">
        <ele>943</ele>
        <time>2022-02-10T14:49:27Z</time>
      </trkpt>
      <trkpt lat="46.06818" lon="6.23664">
        <ele>943.4</ele>
        <time>2022-02-10T14:49:30Z</time>
      </trkpt>
      <trkpt lat="46.06829" lon="6.23672">
        <ele>943.2</ele>
        <time>2022-02-10T14:49:32Z</time>
      </trkpt>
      <trkpt lat="46.06865" lon="6.23698">
        <ele>944.6</ele>
        <time>2022-02-10T14:49:39Z</time>
      </trkpt>
      <trkpt lat="46.06886" lon="6.23709">
        <ele>945.2</ele>
        <time>2022-02-10T14:49:43Z</time>
      </trkpt>
      <trkpt lat="46.06904" lon="6.23714">
        <ele>945.4</ele>
        <time>2022-02-10T14:49:46Z</time>
      </trkpt>
      <trkpt lat="46.06916" lon="6.23713">
        <ele>945.4</ele>
        <time>2022-02-10T14:49:48Z</time>
      </trkpt>
      <trkpt lat="46.06928" lon="6.23708">
        <ele>945.4</ele>
        <time>2022-02-10T14:49:50Z</time>
      </trkpt>
      <trkpt lat="46.06939" lon="6.23697">
        <ele>945.4</ele>
        <time>2022-02-10T14:49:52Z</time>
      </trkpt>
      <trkpt lat="46.06949" lon="6.23684">
        <ele>945.4</ele>
        <time>2022-02-10T14:49:54Z</time>
      </trkpt>
      <trkpt lat="46.06978" lon="6.23633">
        <ele>945.4</ele>
        <time>2022-02-10T14:50:01Z</time>
      </trkpt>
      <trkpt lat="46.06983" lon="6.23627">
        <ele>945.2</ele>
        <time>2022-02-10T14:50:02Z</time>
      </trkpt>
      <trkpt lat="46.06995" lon="6.2362">
        <ele>945.4</ele>
        <time>2022-02-10T14:50:04Z</time>
      </trkpt>
      <trkpt lat="46.07002" lon="6.23619">
        <ele>945.4</ele>
        <time>2022-02-10T14:50:05Z</time>
      </trkpt>
      <trkpt lat="46.07008" lon="6.23619">
        <ele>945.2</ele>
        <time>2022-02-10T14:50:06Z</time>
      </trkpt>
      <trkpt lat="46.07032" lon="6.23624">
        <ele>945.4</ele>
        <time>2022-02-10T14:50:10Z</time>
      </trkpt>
      <trkpt lat="46.07042" lon="6.23628">
        <ele>945.4</ele>
        <time>2022-02-10T14:50:12Z</time>
      </trkpt>
      <trkpt lat="46.07047" lon="6.23631">
        <ele>945.4</ele>
        <time>2022-02-10T14:50:13Z</time>
      </trkpt>
      <trkpt lat="46.0705" lon="6.23634">
        <ele>945.6</ele>
        <time>2022-02-10T14:50:14Z</time>
      </trkpt>
      <trkpt lat="46.07052" lon="6.23637">
        <ele>945.8</ele>
        <time>2022-02-10T14:50:15Z</time>
      </trkpt>
      <trkpt lat="46.07056" lon="6.23647">
        <ele>946.2</ele>
        <time>2022-02-10T14:50:18Z</time>
      </trkpt>
      <trkpt lat="46.07059" lon="6.23661">
        <ele>947.6</ele>
        <time>2022-02-10T14:50:24Z</time>
      </trkpt>
      <trkpt lat="46.07058" lon="6.23661">
        <ele>948.6</ele>
        <time>2022-02-10T14:50:31Z</time>
      </trkpt>
      <trkpt lat="46.07058" lon="6.23661">
        <ele>948.8</ele>
        <time>2022-02-10T14:50:43Z</time>
      </trkpt>
      <trkpt lat="46.07059" lon="6.23668">
        <ele>949</ele>
        <time>2022-02-10T14:50:52Z</time>
      </trkpt>
      <trkpt lat="46.07063" lon="6.23688">
        <ele>948.8</ele>
        <time>2022-02-10T14:50:57Z</time>
      </trkpt>
      <trkpt lat="46.07065" lon="6.237">
        <ele>948.8</ele>
        <time>2022-02-10T14:50:59Z</time>
      </trkpt>
      <trkpt lat="46.0707" lon="6.23718">
        <ele>948.6</ele>
        <time>2022-02-10T14:51:02Z</time>
      </trkpt>
      <trkpt lat="46.07073" lon="6.23724">
        <ele>948.8</ele>
        <time>2022-02-10T14:51:03Z</time>
      </trkpt>
      <trkpt lat="46.07076" lon="6.23729">
        <ele>948.8</ele>
        <time>2022-02-10T14:51:04Z</time>
      </trkpt>
      <trkpt lat="46.07083" lon="6.23739">
        <ele>948.6</ele>
        <time>2022-02-10T14:51:06Z</time>
      </trkpt>
      <trkpt lat="46.07091" lon="6.23747">
        <ele>948.6</ele>
        <time>2022-02-10T14:51:08Z</time>
      </trkpt>
      <trkpt lat="46.07095" lon="6.2375">
        <ele>948.8</ele>
        <time>2022-02-10T14:51:09Z</time>
      </trkpt>
      <trkpt lat="46.0712" lon="6.23773">
        <ele>949.4</ele>
        <time>2022-02-10T14:51:15Z</time>
      </trkpt>
      <trkpt lat="46.07124" lon="6.23778">
        <ele>949.8</ele>
        <time>2022-02-10T14:51:16Z</time>
      </trkpt>
      <trkpt lat="46.07131" lon="6.23788">
        <ele>950.4</ele>
        <time>2022-02-10T14:51:18Z</time>
      </trkpt>
      <trkpt lat="46.07138" lon="6.23799">
        <ele>950.6</ele>
        <time>2022-02-10T14:51:20Z</time>
      </trkpt>
      <trkpt lat="46.07141" lon="6.23805">
        <ele>951</ele>
        <time>2022-02-10T14:51:21Z</time>
      </trkpt>
      <trkpt lat="46.07148" lon="6.23825">
        <ele>951.4</ele>
        <time>2022-02-10T14:51:24Z</time>
      </trkpt>
      <trkpt lat="46.07149" lon="6.23832">
        <ele>951.4</ele>
        <time>2022-02-10T14:51:25Z</time>
      </trkpt>
      <trkpt lat="46.0715" lon="6.23839">
        <ele>951.4</ele>
        <time>2022-02-10T14:51:26Z</time>
      </trkpt>
      <trkpt lat="46.0715" lon="6.23854">
        <ele>952</ele>
        <time>2022-02-10T14:51:28Z</time>
      </trkpt>
      <trkpt lat="46.07149" lon="6.23875">
        <ele>953</ele>
        <time>2022-02-10T14:51:31Z</time>
      </trkpt>
      <trkpt lat="46.07148" lon="6.2391">
        <ele>953.6</ele>
        <time>2022-02-10T14:51:36Z</time>
      </trkpt>
      <trkpt lat="46.07148" lon="6.23932">
        <ele>953.8</ele>
        <time>2022-02-10T14:51:39Z</time>
      </trkpt>
      <trkpt lat="46.07147" lon="6.23945">
        <ele>954.2</ele>
        <time>2022-02-10T14:51:41Z</time>
      </trkpt>
      <trkpt lat="46.07147" lon="6.23957">
        <ele>954.4</ele>
        <time>2022-02-10T14:51:43Z</time>
      </trkpt>
      <trkpt lat="46.07148" lon="6.23961">
        <ele>954.6</ele>
        <time>2022-02-10T14:51:44Z</time>
      </trkpt>
      <trkpt lat="46.07154" lon="6.23969">
        <ele>954.8</ele>
        <time>2022-02-10T14:51:46Z</time>
      </trkpt>
      <trkpt lat="46.07161" lon="6.23976">
        <ele>955</ele>
        <time>2022-02-10T14:51:48Z</time>
      </trkpt>
      <trkpt lat="46.07165" lon="6.23981">
        <ele>955</ele>
        <time>2022-02-10T14:51:49Z</time>
      </trkpt>
      <trkpt lat="46.0718" lon="6.23999">
        <ele>955</ele>
        <time>2022-02-10T14:51:53Z</time>
      </trkpt>
      <trkpt lat="46.07182" lon="6.24003">
        <ele>955</ele>
        <time>2022-02-10T14:51:54Z</time>
      </trkpt>
      <trkpt lat="46.07184" lon="6.24007">
        <ele>955</ele>
        <time>2022-02-10T14:51:55Z</time>
      </trkpt>
      <trkpt lat="46.07188" lon="6.24015">
        <ele>955.4</ele>
        <time>2022-02-10T14:51:58Z</time>
      </trkpt>
      <trkpt lat="46.07187" lon="6.24019">
        <ele>955.6</ele>
        <time>2022-02-10T14:52:02Z</time>
      </trkpt>
      <trkpt lat="46.07188" lon="6.24018">
        <ele>956</ele>
        <time>2022-02-10T14:52:10Z</time>
      </trkpt>
      <trkpt lat="46.07189" lon="6.24017">
        <ele>956.2</ele>
        <time>2022-02-10T14:52:16Z</time>
      </trkpt>
      <trkpt lat="46.0719" lon="6.24016">
        <ele>956</ele>
        <time>2022-02-10T14:52:17Z</time>
      </trkpt>
      <trkpt lat="46.07201" lon="6.24006">
        <ele>956</ele>
        <time>2022-02-10T14:52:21Z</time>
      </trkpt>
      <trkpt lat="46.0721" lon="6.24001">
        <ele>956.2</ele>
        <time>2022-02-10T14:52:23Z</time>
      </trkpt>
      <trkpt lat="46.07215" lon="6.24002">
        <ele>956</ele>
        <time>2022-02-10T14:52:24Z</time>
      </trkpt>
      <trkpt lat="46.07248" lon="6.24014">
        <ele>954.4</ele>
        <time>2022-02-10T14:52:31Z</time>
      </trkpt>
      <trkpt lat="46.07253" lon="6.24015">
        <ele>954.2</ele>
        <time>2022-02-10T14:52:32Z</time>
      </trkpt>
      <trkpt lat="46.07291" lon="6.24022">
        <ele>953.6</ele>
        <time>2022-02-10T14:52:40Z</time>
      </trkpt>
      <trkpt lat="46.07295" lon="6.24023">
        <ele>953.6</ele>
        <time>2022-02-10T14:52:41Z</time>
      </trkpt>
      <trkpt lat="46.07307" lon="6.24025">
        <ele>953.6</ele>
        <time>2022-02-10T14:52:44Z</time>
      </trkpt>
      <trkpt lat="46.07313" lon="6.24038">
        <ele>953.6</ele>
        <time>2022-02-10T14:52:48Z</time>
      </trkpt>
      <trkpt lat="46.07315" lon="6.24041">
        <ele>953.6</ele>
        <time>2022-02-10T14:52:52Z</time>
      </trkpt>
      <trkpt lat="46.07312" lon="6.2404">
        <ele>954.2</ele>
        <time>2022-02-10T14:52:58Z</time>
      </trkpt>
      <trkpt lat="46.07312" lon="6.2404">
        <ele>954.2</ele>
        <time>2022-02-10T14:53:10Z</time>
      </trkpt>
      <trkpt lat="46.07311" lon="6.2404">
        <ele>954.4</ele>
        <time>2022-02-10T14:53:29Z</time>
      </trkpt>
      <trkpt lat="46.07311" lon="6.24039">
        <ele>954.4</ele>
        <time>2022-02-10T14:53:38Z</time>
      </trkpt>
      <trkpt lat="46.0731" lon="6.2404">
        <ele>954.4</ele>
        <time>2022-02-10T14:53:39Z</time>
      </trkpt>
      <trkpt lat="46.07309" lon="6.2404">
        <ele>954.4</ele>
        <time>2022-02-10T14:53:42Z</time>
      </trkpt>
      <trkpt lat="46.0731" lon="6.24041">
        <ele>954.2</ele>
        <time>2022-02-10T14:53:56Z</time>
      </trkpt>
      <trkpt lat="46.0731" lon="6.2404">
        <ele>954.4</ele>
        <time>2022-02-10T14:54:38Z</time>
      </trkpt>
      <trkpt lat="46.07309" lon="6.24038">
        <ele>954.4</ele>
        <time>2022-02-10T14:54:43Z</time>
      </trkpt>
      <trkpt lat="46.07309" lon="6.24037">
        <ele>954.4</ele>
        <time>2022-02-10T14:54:53Z</time>
      </trkpt>
      <trkpt lat="46.07309" lon="6.24033">
        <ele>954.4</ele>
        <time>2022-02-10T14:54:55Z</time>
      </trkpt>
      <trkpt lat="46.07308" lon="6.24028">
        <ele>954.6</ele>
        <time>2022-02-10T14:54:57Z</time>
      </trkpt>
      <trkpt lat="46.07303" lon="6.24024">
        <ele>954.4</ele>
        <time>2022-02-10T14:54:59Z</time>
      </trkpt>
      <trkpt lat="46.07291" lon="6.24022">
        <ele>954.2</ele>
        <time>2022-02-10T14:55:04Z</time>
      </trkpt>
      <trkpt lat="46.07283" lon="6.24021">
        <ele>953.8</ele>
        <time>2022-02-10T14:55:07Z</time>
      </trkpt>
      <trkpt lat="46.07273" lon="6.24019">
        <ele>953.6</ele>
        <time>2022-02-10T14:55:10Z</time>
      </trkpt>
      <trkpt lat="46.07245" lon="6.24012">
        <ele>953</ele>
        <time>2022-02-10T14:55:17Z</time>
      </trkpt>
      <trkpt lat="46.07209" lon="6.23998">
        <ele>952.8</ele>
        <time>2022-02-10T14:55:25Z</time>
      </trkpt>
      <trkpt lat="46.07191" lon="6.23991">
        <ele>952.8</ele>
        <time>2022-02-10T14:55:29Z</time>
      </trkpt>
      <trkpt lat="46.07178" lon="6.23983">
        <ele>952.8</ele>
        <time>2022-02-10T14:55:32Z</time>
      </trkpt>
      <trkpt lat="46.07173" lon="6.2398">
        <ele>952.8</ele>
        <time>2022-02-10T14:55:33Z</time>
      </trkpt>
      <trkpt lat="46.07161" lon="6.23972">
        <ele>953</ele>
        <time>2022-02-10T14:55:36Z</time>
      </trkpt>
      <trkpt lat="46.07149" lon="6.23966">
        <ele>953.4</ele>
        <time>2022-02-10T14:55:39Z</time>
      </trkpt>
      <trkpt lat="46.07146" lon="6.23968">
        <ele>953.4</ele>
        <time>2022-02-10T14:55:40Z</time>
      </trkpt>
      <trkpt lat="46.07144" lon="6.23971">
        <ele>953.6</ele>
        <time>2022-02-10T14:55:41Z</time>
      </trkpt>
      <trkpt lat="46.07143" lon="6.23975">
        <ele>953.6</ele>
        <time>2022-02-10T14:55:42Z</time>
      </trkpt>
      <trkpt lat="46.07143" lon="6.2398">
        <ele>953.8</ele>
        <time>2022-02-10T14:55:43Z</time>
      </trkpt>
      <trkpt lat="46.07149" lon="6.23996">
        <ele>955</ele>
        <time>2022-02-10T14:55:46Z</time>
      </trkpt>
      <trkpt lat="46.07151" lon="6.24001">
        <ele>955.4</ele>
        <time>2022-02-10T14:55:47Z</time>
      </trkpt>
      <trkpt lat="46.07166" lon="6.24048">
        <ele>956.4</ele>
        <time>2022-02-10T14:55:54Z</time>
      </trkpt>
      <trkpt lat="46.07176" lon="6.2409">
        <ele>956.6</ele>
        <time>2022-02-10T14:56:00Z</time>
      </trkpt>
      <trkpt lat="46.07182" lon="6.24118">
        <ele>957</ele>
        <time>2022-02-10T14:56:04Z</time>
      </trkpt>
      <trkpt lat="46.07186" lon="6.24132">
        <ele>957.4</ele>
        <time>2022-02-10T14:56:06Z</time>
      </trkpt>
      <trkpt lat="46.07197" lon="6.24174">
        <ele>958.2</ele>
        <time>2022-02-10T14:56:12Z</time>
      </trkpt>
      <trkpt lat="46.07216" lon="6.24233">
        <ele>959.2</ele>
        <time>2022-02-10T14:56:20Z</time>
      </trkpt>
      <trkpt lat="46.07218" lon="6.24241">
        <ele>959.2</ele>
        <time>2022-02-10T14:56:21Z</time>
      </trkpt>
      <trkpt lat="46.07234" lon="6.24293">
        <ele>959.8</ele>
        <time>2022-02-10T14:56:28Z</time>
      </trkpt>
      <trkpt lat="46.07238" lon="6.24308">
        <ele>960.2</ele>
        <time>2022-02-10T14:56:30Z</time>
      </trkpt>
      <trkpt lat="46.0725" lon="6.24369">
        <ele>960.8</ele>
        <time>2022-02-10T14:56:38Z</time>
      </trkpt>
      <trkpt lat="46.07257" lon="6.24416">
        <ele>961.2</ele>
        <time>2022-02-10T14:56:43Z</time>
      </trkpt>
      <trkpt lat="46.07259" lon="6.24426">
        <ele>961</ele>
        <time>2022-02-10T14:56:44Z</time>
      </trkpt>
      <trkpt lat="46.07266" lon="6.24487">
        <ele>960.8</ele>
        <time>2022-02-10T14:56:50Z</time>
      </trkpt>
      <trkpt lat="46.07268" lon="6.24508">
        <ele>960.4</ele>
        <time>2022-02-10T14:56:52Z</time>
      </trkpt>
      <trkpt lat="46.07269" lon="6.2453">
        <ele>959.8</ele>
        <time>2022-02-10T14:56:54Z</time>
      </trkpt>
      <trkpt lat="46.07269" lon="6.24586">
        <ele>959.2</ele>
        <time>2022-02-10T14:56:59Z</time>
      </trkpt>
      <trkpt lat="46.07275" lon="6.2463">
        <ele>958.2</ele>
        <time>2022-02-10T14:57:03Z</time>
      </trkpt>
      <trkpt lat="46.07277" lon="6.24642">
        <ele>957.6</ele>
        <time>2022-02-10T14:57:04Z</time>
      </trkpt>
      <trkpt lat="46.0728" lon="6.24665">
        <ele>957</ele>
        <time>2022-02-10T14:57:06Z</time>
      </trkpt>
      <trkpt lat="46.07285" lon="6.24712">
        <ele>956.4</ele>
        <time>2022-02-10T14:57:10Z</time>
      </trkpt>
      <trkpt lat="46.07295" lon="6.24732">
        <ele>955.8</ele>
        <time>2022-02-10T14:57:12Z</time>
      </trkpt>
      <trkpt lat="46.07301" lon="6.2474">
        <ele>955.2</ele>
        <time>2022-02-10T14:57:13Z</time>
      </trkpt>
      <trkpt lat="46.07307" lon="6.24748">
        <ele>955</ele>
        <time>2022-02-10T14:57:14Z</time>
      </trkpt>
      <trkpt lat="46.07314" lon="6.24768">
        <ele>954</ele>
        <time>2022-02-10T14:57:16Z</time>
      </trkpt>
      <trkpt lat="46.0731" lon="6.24792">
        <ele>953.4</ele>
        <time>2022-02-10T14:57:18Z</time>
      </trkpt>
      <trkpt lat="46.07298" lon="6.24808">
        <ele>952.8</ele>
        <time>2022-02-10T14:57:20Z</time>
      </trkpt>
      <trkpt lat="46.07275" lon="6.24821">
        <ele>952.2</ele>
        <time>2022-02-10T14:57:23Z</time>
      </trkpt>
      <trkpt lat="46.07269" lon="6.24827">
        <ele>951.8</ele>
        <time>2022-02-10T14:57:24Z</time>
      </trkpt>
      <trkpt lat="46.07263" lon="6.24834">
        <ele>951.2</ele>
        <time>2022-02-10T14:57:25Z</time>
      </trkpt>
      <trkpt lat="46.07258" lon="6.24855">
        <ele>949.8</ele>
        <time>2022-02-10T14:57:27Z</time>
      </trkpt>
      <trkpt lat="46.07257" lon="6.24866">
        <ele>949</ele>
        <time>2022-02-10T14:57:28Z</time>
      </trkpt>
      <trkpt lat="46.07257" lon="6.249">
        <ele>948.4</ele>
        <time>2022-02-10T14:57:31Z</time>
      </trkpt>
      <trkpt lat="46.07256" lon="6.24923">
        <ele>948</ele>
        <time>2022-02-10T14:57:33Z</time>
      </trkpt>
      <trkpt lat="46.07253" lon="6.2498">
        <ele>946.4</ele>
        <time>2022-02-10T14:57:38Z</time>
      </trkpt>
      <trkpt lat="46.0726" lon="6.25044">
        <ele>945.8</ele>
        <time>2022-02-10T14:57:44Z</time>
      </trkpt>
      <trkpt lat="46.07262" lon="6.25053">
        <ele>945.8</ele>
        <time>2022-02-10T14:57:45Z</time>
      </trkpt>
      <trkpt lat="46.07265" lon="6.25062">
        <ele>945.6</ele>
        <time>2022-02-10T14:57:46Z</time>
      </trkpt>
      <trkpt lat="46.0727" lon="6.2507">
        <ele>945.6</ele>
        <time>2022-02-10T14:57:47Z</time>
      </trkpt>
      <trkpt lat="46.07297" lon="6.25103">
        <ele>946.2</ele>
        <time>2022-02-10T14:57:52Z</time>
      </trkpt>
      <trkpt lat="46.07308" lon="6.25117">
        <ele>946.2</ele>
        <time>2022-02-10T14:57:54Z</time>
      </trkpt>
      <trkpt lat="46.07314" lon="6.25132">
        <ele>946.6</ele>
        <time>2022-02-10T14:57:56Z</time>
      </trkpt>
      <trkpt lat="46.07312" lon="6.25149">
        <ele>946.6</ele>
        <time>2022-02-10T14:57:58Z</time>
      </trkpt>
      <trkpt lat="46.07308" lon="6.25157">
        <ele>946.4</ele>
        <time>2022-02-10T14:57:59Z</time>
      </trkpt>
      <trkpt lat="46.07302" lon="6.25163">
        <ele>946.6</ele>
        <time>2022-02-10T14:58:00Z</time>
      </trkpt>
      <trkpt lat="46.07295" lon="6.25168">
        <ele>946.4</ele>
        <time>2022-02-10T14:58:01Z</time>
      </trkpt>
      <trkpt lat="46.07289" lon="6.25174">
        <ele>946.6</ele>
        <time>2022-02-10T14:58:02Z</time>
      </trkpt>
      <trkpt lat="46.07282" lon="6.25178">
        <ele>946.4</ele>
        <time>2022-02-10T14:58:03Z</time>
      </trkpt>
      <trkpt lat="46.07267" lon="6.25189">
        <ele>946.2</ele>
        <time>2022-02-10T14:58:05Z</time>
      </trkpt>
      <trkpt lat="46.07251" lon="6.25201">
        <ele>945.2</ele>
        <time>2022-02-10T14:58:07Z</time>
      </trkpt>
      <trkpt lat="46.07231" lon="6.25225">
        <ele>943.6</ele>
        <time>2022-02-10T14:58:10Z</time>
      </trkpt>
      <trkpt lat="46.07217" lon="6.25244">
        <ele>942</ele>
        <time>2022-02-10T14:58:12Z</time>
      </trkpt>
      <trkpt lat="46.07197" lon="6.25273">
        <ele>939.8</ele>
        <time>2022-02-10T14:58:15Z</time>
      </trkpt>
      <trkpt lat="46.07191" lon="6.25284">
        <ele>939.4</ele>
        <time>2022-02-10T14:58:16Z</time>
      </trkpt>
      <trkpt lat="46.07185" lon="6.25295">
        <ele>938.8</ele>
        <time>2022-02-10T14:58:17Z</time>
      </trkpt>
      <trkpt lat="46.07181" lon="6.25307">
        <ele>938.4</ele>
        <time>2022-02-10T14:58:18Z</time>
      </trkpt>
      <trkpt lat="46.07172" lon="6.25332">
        <ele>937.4</ele>
        <time>2022-02-10T14:58:20Z</time>
      </trkpt>
      <trkpt lat="46.07161" lon="6.25358">
        <ele>936.4</ele>
        <time>2022-02-10T14:58:22Z</time>
      </trkpt>
      <trkpt lat="46.07149" lon="6.25384">
        <ele>935.4</ele>
        <time>2022-02-10T14:58:24Z</time>
      </trkpt>
      <trkpt lat="46.07143" lon="6.25397">
        <ele>934.8</ele>
        <time>2022-02-10T14:58:25Z</time>
      </trkpt>
      <trkpt lat="46.07137" lon="6.25411">
        <ele>934</ele>
        <time>2022-02-10T14:58:26Z</time>
      </trkpt>
      <trkpt lat="46.07123" lon="6.25455">
        <ele>932.2</ele>
        <time>2022-02-10T14:58:29Z</time>
      </trkpt>
      <trkpt lat="46.07118" lon="6.25469">
        <ele>931.6</ele>
        <time>2022-02-10T14:58:30Z</time>
      </trkpt>
      <trkpt lat="46.071" lon="6.25527">
        <ele>928.2</ele>
        <time>2022-02-10T14:58:34Z</time>
      </trkpt>
      <trkpt lat="46.07091" lon="6.25562">
        <ele>926.2</ele>
        <time>2022-02-10T14:58:37Z</time>
      </trkpt>
      <trkpt lat="46.0709" lon="6.25573">
        <ele>925.8</ele>
        <time>2022-02-10T14:58:38Z</time>
      </trkpt>
      <trkpt lat="46.07092" lon="6.25583">
        <ele>925.8</ele>
        <time>2022-02-10T14:58:39Z</time>
      </trkpt>
      <trkpt lat="46.07096" lon="6.25592">
        <ele>925.8</ele>
        <time>2022-02-10T14:58:40Z</time>
      </trkpt>
      <trkpt lat="46.07101" lon="6.25598">
        <ele>925.6</ele>
        <time>2022-02-10T14:58:41Z</time>
      </trkpt>
      <trkpt lat="46.07119" lon="6.25615">
        <ele>925.4</ele>
        <time>2022-02-10T14:58:44Z</time>
      </trkpt>
      <trkpt lat="46.07149" lon="6.25645">
        <ele>926</ele>
        <time>2022-02-10T14:58:49Z</time>
      </trkpt>
      <trkpt lat="46.07154" lon="6.25653">
        <ele>926.4</ele>
        <time>2022-02-10T14:58:50Z</time>
      </trkpt>
      <trkpt lat="46.07159" lon="6.25661">
        <ele>926.4</ele>
        <time>2022-02-10T14:58:51Z</time>
      </trkpt>
      <trkpt lat="46.07168" lon="6.2569">
        <ele>926.6</ele>
        <time>2022-02-10T14:58:54Z</time>
      </trkpt>
      <trkpt lat="46.0717" lon="6.257">
        <ele>926.6</ele>
        <time>2022-02-10T14:58:55Z</time>
      </trkpt>
      <trkpt lat="46.07176" lon="6.25723">
        <ele>926.4</ele>
        <time>2022-02-10T14:58:57Z</time>
      </trkpt>
      <trkpt lat="46.07184" lon="6.2576">
        <ele>926.6</ele>
        <time>2022-02-10T14:59:00Z</time>
      </trkpt>
      <trkpt lat="46.07194" lon="6.25818">
        <ele>925.4</ele>
        <time>2022-02-10T14:59:05Z</time>
      </trkpt>
      <trkpt lat="46.07195" lon="6.2583">
        <ele>924.8</ele>
        <time>2022-02-10T14:59:06Z</time>
      </trkpt>
      <trkpt lat="46.07196" lon="6.25842">
        <ele>924.2</ele>
        <time>2022-02-10T14:59:07Z</time>
      </trkpt>
      <trkpt lat="46.07193" lon="6.25866">
        <ele>923</ele>
        <time>2022-02-10T14:59:09Z</time>
      </trkpt>
      <trkpt lat="46.0719" lon="6.25878">
        <ele>922.6</ele>
        <time>2022-02-10T14:59:10Z</time>
      </trkpt>
      <trkpt lat="46.07182" lon="6.259">
        <ele>922.2</ele>
        <time>2022-02-10T14:59:12Z</time>
      </trkpt>
      <trkpt lat="46.07177" lon="6.25911">
        <ele>922</ele>
        <time>2022-02-10T14:59:13Z</time>
      </trkpt>
      <trkpt lat="46.07165" lon="6.2593">
        <ele>921.4</ele>
        <time>2022-02-10T14:59:15Z</time>
      </trkpt>
      <trkpt lat="46.07148" lon="6.25943">
        <ele>920.8</ele>
        <time>2022-02-10T14:59:17Z</time>
      </trkpt>
      <trkpt lat="46.07139" lon="6.25946">
        <ele>920.6</ele>
        <time>2022-02-10T14:59:18Z</time>
      </trkpt>
      <trkpt lat="46.0713" lon="6.25948">
        <ele>920.2</ele>
        <time>2022-02-10T14:59:19Z</time>
      </trkpt>
      <trkpt lat="46.07121" lon="6.25948">
        <ele>919.4</ele>
        <time>2022-02-10T14:59:20Z</time>
      </trkpt>
      <trkpt lat="46.07111" lon="6.25947">
        <ele>918.6</ele>
        <time>2022-02-10T14:59:21Z</time>
      </trkpt>
      <trkpt lat="46.07093" lon="6.25948">
        <ele>917.8</ele>
        <time>2022-02-10T14:59:23Z</time>
      </trkpt>
      <trkpt lat="46.07085" lon="6.25951">
        <ele>917.2</ele>
        <time>2022-02-10T14:59:24Z</time>
      </trkpt>
      <trkpt lat="46.07077" lon="6.25957">
        <ele>916.4</ele>
        <time>2022-02-10T14:59:25Z</time>
      </trkpt>
      <trkpt lat="46.0707" lon="6.25967">
        <ele>916</ele>
        <time>2022-02-10T14:59:26Z</time>
      </trkpt>
      <trkpt lat="46.07066" lon="6.25978">
        <ele>915.6</ele>
        <time>2022-02-10T14:59:27Z</time>
      </trkpt>
      <trkpt lat="46.07061" lon="6.26006">
        <ele>914.8</ele>
        <time>2022-02-10T14:59:29Z</time>
      </trkpt>
      <trkpt lat="46.0706" lon="6.2602">
        <ele>914.2</ele>
        <time>2022-02-10T14:59:30Z</time>
      </trkpt>
      <trkpt lat="46.07058" lon="6.26035">
        <ele>913.8</ele>
        <time>2022-02-10T14:59:31Z</time>
      </trkpt>
      <trkpt lat="46.07054" lon="6.26048">
        <ele>913.6</ele>
        <time>2022-02-10T14:59:32Z</time>
      </trkpt>
      <trkpt lat="46.07049" lon="6.26061">
        <ele>913.2</ele>
        <time>2022-02-10T14:59:33Z</time>
      </trkpt>
      <trkpt lat="46.07026" lon="6.26093">
        <ele>910</ele>
        <time>2022-02-10T14:59:36Z</time>
      </trkpt>
      <trkpt lat="46.06992" lon="6.26143">
        <ele>906.6</ele>
        <time>2022-02-10T14:59:41Z</time>
      </trkpt>
      <trkpt lat="46.06984" lon="6.26152">
        <ele>905.6</ele>
        <time>2022-02-10T14:59:42Z</time>
      </trkpt>
      <trkpt lat="46.0696" lon="6.26174">
        <ele>904.6</ele>
        <time>2022-02-10T14:59:45Z</time>
      </trkpt>
      <trkpt lat="46.06952" lon="6.26181">
        <ele>904.2</ele>
        <time>2022-02-10T14:59:46Z</time>
      </trkpt>
      <trkpt lat="46.06905" lon="6.26222">
        <ele>903.2</ele>
        <time>2022-02-10T14:59:52Z</time>
      </trkpt>
      <trkpt lat="46.0689" lon="6.26234">
        <ele>902.4</ele>
        <time>2022-02-10T14:59:54Z</time>
      </trkpt>
      <trkpt lat="46.06873" lon="6.26241">
        <ele>902</ele>
        <time>2022-02-10T14:59:56Z</time>
      </trkpt>
      <trkpt lat="46.06864" lon="6.26243">
        <ele>902</ele>
        <time>2022-02-10T14:59:57Z</time>
      </trkpt>
      <trkpt lat="46.06836" lon="6.26245">
        <ele>901.4</ele>
        <time>2022-02-10T15:00:00Z</time>
      </trkpt>
      <trkpt lat="46.06809" lon="6.26249">
        <ele>901.4</ele>
        <time>2022-02-10T15:00:03Z</time>
      </trkpt>
      <trkpt lat="46.068" lon="6.26252">
        <ele>901.2</ele>
        <time>2022-02-10T15:00:04Z</time>
      </trkpt>
      <trkpt lat="46.06772" lon="6.26262">
        <ele>900.4</ele>
        <time>2022-02-10T15:00:07Z</time>
      </trkpt>
      <trkpt lat="46.06754" lon="6.26269">
        <ele>899.8</ele>
        <time>2022-02-10T15:00:09Z</time>
      </trkpt>
      <trkpt lat="46.06744" lon="6.26273">
        <ele>899.4</ele>
        <time>2022-02-10T15:00:10Z</time>
      </trkpt>
      <trkpt lat="46.06726" lon="6.26281">
        <ele>898.8</ele>
        <time>2022-02-10T15:00:12Z</time>
      </trkpt>
      <trkpt lat="46.06707" lon="6.26289">
        <ele>896.6</ele>
        <time>2022-02-10T15:00:14Z</time>
      </trkpt>
      <trkpt lat="46.06697" lon="6.26293">
        <ele>896.2</ele>
        <time>2022-02-10T15:00:15Z</time>
      </trkpt>
      <trkpt lat="46.06678" lon="6.263">
        <ele>894.8</ele>
        <time>2022-02-10T15:00:17Z</time>
      </trkpt>
      <trkpt lat="46.06668" lon="6.26303">
        <ele>894.6</ele>
        <time>2022-02-10T15:00:18Z</time>
      </trkpt>
      <trkpt lat="46.06638" lon="6.26308">
        <ele>892.6</ele>
        <time>2022-02-10T15:00:21Z</time>
      </trkpt>
      <trkpt lat="46.06607" lon="6.26311">
        <ele>889.6</ele>
        <time>2022-02-10T15:00:24Z</time>
      </trkpt>
      <trkpt lat="46.06586" lon="6.26311">
        <ele>888.2</ele>
        <time>2022-02-10T15:00:26Z</time>
      </trkpt>
      <trkpt lat="46.06565" lon="6.2631">
        <ele>887</ele>
        <time>2022-02-10T15:00:28Z</time>
      </trkpt>
      <trkpt lat="46.06543" lon="6.26309">
        <ele>886.8</ele>
        <time>2022-02-10T15:00:30Z</time>
      </trkpt>
      <trkpt lat="46.06521" lon="6.26308">
        <ele>885.6</ele>
        <time>2022-02-10T15:00:32Z</time>
      </trkpt>
      <trkpt lat="46.06511" lon="6.26308">
        <ele>885.2</ele>
        <time>2022-02-10T15:00:33Z</time>
      </trkpt>
      <trkpt lat="46.06492" lon="6.26317">
        <ele>884</ele>
        <time>2022-02-10T15:00:35Z</time>
      </trkpt>
      <trkpt lat="46.0648" lon="6.26338">
        <ele>882.6</ele>
        <time>2022-02-10T15:00:37Z</time>
      </trkpt>
      <trkpt lat="46.06474" lon="6.2638">
        <ele>881</ele>
        <time>2022-02-10T15:00:40Z</time>
      </trkpt>
      <trkpt lat="46.06472" lon="6.26409">
        <ele>878.8</ele>
        <time>2022-02-10T15:00:42Z</time>
      </trkpt>
      <trkpt lat="46.06473" lon="6.26438">
        <ele>877.6</ele>
        <time>2022-02-10T15:00:44Z</time>
      </trkpt>
      <trkpt lat="46.06475" lon="6.26453">
        <ele>877.4</ele>
        <time>2022-02-10T15:00:45Z</time>
      </trkpt>
      <trkpt lat="46.06476" lon="6.26481">
        <ele>877</ele>
        <time>2022-02-10T15:00:47Z</time>
      </trkpt>
      <trkpt lat="46.0647" lon="6.26507">
        <ele>876.6</ele>
        <time>2022-02-10T15:00:49Z</time>
      </trkpt>
      <trkpt lat="46.06455" lon="6.26527">
        <ele>875.4</ele>
        <time>2022-02-10T15:00:51Z</time>
      </trkpt>
      <trkpt lat="46.06446" lon="6.26534">
        <ele>874.8</ele>
        <time>2022-02-10T15:00:52Z</time>
      </trkpt>
      <trkpt lat="46.06436" lon="6.2654">
        <ele>874</ele>
        <time>2022-02-10T15:00:53Z</time>
      </trkpt>
      <trkpt lat="46.06417" lon="6.2655">
        <ele>873.2</ele>
        <time>2022-02-10T15:00:55Z</time>
      </trkpt>
      <trkpt lat="46.06397" lon="6.26559">
        <ele>872.4</ele>
        <time>2022-02-10T15:00:57Z</time>
      </trkpt>
      <trkpt lat="46.06388" lon="6.26565">
        <ele>872</ele>
        <time>2022-02-10T15:00:58Z</time>
      </trkpt>
      <trkpt lat="46.06379" lon="6.26573">
        <ele>871.4</ele>
        <time>2022-02-10T15:00:59Z</time>
      </trkpt>
      <trkpt lat="46.06372" lon="6.26583">
        <ele>871</ele>
        <time>2022-02-10T15:01:00Z</time>
      </trkpt>
      <trkpt lat="46.06366" lon="6.26595">
        <ele>870.2</ele>
        <time>2022-02-10T15:01:01Z</time>
      </trkpt>
      <trkpt lat="46.06362" lon="6.26608">
        <ele>869.2</ele>
        <time>2022-02-10T15:01:02Z</time>
      </trkpt>
      <trkpt lat="46.06359" lon="6.26623">
        <ele>868.8</ele>
        <time>2022-02-10T15:01:03Z</time>
      </trkpt>
      <trkpt lat="46.06353" lon="6.26652">
        <ele>867.8</ele>
        <time>2022-02-10T15:01:05Z</time>
      </trkpt>
      <trkpt lat="46.06345" lon="6.26679">
        <ele>866.8</ele>
        <time>2022-02-10T15:01:07Z</time>
      </trkpt>
      <trkpt lat="46.0634" lon="6.2669">
        <ele>866.4</ele>
        <time>2022-02-10T15:01:08Z</time>
      </trkpt>
      <trkpt lat="46.06332" lon="6.267">
        <ele>865.4</ele>
        <time>2022-02-10T15:01:09Z</time>
      </trkpt>
      <trkpt lat="46.06323" lon="6.26706">
        <ele>865</ele>
        <time>2022-02-10T15:01:10Z</time>
      </trkpt>
      <trkpt lat="46.06312" lon="6.2671">
        <ele>864.4</ele>
        <time>2022-02-10T15:01:11Z</time>
      </trkpt>
      <trkpt lat="46.06291" lon="6.26711">
        <ele>863.6</ele>
        <time>2022-02-10T15:01:13Z</time>
      </trkpt>
      <trkpt lat="46.06253" lon="6.2671">
        <ele>861.4</ele>
        <time>2022-02-10T15:01:17Z</time>
      </trkpt>
      <trkpt lat="46.06244" lon="6.26713">
        <ele>861</ele>
        <time>2022-02-10T15:01:18Z</time>
      </trkpt>
      <trkpt lat="46.06237" lon="6.2672">
        <ele>860.2</ele>
        <time>2022-02-10T15:01:19Z</time>
      </trkpt>
      <trkpt lat="46.06231" lon="6.26729">
        <ele>859</ele>
        <time>2022-02-10T15:01:20Z</time>
      </trkpt>
      <trkpt lat="46.06228" lon="6.2674">
        <ele>858</ele>
        <time>2022-02-10T15:01:21Z</time>
      </trkpt>
      <trkpt lat="46.06227" lon="6.26753">
        <ele>857.4</ele>
        <time>2022-02-10T15:01:22Z</time>
      </trkpt>
      <trkpt lat="46.06229" lon="6.26765">
        <ele>856.8</ele>
        <time>2022-02-10T15:01:23Z</time>
      </trkpt>
      <trkpt lat="46.06233" lon="6.26777">
        <ele>856.6</ele>
        <time>2022-02-10T15:01:24Z</time>
      </trkpt>
      <trkpt lat="46.06239" lon="6.26787">
        <ele>856.6</ele>
        <time>2022-02-10T15:01:25Z</time>
      </trkpt>
      <trkpt lat="46.06253" lon="6.26807">
        <ele>855.8</ele>
        <time>2022-02-10T15:01:27Z</time>
      </trkpt>
      <trkpt lat="46.06258" lon="6.26818">
        <ele>855.2</ele>
        <time>2022-02-10T15:01:28Z</time>
      </trkpt>
      <trkpt lat="46.06263" lon="6.26831">
        <ele>854.8</ele>
        <time>2022-02-10T15:01:29Z</time>
      </trkpt>
      <trkpt lat="46.06266" lon="6.26845">
        <ele>854</ele>
        <time>2022-02-10T15:01:30Z</time>
      </trkpt>
      <trkpt lat="46.06268" lon="6.26873">
        <ele>852.6</ele>
        <time>2022-02-10T15:01:32Z</time>
      </trkpt>
      <trkpt lat="46.06269" lon="6.26888">
        <ele>852</ele>
        <time>2022-02-10T15:01:33Z</time>
      </trkpt>
      <trkpt lat="46.06271" lon="6.26903">
        <ele>851.4</ele>
        <time>2022-02-10T15:01:34Z</time>
      </trkpt>
      <trkpt lat="46.06271" lon="6.26918">
        <ele>850.6</ele>
        <time>2022-02-10T15:01:35Z</time>
      </trkpt>
      <trkpt lat="46.06271" lon="6.26933">
        <ele>850.6</ele>
        <time>2022-02-10T15:01:36Z</time>
      </trkpt>
      <trkpt lat="46.06267" lon="6.2696">
        <ele>849</ele>
        <time>2022-02-10T15:01:38Z</time>
      </trkpt>
      <trkpt lat="46.06263" lon="6.26971">
        <ele>848</ele>
        <time>2022-02-10T15:01:39Z</time>
      </trkpt>
      <trkpt lat="46.06256" lon="6.2698">
        <ele>847.4</ele>
        <time>2022-02-10T15:01:40Z</time>
      </trkpt>
      <trkpt lat="46.06248" lon="6.26986">
        <ele>846.8</ele>
        <time>2022-02-10T15:01:41Z</time>
      </trkpt>
      <trkpt lat="46.06239" lon="6.26988">
        <ele>846.2</ele>
        <time>2022-02-10T15:01:42Z</time>
      </trkpt>
      <trkpt lat="46.0623" lon="6.26989">
        <ele>845.4</ele>
        <time>2022-02-10T15:01:43Z</time>
      </trkpt>
      <trkpt lat="46.06212" lon="6.26991">
        <ele>843.6</ele>
        <time>2022-02-10T15:01:45Z</time>
      </trkpt>
      <trkpt lat="46.06202" lon="6.26993">
        <ele>843.2</ele>
        <time>2022-02-10T15:01:46Z</time>
      </trkpt>
      <trkpt lat="46.06194" lon="6.26998">
        <ele>842.8</ele>
        <time>2022-02-10T15:01:47Z</time>
      </trkpt>
      <trkpt lat="46.06186" lon="6.27006">
        <ele>842.2</ele>
        <time>2022-02-10T15:01:48Z</time>
      </trkpt>
      <trkpt lat="46.06179" lon="6.27016">
        <ele>841.8</ele>
        <time>2022-02-10T15:01:49Z</time>
      </trkpt>
      <trkpt lat="46.06173" lon="6.27027">
        <ele>841.2</ele>
        <time>2022-02-10T15:01:50Z</time>
      </trkpt>
      <trkpt lat="46.06168" lon="6.2704">
        <ele>840.8</ele>
        <time>2022-02-10T15:01:51Z</time>
      </trkpt>
      <trkpt lat="46.06162" lon="6.27051">
        <ele>840.2</ele>
        <time>2022-02-10T15:01:52Z</time>
      </trkpt>
      <trkpt lat="46.06146" lon="6.2707">
        <ele>838.6</ele>
        <time>2022-02-10T15:01:54Z</time>
      </trkpt>
      <trkpt lat="46.06137" lon="6.27078">
        <ele>838</ele>
        <time>2022-02-10T15:01:55Z</time>
      </trkpt>
      <trkpt lat="46.06119" lon="6.27094">
        <ele>836.4</ele>
        <time>2022-02-10T15:01:57Z</time>
      </trkpt>
      <trkpt lat="46.06102" lon="6.27113">
        <ele>834.6</ele>
        <time>2022-02-10T15:01:59Z</time>
      </trkpt>
      <trkpt lat="46.06084" lon="6.27131">
        <ele>833</ele>
        <time>2022-02-10T15:02:01Z</time>
      </trkpt>
      <trkpt lat="46.06064" lon="6.27146">
        <ele>831.8</ele>
        <time>2022-02-10T15:02:03Z</time>
      </trkpt>
      <trkpt lat="46.06054" lon="6.27152">
        <ele>830.8</ele>
        <time>2022-02-10T15:02:04Z</time>
      </trkpt>
      <trkpt lat="46.06044" lon="6.27158">
        <ele>830.2</ele>
        <time>2022-02-10T15:02:05Z</time>
      </trkpt>
      <trkpt lat="46.06014" lon="6.27174">
        <ele>827.8</ele>
        <time>2022-02-10T15:02:08Z</time>
      </trkpt>
      <trkpt lat="46.06006" lon="6.27182">
        <ele>827</ele>
        <time>2022-02-10T15:02:09Z</time>
      </trkpt>
      <trkpt lat="46.06" lon="6.27191">
        <ele>826.2</ele>
        <time>2022-02-10T15:02:10Z</time>
      </trkpt>
      <trkpt lat="46.05996" lon="6.27202">
        <ele>825.4</ele>
        <time>2022-02-10T15:02:11Z</time>
      </trkpt>
      <trkpt lat="46.05994" lon="6.27214">
        <ele>824.2</ele>
        <time>2022-02-10T15:02:12Z</time>
      </trkpt>
      <trkpt lat="46.05997" lon="6.27239">
        <ele>822.4</ele>
        <time>2022-02-10T15:02:14Z</time>
      </trkpt>
      <trkpt lat="46.06009" lon="6.27259">
        <ele>821.6</ele>
        <time>2022-02-10T15:02:16Z</time>
      </trkpt>
      <trkpt lat="46.06017" lon="6.27266">
        <ele>820.8</ele>
        <time>2022-02-10T15:02:17Z</time>
      </trkpt>
      <trkpt lat="46.06026" lon="6.27272">
        <ele>820.8</ele>
        <time>2022-02-10T15:02:18Z</time>
      </trkpt>
      <trkpt lat="46.06036" lon="6.27277">
        <ele>820.4</ele>
        <time>2022-02-10T15:02:19Z</time>
      </trkpt>
      <trkpt lat="46.06046" lon="6.27281">
        <ele>820</ele>
        <time>2022-02-10T15:02:20Z</time>
      </trkpt>
      <trkpt lat="46.06056" lon="6.27286">
        <ele>819.4</ele>
        <time>2022-02-10T15:02:21Z</time>
      </trkpt>
      <trkpt lat="46.06066" lon="6.27292">
        <ele>819</ele>
        <time>2022-02-10T15:02:22Z</time>
      </trkpt>
      <trkpt lat="46.06075" lon="6.273">
        <ele>818.8</ele>
        <time>2022-02-10T15:02:23Z</time>
      </trkpt>
      <trkpt lat="46.06087" lon="6.27325">
        <ele>818.2</ele>
        <time>2022-02-10T15:02:25Z</time>
      </trkpt>
      <trkpt lat="46.0609" lon="6.2734">
        <ele>817.4</ele>
        <time>2022-02-10T15:02:26Z</time>
      </trkpt>
      <trkpt lat="46.06094" lon="6.27372">
        <ele>816.8</ele>
        <time>2022-02-10T15:02:28Z</time>
      </trkpt>
      <trkpt lat="46.06097" lon="6.27388">
        <ele>816</ele>
        <time>2022-02-10T15:02:29Z</time>
      </trkpt>
      <trkpt lat="46.06103" lon="6.2742">
        <ele>814.8</ele>
        <time>2022-02-10T15:02:31Z</time>
      </trkpt>
      <trkpt lat="46.06112" lon="6.27467">
        <ele>811.6</ele>
        <time>2022-02-10T15:02:34Z</time>
      </trkpt>
      <trkpt lat="46.06133" lon="6.27553">
        <ele>805.8</ele>
        <time>2022-02-10T15:02:40Z</time>
      </trkpt>
      <trkpt lat="46.06155" lon="6.27603">
        <ele>804.8</ele>
        <time>2022-02-10T15:02:44Z</time>
      </trkpt>
      <trkpt lat="46.06162" lon="6.27614">
        <ele>804.8</ele>
        <time>2022-02-10T15:02:45Z</time>
      </trkpt>
      <trkpt lat="46.06186" lon="6.27644">
        <ele>804.6</ele>
        <time>2022-02-10T15:02:48Z</time>
      </trkpt>
      <trkpt lat="46.06195" lon="6.27652">
        <ele>804.4</ele>
        <time>2022-02-10T15:02:49Z</time>
      </trkpt>
      <trkpt lat="46.06205" lon="6.2766">
        <ele>804.2</ele>
        <time>2022-02-10T15:02:50Z</time>
      </trkpt>
      <trkpt lat="46.06216" lon="6.27666">
        <ele>804.2</ele>
        <time>2022-02-10T15:02:51Z</time>
      </trkpt>
      <trkpt lat="46.06227" lon="6.2767">
        <ele>804</ele>
        <time>2022-02-10T15:02:52Z</time>
      </trkpt>
      <trkpt lat="46.06238" lon="6.27673">
        <ele>804</ele>
        <time>2022-02-10T15:02:53Z</time>
      </trkpt>
      <trkpt lat="46.06249" lon="6.27675">
        <ele>803.6</ele>
        <time>2022-02-10T15:02:54Z</time>
      </trkpt>
      <trkpt lat="46.06261" lon="6.27678">
        <ele>803.2</ele>
        <time>2022-02-10T15:02:55Z</time>
      </trkpt>
      <trkpt lat="46.06282" lon="6.27688">
        <ele>802.4</ele>
        <time>2022-02-10T15:02:57Z</time>
      </trkpt>
      <trkpt lat="46.06329" lon="6.27723">
        <ele>798.4</ele>
        <time>2022-02-10T15:03:02Z</time>
      </trkpt>
      <trkpt lat="46.06347" lon="6.2773">
        <ele>797.6</ele>
        <time>2022-02-10T15:03:04Z</time>
      </trkpt>
      <trkpt lat="46.06357" lon="6.2773">
        <ele>797</ele>
        <time>2022-02-10T15:03:05Z</time>
      </trkpt>
      <trkpt lat="46.06366" lon="6.27727">
        <ele>796.6</ele>
        <time>2022-02-10T15:03:06Z</time>
      </trkpt>
      <trkpt lat="46.06384" lon="6.27718">
        <ele>796.4</ele>
        <time>2022-02-10T15:03:08Z</time>
      </trkpt>
      <trkpt lat="46.06392" lon="6.27713">
        <ele>796.2</ele>
        <time>2022-02-10T15:03:09Z</time>
      </trkpt>
      <trkpt lat="46.06401" lon="6.27709">
        <ele>796</ele>
        <time>2022-02-10T15:03:10Z</time>
      </trkpt>
      <trkpt lat="46.0642" lon="6.27705">
        <ele>796</ele>
        <time>2022-02-10T15:03:12Z</time>
      </trkpt>
      <trkpt lat="46.06439" lon="6.27705">
        <ele>796</ele>
        <time>2022-02-10T15:03:14Z</time>
      </trkpt>
      <trkpt lat="46.06468" lon="6.27711">
        <ele>795.8</ele>
        <time>2022-02-10T15:03:17Z</time>
      </trkpt>
      <trkpt lat="46.06517" lon="6.27724">
        <ele>794.4</ele>
        <time>2022-02-10T15:03:22Z</time>
      </trkpt>
      <trkpt lat="46.06536" lon="6.27728">
        <ele>794</ele>
        <time>2022-02-10T15:03:24Z</time>
      </trkpt>
      <trkpt lat="46.06557" lon="6.27729">
        <ele>793.2</ele>
        <time>2022-02-10T15:03:26Z</time>
      </trkpt>
      <trkpt lat="46.06567" lon="6.27729">
        <ele>792.8</ele>
        <time>2022-02-10T15:03:27Z</time>
      </trkpt>
      <trkpt lat="46.06589" lon="6.27728">
        <ele>791.8</ele>
        <time>2022-02-10T15:03:29Z</time>
      </trkpt>
      <trkpt lat="46.066" lon="6.27729">
        <ele>791.8</ele>
        <time>2022-02-10T15:03:30Z</time>
      </trkpt>
      <trkpt lat="46.06611" lon="6.2773">
        <ele>791.6</ele>
        <time>2022-02-10T15:03:31Z</time>
      </trkpt>
      <trkpt lat="46.06623" lon="6.27732">
        <ele>791.4</ele>
        <time>2022-02-10T15:03:32Z</time>
      </trkpt>
      <trkpt lat="46.06634" lon="6.27733">
        <ele>791.2</ele>
        <time>2022-02-10T15:03:33Z</time>
      </trkpt>
      <trkpt lat="46.06646" lon="6.27733">
        <ele>790.8</ele>
        <time>2022-02-10T15:03:34Z</time>
      </trkpt>
      <trkpt lat="46.06669" lon="6.2773">
        <ele>789.6</ele>
        <time>2022-02-10T15:03:36Z</time>
      </trkpt>
      <trkpt lat="46.06681" lon="6.27729">
        <ele>788.6</ele>
        <time>2022-02-10T15:03:37Z</time>
      </trkpt>
      <trkpt lat="46.06693" lon="6.27728">
        <ele>788</ele>
        <time>2022-02-10T15:03:38Z</time>
      </trkpt>
      <trkpt lat="46.06705" lon="6.2773">
        <ele>787</ele>
        <time>2022-02-10T15:03:39Z</time>
      </trkpt>
      <trkpt lat="46.06727" lon="6.27736">
        <ele>785</ele>
        <time>2022-02-10T15:03:41Z</time>
      </trkpt>
      <trkpt lat="46.06748" lon="6.27749">
        <ele>782.8</ele>
        <time>2022-02-10T15:03:43Z</time>
      </trkpt>
      <trkpt lat="46.06757" lon="6.27758">
        <ele>781.6</ele>
        <time>2022-02-10T15:03:44Z</time>
      </trkpt>
      <trkpt lat="46.06776" lon="6.27774">
        <ele>779.4</ele>
        <time>2022-02-10T15:03:46Z</time>
      </trkpt>
      <trkpt lat="46.06796" lon="6.27788">
        <ele>777.4</ele>
        <time>2022-02-10T15:03:48Z</time>
      </trkpt>
      <trkpt lat="46.06806" lon="6.27793">
        <ele>777</ele>
        <time>2022-02-10T15:03:49Z</time>
      </trkpt>
      <trkpt lat="46.06827" lon="6.27803">
        <ele>776.8</ele>
        <time>2022-02-10T15:03:51Z</time>
      </trkpt>
      <trkpt lat="46.06858" lon="6.2782">
        <ele>776.4</ele>
        <time>2022-02-10T15:03:54Z</time>
      </trkpt>
      <trkpt lat="46.06869" lon="6.27826">
        <ele>776.2</ele>
        <time>2022-02-10T15:03:55Z</time>
      </trkpt>
      <trkpt lat="46.06879" lon="6.27833">
        <ele>775.4</ele>
        <time>2022-02-10T15:03:56Z</time>
      </trkpt>
      <trkpt lat="46.06888" lon="6.27841">
        <ele>774.8</ele>
        <time>2022-02-10T15:03:57Z</time>
      </trkpt>
      <trkpt lat="46.06897" lon="6.27851">
        <ele>774</ele>
        <time>2022-02-10T15:03:58Z</time>
      </trkpt>
      <trkpt lat="46.06915" lon="6.2787">
        <ele>773</ele>
        <time>2022-02-10T15:04:00Z</time>
      </trkpt>
      <trkpt lat="46.06936" lon="6.27884">
        <ele>771.8</ele>
        <time>2022-02-10T15:04:02Z</time>
      </trkpt>
      <trkpt lat="46.06967" lon="6.27893">
        <ele>770.2</ele>
        <time>2022-02-10T15:04:05Z</time>
      </trkpt>
      <trkpt lat="46.06997" lon="6.2789">
        <ele>768.8</ele>
        <time>2022-02-10T15:04:08Z</time>
      </trkpt>
      <trkpt lat="46.07006" lon="6.2789">
        <ele>768.4</ele>
        <time>2022-02-10T15:04:09Z</time>
      </trkpt>
      <trkpt lat="46.0702" lon="6.27895">
        <ele>767</ele>
        <time>2022-02-10T15:04:11Z</time>
      </trkpt>
      <trkpt lat="46.07026" lon="6.27902">
        <ele>766.2</ele>
        <time>2022-02-10T15:04:12Z</time>
      </trkpt>
      <trkpt lat="46.07028" lon="6.27912">
        <ele>766</ele>
        <time>2022-02-10T15:04:13Z</time>
      </trkpt>
      <trkpt lat="46.07028" lon="6.27925">
        <ele>765.6</ele>
        <time>2022-02-10T15:04:14Z</time>
      </trkpt>
      <trkpt lat="46.07023" lon="6.27937">
        <ele>765.2</ele>
        <time>2022-02-10T15:04:15Z</time>
      </trkpt>
      <trkpt lat="46.07011" lon="6.27957">
        <ele>764.2</ele>
        <time>2022-02-10T15:04:17Z</time>
      </trkpt>
      <trkpt lat="46.07005" lon="6.27967">
        <ele>763.6</ele>
        <time>2022-02-10T15:04:18Z</time>
      </trkpt>
      <trkpt lat="46.06991" lon="6.27985">
        <ele>763.2</ele>
        <time>2022-02-10T15:04:20Z</time>
      </trkpt>
      <trkpt lat="46.06984" lon="6.27995">
        <ele>762.8</ele>
        <time>2022-02-10T15:04:21Z</time>
      </trkpt>
      <trkpt lat="46.06969" lon="6.28014">
        <ele>760.8</ele>
        <time>2022-02-10T15:04:23Z</time>
      </trkpt>
      <trkpt lat="46.06962" lon="6.28024">
        <ele>759.6</ele>
        <time>2022-02-10T15:04:24Z</time>
      </trkpt>
      <trkpt lat="46.06946" lon="6.28042">
        <ele>757.8</ele>
        <time>2022-02-10T15:04:26Z</time>
      </trkpt>
      <trkpt lat="46.06937" lon="6.28049">
        <ele>757.2</ele>
        <time>2022-02-10T15:04:27Z</time>
      </trkpt>
      <trkpt lat="46.06928" lon="6.28053">
        <ele>756.8</ele>
        <time>2022-02-10T15:04:28Z</time>
      </trkpt>
      <trkpt lat="46.06918" lon="6.28056">
        <ele>756.2</ele>
        <time>2022-02-10T15:04:29Z</time>
      </trkpt>
      <trkpt lat="46.06907" lon="6.28059">
        <ele>755.4</ele>
        <time>2022-02-10T15:04:30Z</time>
      </trkpt>
      <trkpt lat="46.06897" lon="6.28061">
        <ele>754.8</ele>
        <time>2022-02-10T15:04:31Z</time>
      </trkpt>
      <trkpt lat="46.06887" lon="6.28062">
        <ele>754</ele>
        <time>2022-02-10T15:04:32Z</time>
      </trkpt>
      <trkpt lat="46.06877" lon="6.28062">
        <ele>753.4</ele>
        <time>2022-02-10T15:04:33Z</time>
      </trkpt>
      <trkpt lat="46.06866" lon="6.28061">
        <ele>752.8</ele>
        <time>2022-02-10T15:04:34Z</time>
      </trkpt>
      <trkpt lat="46.06846" lon="6.28056">
        <ele>751.4</ele>
        <time>2022-02-10T15:04:36Z</time>
      </trkpt>
      <trkpt lat="46.06826" lon="6.28049">
        <ele>749.8</ele>
        <time>2022-02-10T15:04:38Z</time>
      </trkpt>
      <trkpt lat="46.06816" lon="6.28045">
        <ele>749.2</ele>
        <time>2022-02-10T15:04:39Z</time>
      </trkpt>
      <trkpt lat="46.06806" lon="6.28042">
        <ele>748.2</ele>
        <time>2022-02-10T15:04:40Z</time>
      </trkpt>
      <trkpt lat="46.06775" lon="6.28032">
        <ele>745.4</ele>
        <time>2022-02-10T15:04:43Z</time>
      </trkpt>
      <trkpt lat="46.06765" lon="6.28032">
        <ele>744.6</ele>
        <time>2022-02-10T15:04:44Z</time>
      </trkpt>
      <trkpt lat="46.06754" lon="6.28035">
        <ele>743.8</ele>
        <time>2022-02-10T15:04:45Z</time>
      </trkpt>
      <trkpt lat="46.06734" lon="6.28045">
        <ele>742.2</ele>
        <time>2022-02-10T15:04:47Z</time>
      </trkpt>
      <trkpt lat="46.06724" lon="6.28051">
        <ele>741.4</ele>
        <time>2022-02-10T15:04:48Z</time>
      </trkpt>
      <trkpt lat="46.06714" lon="6.28056">
        <ele>740.8</ele>
        <time>2022-02-10T15:04:49Z</time>
      </trkpt>
      <trkpt lat="46.06683" lon="6.28068">
        <ele>739</ele>
        <time>2022-02-10T15:04:52Z</time>
      </trkpt>
      <trkpt lat="46.06673" lon="6.28072">
        <ele>738.4</ele>
        <time>2022-02-10T15:04:53Z</time>
      </trkpt>
      <trkpt lat="46.06663" lon="6.28078">
        <ele>737.6</ele>
        <time>2022-02-10T15:04:54Z</time>
      </trkpt>
      <trkpt lat="46.06644" lon="6.28091">
        <ele>736</ele>
        <time>2022-02-10T15:04:56Z</time>
      </trkpt>
      <trkpt lat="46.06615" lon="6.28111">
        <ele>733.8</ele>
        <time>2022-02-10T15:04:59Z</time>
      </trkpt>
      <trkpt lat="46.06595" lon="6.28124">
        <ele>732.6</ele>
        <time>2022-02-10T15:05:01Z</time>
      </trkpt>
      <trkpt lat="46.06576" lon="6.28135">
        <ele>731.4</ele>
        <time>2022-02-10T15:05:03Z</time>
      </trkpt>
      <trkpt lat="46.06561" lon="6.28147">
        <ele>730.4</ele>
        <time>2022-02-10T15:05:05Z</time>
      </trkpt>
      <trkpt lat="46.06554" lon="6.28155">
        <ele>729.8</ele>
        <time>2022-02-10T15:05:06Z</time>
      </trkpt>
      <trkpt lat="46.06543" lon="6.2817">
        <ele>728.8</ele>
        <time>2022-02-10T15:05:08Z</time>
      </trkpt>
      <trkpt lat="46.06536" lon="6.28189">
        <ele>727.4</ele>
        <time>2022-02-10T15:05:10Z</time>
      </trkpt>
      <trkpt lat="46.06533" lon="6.282">
        <ele>727</ele>
        <time>2022-02-10T15:05:11Z</time>
      </trkpt>
      <trkpt lat="46.06533" lon="6.28212">
        <ele>726.6</ele>
        <time>2022-02-10T15:05:12Z</time>
      </trkpt>
      <trkpt lat="46.06534" lon="6.28223">
        <ele>726.4</ele>
        <time>2022-02-10T15:05:13Z</time>
      </trkpt>
      <trkpt lat="46.06538" lon="6.28248">
        <ele>726</ele>
        <time>2022-02-10T15:05:15Z</time>
      </trkpt>
      <trkpt lat="46.06538" lon="6.28262">
        <ele>726</ele>
        <time>2022-02-10T15:05:16Z</time>
      </trkpt>
      <trkpt lat="46.06537" lon="6.28277">
        <ele>726</ele>
        <time>2022-02-10T15:05:17Z</time>
      </trkpt>
      <trkpt lat="46.06536" lon="6.28292">
        <ele>726</ele>
        <time>2022-02-10T15:05:18Z</time>
      </trkpt>
      <trkpt lat="46.06535" lon="6.28306">
        <ele>725.8</ele>
        <time>2022-02-10T15:05:19Z</time>
      </trkpt>
      <trkpt lat="46.06533" lon="6.28335">
        <ele>725.2</ele>
        <time>2022-02-10T15:05:21Z</time>
      </trkpt>
      <trkpt lat="46.06532" lon="6.2835">
        <ele>724.6</ele>
        <time>2022-02-10T15:05:22Z</time>
      </trkpt>
      <trkpt lat="46.06532" lon="6.28365">
        <ele>723.8</ele>
        <time>2022-02-10T15:05:23Z</time>
      </trkpt>
      <trkpt lat="46.06525" lon="6.28392">
        <ele>721.8</ele>
        <time>2022-02-10T15:05:25Z</time>
      </trkpt>
      <trkpt lat="46.06519" lon="6.28404">
        <ele>721</ele>
        <time>2022-02-10T15:05:26Z</time>
      </trkpt>
      <trkpt lat="46.06512" lon="6.28415">
        <ele>720.2</ele>
        <time>2022-02-10T15:05:27Z</time>
      </trkpt>
      <trkpt lat="46.06504" lon="6.28426">
        <ele>719.4</ele>
        <time>2022-02-10T15:05:28Z</time>
      </trkpt>
      <trkpt lat="46.06495" lon="6.28436">
        <ele>718.2</ele>
        <time>2022-02-10T15:05:29Z</time>
      </trkpt>
      <trkpt lat="46.06478" lon="6.28455">
        <ele>716.4</ele>
        <time>2022-02-10T15:05:31Z</time>
      </trkpt>
      <trkpt lat="46.0647" lon="6.28466">
        <ele>715.6</ele>
        <time>2022-02-10T15:05:32Z</time>
      </trkpt>
      <trkpt lat="46.06464" lon="6.28479">
        <ele>715</ele>
        <time>2022-02-10T15:05:33Z</time>
      </trkpt>
      <trkpt lat="46.06458" lon="6.28493">
        <ele>714.2</ele>
        <time>2022-02-10T15:05:34Z</time>
      </trkpt>
      <trkpt lat="46.06453" lon="6.28508">
        <ele>713</ele>
        <time>2022-02-10T15:05:35Z</time>
      </trkpt>
      <trkpt lat="46.0645" lon="6.28524">
        <ele>712</ele>
        <time>2022-02-10T15:05:36Z</time>
      </trkpt>
      <trkpt lat="46.06447" lon="6.2854">
        <ele>710.6</ele>
        <time>2022-02-10T15:05:37Z</time>
      </trkpt>
      <trkpt lat="46.06447" lon="6.28557">
        <ele>709.6</ele>
        <time>2022-02-10T15:05:38Z</time>
      </trkpt>
      <trkpt lat="46.06452" lon="6.28592">
        <ele>707.4</ele>
        <time>2022-02-10T15:05:40Z</time>
      </trkpt>
      <trkpt lat="46.06454" lon="6.2861">
        <ele>706.6</ele>
        <time>2022-02-10T15:05:41Z</time>
      </trkpt>
      <trkpt lat="46.06456" lon="6.28628">
        <ele>705.6</ele>
        <time>2022-02-10T15:05:42Z</time>
      </trkpt>
      <trkpt lat="46.06457" lon="6.28647">
        <ele>704.4</ele>
        <time>2022-02-10T15:05:43Z</time>
      </trkpt>
      <trkpt lat="46.06458" lon="6.28666">
        <ele>703.2</ele>
        <time>2022-02-10T15:05:44Z</time>
      </trkpt>
      <trkpt lat="46.06457" lon="6.28684">
        <ele>702</ele>
        <time>2022-02-10T15:05:45Z</time>
      </trkpt>
      <trkpt lat="46.06455" lon="6.28702">
        <ele>700.8</ele>
        <time>2022-02-10T15:05:46Z</time>
      </trkpt>
      <trkpt lat="46.0645" lon="6.28746">
        <ele>698</ele>
        <time>2022-02-10T15:05:49Z</time>
      </trkpt>
      <trkpt lat="46.06446" lon="6.2877">
        <ele>696</ele>
        <time>2022-02-10T15:05:51Z</time>
      </trkpt>
      <trkpt lat="46.06441" lon="6.28793">
        <ele>693</ele>
        <time>2022-02-10T15:05:53Z</time>
      </trkpt>
      <trkpt lat="46.06435" lon="6.28816">
        <ele>691.4</ele>
        <time>2022-02-10T15:05:55Z</time>
      </trkpt>
      <trkpt lat="46.0643" lon="6.28836">
        <ele>690.2</ele>
        <time>2022-02-10T15:05:57Z</time>
      </trkpt>
      <trkpt lat="46.06434" lon="6.28856">
        <ele>689.2</ele>
        <time>2022-02-10T15:05:59Z</time>
      </trkpt>
      <trkpt lat="46.06441" lon="6.28876">
        <ele>688.4</ele>
        <time>2022-02-10T15:06:01Z</time>
      </trkpt>
      <trkpt lat="46.06446" lon="6.28898">
        <ele>687.8</ele>
        <time>2022-02-10T15:06:03Z</time>
      </trkpt>
      <trkpt lat="46.06451" lon="6.28921">
        <ele>687.8</ele>
        <time>2022-02-10T15:06:05Z</time>
      </trkpt>
      <trkpt lat="46.06461" lon="6.28959">
        <ele>687</ele>
        <time>2022-02-10T15:06:08Z</time>
      </trkpt>
      <trkpt lat="46.06464" lon="6.28972">
        <ele>686.6</ele>
        <time>2022-02-10T15:06:09Z</time>
      </trkpt>
      <trkpt lat="46.06467" lon="6.28984">
        <ele>686.6</ele>
        <time>2022-02-10T15:06:10Z</time>
      </trkpt>
      <trkpt lat="46.06471" lon="6.28998">
        <ele>686.6</ele>
        <time>2022-02-10T15:06:11Z</time>
      </trkpt>
      <trkpt lat="46.06481" lon="6.29038">
        <ele>685.6</ele>
        <time>2022-02-10T15:06:14Z</time>
      </trkpt>
      <trkpt lat="46.06484" lon="6.29052">
        <ele>685.4</ele>
        <time>2022-02-10T15:06:15Z</time>
      </trkpt>
      <trkpt lat="46.06492" lon="6.2908">
        <ele>684.6</ele>
        <time>2022-02-10T15:06:17Z</time>
      </trkpt>
      <trkpt lat="46.06498" lon="6.29093">
        <ele>684</ele>
        <time>2022-02-10T15:06:18Z</time>
      </trkpt>
      <trkpt lat="46.06506" lon="6.29105">
        <ele>683</ele>
        <time>2022-02-10T15:06:19Z</time>
      </trkpt>
      <trkpt lat="46.06515" lon="6.29115">
        <ele>682.4</ele>
        <time>2022-02-10T15:06:20Z</time>
      </trkpt>
      <trkpt lat="46.06524" lon="6.29124">
        <ele>681.8</ele>
        <time>2022-02-10T15:06:21Z</time>
      </trkpt>
      <trkpt lat="46.06535" lon="6.29131">
        <ele>681.4</ele>
        <time>2022-02-10T15:06:22Z</time>
      </trkpt>
      <trkpt lat="46.06546" lon="6.29135">
        <ele>680.8</ele>
        <time>2022-02-10T15:06:23Z</time>
      </trkpt>
      <trkpt lat="46.06557" lon="6.29136">
        <ele>680</ele>
        <time>2022-02-10T15:06:24Z</time>
      </trkpt>
      <trkpt lat="46.06569" lon="6.29135">
        <ele>679.2</ele>
        <time>2022-02-10T15:06:25Z</time>
      </trkpt>
      <trkpt lat="46.06581" lon="6.29133">
        <ele>678.6</ele>
        <time>2022-02-10T15:06:26Z</time>
      </trkpt>
      <trkpt lat="46.06594" lon="6.2913">
        <ele>677.6</ele>
        <time>2022-02-10T15:06:27Z</time>
      </trkpt>
      <trkpt lat="46.06606" lon="6.29127">
        <ele>676.6</ele>
        <time>2022-02-10T15:06:28Z</time>
      </trkpt>
      <trkpt lat="46.06631" lon="6.29119">
        <ele>675</ele>
        <time>2022-02-10T15:06:30Z</time>
      </trkpt>
      <trkpt lat="46.06644" lon="6.29116">
        <ele>674.4</ele>
        <time>2022-02-10T15:06:31Z</time>
      </trkpt>
      <trkpt lat="46.06656" lon="6.29113">
        <ele>673.4</ele>
        <time>2022-02-10T15:06:32Z</time>
      </trkpt>
      <trkpt lat="46.06676" lon="6.29107">
        <ele>670.4</ele>
        <time>2022-02-10T15:06:34Z</time>
      </trkpt>
      <trkpt lat="46.06686" lon="6.29105">
        <ele>669.2</ele>
        <time>2022-02-10T15:06:35Z</time>
      </trkpt>
      <trkpt lat="46.06695" lon="6.29105">
        <ele>667.8</ele>
        <time>2022-02-10T15:06:36Z</time>
      </trkpt>
      <trkpt lat="46.06703" lon="6.29107">
        <ele>666.4</ele>
        <time>2022-02-10T15:06:37Z</time>
      </trkpt>
      <trkpt lat="46.06709" lon="6.29112">
        <ele>665.8</ele>
        <time>2022-02-10T15:06:38Z</time>
      </trkpt>
      <trkpt lat="46.06714" lon="6.29119">
        <ele>664.6</ele>
        <time>2022-02-10T15:06:39Z</time>
      </trkpt>
      <trkpt lat="46.06717" lon="6.29128">
        <ele>663.6</ele>
        <time>2022-02-10T15:06:40Z</time>
      </trkpt>
      <trkpt lat="46.06716" lon="6.29148">
        <ele>661.6</ele>
        <time>2022-02-10T15:06:42Z</time>
      </trkpt>
      <trkpt lat="46.06713" lon="6.29159">
        <ele>661</ele>
        <time>2022-02-10T15:06:43Z</time>
      </trkpt>
      <trkpt lat="46.06709" lon="6.29169">
        <ele>660.2</ele>
        <time>2022-02-10T15:06:44Z</time>
      </trkpt>
      <trkpt lat="46.06698" lon="6.29186">
        <ele>659.4</ele>
        <time>2022-02-10T15:06:46Z</time>
      </trkpt>
      <trkpt lat="46.06686" lon="6.29205">
        <ele>658.4</ele>
        <time>2022-02-10T15:06:48Z</time>
      </trkpt>
      <trkpt lat="46.06667" lon="6.29234">
        <ele>656</ele>
        <time>2022-02-10T15:06:51Z</time>
      </trkpt>
      <trkpt lat="46.06654" lon="6.29254">
        <ele>654</ele>
        <time>2022-02-10T15:06:53Z</time>
      </trkpt>
      <trkpt lat="46.06648" lon="6.29264">
        <ele>653</ele>
        <time>2022-02-10T15:06:54Z</time>
      </trkpt>
      <trkpt lat="46.06617" lon="6.29312">
        <ele>649</ele>
        <time>2022-02-10T15:06:59Z</time>
      </trkpt>
      <trkpt lat="46.06611" lon="6.29321">
        <ele>648.2</ele>
        <time>2022-02-10T15:07:00Z</time>
      </trkpt>
      <trkpt lat="46.06588" lon="6.29358">
        <ele>646.2</ele>
        <time>2022-02-10T15:07:05Z</time>
      </trkpt>
      <trkpt lat="46.06581" lon="6.29367">
        <ele>645.6</ele>
        <time>2022-02-10T15:07:07Z</time>
      </trkpt>
      <trkpt lat="46.0658" lon="6.29377">
        <ele>644.8</ele>
        <time>2022-02-10T15:07:09Z</time>
      </trkpt>
      <trkpt lat="46.06582" lon="6.29381">
        <ele>644.6</ele>
        <time>2022-02-10T15:07:10Z</time>
      </trkpt>
      <trkpt lat="46.0659" lon="6.29396">
        <ele>644</ele>
        <time>2022-02-10T15:07:13Z</time>
      </trkpt>
      <trkpt lat="46.066" lon="6.29412">
        <ele>643.6</ele>
        <time>2022-02-10T15:07:16Z</time>
      </trkpt>
      <trkpt lat="46.06608" lon="6.29426">
        <ele>643.2</ele>
        <time>2022-02-10T15:07:19Z</time>
      </trkpt>
      <trkpt lat="46.06613" lon="6.29438">
        <ele>642</ele>
        <time>2022-02-10T15:07:23Z</time>
      </trkpt>
      <trkpt lat="46.06612" lon="6.29441">
        <ele>641.8</ele>
        <time>2022-02-10T15:07:24Z</time>
      </trkpt>
      <trkpt lat="46.06611" lon="6.29446">
        <ele>640.4</ele>
        <time>2022-02-10T15:07:28Z</time>
      </trkpt>
      <trkpt lat="46.06611" lon="6.29445">
        <ele>639.8</ele>
        <time>2022-02-10T15:07:37Z</time>
      </trkpt>
      <trkpt lat="46.0661" lon="6.29449">
        <ele>639.6</ele>
        <time>2022-02-10T15:07:48Z</time>
      </trkpt>
      <trkpt lat="46.066" lon="6.29467">
        <ele>639.6</ele>
        <time>2022-02-10T15:07:54Z</time>
      </trkpt>
      <trkpt lat="46.06598" lon="6.2947">
        <ele>639.4</ele>
        <time>2022-02-10T15:07:55Z</time>
      </trkpt>
      <trkpt lat="46.0659" lon="6.29488">
        <ele>639.2</ele>
        <time>2022-02-10T15:08:00Z</time>
      </trkpt>
      <trkpt lat="46.06581" lon="6.29507">
        <ele>638.4</ele>
        <time>2022-02-10T15:08:06Z</time>
      </trkpt>
      <trkpt lat="46.06588" lon="6.29508">
        <ele>638</ele>
        <time>2022-02-10T15:08:09Z</time>
      </trkpt>
      <trkpt lat="46.0659" lon="6.29504">
        <ele>637.8</ele>
        <time>2022-02-10T15:08:10Z</time>
      </trkpt>
      <trkpt lat="46.06596" lon="6.29494">
        <ele>637.4</ele>
        <time>2022-02-10T15:08:13Z</time>
      </trkpt>
      <trkpt lat="46.06615" lon="6.29478">
        <ele>637.2</ele>
        <time>2022-02-10T15:08:18Z</time>
      </trkpt>
      <trkpt lat="46.06635" lon="6.2946">
        <ele>637.2</ele>
        <time>2022-02-10T15:08:24Z</time>
      </trkpt>
      <trkpt lat="46.0664" lon="6.2946">
        <ele>637.2</ele>
        <time>2022-02-10T15:08:27Z</time>
      </trkpt>
      <trkpt lat="46.06648" lon="6.29463">
        <ele>637.2</ele>
        <time>2022-02-10T15:08:29Z</time>
      </trkpt>
      <trkpt lat="46.06662" lon="6.29468">
        <ele>637</ele>
        <time>2022-02-10T15:08:32Z</time>
      </trkpt>
      <trkpt lat="46.06667" lon="6.29468">
        <ele>637</ele>
        <time>2022-02-10T15:08:33Z</time>
      </trkpt>
      <trkpt lat="46.06672" lon="6.29468">
        <ele>636.8</ele>
        <time>2022-02-10T15:08:34Z</time>
      </trkpt>
      <trkpt lat="46.06677" lon="6.29466">
        <ele>636.8</ele>
        <time>2022-02-10T15:08:35Z</time>
      </trkpt>
      <trkpt lat="46.067" lon="6.29458">
        <ele>636.8</ele>
        <time>2022-02-10T15:08:39Z</time>
      </trkpt>
      <trkpt lat="46.06719" lon="6.29453">
        <ele>636.4</ele>
        <time>2022-02-10T15:08:42Z</time>
      </trkpt>
      <trkpt lat="46.06748" lon="6.29447">
        <ele>635</ele>
        <time>2022-02-10T15:08:46Z</time>
      </trkpt>
      <trkpt lat="46.06755" lon="6.29445">
        <ele>635</ele>
        <time>2022-02-10T15:08:47Z</time>
      </trkpt>
      <trkpt lat="46.06763" lon="6.29444">
        <ele>634.8</ele>
        <time>2022-02-10T15:08:48Z</time>
      </trkpt>
      <trkpt lat="46.0678" lon="6.29444">
        <ele>634.4</ele>
        <time>2022-02-10T15:08:51Z</time>
      </trkpt>
      <trkpt lat="46.06786" lon="6.29443">
        <ele>634.2</ele>
        <time>2022-02-10T15:08:52Z</time>
      </trkpt>
      <trkpt lat="46.06796" lon="6.29438">
        <ele>633.8</ele>
        <time>2022-02-10T15:08:54Z</time>
      </trkpt>
      <trkpt lat="46.06802" lon="6.29433">
        <ele>633.4</ele>
        <time>2022-02-10T15:08:55Z</time>
      </trkpt>
      <trkpt lat="46.06845" lon="6.29402">
        <ele>633.2</ele>
        <time>2022-02-10T15:09:03Z</time>
      </trkpt>
      <trkpt lat="46.06851" lon="6.29399">
        <ele>633</ele>
        <time>2022-02-10T15:09:04Z</time>
      </trkpt>
      <trkpt lat="46.06877" lon="6.29374">
        <ele>633.6</ele>
        <time>2022-02-10T15:09:09Z</time>
      </trkpt>
      <trkpt lat="46.06883" lon="6.29369">
        <ele>633.6</ele>
        <time>2022-02-10T15:09:10Z</time>
      </trkpt>
      <trkpt lat="46.06922" lon="6.29327">
        <ele>635</ele>
        <time>2022-02-10T15:09:18Z</time>
      </trkpt>
      <trkpt lat="46.06934" lon="6.29321">
        <ele>635.2</ele>
        <time>2022-02-10T15:09:20Z</time>
      </trkpt>
      <trkpt lat="46.06952" lon="6.29312">
        <ele>636</ele>
        <time>2022-02-10T15:09:23Z</time>
      </trkpt>
      <trkpt lat="46.06972" lon="6.29302">
        <ele>636.4</ele>
        <time>2022-02-10T15:09:26Z</time>
      </trkpt>
      <trkpt lat="46.06993" lon="6.29289">
        <ele>636.2</ele>
        <time>2022-02-10T15:09:29Z</time>
      </trkpt>
      <trkpt lat="46.07008" lon="6.29279">
        <ele>636.4</ele>
        <time>2022-02-10T15:09:31Z</time>
      </trkpt>
      <trkpt lat="46.07025" lon="6.29268">
        <ele>636.4</ele>
        <time>2022-02-10T15:09:33Z</time>
      </trkpt>
      <trkpt lat="46.0704" lon="6.29254">
        <ele>635.8</ele>
        <time>2022-02-10T15:09:35Z</time>
      </trkpt>
      <trkpt lat="46.07048" lon="6.29246">
        <ele>635.6</ele>
        <time>2022-02-10T15:09:36Z</time>
      </trkpt>
      <trkpt lat="46.07063" lon="6.29232">
        <ele>634.6</ele>
        <time>2022-02-10T15:09:38Z</time>
      </trkpt>
      <trkpt lat="46.0708" lon="6.29223">
        <ele>633.4</ele>
        <time>2022-02-10T15:09:40Z</time>
      </trkpt>
      <trkpt lat="46.07088" lon="6.2922">
        <ele>632.6</ele>
        <time>2022-02-10T15:09:41Z</time>
      </trkpt>
      <trkpt lat="46.07103" lon="6.29215">
        <ele>632</ele>
        <time>2022-02-10T15:09:43Z</time>
      </trkpt>
      <trkpt lat="46.07117" lon="6.29209">
        <ele>631.8</ele>
        <time>2022-02-10T15:09:45Z</time>
      </trkpt>
      <trkpt lat="46.07173" lon="6.29181">
        <ele>632</ele>
        <time>2022-02-10T15:09:53Z</time>
      </trkpt>
      <trkpt lat="46.0718" lon="6.29177">
        <ele>631.8</ele>
        <time>2022-02-10T15:09:54Z</time>
      </trkpt>
      <trkpt lat="46.07228" lon="6.29148">
        <ele>632.2</ele>
        <time>2022-02-10T15:10:01Z</time>
      </trkpt>
      <trkpt lat="46.07234" lon="6.29144">
        <ele>632.2</ele>
        <time>2022-02-10T15:10:02Z</time>
      </trkpt>
      <trkpt lat="46.07239" lon="6.2914">
        <ele>632.2</ele>
        <time>2022-02-10T15:10:03Z</time>
      </trkpt>
      <trkpt lat="46.07252" lon="6.29129">
        <ele>632</ele>
        <time>2022-02-10T15:10:06Z</time>
      </trkpt>
      <trkpt lat="46.07256" lon="6.29126">
        <ele>632.2</ele>
        <time>2022-02-10T15:10:07Z</time>
      </trkpt>
      <trkpt lat="46.07262" lon="6.29117">
        <ele>632.8</ele>
        <time>2022-02-10T15:10:09Z</time>
      </trkpt>
      <trkpt lat="46.07265" lon="6.29112">
        <ele>633.2</ele>
        <time>2022-02-10T15:10:10Z</time>
      </trkpt>
      <trkpt lat="46.07273" lon="6.29096">
        <ele>634.8</ele>
        <time>2022-02-10T15:10:13Z</time>
      </trkpt>
      <trkpt lat="46.07276" lon="6.2909">
        <ele>635</ele>
        <time>2022-02-10T15:10:14Z</time>
      </trkpt>
      <trkpt lat="46.07285" lon="6.2905">
        <ele>637.4</ele>
        <time>2022-02-10T15:10:20Z</time>
      </trkpt>
      <trkpt lat="46.07295" lon="6.28991">
        <ele>638</ele>
        <time>2022-02-10T15:10:27Z</time>
      </trkpt>
      <trkpt lat="46.07306" lon="6.28977">
        <ele>638</ele>
        <time>2022-02-10T15:10:29Z</time>
      </trkpt>
      <trkpt lat="46.07321" lon="6.28974">
        <ele>638</ele>
        <time>2022-02-10T15:10:31Z</time>
      </trkpt>
      <trkpt lat="46.0733" lon="6.28978">
        <ele>637.8</ele>
        <time>2022-02-10T15:10:32Z</time>
      </trkpt>
      <trkpt lat="46.07337" lon="6.28986">
        <ele>637.8</ele>
        <time>2022-02-10T15:10:33Z</time>
      </trkpt>
      <trkpt lat="46.07344" lon="6.28996">
        <ele>637.8</ele>
        <time>2022-02-10T15:10:34Z</time>
      </trkpt>
      <trkpt lat="46.07351" lon="6.29006">
        <ele>637.6</ele>
        <time>2022-02-10T15:10:35Z</time>
      </trkpt>
      <trkpt lat="46.07358" lon="6.29016">
        <ele>637.2</ele>
        <time>2022-02-10T15:10:36Z</time>
      </trkpt>
      <trkpt lat="46.07375" lon="6.2903">
        <ele>635.8</ele>
        <time>2022-02-10T15:10:38Z</time>
      </trkpt>
      <trkpt lat="46.07396" lon="6.29038">
        <ele>632.6</ele>
        <time>2022-02-10T15:10:41Z</time>
      </trkpt>
      <trkpt lat="46.07424" lon="6.29042">
        <ele>628.2</ele>
        <time>2022-02-10T15:10:46Z</time>
      </trkpt>
      <trkpt lat="46.07445" lon="6.29045">
        <ele>627.8</ele>
        <time>2022-02-10T15:10:49Z</time>
      </trkpt>
      <trkpt lat="46.07452" lon="6.29046">
        <ele>627.6</ele>
        <time>2022-02-10T15:10:50Z</time>
      </trkpt>
      <trkpt lat="46.07461" lon="6.29047">
        <ele>627.4</ele>
        <time>2022-02-10T15:10:51Z</time>
      </trkpt>
      <trkpt lat="46.07469" lon="6.29049">
        <ele>627.2</ele>
        <time>2022-02-10T15:10:52Z</time>
      </trkpt>
      <trkpt lat="46.07488" lon="6.2905">
        <ele>627.2</ele>
        <time>2022-02-10T15:10:54Z</time>
      </trkpt>
      <trkpt lat="46.07498" lon="6.2905">
        <ele>626.8</ele>
        <time>2022-02-10T15:10:55Z</time>
      </trkpt>
      <trkpt lat="46.07507" lon="6.29048">
        <ele>626.4</ele>
        <time>2022-02-10T15:10:56Z</time>
      </trkpt>
      <trkpt lat="46.07526" lon="6.29041">
        <ele>625.4</ele>
        <time>2022-02-10T15:10:58Z</time>
      </trkpt>
      <trkpt lat="46.07533" lon="6.29035">
        <ele>625</ele>
        <time>2022-02-10T15:10:59Z</time>
      </trkpt>
      <trkpt lat="46.07547" lon="6.29019">
        <ele>623.2</ele>
        <time>2022-02-10T15:11:01Z</time>
      </trkpt>
      <trkpt lat="46.07553" lon="6.29011">
        <ele>622.8</ele>
        <time>2022-02-10T15:11:02Z</time>
      </trkpt>
      <trkpt lat="46.07563" lon="6.28996">
        <ele>622.6</ele>
        <time>2022-02-10T15:11:04Z</time>
      </trkpt>
      <trkpt lat="46.07566" lon="6.28988">
        <ele>622.4</ele>
        <time>2022-02-10T15:11:05Z</time>
      </trkpt>
      <trkpt lat="46.07568" lon="6.28981">
        <ele>622.4</ele>
        <time>2022-02-10T15:11:06Z</time>
      </trkpt>
      <trkpt lat="46.07573" lon="6.28966">
        <ele>622.2</ele>
        <time>2022-02-10T15:11:08Z</time>
      </trkpt>
      <trkpt lat="46.07577" lon="6.2896">
        <ele>622.2</ele>
        <time>2022-02-10T15:11:09Z</time>
      </trkpt>
      <trkpt lat="46.07581" lon="6.28954">
        <ele>622.4</ele>
        <time>2022-02-10T15:11:10Z</time>
      </trkpt>
      <trkpt lat="46.07597" lon="6.28938">
        <ele>623</ele>
        <time>2022-02-10T15:11:13Z</time>
      </trkpt>
      <trkpt lat="46.07616" lon="6.28924">
        <ele>624.2</ele>
        <time>2022-02-10T15:11:16Z</time>
      </trkpt>
      <trkpt lat="46.07636" lon="6.28906">
        <ele>624.4</ele>
        <time>2022-02-10T15:11:19Z</time>
      </trkpt>
      <trkpt lat="46.07656" lon="6.28881">
        <ele>624.2</ele>
        <time>2022-02-10T15:11:22Z</time>
      </trkpt>
      <trkpt lat="46.07675" lon="6.28855">
        <ele>623.8</ele>
        <time>2022-02-10T15:11:25Z</time>
      </trkpt>
      <trkpt lat="46.0769" lon="6.28839">
        <ele>623</ele>
        <time>2022-02-10T15:11:27Z</time>
      </trkpt>
      <trkpt lat="46.07705" lon="6.28824">
        <ele>621.8</ele>
        <time>2022-02-10T15:11:29Z</time>
      </trkpt>
      <trkpt lat="46.07713" lon="6.28817">
        <ele>621.8</ele>
        <time>2022-02-10T15:11:30Z</time>
      </trkpt>
      <trkpt lat="46.07729" lon="6.28803">
        <ele>621</ele>
        <time>2022-02-10T15:11:32Z</time>
      </trkpt>
      <trkpt lat="46.07776" lon="6.28762">
        <ele>619.8</ele>
        <time>2022-02-10T15:11:38Z</time>
      </trkpt>
      <trkpt lat="46.07798" lon="6.28741">
        <ele>618.8</ele>
        <time>2022-02-10T15:11:41Z</time>
      </trkpt>
      <trkpt lat="46.07811" lon="6.28726">
        <ele>618.6</ele>
        <time>2022-02-10T15:11:43Z</time>
      </trkpt>
      <trkpt lat="46.07816" lon="6.28718">
        <ele>618.6</ele>
        <time>2022-02-10T15:11:44Z</time>
      </trkpt>
      <trkpt lat="46.0782" lon="6.28709">
        <ele>618.6</ele>
        <time>2022-02-10T15:11:45Z</time>
      </trkpt>
      <trkpt lat="46.07835" lon="6.28673">
        <ele>618.4</ele>
        <time>2022-02-10T15:11:49Z</time>
      </trkpt>
      <trkpt lat="46.07839" lon="6.28666">
        <ele>618.6</ele>
        <time>2022-02-10T15:11:50Z</time>
      </trkpt>
      <trkpt lat="46.07868" lon="6.28632">
        <ele>619.6</ele>
        <time>2022-02-10T15:11:55Z</time>
      </trkpt>
      <trkpt lat="46.07897" lon="6.28604">
        <ele>620.2</ele>
        <time>2022-02-10T15:12:00Z</time>
      </trkpt>
      <trkpt lat="46.07902" lon="6.286">
        <ele>620.6</ele>
        <time>2022-02-10T15:12:01Z</time>
      </trkpt>
      <trkpt lat="46.07916" lon="6.28596">
        <ele>620.6</ele>
        <time>2022-02-10T15:12:03Z</time>
      </trkpt>
      <trkpt lat="46.07923" lon="6.28596">
        <ele>620.6</ele>
        <time>2022-02-10T15:12:04Z</time>
      </trkpt>
      <trkpt lat="46.07938" lon="6.28597">
        <ele>620.8</ele>
        <time>2022-02-10T15:12:06Z</time>
      </trkpt>
      <trkpt lat="46.07954" lon="6.286">
        <ele>620.8</ele>
        <time>2022-02-10T15:12:08Z</time>
      </trkpt>
      <trkpt lat="46.07962" lon="6.28602">
        <ele>620.6</ele>
        <time>2022-02-10T15:12:09Z</time>
      </trkpt>
      <trkpt lat="46.07985" lon="6.28605">
        <ele>620.6</ele>
        <time>2022-02-10T15:12:12Z</time>
      </trkpt>
      <trkpt lat="46.07999" lon="6.28604">
        <ele>620.6</ele>
        <time>2022-02-10T15:12:14Z</time>
      </trkpt>
      <trkpt lat="46.08007" lon="6.28602">
        <ele>620.4</ele>
        <time>2022-02-10T15:12:15Z</time>
      </trkpt>
      <trkpt lat="46.08023" lon="6.28597">
        <ele>619.2</ele>
        <time>2022-02-10T15:12:17Z</time>
      </trkpt>
      <trkpt lat="46.08031" lon="6.28593">
        <ele>618.8</ele>
        <time>2022-02-10T15:12:18Z</time>
      </trkpt>
      <trkpt lat="46.08048" lon="6.28583">
        <ele>618</ele>
        <time>2022-02-10T15:12:20Z</time>
      </trkpt>
      <trkpt lat="46.08082" lon="6.28564">
        <ele>616.2</ele>
        <time>2022-02-10T15:12:24Z</time>
      </trkpt>
      <trkpt lat="46.08124" lon="6.28551">
        <ele>613.6</ele>
        <time>2022-02-10T15:12:29Z</time>
      </trkpt>
      <trkpt lat="46.08167" lon="6.28542">
        <ele>612.8</ele>
        <time>2022-02-10T15:12:34Z</time>
      </trkpt>
      <trkpt lat="46.08175" lon="6.2854">
        <ele>612.6</ele>
        <time>2022-02-10T15:12:35Z</time>
      </trkpt>
      <trkpt lat="46.08193" lon="6.28538">
        <ele>612.4</ele>
        <time>2022-02-10T15:12:37Z</time>
      </trkpt>
      <trkpt lat="46.08211" lon="6.2854">
        <ele>612.6</ele>
        <time>2022-02-10T15:12:39Z</time>
      </trkpt>
      <trkpt lat="46.0823" lon="6.28546">
        <ele>612.4</ele>
        <time>2022-02-10T15:12:41Z</time>
      </trkpt>
      <trkpt lat="46.0825" lon="6.2855">
        <ele>612.4</ele>
        <time>2022-02-10T15:12:43Z</time>
      </trkpt>
      <trkpt lat="46.0827" lon="6.28549">
        <ele>612</ele>
        <time>2022-02-10T15:12:45Z</time>
      </trkpt>
      <trkpt lat="46.0829" lon="6.28544">
        <ele>611.4</ele>
        <time>2022-02-10T15:12:47Z</time>
      </trkpt>
      <trkpt lat="46.08309" lon="6.28537">
        <ele>610</ele>
        <time>2022-02-10T15:12:49Z</time>
      </trkpt>
      <trkpt lat="46.08326" lon="6.28526">
        <ele>608.2</ele>
        <time>2022-02-10T15:12:51Z</time>
      </trkpt>
      <trkpt lat="46.08373" lon="6.28492">
        <ele>605.8</ele>
        <time>2022-02-10T15:12:57Z</time>
      </trkpt>
      <trkpt lat="46.08379" lon="6.28486">
        <ele>605.8</ele>
        <time>2022-02-10T15:12:58Z</time>
      </trkpt>
      <trkpt lat="46.08391" lon="6.28474">
        <ele>605.8</ele>
        <time>2022-02-10T15:13:00Z</time>
      </trkpt>
      <trkpt lat="46.08397" lon="6.28471">
        <ele>605.8</ele>
        <time>2022-02-10T15:13:01Z</time>
      </trkpt>
      <trkpt lat="46.08403" lon="6.28471">
        <ele>605.8</ele>
        <time>2022-02-10T15:13:02Z</time>
      </trkpt>
      <trkpt lat="46.08414" lon="6.28481">
        <ele>605.8</ele>
        <time>2022-02-10T15:13:04Z</time>
      </trkpt>
      <trkpt lat="46.08418" lon="6.28488">
        <ele>605.8</ele>
        <time>2022-02-10T15:13:05Z</time>
      </trkpt>
      <trkpt lat="46.08427" lon="6.28507">
        <ele>606.2</ele>
        <time>2022-02-10T15:13:07Z</time>
      </trkpt>
      <trkpt lat="46.08431" lon="6.28517">
        <ele>606.2</ele>
        <time>2022-02-10T15:13:08Z</time>
      </trkpt>
      <trkpt lat="46.08435" lon="6.28528">
        <ele>606.2</ele>
        <time>2022-02-10T15:13:09Z</time>
      </trkpt>
      <trkpt lat="46.08441" lon="6.28539">
        <ele>606</ele>
        <time>2022-02-10T15:13:10Z</time>
      </trkpt>
      <trkpt lat="46.08448" lon="6.28548">
        <ele>606.2</ele>
        <time>2022-02-10T15:13:11Z</time>
      </trkpt>
      <trkpt lat="46.08456" lon="6.28554">
        <ele>606.2</ele>
        <time>2022-02-10T15:13:12Z</time>
      </trkpt>
      <trkpt lat="46.08475" lon="6.28559">
        <ele>606</ele>
        <time>2022-02-10T15:13:14Z</time>
      </trkpt>
      <trkpt lat="46.08495" lon="6.28556">
        <ele>605.4</ele>
        <time>2022-02-10T15:13:16Z</time>
      </trkpt>
      <trkpt lat="46.08504" lon="6.28553">
        <ele>604.8</ele>
        <time>2022-02-10T15:13:17Z</time>
      </trkpt>
      <trkpt lat="46.0853" lon="6.28538">
        <ele>603.2</ele>
        <time>2022-02-10T15:13:20Z</time>
      </trkpt>
      <trkpt lat="46.08539" lon="6.28535">
        <ele>602.8</ele>
        <time>2022-02-10T15:13:21Z</time>
      </trkpt>
      <trkpt lat="46.08549" lon="6.28532">
        <ele>602.6</ele>
        <time>2022-02-10T15:13:22Z</time>
      </trkpt>
      <trkpt lat="46.08585" lon="6.28532">
        <ele>602</ele>
        <time>2022-02-10T15:13:26Z</time>
      </trkpt>
      <trkpt lat="46.08594" lon="6.28533">
        <ele>602</ele>
        <time>2022-02-10T15:13:27Z</time>
      </trkpt>
      <trkpt lat="46.08648" lon="6.28543">
        <ele>601</ele>
        <time>2022-02-10T15:13:33Z</time>
      </trkpt>
      <trkpt lat="46.08657" lon="6.28544">
        <ele>600.8</ele>
        <time>2022-02-10T15:13:34Z</time>
      </trkpt>
      <trkpt lat="46.0871" lon="6.28549">
        <ele>600.4</ele>
        <time>2022-02-10T15:13:40Z</time>
      </trkpt>
      <trkpt lat="46.08719" lon="6.28548">
        <ele>600.2</ele>
        <time>2022-02-10T15:13:41Z</time>
      </trkpt>
      <trkpt lat="46.08729" lon="6.28546">
        <ele>600.2</ele>
        <time>2022-02-10T15:13:42Z</time>
      </trkpt>
      <trkpt lat="46.08757" lon="6.28536">
        <ele>600</ele>
        <time>2022-02-10T15:13:45Z</time>
      </trkpt>
      <trkpt lat="46.08766" lon="6.28531">
        <ele>600</ele>
        <time>2022-02-10T15:13:46Z</time>
      </trkpt>
      <trkpt lat="46.08795" lon="6.28518">
        <ele>599.6</ele>
        <time>2022-02-10T15:13:49Z</time>
      </trkpt>
      <trkpt lat="46.08831" lon="6.28502">
        <ele>596.6</ele>
        <time>2022-02-10T15:13:53Z</time>
      </trkpt>
      <trkpt lat="46.08888" lon="6.2848">
        <ele>594.4</ele>
        <time>2022-02-10T15:14:00Z</time>
      </trkpt>
      <trkpt lat="46.0891" lon="6.28469">
        <ele>594.2</ele>
        <time>2022-02-10T15:14:03Z</time>
      </trkpt>
      <trkpt lat="46.08916" lon="6.28463">
        <ele>594.2</ele>
        <time>2022-02-10T15:14:04Z</time>
      </trkpt>
      <trkpt lat="46.08935" lon="6.28441">
        <ele>594.2</ele>
        <time>2022-02-10T15:14:08Z</time>
      </trkpt>
      <trkpt lat="46.08948" lon="6.28427">
        <ele>594.2</ele>
        <time>2022-02-10T15:14:12Z</time>
      </trkpt>
      <trkpt lat="46.08953" lon="6.28424">
        <ele>594</ele>
        <time>2022-02-10T15:14:13Z</time>
      </trkpt>
      <trkpt lat="46.08965" lon="6.28421">
        <ele>593.8</ele>
        <time>2022-02-10T15:14:15Z</time>
      </trkpt>
      <trkpt lat="46.08971" lon="6.28419">
        <ele>593.8</ele>
        <time>2022-02-10T15:14:16Z</time>
      </trkpt>
      <trkpt lat="46.08978" lon="6.28418">
        <ele>593.6</ele>
        <time>2022-02-10T15:14:17Z</time>
      </trkpt>
      <trkpt lat="46.08986" lon="6.28416">
        <ele>593.6</ele>
        <time>2022-02-10T15:14:18Z</time>
      </trkpt>
      <trkpt lat="46.08994" lon="6.28414">
        <ele>593.6</ele>
        <time>2022-02-10T15:14:19Z</time>
      </trkpt>
      <trkpt lat="46.09018" lon="6.28405">
        <ele>592.8</ele>
        <time>2022-02-10T15:14:22Z</time>
      </trkpt>
      <trkpt lat="46.09026" lon="6.28403">
        <ele>592.6</ele>
        <time>2022-02-10T15:14:23Z</time>
      </trkpt>
      <trkpt lat="46.09034" lon="6.28402">
        <ele>591.8</ele>
        <time>2022-02-10T15:14:24Z</time>
      </trkpt>
      <trkpt lat="46.09041" lon="6.28403">
        <ele>590.8</ele>
        <time>2022-02-10T15:14:25Z</time>
      </trkpt>
      <trkpt lat="46.09047" lon="6.28405">
        <ele>590</ele>
        <time>2022-02-10T15:14:26Z</time>
      </trkpt>
      <trkpt lat="46.09053" lon="6.28409">
        <ele>589.4</ele>
        <time>2022-02-10T15:14:27Z</time>
      </trkpt>
      <trkpt lat="46.09064" lon="6.28423">
        <ele>588</ele>
        <time>2022-02-10T15:14:29Z</time>
      </trkpt>
      <trkpt lat="46.09071" lon="6.28445">
        <ele>586.4</ele>
        <time>2022-02-10T15:14:31Z</time>
      </trkpt>
      <trkpt lat="46.09075" lon="6.28457">
        <ele>585.2</ele>
        <time>2022-02-10T15:14:32Z</time>
      </trkpt>
      <trkpt lat="46.09083" lon="6.28486">
        <ele>583.6</ele>
        <time>2022-02-10T15:14:35Z</time>
      </trkpt>
      <trkpt lat="46.09084" lon="6.28495">
        <ele>583.2</ele>
        <time>2022-02-10T15:14:36Z</time>
      </trkpt>
      <trkpt lat="46.0908" lon="6.28513">
        <ele>581.2</ele>
        <time>2022-02-10T15:14:38Z</time>
      </trkpt>
      <trkpt lat="46.09064" lon="6.28546">
        <ele>578.2</ele>
        <time>2022-02-10T15:14:42Z</time>
      </trkpt>
      <trkpt lat="46.09056" lon="6.28565">
        <ele>577.4</ele>
        <time>2022-02-10T15:14:44Z</time>
      </trkpt>
      <trkpt lat="46.09041" lon="6.28614">
        <ele>576</ele>
        <time>2022-02-10T15:14:49Z</time>
      </trkpt>
      <trkpt lat="46.09035" lon="6.28633">
        <ele>576</ele>
        <time>2022-02-10T15:14:51Z</time>
      </trkpt>
      <trkpt lat="46.09027" lon="6.28656">
        <ele>575.2</ele>
        <time>2022-02-10T15:14:55Z</time>
      </trkpt>
      <trkpt lat="46.09025" lon="6.28661">
        <ele>575</ele>
        <time>2022-02-10T15:14:58Z</time>
      </trkpt>
      <trkpt lat="46.09025" lon="6.28661">
        <ele>574.8</ele>
        <time>2022-02-10T15:15:05Z</time>
      </trkpt>
      <trkpt lat="46.09025" lon="6.28661">
        <ele>575</ele>
        <time>2022-02-10T15:15:11Z</time>
      </trkpt>
      <trkpt lat="46.09025" lon="6.28663">
        <ele>574.8</ele>
        <time>2022-02-10T15:15:12Z</time>
      </trkpt>
      <trkpt lat="46.09026" lon="6.28672">
        <ele>574.8</ele>
        <time>2022-02-10T15:15:15Z</time>
      </trkpt>
      <trkpt lat="46.09026" lon="6.28687">
        <ele>575</ele>
        <time>2022-02-10T15:15:18Z</time>
      </trkpt>
      <trkpt lat="46.09025" lon="6.28693">
        <ele>574.8</ele>
        <time>2022-02-10T15:15:19Z</time>
      </trkpt>
      <trkpt lat="46.09023" lon="6.28699">
        <ele>575</ele>
        <time>2022-02-10T15:15:20Z</time>
      </trkpt>
      <trkpt lat="46.0902" lon="6.28713">
        <ele>574.6</ele>
        <time>2022-02-10T15:15:22Z</time>
      </trkpt>
      <trkpt lat="46.0902" lon="6.28721">
        <ele>574.6</ele>
        <time>2022-02-10T15:15:23Z</time>
      </trkpt>
      <trkpt lat="46.09021" lon="6.28729">
        <ele>574.6</ele>
        <time>2022-02-10T15:15:24Z</time>
      </trkpt>
      <trkpt lat="46.09024" lon="6.28736">
        <ele>574.4</ele>
        <time>2022-02-10T15:15:25Z</time>
      </trkpt>
      <trkpt lat="46.09028" lon="6.28743">
        <ele>574.4</ele>
        <time>2022-02-10T15:15:26Z</time>
      </trkpt>
      <trkpt lat="46.09038" lon="6.28753">
        <ele>574.2</ele>
        <time>2022-02-10T15:15:28Z</time>
      </trkpt>
      <trkpt lat="46.09043" lon="6.28759">
        <ele>573.8</ele>
        <time>2022-02-10T15:15:29Z</time>
      </trkpt>
      <trkpt lat="46.09047" lon="6.28767">
        <ele>573.8</ele>
        <time>2022-02-10T15:15:30Z</time>
      </trkpt>
      <trkpt lat="46.09049" lon="6.28777">
        <ele>573.6</ele>
        <time>2022-02-10T15:15:31Z</time>
      </trkpt>
      <trkpt lat="46.0905" lon="6.28799">
        <ele>573.2</ele>
        <time>2022-02-10T15:15:33Z</time>
      </trkpt>
      <trkpt lat="46.09051" lon="6.2881">
        <ele>573</ele>
        <time>2022-02-10T15:15:34Z</time>
      </trkpt>
      <trkpt lat="46.09052" lon="6.28821">
        <ele>572.8</ele>
        <time>2022-02-10T15:15:35Z</time>
      </trkpt>
      <trkpt lat="46.09053" lon="6.28832">
        <ele>572.6</ele>
        <time>2022-02-10T15:15:36Z</time>
      </trkpt>
      <trkpt lat="46.09055" lon="6.28842">
        <ele>572.2</ele>
        <time>2022-02-10T15:15:37Z</time>
      </trkpt>
      <trkpt lat="46.09064" lon="6.28887">
        <ele>570</ele>
        <time>2022-02-10T15:15:42Z</time>
      </trkpt>
      <trkpt lat="46.09066" lon="6.28924">
        <ele>567.6</ele>
        <time>2022-02-10T15:15:46Z</time>
      </trkpt>
      <trkpt lat="46.09065" lon="6.28935">
        <ele>567.2</ele>
        <time>2022-02-10T15:15:47Z</time>
      </trkpt>
      <trkpt lat="46.09065" lon="6.28948">
        <ele>566.8</ele>
        <time>2022-02-10T15:15:48Z</time>
      </trkpt>
      <trkpt lat="46.09067" lon="6.28985">
        <ele>565.6</ele>
        <time>2022-02-10T15:15:51Z</time>
      </trkpt>
      <trkpt lat="46.0907" lon="6.29064">
        <ele>562.2</ele>
        <time>2022-02-10T15:15:57Z</time>
      </trkpt>
      <trkpt lat="46.09071" lon="6.29077">
        <ele>561.4</ele>
        <time>2022-02-10T15:15:58Z</time>
      </trkpt>
      <trkpt lat="46.09078" lon="6.29152">
        <ele>560</ele>
        <time>2022-02-10T15:16:04Z</time>
      </trkpt>
      <trkpt lat="46.09077" lon="6.29179">
        <ele>560.2</ele>
        <time>2022-02-10T15:16:06Z</time>
      </trkpt>
      <trkpt lat="46.09075" lon="6.29192">
        <ele>560.2</ele>
        <time>2022-02-10T15:16:07Z</time>
      </trkpt>
      <trkpt lat="46.09072" lon="6.29206">
        <ele>560.2</ele>
        <time>2022-02-10T15:16:08Z</time>
      </trkpt>
      <trkpt lat="46.09064" lon="6.29234">
        <ele>559.8</ele>
        <time>2022-02-10T15:16:10Z</time>
      </trkpt>
      <trkpt lat="46.0906" lon="6.29248">
        <ele>559.8</ele>
        <time>2022-02-10T15:16:11Z</time>
      </trkpt>
      <trkpt lat="46.09055" lon="6.29263">
        <ele>559.6</ele>
        <time>2022-02-10T15:16:12Z</time>
      </trkpt>
      <trkpt lat="46.09051" lon="6.29277">
        <ele>559.6</ele>
        <time>2022-02-10T15:16:13Z</time>
      </trkpt>
      <trkpt lat="46.09046" lon="6.29292">
        <ele>559.4</ele>
        <time>2022-02-10T15:16:14Z</time>
      </trkpt>
      <trkpt lat="46.09037" lon="6.29321">
        <ele>558.6</ele>
        <time>2022-02-10T15:16:16Z</time>
      </trkpt>
      <trkpt lat="46.09033" lon="6.29336">
        <ele>557.8</ele>
        <time>2022-02-10T15:16:17Z</time>
      </trkpt>
      <trkpt lat="46.09027" lon="6.2935">
        <ele>557</ele>
        <time>2022-02-10T15:16:18Z</time>
      </trkpt>
      <trkpt lat="46.09015" lon="6.29377">
        <ele>555</ele>
        <time>2022-02-10T15:16:20Z</time>
      </trkpt>
      <trkpt lat="46.09008" lon="6.2939">
        <ele>553.8</ele>
        <time>2022-02-10T15:16:21Z</time>
      </trkpt>
      <trkpt lat="46.09" lon="6.29403">
        <ele>553</ele>
        <time>2022-02-10T15:16:22Z</time>
      </trkpt>
      <trkpt lat="46.08993" lon="6.29415">
        <ele>551.8</ele>
        <time>2022-02-10T15:16:23Z</time>
      </trkpt>
      <trkpt lat="46.08977" lon="6.29439">
        <ele>549.8</ele>
        <time>2022-02-10T15:16:25Z</time>
      </trkpt>
      <trkpt lat="46.08971" lon="6.29451">
        <ele>549</ele>
        <time>2022-02-10T15:16:26Z</time>
      </trkpt>
      <trkpt lat="46.08966" lon="6.29465">
        <ele>548.2</ele>
        <time>2022-02-10T15:16:27Z</time>
      </trkpt>
      <trkpt lat="46.08964" lon="6.29494">
        <ele>546.8</ele>
        <time>2022-02-10T15:16:29Z</time>
      </trkpt>
      <trkpt lat="46.08966" lon="6.29509">
        <ele>546</ele>
        <time>2022-02-10T15:16:30Z</time>
      </trkpt>
      <trkpt lat="46.08969" lon="6.29525">
        <ele>545.2</ele>
        <time>2022-02-10T15:16:31Z</time>
      </trkpt>
      <trkpt lat="46.08973" lon="6.2954">
        <ele>543.8</ele>
        <time>2022-02-10T15:16:32Z</time>
      </trkpt>
      <trkpt lat="46.08977" lon="6.29556">
        <ele>542.6</ele>
        <time>2022-02-10T15:16:33Z</time>
      </trkpt>
      <trkpt lat="46.08986" lon="6.29586">
        <ele>541</ele>
        <time>2022-02-10T15:16:35Z</time>
      </trkpt>
      <trkpt lat="46.08996" lon="6.29616">
        <ele>540.2</ele>
        <time>2022-02-10T15:16:37Z</time>
      </trkpt>
      <trkpt lat="46.09002" lon="6.29631">
        <ele>539.6</ele>
        <time>2022-02-10T15:16:38Z</time>
      </trkpt>
      <trkpt lat="46.09008" lon="6.29645">
        <ele>538.8</ele>
        <time>2022-02-10T15:16:39Z</time>
      </trkpt>
      <trkpt lat="46.09032" lon="6.29681">
        <ele>535.8</ele>
        <time>2022-02-10T15:16:42Z</time>
      </trkpt>
      <trkpt lat="46.09041" lon="6.29691">
        <ele>535</ele>
        <time>2022-02-10T15:16:43Z</time>
      </trkpt>
      <trkpt lat="46.09068" lon="6.29721">
        <ele>532.8</ele>
        <time>2022-02-10T15:16:46Z</time>
      </trkpt>
      <trkpt lat="46.09085" lon="6.29742">
        <ele>531.4</ele>
        <time>2022-02-10T15:16:48Z</time>
      </trkpt>
      <trkpt lat="46.09093" lon="6.29752">
        <ele>530.4</ele>
        <time>2022-02-10T15:16:49Z</time>
      </trkpt>
      <trkpt lat="46.09101" lon="6.29763">
        <ele>530</ele>
        <time>2022-02-10T15:16:50Z</time>
      </trkpt>
      <trkpt lat="46.09109" lon="6.29775">
        <ele>529.6</ele>
        <time>2022-02-10T15:16:51Z</time>
      </trkpt>
      <trkpt lat="46.09125" lon="6.298">
        <ele>528.8</ele>
        <time>2022-02-10T15:16:53Z</time>
      </trkpt>
      <trkpt lat="46.0915" lon="6.29831">
        <ele>527</ele>
        <time>2022-02-10T15:16:56Z</time>
      </trkpt>
      <trkpt lat="46.09179" lon="6.29871">
        <ele>523.2</ele>
        <time>2022-02-10T15:17:00Z</time>
      </trkpt>
      <trkpt lat="46.0919" lon="6.29886">
        <ele>522</ele>
        <time>2022-02-10T15:17:02Z</time>
      </trkpt>
      <trkpt lat="46.09202" lon="6.29899">
        <ele>520.8</ele>
        <time>2022-02-10T15:17:04Z</time>
      </trkpt>
      <trkpt lat="46.09208" lon="6.29907">
        <ele>520.4</ele>
        <time>2022-02-10T15:17:05Z</time>
      </trkpt>
      <trkpt lat="46.09233" lon="6.29939">
        <ele>519.8</ele>
        <time>2022-02-10T15:17:09Z</time>
      </trkpt>
      <trkpt lat="46.09246" lon="6.29954">
        <ele>519.6</ele>
        <time>2022-02-10T15:17:11Z</time>
      </trkpt>
      <trkpt lat="46.09275" lon="6.29983">
        <ele>518</ele>
        <time>2022-02-10T15:17:16Z</time>
      </trkpt>
      <trkpt lat="46.09281" lon="6.29992">
        <ele>516.8</ele>
        <time>2022-02-10T15:17:19Z</time>
      </trkpt>
      <trkpt lat="46.09283" lon="6.3">
        <ele>516.4</ele>
        <time>2022-02-10T15:17:22Z</time>
      </trkpt>
      <trkpt lat="46.09286" lon="6.30001">
        <ele>516.4</ele>
        <time>2022-02-10T15:17:23Z</time>
      </trkpt>
      <trkpt lat="46.0929" lon="6.30001">
        <ele>516</ele>
        <time>2022-02-10T15:17:24Z</time>
      </trkpt>
      <trkpt lat="46.09299" lon="6.29999">
        <ele>516</ele>
        <time>2022-02-10T15:17:26Z</time>
      </trkpt>
      <trkpt lat="46.09303" lon="6.29997">
        <ele>515.8</ele>
        <time>2022-02-10T15:17:27Z</time>
      </trkpt>
      <trkpt lat="46.09308" lon="6.29995">
        <ele>515.8</ele>
        <time>2022-02-10T15:17:28Z</time>
      </trkpt>
      <trkpt lat="46.09317" lon="6.29989">
        <ele>515.8</ele>
        <time>2022-02-10T15:17:30Z</time>
      </trkpt>
      <trkpt lat="46.09325" lon="6.29981">
        <ele>515.8</ele>
        <time>2022-02-10T15:17:32Z</time>
      </trkpt>
      <trkpt lat="46.09338" lon="6.29958">
        <ele>515.4</ele>
        <time>2022-02-10T15:17:37Z</time>
      </trkpt>
      <trkpt lat="46.09352" lon="6.2993">
        <ele>514.8</ele>
        <time>2022-02-10T15:17:42Z</time>
      </trkpt>
      <trkpt lat="46.09354" lon="6.29923">
        <ele>514.8</ele>
        <time>2022-02-10T15:17:43Z</time>
      </trkpt>
      <trkpt lat="46.09367" lon="6.29893">
        <ele>515.2</ele>
        <time>2022-02-10T15:17:49Z</time>
      </trkpt>
      <trkpt lat="46.09372" lon="6.29879">
        <ele>515.6</ele>
        <time>2022-02-10T15:17:53Z</time>
      </trkpt>
      <trkpt lat="46.09371" lon="6.29878">
        <ele>515.8</ele>
        <time>2022-02-10T15:17:54Z</time>
      </trkpt>
      <trkpt lat="46.09366" lon="6.29888">
        <ele>516</ele>
        <time>2022-02-10T15:17:57Z</time>
      </trkpt>
      <trkpt lat="46.09355" lon="6.29913">
        <ele>516.2</ele>
        <time>2022-02-10T15:18:02Z</time>
      </trkpt>
      <trkpt lat="46.09355" lon="6.29918">
        <ele>516</ele>
        <time>2022-02-10T15:18:03Z</time>
      </trkpt>
      <trkpt lat="46.09359" lon="6.29929">
        <ele>516.2</ele>
        <time>2022-02-10T15:18:05Z</time>
      </trkpt>
      <trkpt lat="46.09374" lon="6.29951">
        <ele>516</ele>
        <time>2022-02-10T15:18:09Z</time>
      </trkpt>
      <trkpt lat="46.09383" lon="6.29964">
        <ele>515.6</ele>
        <time>2022-02-10T15:18:11Z</time>
      </trkpt>
      <trkpt lat="46.09394" lon="6.29975">
        <ele>515.6</ele>
        <time>2022-02-10T15:18:13Z</time>
      </trkpt>
      <trkpt lat="46.094" lon="6.29978">
        <ele>515.6</ele>
        <time>2022-02-10T15:18:14Z</time>
      </trkpt>
      <trkpt lat="46.09407" lon="6.29978">
        <ele>515.4</ele>
        <time>2022-02-10T15:18:15Z</time>
      </trkpt>
      <trkpt lat="46.09428" lon="6.29974">
        <ele>515</ele>
        <time>2022-02-10T15:18:18Z</time>
      </trkpt>
      <trkpt lat="46.09487" lon="6.2996">
        <ele>513.2</ele>
        <time>2022-02-10T15:18:26Z</time>
      </trkpt>
      <trkpt lat="46.09495" lon="6.29958">
        <ele>513</ele>
        <time>2022-02-10T15:18:27Z</time>
      </trkpt>
      <trkpt lat="46.09503" lon="6.29956">
        <ele>513</ele>
        <time>2022-02-10T15:18:28Z</time>
      </trkpt>
      <trkpt lat="46.09528" lon="6.29951">
        <ele>512.6</ele>
        <time>2022-02-10T15:18:31Z</time>
      </trkpt>
      <trkpt lat="46.09554" lon="6.29945">
        <ele>512.4</ele>
        <time>2022-02-10T15:18:34Z</time>
      </trkpt>
      <trkpt lat="46.09563" lon="6.29943">
        <ele>512.4</ele>
        <time>2022-02-10T15:18:35Z</time>
      </trkpt>
      <trkpt lat="46.09623" lon="6.29929">
        <ele>510.6</ele>
        <time>2022-02-10T15:18:42Z</time>
      </trkpt>
      <trkpt lat="46.09632" lon="6.29928">
        <ele>510.4</ele>
        <time>2022-02-10T15:18:43Z</time>
      </trkpt>
      <trkpt lat="46.09641" lon="6.29928">
        <ele>510</ele>
        <time>2022-02-10T15:18:44Z</time>
      </trkpt>
      <trkpt lat="46.09667" lon="6.29934">
        <ele>509.8</ele>
        <time>2022-02-10T15:18:47Z</time>
      </trkpt>
      <trkpt lat="46.09692" lon="6.29947">
        <ele>509.2</ele>
        <time>2022-02-10T15:18:50Z</time>
      </trkpt>
      <trkpt lat="46.09717" lon="6.29961">
        <ele>508.6</ele>
        <time>2022-02-10T15:18:53Z</time>
      </trkpt>
      <trkpt lat="46.0974" lon="6.29978">
        <ele>508.2</ele>
        <time>2022-02-10T15:18:56Z</time>
      </trkpt>
      <trkpt lat="46.09756" lon="6.29993">
        <ele>507.8</ele>
        <time>2022-02-10T15:18:58Z</time>
      </trkpt>
      <trkpt lat="46.09799" lon="6.3004">
        <ele>506.6</ele>
        <time>2022-02-10T15:19:04Z</time>
      </trkpt>
      <trkpt lat="46.09821" lon="6.30064">
        <ele>505.8</ele>
        <time>2022-02-10T15:19:07Z</time>
      </trkpt>
      <trkpt lat="46.09837" lon="6.30078">
        <ele>505.6</ele>
        <time>2022-02-10T15:19:09Z</time>
      </trkpt>
      <trkpt lat="46.09855" lon="6.30086">
        <ele>505.4</ele>
        <time>2022-02-10T15:19:11Z</time>
      </trkpt>
      <trkpt lat="46.09909" lon="6.301">
        <ele>504.2</ele>
        <time>2022-02-10T15:19:17Z</time>
      </trkpt>
      <trkpt lat="46.09927" lon="6.30106">
        <ele>503.8</ele>
        <time>2022-02-10T15:19:19Z</time>
      </trkpt>
      <trkpt lat="46.09974" lon="6.30137">
        <ele>503.4</ele>
        <time>2022-02-10T15:19:25Z</time>
      </trkpt>
      <trkpt lat="46.1002" lon="6.3016">
        <ele>503.2</ele>
        <time>2022-02-10T15:19:31Z</time>
      </trkpt>
      <trkpt lat="46.10075" lon="6.30165">
        <ele>503.2</ele>
        <time>2022-02-10T15:19:38Z</time>
      </trkpt>
      <trkpt lat="46.10099" lon="6.30165">
        <ele>503</ele>
        <time>2022-02-10T15:19:41Z</time>
      </trkpt>
      <trkpt lat="46.10155" lon="6.30165">
        <ele>503.2</ele>
        <time>2022-02-10T15:19:48Z</time>
      </trkpt>
      <trkpt lat="46.10209" lon="6.30164">
        <ele>502</ele>
        <time>2022-02-10T15:19:55Z</time>
      </trkpt>
      <trkpt lat="46.10264" lon="6.30165">
        <ele>501.2</ele>
        <time>2022-02-10T15:20:02Z</time>
      </trkpt>
      <trkpt lat="46.10309" lon="6.30179">
        <ele>500.2</ele>
        <time>2022-02-10T15:20:08Z</time>
      </trkpt>
      <trkpt lat="46.10338" lon="6.30198">
        <ele>500</ele>
        <time>2022-02-10T15:20:12Z</time>
      </trkpt>
      <trkpt lat="46.10345" lon="6.30205">
        <ele>499.8</ele>
        <time>2022-02-10T15:20:13Z</time>
      </trkpt>
      <trkpt lat="46.10352" lon="6.30211">
        <ele>499.8</ele>
        <time>2022-02-10T15:20:14Z</time>
      </trkpt>
      <trkpt lat="46.10358" lon="6.30219">
        <ele>499.8</ele>
        <time>2022-02-10T15:20:15Z</time>
      </trkpt>
      <trkpt lat="46.10372" lon="6.30232">
        <ele>499.6</ele>
        <time>2022-02-10T15:20:17Z</time>
      </trkpt>
      <trkpt lat="46.10384" lon="6.30247">
        <ele>499.4</ele>
        <time>2022-02-10T15:20:20Z</time>
      </trkpt>
      <trkpt lat="46.10388" lon="6.3025">
        <ele>498.8</ele>
        <time>2022-02-10T15:20:21Z</time>
      </trkpt>
      <trkpt lat="46.10397" lon="6.30249">
        <ele>498</ele>
        <time>2022-02-10T15:20:23Z</time>
      </trkpt>
      <trkpt lat="46.10403" lon="6.3024">
        <ele>497.8</ele>
        <time>2022-02-10T15:20:25Z</time>
      </trkpt>
      <trkpt lat="46.10405" lon="6.30234">
        <ele>497.6</ele>
        <time>2022-02-10T15:20:26Z</time>
      </trkpt>
      <trkpt lat="46.10408" lon="6.30229">
        <ele>497.6</ele>
        <time>2022-02-10T15:20:27Z</time>
      </trkpt>
      <trkpt lat="46.10415" lon="6.30217">
        <ele>497.6</ele>
        <time>2022-02-10T15:20:29Z</time>
      </trkpt>
      <trkpt lat="46.10419" lon="6.30212">
        <ele>497.6</ele>
        <time>2022-02-10T15:20:30Z</time>
      </trkpt>
      <trkpt lat="46.10427" lon="6.30197">
        <ele>497.6</ele>
        <time>2022-02-10T15:20:33Z</time>
      </trkpt>
      <trkpt lat="46.1043" lon="6.30185">
        <ele>498</ele>
        <time>2022-02-10T15:20:35Z</time>
      </trkpt>
      <trkpt lat="46.10432" lon="6.3018">
        <ele>498.4</ele>
        <time>2022-02-10T15:20:36Z</time>
      </trkpt>
      <trkpt lat="46.10438" lon="6.30173">
        <ele>498.8</ele>
        <time>2022-02-10T15:20:38Z</time>
      </trkpt>
      <trkpt lat="46.10442" lon="6.30173">
        <ele>499</ele>
        <time>2022-02-10T15:20:39Z</time>
      </trkpt>
      <trkpt lat="46.10446" lon="6.30176">
        <ele>499.2</ele>
        <time>2022-02-10T15:20:40Z</time>
      </trkpt>
      <trkpt lat="46.10452" lon="6.30185">
        <ele>500</ele>
        <time>2022-02-10T15:20:42Z</time>
      </trkpt>
      <trkpt lat="46.10456" lon="6.30191">
        <ele>500.4</ele>
        <time>2022-02-10T15:20:43Z</time>
      </trkpt>
      <trkpt lat="46.1047" lon="6.30208">
        <ele>500.6</ele>
        <time>2022-02-10T15:20:46Z</time>
      </trkpt>
      <trkpt lat="46.10479" lon="6.30223">
        <ele>500.8</ele>
        <time>2022-02-10T15:20:48Z</time>
      </trkpt>
      <trkpt lat="46.10488" lon="6.30238">
        <ele>500.8</ele>
        <time>2022-02-10T15:20:50Z</time>
      </trkpt>
      <trkpt lat="46.10501" lon="6.30246">
        <ele>500.8</ele>
        <time>2022-02-10T15:20:52Z</time>
      </trkpt>
      <trkpt lat="46.10525" lon="6.30241">
        <ele>500.2</ele>
        <time>2022-02-10T15:20:56Z</time>
      </trkpt>
      <trkpt lat="46.10537" lon="6.30237">
        <ele>500</ele>
        <time>2022-02-10T15:20:58Z</time>
      </trkpt>
      <trkpt lat="46.10554" lon="6.30227">
        <ele>500</ele>
        <time>2022-02-10T15:21:01Z</time>
      </trkpt>
      <trkpt lat="46.10571" lon="6.30212">
        <ele>500</ele>
        <time>2022-02-10T15:21:04Z</time>
      </trkpt>
      <trkpt lat="46.1058" lon="6.30198">
        <ele>500</ele>
        <time>2022-02-10T15:21:06Z</time>
      </trkpt>
      <trkpt lat="46.10611" lon="6.30147">
        <ele>500.8</ele>
        <time>2022-02-10T15:21:13Z</time>
      </trkpt>
      <trkpt lat="46.10617" lon="6.30143">
        <ele>500.8</ele>
        <time>2022-02-10T15:21:14Z</time>
      </trkpt>
      <trkpt lat="46.10622" lon="6.30139">
        <ele>500.8</ele>
        <time>2022-02-10T15:21:15Z</time>
      </trkpt>
      <trkpt lat="46.10647" lon="6.30128">
        <ele>501.2</ele>
        <time>2022-02-10T15:21:19Z</time>
      </trkpt>
      <trkpt lat="46.10671" lon="6.30108">
        <ele>501.4</ele>
        <time>2022-02-10T15:21:23Z</time>
      </trkpt>
      <trkpt lat="46.10677" lon="6.30102">
        <ele>501.4</ele>
        <time>2022-02-10T15:21:24Z</time>
      </trkpt>
      <trkpt lat="46.10717" lon="6.3006">
        <ele>501.4</ele>
        <time>2022-02-10T15:21:31Z</time>
      </trkpt>
      <trkpt lat="46.10765" lon="6.30009">
        <ele>500.8</ele>
        <time>2022-02-10T15:21:39Z</time>
      </trkpt>
      <trkpt lat="46.10777" lon="6.29996">
        <ele>500.8</ele>
        <time>2022-02-10T15:21:41Z</time>
      </trkpt>
      <trkpt lat="46.10814" lon="6.29962">
        <ele>500.6</ele>
        <time>2022-02-10T15:21:47Z</time>
      </trkpt>
      <trkpt lat="46.10843" lon="6.29948">
        <ele>500.6</ele>
        <time>2022-02-10T15:21:51Z</time>
      </trkpt>
      <trkpt lat="46.1086" lon="6.29945">
        <ele>500.4</ele>
        <time>2022-02-10T15:21:53Z</time>
      </trkpt>
      <trkpt lat="46.10893" lon="6.29938">
        <ele>500.4</ele>
        <time>2022-02-10T15:21:57Z</time>
      </trkpt>
      <trkpt lat="46.10901" lon="6.29934">
        <ele>500.4</ele>
        <time>2022-02-10T15:21:58Z</time>
      </trkpt>
      <trkpt lat="46.1091" lon="6.2993">
        <ele>500.2</ele>
        <time>2022-02-10T15:21:59Z</time>
      </trkpt>
      <trkpt lat="46.10919" lon="6.29925">
        <ele>500.2</ele>
        <time>2022-02-10T15:22:00Z</time>
      </trkpt>
      <trkpt lat="46.10927" lon="6.2992">
        <ele>500</ele>
        <time>2022-02-10T15:22:01Z</time>
      </trkpt>
      <trkpt lat="46.10944" lon="6.29909">
        <ele>499.4</ele>
        <time>2022-02-10T15:22:03Z</time>
      </trkpt>
      <trkpt lat="46.10984" lon="6.29873">
        <ele>497</ele>
        <time>2022-02-10T15:22:08Z</time>
      </trkpt>
      <trkpt lat="46.11026" lon="6.29823">
        <ele>494.8</ele>
        <time>2022-02-10T15:22:14Z</time>
      </trkpt>
      <trkpt lat="46.11048" lon="6.29802">
        <ele>494.6</ele>
        <time>2022-02-10T15:22:17Z</time>
      </trkpt>
      <trkpt lat="46.11065" lon="6.29791">
        <ele>494.6</ele>
        <time>2022-02-10T15:22:19Z</time>
      </trkpt>
      <trkpt lat="46.11082" lon="6.29783">
        <ele>494.6</ele>
        <time>2022-02-10T15:22:21Z</time>
      </trkpt>
      <trkpt lat="46.11121" lon="6.29758">
        <ele>494.4</ele>
        <time>2022-02-10T15:22:26Z</time>
      </trkpt>
      <trkpt lat="46.11143" lon="6.29738">
        <ele>493.6</ele>
        <time>2022-02-10T15:22:29Z</time>
      </trkpt>
      <trkpt lat="46.11164" lon="6.29717">
        <ele>492.6</ele>
        <time>2022-02-10T15:22:32Z</time>
      </trkpt>
      <trkpt lat="46.1119" lon="6.29686">
        <ele>492.2</ele>
        <time>2022-02-10T15:22:36Z</time>
      </trkpt>
      <trkpt lat="46.11201" lon="6.29667">
        <ele>491.6</ele>
        <time>2022-02-10T15:22:38Z</time>
      </trkpt>
      <trkpt lat="46.11217" lon="6.2964">
        <ele>491.4</ele>
        <time>2022-02-10T15:22:41Z</time>
      </trkpt>
      <trkpt lat="46.11228" lon="6.29622">
        <ele>491.2</ele>
        <time>2022-02-10T15:22:43Z</time>
      </trkpt>
      <trkpt lat="46.11232" lon="6.29613">
        <ele>491.4</ele>
        <time>2022-02-10T15:22:44Z</time>
      </trkpt>
      <trkpt lat="46.11241" lon="6.29596">
        <ele>491.2</ele>
        <time>2022-02-10T15:22:46Z</time>
      </trkpt>
      <trkpt lat="46.11261" lon="6.29562">
        <ele>490.8</ele>
        <time>2022-02-10T15:22:50Z</time>
      </trkpt>
      <trkpt lat="46.11301" lon="6.29504">
        <ele>490.6</ele>
        <time>2022-02-10T15:22:57Z</time>
      </trkpt>
      <trkpt lat="46.11319" lon="6.29479">
        <ele>490.4</ele>
        <time>2022-02-10T15:23:00Z</time>
      </trkpt>
      <trkpt lat="46.11337" lon="6.29457">
        <ele>490</ele>
        <time>2022-02-10T15:23:03Z</time>
      </trkpt>
      <trkpt lat="46.11377" lon="6.29418">
        <ele>489.8</ele>
        <time>2022-02-10T15:23:09Z</time>
      </trkpt>
      <trkpt lat="46.11425" lon="6.29375">
        <ele>489.6</ele>
        <time>2022-02-10T15:23:16Z</time>
      </trkpt>
      <trkpt lat="46.11432" lon="6.29369">
        <ele>489.4</ele>
        <time>2022-02-10T15:23:17Z</time>
      </trkpt>
      <trkpt lat="46.11458" lon="6.29342">
        <ele>489.2</ele>
        <time>2022-02-10T15:23:21Z</time>
      </trkpt>
      <trkpt lat="46.11493" lon="6.29308">
        <ele>488.4</ele>
        <time>2022-02-10T15:23:26Z</time>
      </trkpt>
      <trkpt lat="46.115" lon="6.29301">
        <ele>488.2</ele>
        <time>2022-02-10T15:23:27Z</time>
      </trkpt>
      <trkpt lat="46.1155" lon="6.29256">
        <ele>487.4</ele>
        <time>2022-02-10T15:23:34Z</time>
      </trkpt>
      <trkpt lat="46.11565" lon="6.29243">
        <ele>487.2</ele>
        <time>2022-02-10T15:23:36Z</time>
      </trkpt>
      <trkpt lat="46.1161" lon="6.29201">
        <ele>487</ele>
        <time>2022-02-10T15:23:43Z</time>
      </trkpt>
      <trkpt lat="46.11617" lon="6.29197">
        <ele>487</ele>
        <time>2022-02-10T15:23:44Z</time>
      </trkpt>
      <trkpt lat="46.11637" lon="6.29185">
        <ele>486.8</ele>
        <time>2022-02-10T15:23:47Z</time>
      </trkpt>
      <trkpt lat="46.11672" lon="6.29174">
        <ele>486.8</ele>
        <time>2022-02-10T15:23:52Z</time>
      </trkpt>
      <trkpt lat="46.11724" lon="6.29159">
        <ele>486.6</ele>
        <time>2022-02-10T15:23:59Z</time>
      </trkpt>
      <trkpt lat="46.11739" lon="6.29156">
        <ele>486.6</ele>
        <time>2022-02-10T15:24:01Z</time>
      </trkpt>
      <trkpt lat="46.11754" lon="6.29151">
        <ele>486.4</ele>
        <time>2022-02-10T15:24:03Z</time>
      </trkpt>
      <trkpt lat="46.11799" lon="6.29132">
        <ele>486.2</ele>
        <time>2022-02-10T15:24:09Z</time>
      </trkpt>
      <trkpt lat="46.11855" lon="6.29097">
        <ele>485.8</ele>
        <time>2022-02-10T15:24:17Z</time>
      </trkpt>
      <trkpt lat="46.11894" lon="6.2907">
        <ele>485.6</ele>
        <time>2022-02-10T15:24:23Z</time>
      </trkpt>
      <trkpt lat="46.11915" lon="6.29056">
        <ele>486</ele>
        <time>2022-02-10T15:24:26Z</time>
      </trkpt>
      <trkpt lat="46.11963" lon="6.29025">
        <ele>486.8</ele>
        <time>2022-02-10T15:24:33Z</time>
      </trkpt>
      <trkpt lat="46.12006" lon="6.29005">
        <ele>487</ele>
        <time>2022-02-10T15:24:39Z</time>
      </trkpt>
      <trkpt lat="46.12064" lon="6.28983">
        <ele>487.2</ele>
        <time>2022-02-10T15:24:47Z</time>
      </trkpt>
      <trkpt lat="46.12123" lon="6.2896">
        <ele>487</ele>
        <time>2022-02-10T15:24:55Z</time>
      </trkpt>
      <trkpt lat="46.12139" lon="6.28954">
        <ele>487</ele>
        <time>2022-02-10T15:24:57Z</time>
      </trkpt>
      <trkpt lat="46.12168" lon="6.28943">
        <ele>487</ele>
        <time>2022-02-10T15:25:01Z</time>
      </trkpt>
      <trkpt lat="46.12195" lon="6.28929">
        <ele>487</ele>
        <time>2022-02-10T15:25:05Z</time>
      </trkpt>
      <trkpt lat="46.12224" lon="6.28904">
        <ele>487.6</ele>
        <time>2022-02-10T15:25:10Z</time>
      </trkpt>
      <trkpt lat="46.12266" lon="6.28849">
        <ele>488.4</ele>
        <time>2022-02-10T15:25:18Z</time>
      </trkpt>
      <trkpt lat="46.12302" lon="6.28799">
        <ele>488.6</ele>
        <time>2022-02-10T15:25:25Z</time>
      </trkpt>
      <trkpt lat="46.12313" lon="6.28789">
        <ele>488.6</ele>
        <time>2022-02-10T15:25:27Z</time>
      </trkpt>
      <trkpt lat="46.12323" lon="6.28791">
        <ele>488.6</ele>
        <time>2022-02-10T15:25:29Z</time>
      </trkpt>
      <trkpt lat="46.12326" lon="6.28805">
        <ele>488.6</ele>
        <time>2022-02-10T15:25:31Z</time>
      </trkpt>
      <trkpt lat="46.12324" lon="6.28853">
        <ele>488.6</ele>
        <time>2022-02-10T15:25:37Z</time>
      </trkpt>
      <trkpt lat="46.12325" lon="6.28862">
        <ele>488.8</ele>
        <time>2022-02-10T15:25:38Z</time>
      </trkpt>
      <trkpt lat="46.12326" lon="6.28872">
        <ele>488.6</ele>
        <time>2022-02-10T15:25:39Z</time>
      </trkpt>
      <trkpt lat="46.12328" lon="6.28881">
        <ele>488.8</ele>
        <time>2022-02-10T15:25:40Z</time>
      </trkpt>
      <trkpt lat="46.1233" lon="6.28892">
        <ele>488.6</ele>
        <time>2022-02-10T15:25:41Z</time>
      </trkpt>
      <trkpt lat="46.12335" lon="6.28914">
        <ele>488.6</ele>
        <time>2022-02-10T15:25:43Z</time>
      </trkpt>
      <trkpt lat="46.12337" lon="6.28926">
        <ele>488.6</ele>
        <time>2022-02-10T15:25:44Z</time>
      </trkpt>
      <trkpt lat="46.12338" lon="6.28939">
        <ele>488.6</ele>
        <time>2022-02-10T15:25:45Z</time>
      </trkpt>
      <trkpt lat="46.12339" lon="6.28967">
        <ele>488.4</ele>
        <time>2022-02-10T15:25:47Z</time>
      </trkpt>
      <trkpt lat="46.12339" lon="6.28982">
        <ele>488</ele>
        <time>2022-02-10T15:25:48Z</time>
      </trkpt>
      <trkpt lat="46.12339" lon="6.29012">
        <ele>487.2</ele>
        <time>2022-02-10T15:25:50Z</time>
      </trkpt>
      <trkpt lat="46.12342" lon="6.29073">
        <ele>484</ele>
        <time>2022-02-10T15:25:54Z</time>
      </trkpt>
      <trkpt lat="46.12345" lon="6.29085">
        <ele>483</ele>
        <time>2022-02-10T15:25:55Z</time>
      </trkpt>
      <trkpt lat="46.12349" lon="6.29096">
        <ele>481.8</ele>
        <time>2022-02-10T15:25:56Z</time>
      </trkpt>
      <trkpt lat="46.12363" lon="6.29109">
        <ele>480.2</ele>
        <time>2022-02-10T15:25:58Z</time>
      </trkpt>
      <trkpt lat="46.1237" lon="6.2911">
        <ele>480</ele>
        <time>2022-02-10T15:25:59Z</time>
      </trkpt>
      <trkpt lat="46.12376" lon="6.29108">
        <ele>480</ele>
        <time>2022-02-10T15:26:00Z</time>
      </trkpt>
      <trkpt lat="46.12397" lon="6.29084">
        <ele>479.8</ele>
        <time>2022-02-10T15:26:04Z</time>
      </trkpt>
      <trkpt lat="46.12402" lon="6.29077">
        <ele>479.8</ele>
        <time>2022-02-10T15:26:05Z</time>
      </trkpt>
      <trkpt lat="46.1242" lon="6.29047">
        <ele>480</ele>
        <time>2022-02-10T15:26:09Z</time>
      </trkpt>
      <trkpt lat="46.12443" lon="6.29004">
        <ele>481.2</ele>
        <time>2022-02-10T15:26:14Z</time>
      </trkpt>
      <trkpt lat="46.12448" lon="6.28996">
        <ele>481.4</ele>
        <time>2022-02-10T15:26:15Z</time>
      </trkpt>
      <trkpt lat="46.12461" lon="6.28983">
        <ele>481.4</ele>
        <time>2022-02-10T15:26:17Z</time>
      </trkpt>
      <trkpt lat="46.12468" lon="6.28978">
        <ele>481.4</ele>
        <time>2022-02-10T15:26:18Z</time>
      </trkpt>
      <trkpt lat="46.12475" lon="6.28974">
        <ele>481.4</ele>
        <time>2022-02-10T15:26:19Z</time>
      </trkpt>
      <trkpt lat="46.12491" lon="6.2897">
        <ele>481.4</ele>
        <time>2022-02-10T15:26:21Z</time>
      </trkpt>
      <trkpt lat="46.12498" lon="6.28969">
        <ele>481.4</ele>
        <time>2022-02-10T15:26:22Z</time>
      </trkpt>
      <trkpt lat="46.12515" lon="6.28964">
        <ele>481.2</ele>
        <time>2022-02-10T15:26:24Z</time>
      </trkpt>
      <trkpt lat="46.12533" lon="6.28959">
        <ele>481</ele>
        <time>2022-02-10T15:26:26Z</time>
      </trkpt>
      <trkpt lat="46.12561" lon="6.28958">
        <ele>480.6</ele>
        <time>2022-02-10T15:26:29Z</time>
      </trkpt>
      <trkpt lat="46.1257" lon="6.28959">
        <ele>480.6</ele>
        <time>2022-02-10T15:26:30Z</time>
      </trkpt>
      <trkpt lat="46.12578" lon="6.28962">
        <ele>480.6</ele>
        <time>2022-02-10T15:26:31Z</time>
      </trkpt>
      <trkpt lat="46.12602" lon="6.28972">
        <ele>478.8</ele>
        <time>2022-02-10T15:26:34Z</time>
      </trkpt>
      <trkpt lat="46.1261" lon="6.28974">
        <ele>478.2</ele>
        <time>2022-02-10T15:26:35Z</time>
      </trkpt>
      <trkpt lat="46.12625" lon="6.28974">
        <ele>478</ele>
        <time>2022-02-10T15:26:37Z</time>
      </trkpt>
      <trkpt lat="46.12633" lon="6.28972">
        <ele>477.8</ele>
        <time>2022-02-10T15:26:38Z</time>
      </trkpt>
      <trkpt lat="46.1264" lon="6.28968">
        <ele>477.8</ele>
        <time>2022-02-10T15:26:39Z</time>
      </trkpt>
      <trkpt lat="46.12651" lon="6.28957">
        <ele>477.6</ele>
        <time>2022-02-10T15:26:41Z</time>
      </trkpt>
      <trkpt lat="46.12657" lon="6.28951">
        <ele>477.6</ele>
        <time>2022-02-10T15:26:42Z</time>
      </trkpt>
      <trkpt lat="46.12678" lon="6.28922">
        <ele>477.8</ele>
        <time>2022-02-10T15:26:46Z</time>
      </trkpt>
      <trkpt lat="46.12711" lon="6.28862">
        <ele>478.8</ele>
        <time>2022-02-10T15:26:53Z</time>
      </trkpt>
      <trkpt lat="46.12727" lon="6.28843">
        <ele>478.8</ele>
        <time>2022-02-10T15:26:56Z</time>
      </trkpt>
      <trkpt lat="46.1274" lon="6.28832">
        <ele>479</ele>
        <time>2022-02-10T15:26:58Z</time>
      </trkpt>
      <trkpt lat="46.12762" lon="6.28815">
        <ele>478.8</ele>
        <time>2022-02-10T15:27:02Z</time>
      </trkpt>
      <trkpt lat="46.12767" lon="6.28812">
        <ele>479</ele>
        <time>2022-02-10T15:27:03Z</time>
      </trkpt>
      <trkpt lat="46.12776" lon="6.28816">
        <ele>479</ele>
        <time>2022-02-10T15:27:05Z</time>
      </trkpt>
      <trkpt lat="46.12787" lon="6.28836">
        <ele>479</ele>
        <time>2022-02-10T15:27:08Z</time>
      </trkpt>
      <trkpt lat="46.12804" lon="6.28867">
        <ele>479.2</ele>
        <time>2022-02-10T15:27:12Z</time>
      </trkpt>
      <trkpt lat="46.12814" lon="6.28883">
        <ele>479</ele>
        <time>2022-02-10T15:27:14Z</time>
      </trkpt>
      <trkpt lat="46.12839" lon="6.28926">
        <ele>478.8</ele>
        <time>2022-02-10T15:27:19Z</time>
      </trkpt>
      <trkpt lat="46.12854" lon="6.28953">
        <ele>478</ele>
        <time>2022-02-10T15:27:22Z</time>
      </trkpt>
      <trkpt lat="46.12859" lon="6.28961">
        <ele>478</ele>
        <time>2022-02-10T15:27:23Z</time>
      </trkpt>
      <trkpt lat="46.12896" lon="6.29027">
        <ele>477.2</ele>
        <time>2022-02-10T15:27:30Z</time>
      </trkpt>
      <trkpt lat="46.12907" lon="6.29046">
        <ele>477.2</ele>
        <time>2022-02-10T15:27:32Z</time>
      </trkpt>
      <trkpt lat="46.12912" lon="6.29056">
        <ele>477</ele>
        <time>2022-02-10T15:27:33Z</time>
      </trkpt>
      <trkpt lat="46.12952" lon="6.29123">
        <ele>476.4</ele>
        <time>2022-02-10T15:27:40Z</time>
      </trkpt>
      <trkpt lat="46.12968" lon="6.29152">
        <ele>476</ele>
        <time>2022-02-10T15:27:43Z</time>
      </trkpt>
      <trkpt lat="46.12977" lon="6.29174">
        <ele>475.6</ele>
        <time>2022-02-10T15:27:45Z</time>
      </trkpt>
      <trkpt lat="46.12984" lon="6.29197">
        <ele>475.4</ele>
        <time>2022-02-10T15:27:47Z</time>
      </trkpt>
      <trkpt lat="46.12987" lon="6.2921">
        <ele>475.2</ele>
        <time>2022-02-10T15:27:48Z</time>
      </trkpt>
      <trkpt lat="46.13007" lon="6.29283">
        <ele>474.2</ele>
        <time>2022-02-10T15:27:54Z</time>
      </trkpt>
      <trkpt lat="46.13011" lon="6.29295">
        <ele>474</ele>
        <time>2022-02-10T15:27:55Z</time>
      </trkpt>
      <trkpt lat="46.13034" lon="6.29377">
        <ele>472.8</ele>
        <time>2022-02-10T15:28:02Z</time>
      </trkpt>
      <trkpt lat="46.13038" lon="6.29427">
        <ele>472.6</ele>
        <time>2022-02-10T15:28:06Z</time>
      </trkpt>
      <trkpt lat="46.13039" lon="6.2944">
        <ele>472.4</ele>
        <time>2022-02-10T15:28:07Z</time>
      </trkpt>
      <trkpt lat="46.13055" lon="6.29499">
        <ele>472</ele>
        <time>2022-02-10T15:28:12Z</time>
      </trkpt>
      <trkpt lat="46.13079" lon="6.29565">
        <ele>471.2</ele>
        <time>2022-02-10T15:28:18Z</time>
      </trkpt>
      <trkpt lat="46.13084" lon="6.29575">
        <ele>471.2</ele>
        <time>2022-02-10T15:28:19Z</time>
      </trkpt>
      <trkpt lat="46.13111" lon="6.29617">
        <ele>470</ele>
        <time>2022-02-10T15:28:24Z</time>
      </trkpt>
      <trkpt lat="46.1312" lon="6.29631">
        <ele>469.8</ele>
        <time>2022-02-10T15:28:26Z</time>
      </trkpt>
      <trkpt lat="46.13127" lon="6.29648">
        <ele>470</ele>
        <time>2022-02-10T15:28:28Z</time>
      </trkpt>
      <trkpt lat="46.13144" lon="6.29688">
        <ele>469.6</ele>
        <time>2022-02-10T15:28:33Z</time>
      </trkpt>
      <trkpt lat="46.13151" lon="6.29705">
        <ele>469.6</ele>
        <time>2022-02-10T15:28:35Z</time>
      </trkpt>
      <trkpt lat="46.13172" lon="6.29759">
        <ele>468.8</ele>
        <time>2022-02-10T15:28:42Z</time>
      </trkpt>
      <trkpt lat="46.13175" lon="6.29766">
        <ele>468.6</ele>
        <time>2022-02-10T15:28:43Z</time>
      </trkpt>
      <trkpt lat="46.13187" lon="6.29774">
        <ele>468.2</ele>
        <time>2022-02-10T15:28:45Z</time>
      </trkpt>
      <trkpt lat="46.13193" lon="6.29777">
        <ele>467.8</ele>
        <time>2022-02-10T15:28:46Z</time>
      </trkpt>
      <trkpt lat="46.13206" lon="6.29785">
        <ele>467.4</ele>
        <time>2022-02-10T15:28:48Z</time>
      </trkpt>
      <trkpt lat="46.13212" lon="6.2979">
        <ele>467.2</ele>
        <time>2022-02-10T15:28:49Z</time>
      </trkpt>
      <trkpt lat="46.13219" lon="6.29796">
        <ele>467.2</ele>
        <time>2022-02-10T15:28:50Z</time>
      </trkpt>
      <trkpt lat="46.13234" lon="6.2981">
        <ele>466.6</ele>
        <time>2022-02-10T15:28:52Z</time>
      </trkpt>
      <trkpt lat="46.13248" lon="6.29825">
        <ele>466.4</ele>
        <time>2022-02-10T15:28:54Z</time>
      </trkpt>
      <trkpt lat="46.13256" lon="6.29832">
        <ele>466.2</ele>
        <time>2022-02-10T15:28:55Z</time>
      </trkpt>
      <trkpt lat="46.1328" lon="6.29855">
        <ele>465</ele>
        <time>2022-02-10T15:28:58Z</time>
      </trkpt>
      <trkpt lat="46.13304" lon="6.29878">
        <ele>462.6</ele>
        <time>2022-02-10T15:29:01Z</time>
      </trkpt>
      <trkpt lat="46.13327" lon="6.29901">
        <ele>460.6</ele>
        <time>2022-02-10T15:29:04Z</time>
      </trkpt>
      <trkpt lat="46.13374" lon="6.29944">
        <ele>458.2</ele>
        <time>2022-02-10T15:29:10Z</time>
      </trkpt>
      <trkpt lat="46.13389" lon="6.29959">
        <ele>457.8</ele>
        <time>2022-02-10T15:29:12Z</time>
      </trkpt>
      <trkpt lat="46.13396" lon="6.29968">
        <ele>458</ele>
        <time>2022-02-10T15:29:13Z</time>
      </trkpt>
      <trkpt lat="46.13407" lon="6.2999">
        <ele>457.8</ele>
        <time>2022-02-10T15:29:15Z</time>
      </trkpt>
      <trkpt lat="46.13413" lon="6.30016">
        <ele>457.6</ele>
        <time>2022-02-10T15:29:17Z</time>
      </trkpt>
      <trkpt lat="46.13413" lon="6.30029">
        <ele>457.4</ele>
        <time>2022-02-10T15:29:18Z</time>
      </trkpt>
      <trkpt lat="46.13411" lon="6.30042">
        <ele>457.2</ele>
        <time>2022-02-10T15:29:19Z</time>
      </trkpt>
      <trkpt lat="46.13404" lon="6.30079">
        <ele>456.4</ele>
        <time>2022-02-10T15:29:22Z</time>
      </trkpt>
      <trkpt lat="46.13385" lon="6.30161">
        <ele>455.8</ele>
        <time>2022-02-10T15:29:29Z</time>
      </trkpt>
      <trkpt lat="46.13379" lon="6.30184">
        <ele>455.6</ele>
        <time>2022-02-10T15:29:31Z</time>
      </trkpt>
      <trkpt lat="46.13377" lon="6.30195">
        <ele>455.8</ele>
        <time>2022-02-10T15:29:32Z</time>
      </trkpt>
      <trkpt lat="46.13354" lon="6.30273">
        <ele>456</ele>
        <time>2022-02-10T15:29:39Z</time>
      </trkpt>
      <trkpt lat="46.13342" lon="6.30305">
        <ele>456.2</ele>
        <time>2022-02-10T15:29:42Z</time>
      </trkpt>
      <trkpt lat="46.13326" lon="6.30335">
        <ele>456.2</ele>
        <time>2022-02-10T15:29:45Z</time>
      </trkpt>
      <trkpt lat="46.13284" lon="6.30398">
        <ele>455.8</ele>
        <time>2022-02-10T15:29:52Z</time>
      </trkpt>
      <trkpt lat="46.13277" lon="6.30406">
        <ele>455.8</ele>
        <time>2022-02-10T15:29:53Z</time>
      </trkpt>
      <trkpt lat="46.13236" lon="6.30453">
        <ele>455.6</ele>
        <time>2022-02-10T15:29:59Z</time>
      </trkpt>
      <trkpt lat="46.13204" lon="6.30493">
        <ele>455.4</ele>
        <time>2022-02-10T15:30:04Z</time>
      </trkpt>
      <trkpt lat="46.13199" lon="6.30503">
        <ele>455.4</ele>
        <time>2022-02-10T15:30:05Z</time>
      </trkpt>
      <trkpt lat="46.13192" lon="6.30523">
        <ele>455.4</ele>
        <time>2022-02-10T15:30:07Z</time>
      </trkpt>
      <trkpt lat="46.13186" lon="6.30545">
        <ele>455.2</ele>
        <time>2022-02-10T15:30:09Z</time>
      </trkpt>
      <trkpt lat="46.13171" lon="6.30615">
        <ele>454.8</ele>
        <time>2022-02-10T15:30:15Z</time>
      </trkpt>
      <trkpt lat="46.13156" lon="6.307">
        <ele>454.2</ele>
        <time>2022-02-10T15:30:22Z</time>
      </trkpt>
      <trkpt lat="46.13155" lon="6.30713">
        <ele>454.2</ele>
        <time>2022-02-10T15:30:23Z</time>
      </trkpt>
      <trkpt lat="46.13157" lon="6.30738">
        <ele>454</ele>
        <time>2022-02-10T15:30:25Z</time>
      </trkpt>
      <trkpt lat="46.13159" lon="6.3075">
        <ele>454</ele>
        <time>2022-02-10T15:30:26Z</time>
      </trkpt>
      <trkpt lat="46.1317" lon="6.30817">
        <ele>453.8</ele>
        <time>2022-02-10T15:30:32Z</time>
      </trkpt>
      <trkpt lat="46.13183" lon="6.30893">
        <ele>453.6</ele>
        <time>2022-02-10T15:30:39Z</time>
      </trkpt>
      <trkpt lat="46.132" lon="6.3097">
        <ele>453.8</ele>
        <time>2022-02-10T15:30:46Z</time>
      </trkpt>
      <trkpt lat="46.13211" lon="6.31017">
        <ele>453.6</ele>
        <time>2022-02-10T15:30:50Z</time>
      </trkpt>
      <trkpt lat="46.1322" lon="6.31054">
        <ele>453.6</ele>
        <time>2022-02-10T15:30:53Z</time>
      </trkpt>
      <trkpt lat="46.13224" lon="6.31066">
        <ele>453.6</ele>
        <time>2022-02-10T15:30:54Z</time>
      </trkpt>
      <trkpt lat="46.13229" lon="6.31078">
        <ele>453.4</ele>
        <time>2022-02-10T15:30:55Z</time>
      </trkpt>
      <trkpt lat="46.13246" lon="6.31113">
        <ele>452.4</ele>
        <time>2022-02-10T15:30:58Z</time>
      </trkpt>
      <trkpt lat="46.13252" lon="6.31124">
        <ele>452.2</ele>
        <time>2022-02-10T15:30:59Z</time>
      </trkpt>
      <trkpt lat="46.13258" lon="6.31136">
        <ele>451.8</ele>
        <time>2022-02-10T15:31:00Z</time>
      </trkpt>
      <trkpt lat="46.13271" lon="6.31159">
        <ele>451</ele>
        <time>2022-02-10T15:31:02Z</time>
      </trkpt>
      <trkpt lat="46.13303" lon="6.31216">
        <ele>448.6</ele>
        <time>2022-02-10T15:31:07Z</time>
      </trkpt>
      <trkpt lat="46.13318" lon="6.31242">
        <ele>446.8</ele>
        <time>2022-02-10T15:31:10Z</time>
      </trkpt>
      <trkpt lat="46.13325" lon="6.31255">
        <ele>446.4</ele>
        <time>2022-02-10T15:31:12Z</time>
      </trkpt>
      <trkpt lat="46.13329" lon="6.31263">
        <ele>446.4</ele>
        <time>2022-02-10T15:31:14Z</time>
      </trkpt>
      <trkpt lat="46.1333" lon="6.31266">
        <ele>446.4</ele>
        <time>2022-02-10T15:31:17Z</time>
      </trkpt>
      <trkpt lat="46.13336" lon="6.31273">
        <ele>446.8</ele>
        <time>2022-02-10T15:31:21Z</time>
      </trkpt>
      <trkpt lat="46.13347" lon="6.3127">
        <ele>447.8</ele>
        <time>2022-02-10T15:31:24Z</time>
      </trkpt>
      <trkpt lat="46.13352" lon="6.31267">
        <ele>447.8</ele>
        <time>2022-02-10T15:31:25Z</time>
      </trkpt>
      <trkpt lat="46.1337" lon="6.31259">
        <ele>448</ele>
        <time>2022-02-10T15:31:28Z</time>
      </trkpt>
      <trkpt lat="46.13383" lon="6.31253">
        <ele>448</ele>
        <time>2022-02-10T15:31:30Z</time>
      </trkpt>
      <trkpt lat="46.1342" lon="6.31236">
        <ele>446.8</ele>
        <time>2022-02-10T15:31:35Z</time>
      </trkpt>
      <trkpt lat="46.13476" lon="6.31209">
        <ele>444</ele>
        <time>2022-02-10T15:31:43Z</time>
      </trkpt>
      <trkpt lat="46.13483" lon="6.31205">
        <ele>444</ele>
        <time>2022-02-10T15:31:44Z</time>
      </trkpt>
      <trkpt lat="46.13489" lon="6.31203">
        <ele>444</ele>
        <time>2022-02-10T15:31:45Z</time>
      </trkpt>
      <trkpt lat="46.13519" lon="6.31192">
        <ele>444.2</ele>
        <time>2022-02-10T15:31:50Z</time>
      </trkpt>
      <trkpt lat="46.13525" lon="6.31191">
        <ele>444.6</ele>
        <time>2022-02-10T15:31:51Z</time>
      </trkpt>
      <trkpt lat="46.13537" lon="6.31192">
        <ele>445.2</ele>
        <time>2022-02-10T15:31:53Z</time>
      </trkpt>
      <trkpt lat="46.13548" lon="6.31195">
        <ele>446.4</ele>
        <time>2022-02-10T15:31:55Z</time>
      </trkpt>
      <trkpt lat="46.13553" lon="6.31197">
        <ele>446.8</ele>
        <time>2022-02-10T15:31:56Z</time>
      </trkpt>
      <trkpt lat="46.13573" lon="6.31212">
        <ele>447.6</ele>
        <time>2022-02-10T15:32:00Z</time>
      </trkpt>
      <trkpt lat="46.13577" lon="6.31217">
        <ele>448</ele>
        <time>2022-02-10T15:32:01Z</time>
      </trkpt>
      <trkpt lat="46.13604" lon="6.31246">
        <ele>449.8</ele>
        <time>2022-02-10T15:32:07Z</time>
      </trkpt>
      <trkpt lat="46.13608" lon="6.31252">
        <ele>449.8</ele>
        <time>2022-02-10T15:32:08Z</time>
      </trkpt>
      <trkpt lat="46.13622" lon="6.31267">
        <ele>450.6</ele>
        <time>2022-02-10T15:32:11Z</time>
      </trkpt>
      <trkpt lat="46.13654" lon="6.31302">
        <ele>452.4</ele>
        <time>2022-02-10T15:32:18Z</time>
      </trkpt>
      <trkpt lat="46.13663" lon="6.31312">
        <ele>452.6</ele>
        <time>2022-02-10T15:32:20Z</time>
      </trkpt>
      <trkpt lat="46.13673" lon="6.31321">
        <ele>453</ele>
        <time>2022-02-10T15:32:22Z</time>
      </trkpt>
      <trkpt lat="46.13683" lon="6.31326">
        <ele>452.8</ele>
        <time>2022-02-10T15:32:24Z</time>
      </trkpt>
      <trkpt lat="46.13693" lon="6.3132">
        <ele>453.2</ele>
        <time>2022-02-10T15:32:26Z</time>
      </trkpt>
      <trkpt lat="46.13696" lon="6.31315">
        <ele>453.2</ele>
        <time>2022-02-10T15:32:27Z</time>
      </trkpt>
      <trkpt lat="46.13704" lon="6.31305">
        <ele>453.8</ele>
        <time>2022-02-10T15:32:29Z</time>
      </trkpt>
      <trkpt lat="46.13719" lon="6.31279">
        <ele>455.6</ele>
        <time>2022-02-10T15:32:34Z</time>
      </trkpt>
      <trkpt lat="46.13737" lon="6.3125">
        <ele>457</ele>
        <time>2022-02-10T15:32:40Z</time>
      </trkpt>
      <trkpt lat="46.1374" lon="6.31245">
        <ele>457.2</ele>
        <time>2022-02-10T15:32:41Z</time>
      </trkpt>
      <trkpt lat="46.13743" lon="6.31241">
        <ele>457.6</ele>
        <time>2022-02-10T15:32:42Z</time>
      </trkpt>
      <trkpt lat="46.13748" lon="6.31233">
        <ele>458</ele>
        <time>2022-02-10T15:32:44Z</time>
      </trkpt>
      <trkpt lat="46.13756" lon="6.31218">
        <ele>458.8</ele>
        <time>2022-02-10T15:32:48Z</time>
      </trkpt>
      <trkpt lat="46.13758" lon="6.31215">
        <ele>459.2</ele>
        <time>2022-02-10T15:32:49Z</time>
      </trkpt>
      <trkpt lat="46.13761" lon="6.31209">
        <ele>459.6</ele>
        <time>2022-02-10T15:32:51Z</time>
      </trkpt>
      <trkpt lat="46.13765" lon="6.31201">
        <ele>460.4</ele>
        <time>2022-02-10T15:32:54Z</time>
      </trkpt>
      <trkpt lat="46.13767" lon="6.31196">
        <ele>461</ele>
        <time>2022-02-10T15:32:56Z</time>
      </trkpt>
      <trkpt lat="46.1377" lon="6.31191">
        <ele>461.8</ele>
        <time>2022-02-10T15:32:58Z</time>
      </trkpt>
      <trkpt lat="46.13774" lon="6.3118">
        <ele>463.6</ele>
        <time>2022-02-10T15:33:02Z</time>
      </trkpt>
      <trkpt lat="46.13778" lon="6.31172">
        <ele>464.8</ele>
        <time>2022-02-10T15:33:05Z</time>
      </trkpt>
      <trkpt lat="46.13779" lon="6.31168">
        <ele>465.2</ele>
        <time>2022-02-10T15:33:06Z</time>
      </trkpt>
      <trkpt lat="46.13786" lon="6.31151">
        <ele>466.8</ele>
        <time>2022-02-10T15:33:11Z</time>
      </trkpt>
      <trkpt lat="46.13799" lon="6.31114">
        <ele>468.2</ele>
        <time>2022-02-10T15:33:19Z</time>
      </trkpt>
      <trkpt lat="46.13808" lon="6.31087">
        <ele>468.6</ele>
        <time>2022-02-10T15:33:25Z</time>
      </trkpt>
      <trkpt lat="46.13809" lon="6.31083">
        <ele>468.8</ele>
        <time>2022-02-10T15:33:26Z</time>
      </trkpt>
      <trkpt lat="46.13812" lon="6.31074">
        <ele>469</ele>
        <time>2022-02-10T15:33:28Z</time>
      </trkpt>
      <trkpt lat="46.13819" lon="6.31056">
        <ele>470.2</ele>
        <time>2022-02-10T15:33:32Z</time>
      </trkpt>
      <trkpt lat="46.13824" lon="6.31044">
        <ele>470.6</ele>
        <time>2022-02-10T15:33:35Z</time>
      </trkpt>
      <trkpt lat="46.13826" lon="6.31039">
        <ele>470.8</ele>
        <time>2022-02-10T15:33:36Z</time>
      </trkpt>
      <trkpt lat="46.13839" lon="6.31013">
        <ele>473</ele>
        <time>2022-02-10T15:33:42Z</time>
      </trkpt>
      <trkpt lat="46.13851" lon="6.30989">
        <ele>474</ele>
        <time>2022-02-10T15:33:47Z</time>
      </trkpt>
      <trkpt lat="46.13854" lon="6.30985">
        <ele>474</ele>
        <time>2022-02-10T15:33:48Z</time>
      </trkpt>
      <trkpt lat="46.13883" lon="6.30952">
        <ele>473.8</ele>
        <time>2022-02-10T15:33:55Z</time>
      </trkpt>
      <trkpt lat="46.13919" lon="6.30899">
        <ele>474</ele>
        <time>2022-02-10T15:34:04Z</time>
      </trkpt>
      <trkpt lat="46.1394" lon="6.3087">
        <ele>473.8</ele>
        <time>2022-02-10T15:34:09Z</time>
      </trkpt>
      <trkpt lat="46.13951" lon="6.30863">
        <ele>473.8</ele>
        <time>2022-02-10T15:34:11Z</time>
      </trkpt>
      <trkpt lat="46.13975" lon="6.30854">
        <ele>473.6</ele>
        <time>2022-02-10T15:34:15Z</time>
      </trkpt>
      <trkpt lat="46.1398" lon="6.3085">
        <ele>473.8</ele>
        <time>2022-02-10T15:34:16Z</time>
      </trkpt>
      <trkpt lat="46.13984" lon="6.30844">
        <ele>473.6</ele>
        <time>2022-02-10T15:34:17Z</time>
      </trkpt>
      <trkpt lat="46.13992" lon="6.3083">
        <ele>473.6</ele>
        <time>2022-02-10T15:34:19Z</time>
      </trkpt>
      <trkpt lat="46.13995" lon="6.30822">
        <ele>473.8</ele>
        <time>2022-02-10T15:34:20Z</time>
      </trkpt>
      <trkpt lat="46.14011" lon="6.30783">
        <ele>473.6</ele>
        <time>2022-02-10T15:34:25Z</time>
      </trkpt>
      <trkpt lat="46.14016" lon="6.30778">
        <ele>473.4</ele>
        <time>2022-02-10T15:34:26Z</time>
      </trkpt>
      <trkpt lat="46.14021" lon="6.30779">
        <ele>473.4</ele>
        <time>2022-02-10T15:34:27Z</time>
      </trkpt>
      <trkpt lat="46.14026" lon="6.30782">
        <ele>473.4</ele>
        <time>2022-02-10T15:34:28Z</time>
      </trkpt>
      <trkpt lat="46.14053" lon="6.30804">
        <ele>473.2</ele>
        <time>2022-02-10T15:34:33Z</time>
      </trkpt>
      <trkpt lat="46.14066" lon="6.30811">
        <ele>473.2</ele>
        <time>2022-02-10T15:34:35Z</time>
      </trkpt>
      <trkpt lat="46.14079" lon="6.30816">
        <ele>473</ele>
        <time>2022-02-10T15:34:37Z</time>
      </trkpt>
      <trkpt lat="46.1409" lon="6.3082">
        <ele>473.2</ele>
        <time>2022-02-10T15:34:39Z</time>
      </trkpt>
      <trkpt lat="46.14094" lon="6.30817">
        <ele>473</ele>
        <time>2022-02-10T15:34:40Z</time>
      </trkpt>
      <trkpt lat="46.14099" lon="6.30806">
        <ele>472.6</ele>
        <time>2022-02-10T15:34:42Z</time>
      </trkpt>
      <trkpt lat="46.14103" lon="6.30794">
        <ele>472.4</ele>
        <time>2022-02-10T15:34:44Z</time>
      </trkpt>
      <trkpt lat="46.14112" lon="6.30776">
        <ele>472.2</ele>
        <time>2022-02-10T15:34:47Z</time>
      </trkpt>
      <trkpt lat="46.14119" lon="6.30765">
        <ele>472.2</ele>
        <time>2022-02-10T15:34:49Z</time>
      </trkpt>
      <trkpt lat="46.14138" lon="6.30746">
        <ele>472.2</ele>
        <time>2022-02-10T15:34:53Z</time>
      </trkpt>
      <trkpt lat="46.14143" lon="6.30741">
        <ele>472.2</ele>
        <time>2022-02-10T15:34:54Z</time>
      </trkpt>
      <trkpt lat="46.14149" lon="6.30737">
        <ele>472.2</ele>
        <time>2022-02-10T15:34:55Z</time>
      </trkpt>
      <trkpt lat="46.14168" lon="6.30728">
        <ele>472.2</ele>
        <time>2022-02-10T15:34:58Z</time>
      </trkpt>
      <trkpt lat="46.14187" lon="6.3072">
        <ele>472</ele>
        <time>2022-02-10T15:35:01Z</time>
      </trkpt>
      <trkpt lat="46.14208" lon="6.30713">
        <ele>472</ele>
        <time>2022-02-10T15:35:04Z</time>
      </trkpt>
      <trkpt lat="46.14239" lon="6.30695">
        <ele>471.6</ele>
        <time>2022-02-10T15:35:09Z</time>
      </trkpt>
      <trkpt lat="46.14244" lon="6.3069">
        <ele>471.2</ele>
        <time>2022-02-10T15:35:10Z</time>
      </trkpt>
      <trkpt lat="46.14269" lon="6.30663">
        <ele>469.4</ele>
        <time>2022-02-10T15:35:15Z</time>
      </trkpt>
      <trkpt lat="46.14274" lon="6.30658">
        <ele>469.2</ele>
        <time>2022-02-10T15:35:16Z</time>
      </trkpt>
      <trkpt lat="46.14288" lon="6.3064">
        <ele>468.8</ele>
        <time>2022-02-10T15:35:19Z</time>
      </trkpt>
      <trkpt lat="46.14298" lon="6.30627">
        <ele>468.6</ele>
        <time>2022-02-10T15:35:21Z</time>
      </trkpt>
      <trkpt lat="46.14304" lon="6.30621">
        <ele>468.4</ele>
        <time>2022-02-10T15:35:22Z</time>
      </trkpt>
      <trkpt lat="46.14323" lon="6.30602">
        <ele>468</ele>
        <time>2022-02-10T15:35:25Z</time>
      </trkpt>
      <trkpt lat="46.14343" lon="6.30584">
        <ele>467.4</ele>
        <time>2022-02-10T15:35:28Z</time>
      </trkpt>
      <trkpt lat="46.14378" lon="6.30554">
        <ele>465.6</ele>
        <time>2022-02-10T15:35:33Z</time>
      </trkpt>
      <trkpt lat="46.144" lon="6.30538">
        <ele>464.8</ele>
        <time>2022-02-10T15:35:36Z</time>
      </trkpt>
      <trkpt lat="46.14416" lon="6.30536">
        <ele>464.4</ele>
        <time>2022-02-10T15:35:38Z</time>
      </trkpt>
      <trkpt lat="46.14424" lon="6.30539">
        <ele>464.2</ele>
        <time>2022-02-10T15:35:39Z</time>
      </trkpt>
      <trkpt lat="46.14432" lon="6.30544">
        <ele>464.2</ele>
        <time>2022-02-10T15:35:40Z</time>
      </trkpt>
      <trkpt lat="46.1444" lon="6.3055">
        <ele>464</ele>
        <time>2022-02-10T15:35:41Z</time>
      </trkpt>
      <trkpt lat="46.14456" lon="6.30565">
        <ele>463.6</ele>
        <time>2022-02-10T15:35:43Z</time>
      </trkpt>
      <trkpt lat="46.14473" lon="6.3058">
        <ele>462.8</ele>
        <time>2022-02-10T15:35:45Z</time>
      </trkpt>
      <trkpt lat="46.14491" lon="6.30593">
        <ele>461.6</ele>
        <time>2022-02-10T15:35:47Z</time>
      </trkpt>
      <trkpt lat="46.14501" lon="6.30597">
        <ele>461.2</ele>
        <time>2022-02-10T15:35:48Z</time>
      </trkpt>
      <trkpt lat="46.14511" lon="6.30598">
        <ele>460.6</ele>
        <time>2022-02-10T15:35:49Z</time>
      </trkpt>
      <trkpt lat="46.14531" lon="6.30591">
        <ele>459.6</ele>
        <time>2022-02-10T15:35:51Z</time>
      </trkpt>
      <trkpt lat="46.14556" lon="6.30568">
        <ele>457.4</ele>
        <time>2022-02-10T15:35:54Z</time>
      </trkpt>
      <trkpt lat="46.14576" lon="6.30541">
        <ele>455.6</ele>
        <time>2022-02-10T15:35:57Z</time>
      </trkpt>
      <trkpt lat="46.14587" lon="6.30525">
        <ele>455.2</ele>
        <time>2022-02-10T15:35:59Z</time>
      </trkpt>
      <trkpt lat="46.14592" lon="6.30517">
        <ele>455.4</ele>
        <time>2022-02-10T15:36:00Z</time>
      </trkpt>
      <trkpt lat="46.14597" lon="6.30511">
        <ele>455.2</ele>
        <time>2022-02-10T15:36:01Z</time>
      </trkpt>
      <trkpt lat="46.14608" lon="6.30503">
        <ele>455</ele>
        <time>2022-02-10T15:36:03Z</time>
      </trkpt>
      <trkpt lat="46.14618" lon="6.30502">
        <ele>455.2</ele>
        <time>2022-02-10T15:36:05Z</time>
      </trkpt>
      <trkpt lat="46.14629" lon="6.30504">
        <ele>455.4</ele>
        <time>2022-02-10T15:36:07Z</time>
      </trkpt>
      <trkpt lat="46.14644" lon="6.30509">
        <ele>457.2</ele>
        <time>2022-02-10T15:36:10Z</time>
      </trkpt>
      <trkpt lat="46.14669" lon="6.30516">
        <ele>460</ele>
        <time>2022-02-10T15:36:15Z</time>
      </trkpt>
      <trkpt lat="46.14674" lon="6.30518">
        <ele>460.4</ele>
        <time>2022-02-10T15:36:16Z</time>
      </trkpt>
      <trkpt lat="46.14684" lon="6.30521">
        <ele>461</ele>
        <time>2022-02-10T15:36:18Z</time>
      </trkpt>
      <trkpt lat="46.14698" lon="6.30526">
        <ele>461.6</ele>
        <time>2022-02-10T15:36:21Z</time>
      </trkpt>
      <trkpt lat="46.14712" lon="6.30531">
        <ele>462.4</ele>
        <time>2022-02-10T15:36:24Z</time>
      </trkpt>
      <trkpt lat="46.14726" lon="6.30535">
        <ele>463.4</ele>
        <time>2022-02-10T15:36:27Z</time>
      </trkpt>
      <trkpt lat="46.14755" lon="6.30542">
        <ele>465</ele>
        <time>2022-02-10T15:36:33Z</time>
      </trkpt>
      <trkpt lat="46.1476" lon="6.30543">
        <ele>465.2</ele>
        <time>2022-02-10T15:36:34Z</time>
      </trkpt>
      <trkpt lat="46.148" lon="6.30557">
        <ele>466.8</ele>
        <time>2022-02-10T15:36:42Z</time>
      </trkpt>
      <trkpt lat="46.14839" lon="6.30577">
        <ele>467</ele>
        <time>2022-02-10T15:36:49Z</time>
      </trkpt>
      <trkpt lat="46.14872" lon="6.30595">
        <ele>466.8</ele>
        <time>2022-02-10T15:36:55Z</time>
      </trkpt>
      <trkpt lat="46.14884" lon="6.30601">
        <ele>466.6</ele>
        <time>2022-02-10T15:36:57Z</time>
      </trkpt>
      <trkpt lat="46.14908" lon="6.30615">
        <ele>466.4</ele>
        <time>2022-02-10T15:37:01Z</time>
      </trkpt>
      <trkpt lat="46.14919" lon="6.30624">
        <ele>466.4</ele>
        <time>2022-02-10T15:37:03Z</time>
      </trkpt>
      <trkpt lat="46.14931" lon="6.30635">
        <ele>466.4</ele>
        <time>2022-02-10T15:37:05Z</time>
      </trkpt>
      <trkpt lat="46.14961" lon="6.30661">
        <ele>466</ele>
        <time>2022-02-10T15:37:10Z</time>
      </trkpt>
      <trkpt lat="46.14978" lon="6.30678">
        <ele>465.6</ele>
        <time>2022-02-10T15:37:13Z</time>
      </trkpt>
      <trkpt lat="46.14991" lon="6.30688">
        <ele>465.2</ele>
        <time>2022-02-10T15:37:15Z</time>
      </trkpt>
      <trkpt lat="46.15017" lon="6.30697">
        <ele>465</ele>
        <time>2022-02-10T15:37:19Z</time>
      </trkpt>
      <trkpt lat="46.15023" lon="6.30698">
        <ele>465</ele>
        <time>2022-02-10T15:37:20Z</time>
      </trkpt>
      <trkpt lat="46.15029" lon="6.30698">
        <ele>464.8</ele>
        <time>2022-02-10T15:37:21Z</time>
      </trkpt>
      <trkpt lat="46.15051" lon="6.30696">
        <ele>465</ele>
        <time>2022-02-10T15:37:25Z</time>
      </trkpt>
      <trkpt lat="46.15071" lon="6.3069">
        <ele>466</ele>
        <time>2022-02-10T15:37:29Z</time>
      </trkpt>
      <trkpt lat="46.15081" lon="6.30687">
        <ele>466.4</ele>
        <time>2022-02-10T15:37:31Z</time>
      </trkpt>
      <trkpt lat="46.15085" lon="6.30685">
        <ele>466.8</ele>
        <time>2022-02-10T15:37:32Z</time>
      </trkpt>
      <trkpt lat="46.15094" lon="6.30682">
        <ele>467.4</ele>
        <time>2022-02-10T15:37:34Z</time>
      </trkpt>
      <trkpt lat="46.1511" lon="6.30678">
        <ele>468.6</ele>
        <time>2022-02-10T15:37:38Z</time>
      </trkpt>
      <trkpt lat="46.15114" lon="6.30678">
        <ele>469.2</ele>
        <time>2022-02-10T15:37:39Z</time>
      </trkpt>
      <trkpt lat="46.15126" lon="6.30679">
        <ele>470.4</ele>
        <time>2022-02-10T15:37:42Z</time>
      </trkpt>
      <trkpt lat="46.15137" lon="6.30684">
        <ele>471.2</ele>
        <time>2022-02-10T15:37:45Z</time>
      </trkpt>
      <trkpt lat="46.1514" lon="6.30686">
        <ele>471.8</ele>
        <time>2022-02-10T15:37:46Z</time>
      </trkpt>
      <trkpt lat="46.15156" lon="6.30701">
        <ele>473</ele>
        <time>2022-02-10T15:37:51Z</time>
      </trkpt>
      <trkpt lat="46.1517" lon="6.30717">
        <ele>474.6</ele>
        <time>2022-02-10T15:37:56Z</time>
      </trkpt>
      <trkpt lat="46.15188" lon="6.30735">
        <ele>476</ele>
        <time>2022-02-10T15:38:02Z</time>
      </trkpt>
      <trkpt lat="46.15199" lon="6.30739">
        <ele>476.8</ele>
        <time>2022-02-10T15:38:05Z</time>
      </trkpt>
      <trkpt lat="46.1521" lon="6.30739">
        <ele>477.6</ele>
        <time>2022-02-10T15:38:08Z</time>
      </trkpt>
      <trkpt lat="46.15221" lon="6.30736">
        <ele>477.8</ele>
        <time>2022-02-10T15:38:11Z</time>
      </trkpt>
      <trkpt lat="46.15235" lon="6.30732">
        <ele>478.8</ele>
        <time>2022-02-10T15:38:15Z</time>
      </trkpt>
      <trkpt lat="46.15242" lon="6.3073">
        <ele>479.4</ele>
        <time>2022-02-10T15:38:17Z</time>
      </trkpt>
      <trkpt lat="46.15263" lon="6.30723">
        <ele>480</ele>
        <time>2022-02-10T15:38:23Z</time>
      </trkpt>
      <trkpt lat="46.15281" lon="6.30717">
        <ele>480.6</ele>
        <time>2022-02-10T15:38:28Z</time>
      </trkpt>
      <trkpt lat="46.15289" lon="6.30715">
        <ele>481</ele>
        <time>2022-02-10T15:38:30Z</time>
      </trkpt>
      <trkpt lat="46.15311" lon="6.30709">
        <ele>481.4</ele>
        <time>2022-02-10T15:38:36Z</time>
      </trkpt>
      <trkpt lat="46.15314" lon="6.30709">
        <ele>481.6</ele>
        <time>2022-02-10T15:38:37Z</time>
      </trkpt>
      <trkpt lat="46.15321" lon="6.30711">
        <ele>482</ele>
        <time>2022-02-10T15:38:41Z</time>
      </trkpt>
      <trkpt lat="46.15324" lon="6.30715">
        <ele>482.4</ele>
        <time>2022-02-10T15:38:44Z</time>
      </trkpt>
      <trkpt lat="46.15327" lon="6.30718">
        <ele>482.8</ele>
        <time>2022-02-10T15:38:46Z</time>
      </trkpt>
      <trkpt lat="46.15338" lon="6.30733">
        <ele>483.8</ele>
        <time>2022-02-10T15:38:51Z</time>
      </trkpt>
      <trkpt lat="46.1534" lon="6.30734">
        <ele>483.8</ele>
        <time>2022-02-10T15:38:52Z</time>
      </trkpt>
      <trkpt lat="46.15345" lon="6.30733">
        <ele>484</ele>
        <time>2022-02-10T15:38:54Z</time>
      </trkpt>
      <trkpt lat="46.15355" lon="6.30719">
        <ele>484.6</ele>
        <time>2022-02-10T15:38:59Z</time>
      </trkpt>
      <trkpt lat="46.15377" lon="6.30689">
        <ele>484.8</ele>
        <time>2022-02-10T15:39:06Z</time>
      </trkpt>
      <trkpt lat="46.15391" lon="6.30666">
        <ele>484.6</ele>
        <time>2022-02-10T15:39:10Z</time>
      </trkpt>
      <trkpt lat="46.15395" lon="6.30653">
        <ele>484.8</ele>
        <time>2022-02-10T15:39:12Z</time>
      </trkpt>
      <trkpt lat="46.15409" lon="6.3061">
        <ele>485</ele>
        <time>2022-02-10T15:39:18Z</time>
      </trkpt>
      <trkpt lat="46.15413" lon="6.30595">
        <ele>485</ele>
        <time>2022-02-10T15:39:20Z</time>
      </trkpt>
      <trkpt lat="46.15423" lon="6.30555">
        <ele>485.4</ele>
        <time>2022-02-10T15:39:25Z</time>
      </trkpt>
      <trkpt lat="46.15435" lon="6.30493">
        <ele>485.6</ele>
        <time>2022-02-10T15:39:32Z</time>
      </trkpt>
      <trkpt lat="46.15448" lon="6.30415">
        <ele>484.6</ele>
        <time>2022-02-10T15:39:40Z</time>
      </trkpt>
      <trkpt lat="46.1545" lon="6.30405">
        <ele>484.6</ele>
        <time>2022-02-10T15:39:41Z</time>
      </trkpt>
      <trkpt lat="46.1546" lon="6.30364">
        <ele>484.2</ele>
        <time>2022-02-10T15:39:45Z</time>
      </trkpt>
      <trkpt lat="46.15471" lon="6.30323">
        <ele>483.8</ele>
        <time>2022-02-10T15:39:49Z</time>
      </trkpt>
      <trkpt lat="46.15488" lon="6.30248">
        <ele>483.2</ele>
        <time>2022-02-10T15:39:56Z</time>
      </trkpt>
      <trkpt lat="46.15501" lon="6.30185">
        <ele>482.6</ele>
        <time>2022-02-10T15:40:02Z</time>
      </trkpt>
      <trkpt lat="46.15511" lon="6.30141">
        <ele>482.4</ele>
        <time>2022-02-10T15:40:06Z</time>
      </trkpt>
      <trkpt lat="46.15525" lon="6.30073">
        <ele>482</ele>
        <time>2022-02-10T15:40:12Z</time>
      </trkpt>
      <trkpt lat="46.15532" lon="6.30039">
        <ele>481.8</ele>
        <time>2022-02-10T15:40:15Z</time>
      </trkpt>
      <trkpt lat="46.15549" lon="6.29958">
        <ele>480.6</ele>
        <time>2022-02-10T15:40:22Z</time>
      </trkpt>
      <trkpt lat="46.15551" lon="6.29947">
        <ele>480.6</ele>
        <time>2022-02-10T15:40:23Z</time>
      </trkpt>
      <trkpt lat="46.15568" lon="6.2987">
        <ele>480.2</ele>
        <time>2022-02-10T15:40:30Z</time>
      </trkpt>
      <trkpt lat="46.15575" lon="6.29852">
        <ele>480.4</ele>
        <time>2022-02-10T15:40:32Z</time>
      </trkpt>
      <trkpt lat="46.15583" lon="6.29836">
        <ele>480.4</ele>
        <time>2022-02-10T15:40:34Z</time>
      </trkpt>
      <trkpt lat="46.15586" lon="6.29816">
        <ele>480.2</ele>
        <time>2022-02-10T15:40:36Z</time>
      </trkpt>
      <trkpt lat="46.15586" lon="6.29805">
        <ele>480.4</ele>
        <time>2022-02-10T15:40:37Z</time>
      </trkpt>
      <trkpt lat="46.15587" lon="6.29795">
        <ele>480.4</ele>
        <time>2022-02-10T15:40:38Z</time>
      </trkpt>
      <trkpt lat="46.15594" lon="6.29754">
        <ele>480.8</ele>
        <time>2022-02-10T15:40:42Z</time>
      </trkpt>
      <trkpt lat="46.15596" lon="6.29744">
        <ele>481</ele>
        <time>2022-02-10T15:40:43Z</time>
      </trkpt>
      <trkpt lat="46.15614" lon="6.29663">
        <ele>481.4</ele>
        <time>2022-02-10T15:40:51Z</time>
      </trkpt>
      <trkpt lat="46.15616" lon="6.29653">
        <ele>481.4</ele>
        <time>2022-02-10T15:40:52Z</time>
      </trkpt>
      <trkpt lat="46.15634" lon="6.2957">
        <ele>481.8</ele>
        <time>2022-02-10T15:41:00Z</time>
      </trkpt>
      <trkpt lat="46.1564" lon="6.29539">
        <ele>481.8</ele>
        <time>2022-02-10T15:41:03Z</time>
      </trkpt>
      <trkpt lat="46.15658" lon="6.29456">
        <ele>482.2</ele>
        <time>2022-02-10T15:41:11Z</time>
      </trkpt>
      <trkpt lat="46.15665" lon="6.29424">
        <ele>482.2</ele>
        <time>2022-02-10T15:41:14Z</time>
      </trkpt>
      <trkpt lat="46.15669" lon="6.29403">
        <ele>482.2</ele>
        <time>2022-02-10T15:41:16Z</time>
      </trkpt>
      <trkpt lat="46.15684" lon="6.29339">
        <ele>482.2</ele>
        <time>2022-02-10T15:41:22Z</time>
      </trkpt>
      <trkpt lat="46.15698" lon="6.29272">
        <ele>482.4</ele>
        <time>2022-02-10T15:41:28Z</time>
      </trkpt>
      <trkpt lat="46.15708" lon="6.29227">
        <ele>482.2</ele>
        <time>2022-02-10T15:41:32Z</time>
      </trkpt>
      <trkpt lat="46.15725" lon="6.29148">
        <ele>481.8</ele>
        <time>2022-02-10T15:41:39Z</time>
      </trkpt>
      <trkpt lat="46.15732" lon="6.29114">
        <ele>481.6</ele>
        <time>2022-02-10T15:41:42Z</time>
      </trkpt>
      <trkpt lat="46.15748" lon="6.29037">
        <ele>481.2</ele>
        <time>2022-02-10T15:41:49Z</time>
      </trkpt>
      <trkpt lat="46.15761" lon="6.2898">
        <ele>481.2</ele>
        <time>2022-02-10T15:41:54Z</time>
      </trkpt>
      <trkpt lat="46.15771" lon="6.28933">
        <ele>481</ele>
        <time>2022-02-10T15:41:58Z</time>
      </trkpt>
      <trkpt lat="46.15787" lon="6.28862">
        <ele>480.8</ele>
        <time>2022-02-10T15:42:04Z</time>
      </trkpt>
      <trkpt lat="46.15806" lon="6.28781">
        <ele>480.6</ele>
        <time>2022-02-10T15:42:11Z</time>
      </trkpt>
      <trkpt lat="46.15809" lon="6.2877">
        <ele>480.4</ele>
        <time>2022-02-10T15:42:12Z</time>
      </trkpt>
      <trkpt lat="46.15817" lon="6.28735">
        <ele>480</ele>
        <time>2022-02-10T15:42:15Z</time>
      </trkpt>
      <trkpt lat="46.1583" lon="6.28679">
        <ele>480</ele>
        <time>2022-02-10T15:42:20Z</time>
      </trkpt>
      <trkpt lat="46.15835" lon="6.28658">
        <ele>479.8</ele>
        <time>2022-02-10T15:42:22Z</time>
      </trkpt>
      <trkpt lat="46.15843" lon="6.28626">
        <ele>480</ele>
        <time>2022-02-10T15:42:25Z</time>
      </trkpt>
      <trkpt lat="46.15855" lon="6.28579">
        <ele>480.8</ele>
        <time>2022-02-10T15:42:30Z</time>
      </trkpt>
      <trkpt lat="46.15872" lon="6.28505">
        <ele>482.6</ele>
        <time>2022-02-10T15:42:38Z</time>
      </trkpt>
      <trkpt lat="46.15886" lon="6.28444">
        <ele>483.8</ele>
        <time>2022-02-10T15:42:45Z</time>
      </trkpt>
      <trkpt lat="46.15892" lon="6.28427">
        <ele>484.2</ele>
        <time>2022-02-10T15:42:47Z</time>
      </trkpt>
      <trkpt lat="46.15914" lon="6.28371">
        <ele>485.2</ele>
        <time>2022-02-10T15:42:54Z</time>
      </trkpt>
      <trkpt lat="46.15918" lon="6.28363">
        <ele>485.4</ele>
        <time>2022-02-10T15:42:55Z</time>
      </trkpt>
      <trkpt lat="46.15953" lon="6.28295">
        <ele>486.4</ele>
        <time>2022-02-10T15:43:04Z</time>
      </trkpt>
      <trkpt lat="46.15976" lon="6.2825">
        <ele>487</ele>
        <time>2022-02-10T15:43:10Z</time>
      </trkpt>
      <trkpt lat="46.15979" lon="6.28242">
        <ele>487</ele>
        <time>2022-02-10T15:43:11Z</time>
      </trkpt>
      <trkpt lat="46.16013" lon="6.2817">
        <ele>487.6</ele>
        <time>2022-02-10T15:43:20Z</time>
      </trkpt>
      <trkpt lat="46.16039" lon="6.28102">
        <ele>488</ele>
        <time>2022-02-10T15:43:28Z</time>
      </trkpt>
      <trkpt lat="46.16046" lon="6.28084">
        <ele>488.2</ele>
        <time>2022-02-10T15:43:30Z</time>
      </trkpt>
      <trkpt lat="46.16072" lon="6.28015">
        <ele>488.4</ele>
        <time>2022-02-10T15:43:38Z</time>
      </trkpt>
      <trkpt lat="46.16082" lon="6.27988">
        <ele>488.6</ele>
        <time>2022-02-10T15:43:41Z</time>
      </trkpt>
      <trkpt lat="46.16096" lon="6.27953">
        <ele>488.8</ele>
        <time>2022-02-10T15:43:45Z</time>
      </trkpt>
      <trkpt lat="46.16124" lon="6.27882">
        <ele>489</ele>
        <time>2022-02-10T15:43:53Z</time>
      </trkpt>
      <trkpt lat="46.16127" lon="6.27873">
        <ele>489.2</ele>
        <time>2022-02-10T15:43:54Z</time>
      </trkpt>
      <trkpt lat="46.16155" lon="6.278">
        <ele>489.4</ele>
        <time>2022-02-10T15:44:02Z</time>
      </trkpt>
      <trkpt lat="46.16175" lon="6.27747">
        <ele>489.6</ele>
        <time>2022-02-10T15:44:08Z</time>
      </trkpt>
      <trkpt lat="46.16201" lon="6.27675">
        <ele>489.6</ele>
        <time>2022-02-10T15:44:16Z</time>
      </trkpt>
      <trkpt lat="46.16205" lon="6.27667">
        <ele>489.8</ele>
        <time>2022-02-10T15:44:17Z</time>
      </trkpt>
      <trkpt lat="46.16208" lon="6.27658">
        <ele>489.8</ele>
        <time>2022-02-10T15:44:18Z</time>
      </trkpt>
      <trkpt lat="46.16216" lon="6.27644">
        <ele>489.8</ele>
        <time>2022-02-10T15:44:20Z</time>
      </trkpt>
      <trkpt lat="46.1622" lon="6.27638">
        <ele>490</ele>
        <time>2022-02-10T15:44:21Z</time>
      </trkpt>
      <trkpt lat="46.1623" lon="6.27629">
        <ele>490.2</ele>
        <time>2022-02-10T15:44:23Z</time>
      </trkpt>
      <trkpt lat="46.16236" lon="6.27615">
        <ele>490.4</ele>
        <time>2022-02-10T15:44:25Z</time>
      </trkpt>
      <trkpt lat="46.16239" lon="6.27589">
        <ele>490.6</ele>
        <time>2022-02-10T15:44:28Z</time>
      </trkpt>
      <trkpt lat="46.16241" lon="6.2758">
        <ele>490.8</ele>
        <time>2022-02-10T15:44:29Z</time>
      </trkpt>
      <trkpt lat="46.16243" lon="6.27571">
        <ele>491</ele>
        <time>2022-02-10T15:44:30Z</time>
      </trkpt>
      <trkpt lat="46.16256" lon="6.27536">
        <ele>491.4</ele>
        <time>2022-02-10T15:44:34Z</time>
      </trkpt>
      <trkpt lat="46.16275" lon="6.27484">
        <ele>491.4</ele>
        <time>2022-02-10T15:44:40Z</time>
      </trkpt>
      <trkpt lat="46.16282" lon="6.27467">
        <ele>491.4</ele>
        <time>2022-02-10T15:44:42Z</time>
      </trkpt>
      <trkpt lat="46.16309" lon="6.27396">
        <ele>491.6</ele>
        <time>2022-02-10T15:44:50Z</time>
      </trkpt>
      <trkpt lat="46.16313" lon="6.27387">
        <ele>491.8</ele>
        <time>2022-02-10T15:44:51Z</time>
      </trkpt>
      <trkpt lat="46.16341" lon="6.27313">
        <ele>491.8</ele>
        <time>2022-02-10T15:44:59Z</time>
      </trkpt>
      <trkpt lat="46.16345" lon="6.27304">
        <ele>491.8</ele>
        <time>2022-02-10T15:45:00Z</time>
      </trkpt>
      <trkpt lat="46.16368" lon="6.27259">
        <ele>491.8</ele>
        <time>2022-02-10T15:45:05Z</time>
      </trkpt>
      <trkpt lat="46.16382" lon="6.27245">
        <ele>491.6</ele>
        <time>2022-02-10T15:45:07Z</time>
      </trkpt>
      <trkpt lat="46.16397" lon="6.27234">
        <ele>491.4</ele>
        <time>2022-02-10T15:45:09Z</time>
      </trkpt>
      <trkpt lat="46.16415" lon="6.27228">
        <ele>491.4</ele>
        <time>2022-02-10T15:45:11Z</time>
      </trkpt>
      <trkpt lat="46.16424" lon="6.27227">
        <ele>491.2</ele>
        <time>2022-02-10T15:45:12Z</time>
      </trkpt>
      <trkpt lat="46.16444" lon="6.27228">
        <ele>491</ele>
        <time>2022-02-10T15:45:14Z</time>
      </trkpt>
      <trkpt lat="46.16463" lon="6.27233">
        <ele>490.2</ele>
        <time>2022-02-10T15:45:16Z</time>
      </trkpt>
      <trkpt lat="46.16473" lon="6.27236">
        <ele>489.6</ele>
        <time>2022-02-10T15:45:17Z</time>
      </trkpt>
      <trkpt lat="46.16502" lon="6.27247">
        <ele>487.8</ele>
        <time>2022-02-10T15:45:20Z</time>
      </trkpt>
      <trkpt lat="46.16512" lon="6.2725">
        <ele>487.4</ele>
        <time>2022-02-10T15:45:21Z</time>
      </trkpt>
      <trkpt lat="46.16551" lon="6.27263">
        <ele>485.6</ele>
        <time>2022-02-10T15:45:25Z</time>
      </trkpt>
      <trkpt lat="46.1657" lon="6.27273">
        <ele>484.8</ele>
        <time>2022-02-10T15:45:27Z</time>
      </trkpt>
      <trkpt lat="46.1658" lon="6.2728">
        <ele>484.4</ele>
        <time>2022-02-10T15:45:28Z</time>
      </trkpt>
      <trkpt lat="46.16596" lon="6.27296">
        <ele>483.6</ele>
        <time>2022-02-10T15:45:30Z</time>
      </trkpt>
      <trkpt lat="46.16621" lon="6.27322">
        <ele>482.8</ele>
        <time>2022-02-10T15:45:33Z</time>
      </trkpt>
      <trkpt lat="46.16649" lon="6.27342">
        <ele>481.8</ele>
        <time>2022-02-10T15:45:36Z</time>
      </trkpt>
      <trkpt lat="46.16659" lon="6.27346">
        <ele>481.2</ele>
        <time>2022-02-10T15:45:37Z</time>
      </trkpt>
      <trkpt lat="46.16679" lon="6.27353">
        <ele>480.4</ele>
        <time>2022-02-10T15:45:39Z</time>
      </trkpt>
      <trkpt lat="46.16711" lon="6.27359">
        <ele>479</ele>
        <time>2022-02-10T15:45:42Z</time>
      </trkpt>
      <trkpt lat="46.16744" lon="6.27365">
        <ele>477.6</ele>
        <time>2022-02-10T15:45:45Z</time>
      </trkpt>
      <trkpt lat="46.16755" lon="6.27367">
        <ele>477.4</ele>
        <time>2022-02-10T15:45:46Z</time>
      </trkpt>
      <trkpt lat="46.16775" lon="6.27369">
        <ele>476.2</ele>
        <time>2022-02-10T15:45:48Z</time>
      </trkpt>
      <trkpt lat="46.16785" lon="6.27369">
        <ele>475.8</ele>
        <time>2022-02-10T15:45:49Z</time>
      </trkpt>
      <trkpt lat="46.16796" lon="6.27366">
        <ele>475.4</ele>
        <time>2022-02-10T15:45:50Z</time>
      </trkpt>
      <trkpt lat="46.16806" lon="6.27361">
        <ele>475</ele>
        <time>2022-02-10T15:45:51Z</time>
      </trkpt>
      <trkpt lat="46.16823" lon="6.27343">
        <ele>474</ele>
        <time>2022-02-10T15:45:53Z</time>
      </trkpt>
      <trkpt lat="46.16835" lon="6.27316">
        <ele>472.8</ele>
        <time>2022-02-10T15:45:55Z</time>
      </trkpt>
      <trkpt lat="46.16839" lon="6.27301">
        <ele>472.4</ele>
        <time>2022-02-10T15:45:56Z</time>
      </trkpt>
      <trkpt lat="46.16842" lon="6.27285">
        <ele>472</ele>
        <time>2022-02-10T15:45:57Z</time>
      </trkpt>
      <trkpt lat="46.16844" lon="6.2727">
        <ele>471.8</ele>
        <time>2022-02-10T15:45:58Z</time>
      </trkpt>
      <trkpt lat="46.16847" lon="6.27241">
        <ele>470.4</ele>
        <time>2022-02-10T15:46:00Z</time>
      </trkpt>
      <trkpt lat="46.16854" lon="6.27163">
        <ele>468.8</ele>
        <time>2022-02-10T15:46:06Z</time>
      </trkpt>
      <trkpt lat="46.16846" lon="6.27142">
        <ele>468.6</ele>
        <time>2022-02-10T15:46:08Z</time>
      </trkpt>
      <trkpt lat="46.16841" lon="6.27134">
        <ele>468.4</ele>
        <time>2022-02-10T15:46:09Z</time>
      </trkpt>
      <trkpt lat="46.16834" lon="6.2713">
        <ele>468.2</ele>
        <time>2022-02-10T15:46:10Z</time>
      </trkpt>
      <trkpt lat="46.16819" lon="6.27121">
        <ele>468.2</ele>
        <time>2022-02-10T15:46:12Z</time>
      </trkpt>
      <trkpt lat="46.1681" lon="6.27117">
        <ele>468</ele>
        <time>2022-02-10T15:46:13Z</time>
      </trkpt>
      <trkpt lat="46.16796" lon="6.27113">
        <ele>467.8</ele>
        <time>2022-02-10T15:46:15Z</time>
      </trkpt>
      <trkpt lat="46.16783" lon="6.27109">
        <ele>468.2</ele>
        <time>2022-02-10T15:46:17Z</time>
      </trkpt>
      <trkpt lat="46.16773" lon="6.27102">
        <ele>468.4</ele>
        <time>2022-02-10T15:46:19Z</time>
      </trkpt>
      <trkpt lat="46.16762" lon="6.27087">
        <ele>468.4</ele>
        <time>2022-02-10T15:46:22Z</time>
      </trkpt>
      <trkpt lat="46.16756" lon="6.27078">
        <ele>468.2</ele>
        <time>2022-02-10T15:46:24Z</time>
      </trkpt>
      <trkpt lat="46.16748" lon="6.27065">
        <ele>469.8</ele>
        <time>2022-02-10T15:46:27Z</time>
      </trkpt>
      <trkpt lat="46.16742" lon="6.27058">
        <ele>471.2</ele>
        <time>2022-02-10T15:46:29Z</time>
      </trkpt>
      <trkpt lat="46.16735" lon="6.27047">
        <ele>472.8</ele>
        <time>2022-02-10T15:46:32Z</time>
      </trkpt>
      <trkpt lat="46.1673" lon="6.27032">
        <ele>474.8</ele>
        <time>2022-02-10T15:46:36Z</time>
      </trkpt>
      <trkpt lat="46.1673" lon="6.2701">
        <ele>477</ele>
        <time>2022-02-10T15:46:41Z</time>
      </trkpt>
      <trkpt lat="46.16736" lon="6.26994">
        <ele>478.2</ele>
        <time>2022-02-10T15:46:45Z</time>
      </trkpt>
      <trkpt lat="46.1674" lon="6.26986">
        <ele>479</ele>
        <time>2022-02-10T15:46:47Z</time>
      </trkpt>
      <trkpt lat="46.16744" lon="6.26979">
        <ele>479.6</ele>
        <time>2022-02-10T15:46:49Z</time>
      </trkpt>
      <trkpt lat="46.16753" lon="6.26966">
        <ele>480.6</ele>
        <time>2022-02-10T15:46:53Z</time>
      </trkpt>
      <trkpt lat="46.16756" lon="6.26964">
        <ele>481</ele>
        <time>2022-02-10T15:46:54Z</time>
      </trkpt>
      <trkpt lat="46.16768" lon="6.26948">
        <ele>482.6</ele>
        <time>2022-02-10T15:46:59Z</time>
      </trkpt>
      <trkpt lat="46.16774" lon="6.26942">
        <ele>483</ele>
        <time>2022-02-10T15:47:01Z</time>
      </trkpt>
      <trkpt lat="46.16779" lon="6.26936">
        <ele>483.6</ele>
        <time>2022-02-10T15:47:03Z</time>
      </trkpt>
      <trkpt lat="46.16794" lon="6.26925">
        <ele>484.8</ele>
        <time>2022-02-10T15:47:08Z</time>
      </trkpt>
      <trkpt lat="46.16797" lon="6.26923">
        <ele>485.2</ele>
        <time>2022-02-10T15:47:09Z</time>
      </trkpt>
      <trkpt lat="46.16808" lon="6.26916">
        <ele>486.2</ele>
        <time>2022-02-10T15:47:13Z</time>
      </trkpt>
      <trkpt lat="46.16816" lon="6.2691">
        <ele>486.6</ele>
        <time>2022-02-10T15:47:16Z</time>
      </trkpt>
      <trkpt lat="46.16819" lon="6.26908">
        <ele>486.8</ele>
        <time>2022-02-10T15:47:17Z</time>
      </trkpt>
      <trkpt lat="46.16836" lon="6.26896">
        <ele>488.4</ele>
        <time>2022-02-10T15:47:23Z</time>
      </trkpt>
      <trkpt lat="46.16838" lon="6.26895">
        <ele>488.6</ele>
        <time>2022-02-10T15:47:24Z</time>
      </trkpt>
      <trkpt lat="46.16852" lon="6.26882">
        <ele>490</ele>
        <time>2022-02-10T15:47:29Z</time>
      </trkpt>
      <trkpt lat="46.16857" lon="6.26875">
        <ele>490.4</ele>
        <time>2022-02-10T15:47:31Z</time>
      </trkpt>
      <trkpt lat="46.16868" lon="6.2686">
        <ele>491.2</ele>
        <time>2022-02-10T15:47:35Z</time>
      </trkpt>
      <trkpt lat="46.16878" lon="6.26843">
        <ele>491.8</ele>
        <time>2022-02-10T15:47:39Z</time>
      </trkpt>
      <trkpt lat="46.16888" lon="6.26825">
        <ele>492.8</ele>
        <time>2022-02-10T15:47:43Z</time>
      </trkpt>
      <trkpt lat="46.16894" lon="6.26809">
        <ele>493</ele>
        <time>2022-02-10T15:47:46Z</time>
      </trkpt>
      <trkpt lat="46.16898" lon="6.26798">
        <ele>493.4</ele>
        <time>2022-02-10T15:47:48Z</time>
      </trkpt>
      <trkpt lat="46.16903" lon="6.26776">
        <ele>494</ele>
        <time>2022-02-10T15:47:52Z</time>
      </trkpt>
      <trkpt lat="46.16906" lon="6.26733">
        <ele>494.4</ele>
        <time>2022-02-10T15:47:59Z</time>
      </trkpt>
      <trkpt lat="46.1691" lon="6.26716">
        <ele>494.4</ele>
        <time>2022-02-10T15:48:02Z</time>
      </trkpt>
      <trkpt lat="46.16914" lon="6.26704">
        <ele>494.6</ele>
        <time>2022-02-10T15:48:04Z</time>
      </trkpt>
      <trkpt lat="46.16929" lon="6.2667">
        <ele>494.8</ele>
        <time>2022-02-10T15:48:09Z</time>
      </trkpt>
      <trkpt lat="46.16933" lon="6.26663">
        <ele>494.8</ele>
        <time>2022-02-10T15:48:10Z</time>
      </trkpt>
      <trkpt lat="46.16969" lon="6.266">
        <ele>495.2</ele>
        <time>2022-02-10T15:48:20Z</time>
      </trkpt>
      <trkpt lat="46.16973" lon="6.26594">
        <ele>495.2</ele>
        <time>2022-02-10T15:48:21Z</time>
      </trkpt>
      <trkpt lat="46.1699" lon="6.26565">
        <ele>495.2</ele>
        <time>2022-02-10T15:48:26Z</time>
      </trkpt>
      <trkpt lat="46.17" lon="6.26549">
        <ele>495.6</ele>
        <time>2022-02-10T15:48:29Z</time>
      </trkpt>
      <trkpt lat="46.17003" lon="6.26545">
        <ele>495.6</ele>
        <time>2022-02-10T15:48:30Z</time>
      </trkpt>
      <trkpt lat="46.17011" lon="6.26531">
        <ele>495.8</ele>
        <time>2022-02-10T15:48:33Z</time>
      </trkpt>
      <trkpt lat="46.17019" lon="6.26519">
        <ele>496.8</ele>
        <time>2022-02-10T15:48:36Z</time>
      </trkpt>
      <trkpt lat="46.17021" lon="6.26515">
        <ele>496.8</ele>
        <time>2022-02-10T15:48:37Z</time>
      </trkpt>
      <trkpt lat="46.17028" lon="6.26503">
        <ele>498</ele>
        <time>2022-02-10T15:48:40Z</time>
      </trkpt>
      <trkpt lat="46.17036" lon="6.26488">
        <ele>499.6</ele>
        <time>2022-02-10T15:48:44Z</time>
      </trkpt>
      <trkpt lat="46.17045" lon="6.26473">
        <ele>501</ele>
        <time>2022-02-10T15:48:48Z</time>
      </trkpt>
      <trkpt lat="46.17056" lon="6.26454">
        <ele>502.8</ele>
        <time>2022-02-10T15:48:53Z</time>
      </trkpt>
      <trkpt lat="46.17061" lon="6.26447">
        <ele>503.4</ele>
        <time>2022-02-10T15:48:55Z</time>
      </trkpt>
      <trkpt lat="46.17073" lon="6.26428">
        <ele>504.6</ele>
        <time>2022-02-10T15:49:00Z</time>
      </trkpt>
      <trkpt lat="46.17084" lon="6.2641">
        <ele>506</ele>
        <time>2022-02-10T15:49:05Z</time>
      </trkpt>
      <trkpt lat="46.171" lon="6.26384">
        <ele>507.2</ele>
        <time>2022-02-10T15:49:12Z</time>
      </trkpt>
      <trkpt lat="46.17118" lon="6.26352">
        <ele>507.4</ele>
        <time>2022-02-10T15:49:18Z</time>
      </trkpt>
      <trkpt lat="46.17124" lon="6.26341">
        <ele>507.4</ele>
        <time>2022-02-10T15:49:20Z</time>
      </trkpt>
      <trkpt lat="46.17157" lon="6.26287">
        <ele>507.8</ele>
        <time>2022-02-10T15:49:29Z</time>
      </trkpt>
      <trkpt lat="46.17184" lon="6.26242">
        <ele>508.2</ele>
        <time>2022-02-10T15:49:36Z</time>
      </trkpt>
      <trkpt lat="46.17214" lon="6.26191">
        <ele>508.4</ele>
        <time>2022-02-10T15:49:44Z</time>
      </trkpt>
      <trkpt lat="46.17242" lon="6.26145">
        <ele>508.4</ele>
        <time>2022-02-10T15:49:51Z</time>
      </trkpt>
      <trkpt lat="46.17255" lon="6.26122">
        <ele>508.6</ele>
        <time>2022-02-10T15:49:54Z</time>
      </trkpt>
      <trkpt lat="46.17258" lon="6.26114">
        <ele>508.4</ele>
        <time>2022-02-10T15:49:55Z</time>
      </trkpt>
      <trkpt lat="46.17265" lon="6.26097">
        <ele>508.6</ele>
        <time>2022-02-10T15:49:57Z</time>
      </trkpt>
      <trkpt lat="46.17268" lon="6.26092">
        <ele>508.6</ele>
        <time>2022-02-10T15:49:58Z</time>
      </trkpt>
      <trkpt lat="46.17273" lon="6.26087">
        <ele>508.4</ele>
        <time>2022-02-10T15:50:00Z</time>
      </trkpt>
      <trkpt lat="46.17277" lon="6.26078">
        <ele>507.6</ele>
        <time>2022-02-10T15:50:02Z</time>
      </trkpt>
      <trkpt lat="46.1728" lon="6.26072">
        <ele>507.2</ele>
        <time>2022-02-10T15:50:03Z</time>
      </trkpt>
      <trkpt lat="46.17285" lon="6.26065">
        <ele>507</ele>
        <time>2022-02-10T15:50:04Z</time>
      </trkpt>
      <trkpt lat="46.17295" lon="6.2605">
        <ele>506.6</ele>
        <time>2022-02-10T15:50:06Z</time>
      </trkpt>
      <trkpt lat="46.17299" lon="6.26042">
        <ele>506.8</ele>
        <time>2022-02-10T15:50:07Z</time>
      </trkpt>
      <trkpt lat="46.17304" lon="6.26032">
        <ele>506.4</ele>
        <time>2022-02-10T15:50:08Z</time>
      </trkpt>
      <trkpt lat="46.17326" lon="6.25985">
        <ele>504.4</ele>
        <time>2022-02-10T15:50:13Z</time>
      </trkpt>
      <trkpt lat="46.17351" lon="6.25931">
        <ele>502</ele>
        <time>2022-02-10T15:50:19Z</time>
      </trkpt>
      <trkpt lat="46.17354" lon="6.25922">
        <ele>502</ele>
        <time>2022-02-10T15:50:20Z</time>
      </trkpt>
      <trkpt lat="46.17369" lon="6.25889">
        <ele>501.8</ele>
        <time>2022-02-10T15:50:24Z</time>
      </trkpt>
      <trkpt lat="46.17373" lon="6.25882">
        <ele>501.8</ele>
        <time>2022-02-10T15:50:25Z</time>
      </trkpt>
      <trkpt lat="46.17377" lon="6.25875">
        <ele>502</ele>
        <time>2022-02-10T15:50:26Z</time>
      </trkpt>
      <trkpt lat="46.17391" lon="6.25858">
        <ele>502.6</ele>
        <time>2022-02-10T15:50:29Z</time>
      </trkpt>
      <trkpt lat="46.17405" lon="6.25842">
        <ele>503.2</ele>
        <time>2022-02-10T15:50:32Z</time>
      </trkpt>
      <trkpt lat="46.17414" lon="6.25832">
        <ele>503.8</ele>
        <time>2022-02-10T15:50:34Z</time>
      </trkpt>
      <trkpt lat="46.17419" lon="6.25817">
        <ele>504.4</ele>
        <time>2022-02-10T15:50:36Z</time>
      </trkpt>
      <trkpt lat="46.17419" lon="6.25809">
        <ele>504.6</ele>
        <time>2022-02-10T15:50:37Z</time>
      </trkpt>
      <trkpt lat="46.17422" lon="6.25793">
        <ele>505.4</ele>
        <time>2022-02-10T15:50:39Z</time>
      </trkpt>
      <trkpt lat="46.17426" lon="6.25787">
        <ele>505.6</ele>
        <time>2022-02-10T15:50:40Z</time>
      </trkpt>
      <trkpt lat="46.1743" lon="6.25782">
        <ele>505.8</ele>
        <time>2022-02-10T15:50:41Z</time>
      </trkpt>
      <trkpt lat="46.17438" lon="6.25772">
        <ele>506.4</ele>
        <time>2022-02-10T15:50:43Z</time>
      </trkpt>
      <trkpt lat="46.17442" lon="6.25767">
        <ele>506.4</ele>
        <time>2022-02-10T15:50:44Z</time>
      </trkpt>
      <trkpt lat="46.17446" lon="6.25761">
        <ele>506.6</ele>
        <time>2022-02-10T15:50:45Z</time>
      </trkpt>
      <trkpt lat="46.17455" lon="6.25752">
        <ele>506.6</ele>
        <time>2022-02-10T15:50:47Z</time>
      </trkpt>
      <trkpt lat="46.17461" lon="6.25747">
        <ele>506.6</ele>
        <time>2022-02-10T15:50:48Z</time>
      </trkpt>
      <trkpt lat="46.17467" lon="6.25741">
        <ele>506.6</ele>
        <time>2022-02-10T15:50:49Z</time>
      </trkpt>
      <trkpt lat="46.17473" lon="6.25736">
        <ele>506.4</ele>
        <time>2022-02-10T15:50:50Z</time>
      </trkpt>
      <trkpt lat="46.17479" lon="6.2573">
        <ele>506.6</ele>
        <time>2022-02-10T15:50:51Z</time>
      </trkpt>
      <trkpt lat="46.17486" lon="6.25725">
        <ele>506.6</ele>
        <time>2022-02-10T15:50:52Z</time>
      </trkpt>
      <trkpt lat="46.17493" lon="6.2572">
        <ele>506.4</ele>
        <time>2022-02-10T15:50:53Z</time>
      </trkpt>
      <trkpt lat="46.175" lon="6.25714">
        <ele>506.2</ele>
        <time>2022-02-10T15:50:54Z</time>
      </trkpt>
      <trkpt lat="46.17516" lon="6.25701">
        <ele>505.6</ele>
        <time>2022-02-10T15:50:56Z</time>
      </trkpt>
      <trkpt lat="46.17524" lon="6.25694">
        <ele>505.2</ele>
        <time>2022-02-10T15:50:57Z</time>
      </trkpt>
      <trkpt lat="46.17532" lon="6.25686">
        <ele>505.2</ele>
        <time>2022-02-10T15:50:58Z</time>
      </trkpt>
      <trkpt lat="46.17558" lon="6.25665">
        <ele>503.2</ele>
        <time>2022-02-10T15:51:01Z</time>
      </trkpt>
      <trkpt lat="46.17585" lon="6.25648">
        <ele>500.8</ele>
        <time>2022-02-10T15:51:04Z</time>
      </trkpt>
      <trkpt lat="46.17594" lon="6.25643">
        <ele>500.4</ele>
        <time>2022-02-10T15:51:05Z</time>
      </trkpt>
      <trkpt lat="46.17648" lon="6.25612">
        <ele>496.6</ele>
        <time>2022-02-10T15:51:11Z</time>
      </trkpt>
      <trkpt lat="46.17666" lon="6.25601">
        <ele>496</ele>
        <time>2022-02-10T15:51:13Z</time>
      </trkpt>
      <trkpt lat="46.17694" lon="6.25587">
        <ele>495</ele>
        <time>2022-02-10T15:51:16Z</time>
      </trkpt>
      <trkpt lat="46.17732" lon="6.25567">
        <ele>494.2</ele>
        <time>2022-02-10T15:51:20Z</time>
      </trkpt>
      <trkpt lat="46.17776" lon="6.25549">
        <ele>492.8</ele>
        <time>2022-02-10T15:51:25Z</time>
      </trkpt>
      <trkpt lat="46.17791" lon="6.25545">
        <ele>492.6</ele>
        <time>2022-02-10T15:51:27Z</time>
      </trkpt>
      <trkpt lat="46.17797" lon="6.25544">
        <ele>492.6</ele>
        <time>2022-02-10T15:51:28Z</time>
      </trkpt>
      <trkpt lat="46.17803" lon="6.25544">
        <ele>492.6</ele>
        <time>2022-02-10T15:51:29Z</time>
      </trkpt>
      <trkpt lat="46.17824" lon="6.25544">
        <ele>492.6</ele>
        <time>2022-02-10T15:51:33Z</time>
      </trkpt>
      <trkpt lat="46.17831" lon="6.25545">
        <ele>492.6</ele>
        <time>2022-02-10T15:51:35Z</time>
      </trkpt>
      <trkpt lat="46.17847" lon="6.25547">
        <ele>493.6</ele>
        <time>2022-02-10T15:51:40Z</time>
      </trkpt>
      <trkpt lat="46.17857" lon="6.25549">
        <ele>494</ele>
        <time>2022-02-10T15:51:42Z</time>
      </trkpt>
      <trkpt lat="46.17872" lon="6.25552">
        <ele>494.6</ele>
        <time>2022-02-10T15:51:45Z</time>
      </trkpt>
      <trkpt lat="46.17892" lon="6.25553">
        <ele>494.8</ele>
        <time>2022-02-10T15:51:49Z</time>
      </trkpt>
      <trkpt lat="46.17898" lon="6.25552">
        <ele>495</ele>
        <time>2022-02-10T15:51:50Z</time>
      </trkpt>
      <trkpt lat="46.17903" lon="6.25551">
        <ele>495.2</ele>
        <time>2022-02-10T15:51:51Z</time>
      </trkpt>
      <trkpt lat="46.17909" lon="6.2555">
        <ele>495.2</ele>
        <time>2022-02-10T15:51:52Z</time>
      </trkpt>
      <trkpt lat="46.17938" lon="6.25545">
        <ele>496</ele>
        <time>2022-02-10T15:51:57Z</time>
      </trkpt>
      <trkpt lat="46.17967" lon="6.25534">
        <ele>497.8</ele>
        <time>2022-02-10T15:52:02Z</time>
      </trkpt>
      <trkpt lat="46.18009" lon="6.25509">
        <ele>499</ele>
        <time>2022-02-10T15:52:09Z</time>
      </trkpt>
      <trkpt lat="46.18033" lon="6.25486">
        <ele>499</ele>
        <time>2022-02-10T15:52:13Z</time>
      </trkpt>
      <trkpt lat="46.18044" lon="6.2547">
        <ele>499</ele>
        <time>2022-02-10T15:52:15Z</time>
      </trkpt>
      <trkpt lat="46.1805" lon="6.25461">
        <ele>499</ele>
        <time>2022-02-10T15:52:16Z</time>
      </trkpt>
      <trkpt lat="46.18062" lon="6.25443">
        <ele>499</ele>
        <time>2022-02-10T15:52:18Z</time>
      </trkpt>
      <trkpt lat="46.18076" lon="6.25425">
        <ele>498.6</ele>
        <time>2022-02-10T15:52:20Z</time>
      </trkpt>
      <trkpt lat="46.18083" lon="6.25417">
        <ele>498.4</ele>
        <time>2022-02-10T15:52:21Z</time>
      </trkpt>
      <trkpt lat="46.18092" lon="6.25409">
        <ele>498</ele>
        <time>2022-02-10T15:52:22Z</time>
      </trkpt>
      <trkpt lat="46.18108" lon="6.25395">
        <ele>497.2</ele>
        <time>2022-02-10T15:52:24Z</time>
      </trkpt>
      <trkpt lat="46.18142" lon="6.25374">
        <ele>494.8</ele>
        <time>2022-02-10T15:52:28Z</time>
      </trkpt>
      <trkpt lat="46.18167" lon="6.25358">
        <ele>492.2</ele>
        <time>2022-02-10T15:52:31Z</time>
      </trkpt>
      <trkpt lat="46.18202" lon="6.25337">
        <ele>491</ele>
        <time>2022-02-10T15:52:35Z</time>
      </trkpt>
      <trkpt lat="46.18227" lon="6.25319">
        <ele>490.6</ele>
        <time>2022-02-10T15:52:38Z</time>
      </trkpt>
      <trkpt lat="46.18269" lon="6.25291">
        <ele>490</ele>
        <time>2022-02-10T15:52:43Z</time>
      </trkpt>
      <trkpt lat="46.18277" lon="6.25286">
        <ele>489.6</ele>
        <time>2022-02-10T15:52:44Z</time>
      </trkpt>
      <trkpt lat="46.18295" lon="6.25275">
        <ele>489.2</ele>
        <time>2022-02-10T15:52:46Z</time>
      </trkpt>
      <trkpt lat="46.18314" lon="6.25262">
        <ele>489.2</ele>
        <time>2022-02-10T15:52:48Z</time>
      </trkpt>
      <trkpt lat="46.18334" lon="6.2525">
        <ele>489.2</ele>
        <time>2022-02-10T15:52:50Z</time>
      </trkpt>
      <trkpt lat="46.18364" lon="6.2523">
        <ele>488.2</ele>
        <time>2022-02-10T15:52:53Z</time>
      </trkpt>
      <trkpt lat="46.18396" lon="6.2521">
        <ele>486.6</ele>
        <time>2022-02-10T15:52:56Z</time>
      </trkpt>
      <trkpt lat="46.18417" lon="6.25198">
        <ele>485.8</ele>
        <time>2022-02-10T15:52:58Z</time>
      </trkpt>
      <trkpt lat="46.1846" lon="6.25181">
        <ele>483.6</ele>
        <time>2022-02-10T15:53:02Z</time>
      </trkpt>
      <trkpt lat="46.1847" lon="6.25178">
        <ele>483.2</ele>
        <time>2022-02-10T15:53:03Z</time>
      </trkpt>
      <trkpt lat="46.18519" lon="6.25166">
        <ele>481.8</ele>
        <time>2022-02-10T15:53:08Z</time>
      </trkpt>
      <trkpt lat="46.18549" lon="6.2516">
        <ele>481</ele>
        <time>2022-02-10T15:53:12Z</time>
      </trkpt>
      <trkpt lat="46.18564" lon="6.25158">
        <ele>480.6</ele>
        <time>2022-02-10T15:53:15Z</time>
      </trkpt>
      <trkpt lat="46.1858" lon="6.25153">
        <ele>480.4</ele>
        <time>2022-02-10T15:53:19Z</time>
      </trkpt>
      <trkpt lat="46.18587" lon="6.25152">
        <ele>480.4</ele>
        <time>2022-02-10T15:53:20Z</time>
      </trkpt>
      <trkpt lat="46.18601" lon="6.25148">
        <ele>480.4</ele>
        <time>2022-02-10T15:53:22Z</time>
      </trkpt>
      <trkpt lat="46.1863" lon="6.25137">
        <ele>480.2</ele>
        <time>2022-02-10T15:53:26Z</time>
      </trkpt>
      <trkpt lat="46.18638" lon="6.25134">
        <ele>480.2</ele>
        <time>2022-02-10T15:53:27Z</time>
      </trkpt>
      <trkpt lat="46.18663" lon="6.25123">
        <ele>479.2</ele>
        <time>2022-02-10T15:53:30Z</time>
      </trkpt>
      <trkpt lat="46.18688" lon="6.25113">
        <ele>478.6</ele>
        <time>2022-02-10T15:53:33Z</time>
      </trkpt>
      <trkpt lat="46.18714" lon="6.25103">
        <ele>477.8</ele>
        <time>2022-02-10T15:53:36Z</time>
      </trkpt>
      <trkpt lat="46.18731" lon="6.25095">
        <ele>477.4</ele>
        <time>2022-02-10T15:53:38Z</time>
      </trkpt>
      <trkpt lat="46.18758" lon="6.25085">
        <ele>476.4</ele>
        <time>2022-02-10T15:53:41Z</time>
      </trkpt>
      <trkpt lat="46.18795" lon="6.25077">
        <ele>475.2</ele>
        <time>2022-02-10T15:53:45Z</time>
      </trkpt>
      <trkpt lat="46.18814" lon="6.25076">
        <ele>474.2</ele>
        <time>2022-02-10T15:53:47Z</time>
      </trkpt>
      <trkpt lat="46.18871" lon="6.25076">
        <ele>473.2</ele>
        <time>2022-02-10T15:53:53Z</time>
      </trkpt>
      <trkpt lat="46.1889" lon="6.25076">
        <ele>472.6</ele>
        <time>2022-02-10T15:53:55Z</time>
      </trkpt>
      <trkpt lat="46.189" lon="6.25076">
        <ele>472.4</ele>
        <time>2022-02-10T15:53:56Z</time>
      </trkpt>
      <trkpt lat="46.18928" lon="6.25073">
        <ele>471.8</ele>
        <time>2022-02-10T15:53:59Z</time>
      </trkpt>
      <trkpt lat="46.18956" lon="6.25069">
        <ele>471.2</ele>
        <time>2022-02-10T15:54:02Z</time>
      </trkpt>
      <trkpt lat="46.18986" lon="6.2507">
        <ele>470.6</ele>
        <time>2022-02-10T15:54:05Z</time>
      </trkpt>
      <trkpt lat="46.18994" lon="6.25073">
        <ele>470.2</ele>
        <time>2022-02-10T15:54:06Z</time>
      </trkpt>
      <trkpt lat="46.19017" lon="6.25086">
        <ele>469.4</ele>
        <time>2022-02-10T15:54:09Z</time>
      </trkpt>
      <trkpt lat="46.19024" lon="6.25092">
        <ele>469</ele>
        <time>2022-02-10T15:54:10Z</time>
      </trkpt>
      <trkpt lat="46.19031" lon="6.25096">
        <ele>468.6</ele>
        <time>2022-02-10T15:54:11Z</time>
      </trkpt>
      <trkpt lat="46.19044" lon="6.25102">
        <ele>467.8</ele>
        <time>2022-02-10T15:54:13Z</time>
      </trkpt>
      <trkpt lat="46.19067" lon="6.25112">
        <ele>467.4</ele>
        <time>2022-02-10T15:54:17Z</time>
      </trkpt>
      <trkpt lat="46.19083" lon="6.25114">
        <ele>467</ele>
        <time>2022-02-10T15:54:20Z</time>
      </trkpt>
      <trkpt lat="46.19094" lon="6.25113">
        <ele>467</ele>
        <time>2022-02-10T15:54:22Z</time>
      </trkpt>
      <trkpt lat="46.19099" lon="6.25111">
        <ele>467</ele>
        <time>2022-02-10T15:54:23Z</time>
      </trkpt>
      <trkpt lat="46.19107" lon="6.25107">
        <ele>467</ele>
        <time>2022-02-10T15:54:25Z</time>
      </trkpt>
      <trkpt lat="46.19115" lon="6.25104">
        <ele>467</ele>
        <time>2022-02-10T15:54:27Z</time>
      </trkpt>
      <trkpt lat="46.19122" lon="6.25101">
        <ele>467</ele>
        <time>2022-02-10T15:54:29Z</time>
      </trkpt>
      <trkpt lat="46.1913" lon="6.25102">
        <ele>467.4</ele>
        <time>2022-02-10T15:54:31Z</time>
      </trkpt>
      <trkpt lat="46.19139" lon="6.25108">
        <ele>468.2</ele>
        <time>2022-02-10T15:54:33Z</time>
      </trkpt>
      <trkpt lat="46.19149" lon="6.2511">
        <ele>469.6</ele>
        <time>2022-02-10T15:54:35Z</time>
      </trkpt>
      <trkpt lat="46.19159" lon="6.25103">
        <ele>470.2</ele>
        <time>2022-02-10T15:54:37Z</time>
      </trkpt>
      <trkpt lat="46.19163" lon="6.25098">
        <ele>470.2</ele>
        <time>2022-02-10T15:54:38Z</time>
      </trkpt>
      <trkpt lat="46.19172" lon="6.25086">
        <ele>470.2</ele>
        <time>2022-02-10T15:54:40Z</time>
      </trkpt>
      <trkpt lat="46.19184" lon="6.25082">
        <ele>470.2</ele>
        <time>2022-02-10T15:54:42Z</time>
      </trkpt>
      <trkpt lat="46.19193" lon="6.25092">
        <ele>470.2</ele>
        <time>2022-02-10T15:54:44Z</time>
      </trkpt>
      <trkpt lat="46.19201" lon="6.25106">
        <ele>470.2</ele>
        <time>2022-02-10T15:54:46Z</time>
      </trkpt>
      <trkpt lat="46.19211" lon="6.25116">
        <ele>469.6</ele>
        <time>2022-02-10T15:54:48Z</time>
      </trkpt>
      <trkpt lat="46.19224" lon="6.25119">
        <ele>469.4</ele>
        <time>2022-02-10T15:54:50Z</time>
      </trkpt>
      <trkpt lat="46.19231" lon="6.25118">
        <ele>469.2</ele>
        <time>2022-02-10T15:54:51Z</time>
      </trkpt>
      <trkpt lat="46.19237" lon="6.25117">
        <ele>469</ele>
        <time>2022-02-10T15:54:52Z</time>
      </trkpt>
      <trkpt lat="46.19261" lon="6.25114">
        <ele>468.2</ele>
        <time>2022-02-10T15:54:56Z</time>
      </trkpt>
      <trkpt lat="46.19275" lon="6.25112">
        <ele>467.6</ele>
        <time>2022-02-10T15:55:00Z</time>
      </trkpt>
      <trkpt lat="46.19277" lon="6.25111">
        <ele>467.4</ele>
        <time>2022-02-10T15:55:01Z</time>
      </trkpt>
      <trkpt lat="46.19278" lon="6.25109">
        <ele>467.2</ele>
        <time>2022-02-10T15:55:02Z</time>
      </trkpt>
      <trkpt lat="46.19278" lon="6.25105">
        <ele>466.8</ele>
        <time>2022-02-10T15:55:03Z</time>
      </trkpt>
      <trkpt lat="46.19278" lon="6.25099">
        <ele>466.4</ele>
        <time>2022-02-10T15:55:07Z</time>
      </trkpt>
      <trkpt lat="46.19277" lon="6.251">
        <ele>466.4</ele>
        <time>2022-02-10T15:55:17Z</time>
      </trkpt>
      <trkpt lat="46.19277" lon="6.251">
        <ele>466.4</ele>
        <time>2022-02-10T15:55:20Z</time>
      </trkpt>
      <trkpt lat="46.19278" lon="6.25096">
        <ele>466.6</ele>
        <time>2022-02-10T15:55:26Z</time>
      </trkpt>
      <trkpt lat="46.19278" lon="6.25083">
        <ele>466.6</ele>
        <time>2022-02-10T15:55:31Z</time>
      </trkpt>
      <trkpt lat="46.1928" lon="6.25074">
        <ele>466.6</ele>
        <time>2022-02-10T15:55:33Z</time>
      </trkpt>
      <trkpt lat="46.19281" lon="6.25055">
        <ele>466.4</ele>
        <time>2022-02-10T15:55:37Z</time>
      </trkpt>
      <trkpt lat="46.19285" lon="6.25044">
        <ele>466.4</ele>
        <time>2022-02-10T15:55:39Z</time>
      </trkpt>
      <trkpt lat="46.1929" lon="6.25029">
        <ele>465.8</ele>
        <time>2022-02-10T15:55:42Z</time>
      </trkpt>
      <trkpt lat="46.19293" lon="6.25021">
        <ele>465.6</ele>
        <time>2022-02-10T15:55:44Z</time>
      </trkpt>
      <trkpt lat="46.19294" lon="6.25018">
        <ele>465.2</ele>
        <time>2022-02-10T15:55:46Z</time>
      </trkpt>
      <trkpt lat="46.19294" lon="6.25017">
        <ele>464.6</ele>
        <time>2022-02-10T15:55:55Z</time>
      </trkpt>
      <trkpt lat="46.19292" lon="6.25016">
        <ele>464.6</ele>
        <time>2022-02-10T15:56:09Z</time>
      </trkpt>
      <trkpt lat="46.19291" lon="6.25015">
        <ele>464.6</ele>
        <time>2022-02-10T15:56:19Z</time>
      </trkpt>
    </trkseg>
  </trk>
</gpx>